<?xml version="1.0" encoding="UTF-8" standalone="no" ?>
<gpx xmlns="http://www.topografix.com/GPX/1/1" xmlns:xsi="http://www.w3.org/2001/XMLSchema-instance" xsi:schemaLocation="http://www.topografix.com/GPX/1/1 http://www.topografix.com/GPX/1/1/gpx.xsd" version="1.1" creator="VisuGPX - https://www.visugpx.com">
  <metadata>
    <name>Champagnat Cyclisme sur route</name>
  </metadata>
  <trk>
    <name><![CDATA[Champagnat Cyclisme sur route_1]]></name>
    <trkseg>
      <trkpt lat="46.4826" lon="5.36827">
        <ele>264.8</ele>
        <time>2022-01-29T12:03:18Z</time>
      </trkpt>
      <trkpt lat="46.4825" lon="5.36818">
        <ele>264.2</ele>
        <time>2022-01-29T12:03:19Z</time>
      </trkpt>
      <trkpt lat="46.4824" lon="5.3681">
        <ele>262.8</ele>
        <time>2022-01-29T12:03:20Z</time>
      </trkpt>
      <trkpt lat="46.48229" lon="5.36801">
        <ele>262.4</ele>
        <time>2022-01-29T12:03:21Z</time>
      </trkpt>
      <trkpt lat="46.48219" lon="5.36793">
        <ele>261.2</ele>
        <time>2022-01-29T12:03:22Z</time>
      </trkpt>
      <trkpt lat="46.48199" lon="5.36776">
        <ele>259.8</ele>
        <time>2022-01-29T12:03:24Z</time>
      </trkpt>
      <trkpt lat="46.48179" lon="5.36759">
        <ele>258.4</ele>
        <time>2022-01-29T12:03:26Z</time>
      </trkpt>
      <trkpt lat="46.4816" lon="5.36743">
        <ele>257.2</ele>
        <time>2022-01-29T12:03:28Z</time>
      </trkpt>
      <trkpt lat="46.48151" lon="5.36736">
        <ele>256</ele>
        <time>2022-01-29T12:03:29Z</time>
      </trkpt>
      <trkpt lat="46.48134" lon="5.36723">
        <ele>254.8</ele>
        <time>2022-01-29T12:03:31Z</time>
      </trkpt>
      <trkpt lat="46.48127" lon="5.36717">
        <ele>254</ele>
        <time>2022-01-29T12:03:32Z</time>
      </trkpt>
      <trkpt lat="46.48121" lon="5.36712">
        <ele>253.6</ele>
        <time>2022-01-29T12:03:33Z</time>
      </trkpt>
      <trkpt lat="46.48115" lon="5.36707">
        <ele>252.6</ele>
        <time>2022-01-29T12:03:34Z</time>
      </trkpt>
      <trkpt lat="46.48111" lon="5.36701">
        <ele>251.8</ele>
        <time>2022-01-29T12:03:35Z</time>
      </trkpt>
      <trkpt lat="46.48109" lon="5.36696">
        <ele>251</ele>
        <time>2022-01-29T12:03:36Z</time>
      </trkpt>
      <trkpt lat="46.4811" lon="5.3669">
        <ele>250.6</ele>
        <time>2022-01-29T12:03:37Z</time>
      </trkpt>
      <trkpt lat="46.48112" lon="5.36684">
        <ele>250</ele>
        <time>2022-01-29T12:03:38Z</time>
      </trkpt>
      <trkpt lat="46.48116" lon="5.36678">
        <ele>249.4</ele>
        <time>2022-01-29T12:03:39Z</time>
      </trkpt>
      <trkpt lat="46.4812" lon="5.36672">
        <ele>249.2</ele>
        <time>2022-01-29T12:03:40Z</time>
      </trkpt>
      <trkpt lat="46.48125" lon="5.36666">
        <ele>248.4</ele>
        <time>2022-01-29T12:03:41Z</time>
      </trkpt>
      <trkpt lat="46.48137" lon="5.36653">
        <ele>247.6</ele>
        <time>2022-01-29T12:03:43Z</time>
      </trkpt>
      <trkpt lat="46.48143" lon="5.36648">
        <ele>247.4</ele>
        <time>2022-01-29T12:03:44Z</time>
      </trkpt>
      <trkpt lat="46.4815" lon="5.36643">
        <ele>247</ele>
        <time>2022-01-29T12:03:45Z</time>
      </trkpt>
      <trkpt lat="46.48158" lon="5.36636">
        <ele>246.6</ele>
        <time>2022-01-29T12:03:46Z</time>
      </trkpt>
      <trkpt lat="46.48181" lon="5.36619">
        <ele>246</ele>
        <time>2022-01-29T12:03:49Z</time>
      </trkpt>
      <trkpt lat="46.48188" lon="5.36614">
        <ele>246</ele>
        <time>2022-01-29T12:03:50Z</time>
      </trkpt>
      <trkpt lat="46.48195" lon="5.3661">
        <ele>246</ele>
        <time>2022-01-29T12:03:51Z</time>
      </trkpt>
      <trkpt lat="46.48203" lon="5.36609">
        <ele>245.8</ele>
        <time>2022-01-29T12:03:52Z</time>
      </trkpt>
      <trkpt lat="46.4821" lon="5.36604">
        <ele>245.8</ele>
        <time>2022-01-29T12:03:53Z</time>
      </trkpt>
      <trkpt lat="46.4822" lon="5.3659">
        <ele>245.6</ele>
        <time>2022-01-29T12:03:55Z</time>
      </trkpt>
      <trkpt lat="46.4823" lon="5.36563">
        <ele>245.2</ele>
        <time>2022-01-29T12:03:58Z</time>
      </trkpt>
      <trkpt lat="46.48234" lon="5.36555">
        <ele>245.2</ele>
        <time>2022-01-29T12:03:59Z</time>
      </trkpt>
      <trkpt lat="46.48247" lon="5.36542">
        <ele>244.8</ele>
        <time>2022-01-29T12:04:01Z</time>
      </trkpt>
      <trkpt lat="46.48283" lon="5.36502">
        <ele>244</ele>
        <time>2022-01-29T12:04:07Z</time>
      </trkpt>
      <trkpt lat="46.48289" lon="5.36495">
        <ele>243.6</ele>
        <time>2022-01-29T12:04:08Z</time>
      </trkpt>
      <trkpt lat="46.48334" lon="5.36446">
        <ele>242.4</ele>
        <time>2022-01-29T12:04:15Z</time>
      </trkpt>
      <trkpt lat="46.48347" lon="5.36431">
        <ele>242</ele>
        <time>2022-01-29T12:04:17Z</time>
      </trkpt>
      <trkpt lat="46.48367" lon="5.36409">
        <ele>241.2</ele>
        <time>2022-01-29T12:04:20Z</time>
      </trkpt>
      <trkpt lat="46.48393" lon="5.3638">
        <ele>240</ele>
        <time>2022-01-29T12:04:24Z</time>
      </trkpt>
      <trkpt lat="46.48406" lon="5.36368">
        <ele>239.6</ele>
        <time>2022-01-29T12:04:26Z</time>
      </trkpt>
      <trkpt lat="46.48413" lon="5.36363">
        <ele>239.6</ele>
        <time>2022-01-29T12:04:27Z</time>
      </trkpt>
      <trkpt lat="46.48429" lon="5.36355">
        <ele>239.2</ele>
        <time>2022-01-29T12:04:29Z</time>
      </trkpt>
      <trkpt lat="46.48435" lon="5.36353">
        <ele>239</ele>
        <time>2022-01-29T12:04:30Z</time>
      </trkpt>
      <trkpt lat="46.48489" lon="5.36342">
        <ele>238.2</ele>
        <time>2022-01-29T12:04:37Z</time>
      </trkpt>
      <trkpt lat="46.48509" lon="5.36339">
        <ele>238</ele>
        <time>2022-01-29T12:04:40Z</time>
      </trkpt>
      <trkpt lat="46.48559" lon="5.36331">
        <ele>237.8</ele>
        <time>2022-01-29T12:04:47Z</time>
      </trkpt>
      <trkpt lat="46.48581" lon="5.36328">
        <ele>237.6</ele>
        <time>2022-01-29T12:04:50Z</time>
      </trkpt>
      <trkpt lat="46.48605" lon="5.36324">
        <ele>237</ele>
        <time>2022-01-29T12:04:53Z</time>
      </trkpt>
      <trkpt lat="46.48618" lon="5.36316">
        <ele>236.2</ele>
        <time>2022-01-29T12:04:55Z</time>
      </trkpt>
      <trkpt lat="46.48624" lon="5.3631">
        <ele>235.6</ele>
        <time>2022-01-29T12:04:56Z</time>
      </trkpt>
      <trkpt lat="46.48629" lon="5.36302">
        <ele>235.4</ele>
        <time>2022-01-29T12:04:57Z</time>
      </trkpt>
      <trkpt lat="46.48632" lon="5.36292">
        <ele>235</ele>
        <time>2022-01-29T12:04:58Z</time>
      </trkpt>
      <trkpt lat="46.48635" lon="5.36281">
        <ele>234.8</ele>
        <time>2022-01-29T12:04:59Z</time>
      </trkpt>
      <trkpt lat="46.48637" lon="5.36269">
        <ele>234.2</ele>
        <time>2022-01-29T12:05:00Z</time>
      </trkpt>
      <trkpt lat="46.4864" lon="5.36245">
        <ele>233.4</ele>
        <time>2022-01-29T12:05:02Z</time>
      </trkpt>
      <trkpt lat="46.48641" lon="5.36233">
        <ele>232.8</ele>
        <time>2022-01-29T12:05:03Z</time>
      </trkpt>
      <trkpt lat="46.48645" lon="5.36183">
        <ele>231.6</ele>
        <time>2022-01-29T12:05:07Z</time>
      </trkpt>
      <trkpt lat="46.48649" lon="5.36138">
        <ele>230.6</ele>
        <time>2022-01-29T12:05:11Z</time>
      </trkpt>
      <trkpt lat="46.48651" lon="5.36126">
        <ele>230.4</ele>
        <time>2022-01-29T12:05:12Z</time>
      </trkpt>
      <trkpt lat="46.48665" lon="5.36063">
        <ele>230</ele>
        <time>2022-01-29T12:05:18Z</time>
      </trkpt>
      <trkpt lat="46.48677" lon="5.36009">
        <ele>230.4</ele>
        <time>2022-01-29T12:05:24Z</time>
      </trkpt>
      <trkpt lat="46.48682" lon="5.3597">
        <ele>231.4</ele>
        <time>2022-01-29T12:05:29Z</time>
      </trkpt>
      <trkpt lat="46.48683" lon="5.35961">
        <ele>231.6</ele>
        <time>2022-01-29T12:05:30Z</time>
      </trkpt>
      <trkpt lat="46.48696" lon="5.35897">
        <ele>232</ele>
        <time>2022-01-29T12:05:37Z</time>
      </trkpt>
      <trkpt lat="46.48702" lon="5.35879">
        <ele>231.8</ele>
        <time>2022-01-29T12:05:39Z</time>
      </trkpt>
      <trkpt lat="46.48721" lon="5.35835">
        <ele>231.2</ele>
        <time>2022-01-29T12:05:44Z</time>
      </trkpt>
      <trkpt lat="46.48728" lon="5.35817">
        <ele>230.4</ele>
        <time>2022-01-29T12:05:46Z</time>
      </trkpt>
      <trkpt lat="46.48744" lon="5.35782">
        <ele>230</ele>
        <time>2022-01-29T12:05:50Z</time>
      </trkpt>
      <trkpt lat="46.48755" lon="5.35757">
        <ele>229.2</ele>
        <time>2022-01-29T12:05:53Z</time>
      </trkpt>
      <trkpt lat="46.48769" lon="5.35724">
        <ele>228.8</ele>
        <time>2022-01-29T12:05:57Z</time>
      </trkpt>
      <trkpt lat="46.48801" lon="5.35651">
        <ele>228.4</ele>
        <time>2022-01-29T12:06:06Z</time>
      </trkpt>
      <trkpt lat="46.48815" lon="5.3562">
        <ele>228.4</ele>
        <time>2022-01-29T12:06:10Z</time>
      </trkpt>
      <trkpt lat="46.48828" lon="5.3559">
        <ele>228.4</ele>
        <time>2022-01-29T12:06:14Z</time>
      </trkpt>
      <trkpt lat="46.48845" lon="5.35555">
        <ele>228.8</ele>
        <time>2022-01-29T12:06:19Z</time>
      </trkpt>
      <trkpt lat="46.48875" lon="5.35484">
        <ele>229.2</ele>
        <time>2022-01-29T12:06:28Z</time>
      </trkpt>
      <trkpt lat="46.48879" lon="5.35476">
        <ele>229.2</ele>
        <time>2022-01-29T12:06:29Z</time>
      </trkpt>
      <trkpt lat="46.48908" lon="5.3541">
        <ele>228.6</ele>
        <time>2022-01-29T12:06:37Z</time>
      </trkpt>
      <trkpt lat="46.48912" lon="5.35402">
        <ele>228.6</ele>
        <time>2022-01-29T12:06:38Z</time>
      </trkpt>
      <trkpt lat="46.48931" lon="5.35358">
        <ele>228.2</ele>
        <time>2022-01-29T12:06:43Z</time>
      </trkpt>
      <trkpt lat="46.48935" lon="5.3535">
        <ele>228.2</ele>
        <time>2022-01-29T12:06:44Z</time>
      </trkpt>
      <trkpt lat="46.4895" lon="5.35315">
        <ele>227.8</ele>
        <time>2022-01-29T12:06:48Z</time>
      </trkpt>
      <trkpt lat="46.48973" lon="5.35262">
        <ele>227.8</ele>
        <time>2022-01-29T12:06:55Z</time>
      </trkpt>
      <trkpt lat="46.48997" lon="5.35206">
        <ele>228.2</ele>
        <time>2022-01-29T12:07:03Z</time>
      </trkpt>
      <trkpt lat="46.4902" lon="5.35153">
        <ele>229</ele>
        <time>2022-01-29T12:07:11Z</time>
      </trkpt>
      <trkpt lat="46.49025" lon="5.3514">
        <ele>229.2</ele>
        <time>2022-01-29T12:07:13Z</time>
      </trkpt>
      <trkpt lat="46.49036" lon="5.35119">
        <ele>229.6</ele>
        <time>2022-01-29T12:07:16Z</time>
      </trkpt>
      <trkpt lat="46.49045" lon="5.35109">
        <ele>229.8</ele>
        <time>2022-01-29T12:07:18Z</time>
      </trkpt>
      <trkpt lat="46.49071" lon="5.35085">
        <ele>230</ele>
        <time>2022-01-29T12:07:23Z</time>
      </trkpt>
      <trkpt lat="46.49081" lon="5.35077">
        <ele>229.8</ele>
        <time>2022-01-29T12:07:25Z</time>
      </trkpt>
      <trkpt lat="46.49121" lon="5.35043">
        <ele>229.4</ele>
        <time>2022-01-29T12:07:32Z</time>
      </trkpt>
      <trkpt lat="46.49166" lon="5.35005">
        <ele>228.4</ele>
        <time>2022-01-29T12:07:40Z</time>
      </trkpt>
      <trkpt lat="46.49177" lon="5.34993">
        <ele>228.2</ele>
        <time>2022-01-29T12:07:42Z</time>
      </trkpt>
      <trkpt lat="46.49202" lon="5.34961">
        <ele>227.6</ele>
        <time>2022-01-29T12:07:47Z</time>
      </trkpt>
      <trkpt lat="46.49208" lon="5.34954">
        <ele>227.4</ele>
        <time>2022-01-29T12:07:48Z</time>
      </trkpt>
      <trkpt lat="46.49222" lon="5.34932">
        <ele>227.2</ele>
        <time>2022-01-29T12:07:51Z</time>
      </trkpt>
      <trkpt lat="46.49251" lon="5.34884">
        <ele>227.6</ele>
        <time>2022-01-29T12:07:58Z</time>
      </trkpt>
      <trkpt lat="46.49278" lon="5.34851">
        <ele>227.4</ele>
        <time>2022-01-29T12:08:04Z</time>
      </trkpt>
      <trkpt lat="46.49283" lon="5.34847">
        <ele>227.4</ele>
        <time>2022-01-29T12:08:05Z</time>
      </trkpt>
      <trkpt lat="46.49289" lon="5.34845">
        <ele>227.2</ele>
        <time>2022-01-29T12:08:06Z</time>
      </trkpt>
      <trkpt lat="46.49301" lon="5.3484">
        <ele>227</ele>
        <time>2022-01-29T12:08:08Z</time>
      </trkpt>
      <trkpt lat="46.49312" lon="5.34837">
        <ele>226.8</ele>
        <time>2022-01-29T12:08:10Z</time>
      </trkpt>
      <trkpt lat="46.49319" lon="5.34836">
        <ele>226.8</ele>
        <time>2022-01-29T12:08:11Z</time>
      </trkpt>
      <trkpt lat="46.49369" lon="5.34828">
        <ele>227</ele>
        <time>2022-01-29T12:08:19Z</time>
      </trkpt>
      <trkpt lat="46.4938" lon="5.34824">
        <ele>227.4</ele>
        <time>2022-01-29T12:08:21Z</time>
      </trkpt>
      <trkpt lat="46.49399" lon="5.34814">
        <ele>227.6</ele>
        <time>2022-01-29T12:08:24Z</time>
      </trkpt>
      <trkpt lat="46.49405" lon="5.34811">
        <ele>227.8</ele>
        <time>2022-01-29T12:08:25Z</time>
      </trkpt>
      <trkpt lat="46.49416" lon="5.34803">
        <ele>227.8</ele>
        <time>2022-01-29T12:08:27Z</time>
      </trkpt>
      <trkpt lat="46.49427" lon="5.34792">
        <ele>227.8</ele>
        <time>2022-01-29T12:08:29Z</time>
      </trkpt>
      <trkpt lat="46.49461" lon="5.34758">
        <ele>226.8</ele>
        <time>2022-01-29T12:08:35Z</time>
      </trkpt>
      <trkpt lat="46.4948" lon="5.34735">
        <ele>225.8</ele>
        <time>2022-01-29T12:08:38Z</time>
      </trkpt>
      <trkpt lat="46.49494" lon="5.3472">
        <ele>225</ele>
        <time>2022-01-29T12:08:40Z</time>
      </trkpt>
      <trkpt lat="46.49508" lon="5.34706">
        <ele>224.2</ele>
        <time>2022-01-29T12:08:42Z</time>
      </trkpt>
      <trkpt lat="46.49529" lon="5.34681">
        <ele>222.8</ele>
        <time>2022-01-29T12:08:45Z</time>
      </trkpt>
      <trkpt lat="46.49545" lon="5.34663">
        <ele>221.8</ele>
        <time>2022-01-29T12:08:47Z</time>
      </trkpt>
      <trkpt lat="46.49565" lon="5.34639">
        <ele>220.6</ele>
        <time>2022-01-29T12:08:50Z</time>
      </trkpt>
      <trkpt lat="46.4958" lon="5.34619">
        <ele>219.2</ele>
        <time>2022-01-29T12:08:52Z</time>
      </trkpt>
      <trkpt lat="46.49593" lon="5.34602">
        <ele>218.2</ele>
        <time>2022-01-29T12:08:54Z</time>
      </trkpt>
      <trkpt lat="46.49599" lon="5.34592">
        <ele>217.8</ele>
        <time>2022-01-29T12:08:55Z</time>
      </trkpt>
      <trkpt lat="46.49615" lon="5.34568">
        <ele>216.8</ele>
        <time>2022-01-29T12:08:58Z</time>
      </trkpt>
      <trkpt lat="46.49621" lon="5.34561">
        <ele>216.6</ele>
        <time>2022-01-29T12:08:59Z</time>
      </trkpt>
      <trkpt lat="46.49636" lon="5.34547">
        <ele>215.4</ele>
        <time>2022-01-29T12:09:02Z</time>
      </trkpt>
      <trkpt lat="46.49641" lon="5.34544">
        <ele>215.4</ele>
        <time>2022-01-29T12:09:03Z</time>
      </trkpt>
      <trkpt lat="46.49648" lon="5.34538">
        <ele>215</ele>
        <time>2022-01-29T12:09:05Z</time>
      </trkpt>
      <trkpt lat="46.49653" lon="5.34526">
        <ele>215.2</ele>
        <time>2022-01-29T12:09:07Z</time>
      </trkpt>
      <trkpt lat="46.49661" lon="5.34497">
        <ele>215.2</ele>
        <time>2022-01-29T12:09:11Z</time>
      </trkpt>
      <trkpt lat="46.49665" lon="5.34483">
        <ele>215.2</ele>
        <time>2022-01-29T12:09:13Z</time>
      </trkpt>
      <trkpt lat="46.49683" lon="5.34418">
        <ele>216.4</ele>
        <time>2022-01-29T12:09:22Z</time>
      </trkpt>
      <trkpt lat="46.49691" lon="5.34386">
        <ele>217.2</ele>
        <time>2022-01-29T12:09:27Z</time>
      </trkpt>
      <trkpt lat="46.49692" lon="5.3438">
        <ele>217.4</ele>
        <time>2022-01-29T12:09:28Z</time>
      </trkpt>
      <trkpt lat="46.49693" lon="5.34373">
        <ele>217.6</ele>
        <time>2022-01-29T12:09:29Z</time>
      </trkpt>
      <trkpt lat="46.49696" lon="5.3436">
        <ele>218</ele>
        <time>2022-01-29T12:09:31Z</time>
      </trkpt>
      <trkpt lat="46.497" lon="5.34347">
        <ele>218.6</ele>
        <time>2022-01-29T12:09:33Z</time>
      </trkpt>
      <trkpt lat="46.49702" lon="5.34341">
        <ele>218.8</ele>
        <time>2022-01-29T12:09:34Z</time>
      </trkpt>
      <trkpt lat="46.49718" lon="5.34301">
        <ele>219.8</ele>
        <time>2022-01-29T12:09:40Z</time>
      </trkpt>
      <trkpt lat="46.49722" lon="5.34294">
        <ele>220</ele>
        <time>2022-01-29T12:09:41Z</time>
      </trkpt>
      <trkpt lat="46.49725" lon="5.34287">
        <ele>220</ele>
        <time>2022-01-29T12:09:42Z</time>
      </trkpt>
      <trkpt lat="46.49737" lon="5.34267">
        <ele>220.2</ele>
        <time>2022-01-29T12:09:45Z</time>
      </trkpt>
      <trkpt lat="46.49769" lon="5.34215">
        <ele>220.6</ele>
        <time>2022-01-29T12:09:53Z</time>
      </trkpt>
      <trkpt lat="46.49796" lon="5.34174">
        <ele>220.6</ele>
        <time>2022-01-29T12:10:00Z</time>
      </trkpt>
      <trkpt lat="46.49814" lon="5.34144">
        <ele>221</ele>
        <time>2022-01-29T12:10:05Z</time>
      </trkpt>
      <trkpt lat="46.49837" lon="5.34107">
        <ele>221.2</ele>
        <time>2022-01-29T12:10:11Z</time>
      </trkpt>
      <trkpt lat="46.49869" lon="5.34061">
        <ele>221.2</ele>
        <time>2022-01-29T12:10:18Z</time>
      </trkpt>
      <trkpt lat="46.49902" lon="5.34022">
        <ele>221</ele>
        <time>2022-01-29T12:10:25Z</time>
      </trkpt>
      <trkpt lat="46.49927" lon="5.33994">
        <ele>221.4</ele>
        <time>2022-01-29T12:10:31Z</time>
      </trkpt>
      <trkpt lat="46.49931" lon="5.3399">
        <ele>221.6</ele>
        <time>2022-01-29T12:10:32Z</time>
      </trkpt>
      <trkpt lat="46.49939" lon="5.33981">
        <ele>222</ele>
        <time>2022-01-29T12:10:34Z</time>
      </trkpt>
      <trkpt lat="46.49947" lon="5.33973">
        <ele>222.2</ele>
        <time>2022-01-29T12:10:36Z</time>
      </trkpt>
      <trkpt lat="46.49951" lon="5.3397">
        <ele>222.4</ele>
        <time>2022-01-29T12:10:37Z</time>
      </trkpt>
      <trkpt lat="46.49955" lon="5.33966">
        <ele>222.6</ele>
        <time>2022-01-29T12:10:38Z</time>
      </trkpt>
      <trkpt lat="46.49967" lon="5.33952">
        <ele>223.2</ele>
        <time>2022-01-29T12:10:41Z</time>
      </trkpt>
      <trkpt lat="46.49975" lon="5.33943">
        <ele>223.4</ele>
        <time>2022-01-29T12:10:43Z</time>
      </trkpt>
      <trkpt lat="46.50004" lon="5.33911">
        <ele>224.2</ele>
        <time>2022-01-29T12:10:49Z</time>
      </trkpt>
      <trkpt lat="46.50009" lon="5.33906">
        <ele>224.2</ele>
        <time>2022-01-29T12:10:50Z</time>
      </trkpt>
      <trkpt lat="46.50052" lon="5.33857">
        <ele>224.2</ele>
        <time>2022-01-29T12:10:58Z</time>
      </trkpt>
      <trkpt lat="46.50094" lon="5.3381">
        <ele>223.4</ele>
        <time>2022-01-29T12:11:05Z</time>
      </trkpt>
      <trkpt lat="46.50105" lon="5.33798">
        <ele>223</ele>
        <time>2022-01-29T12:11:07Z</time>
      </trkpt>
      <trkpt lat="46.50127" lon="5.33774">
        <ele>221.8</ele>
        <time>2022-01-29T12:11:11Z</time>
      </trkpt>
      <trkpt lat="46.50138" lon="5.33762">
        <ele>221.6</ele>
        <time>2022-01-29T12:11:13Z</time>
      </trkpt>
      <trkpt lat="46.50168" lon="5.33731">
        <ele>221.4</ele>
        <time>2022-01-29T12:11:19Z</time>
      </trkpt>
      <trkpt lat="46.50202" lon="5.33697">
        <ele>221.6</ele>
        <time>2022-01-29T12:11:26Z</time>
      </trkpt>
      <trkpt lat="46.50238" lon="5.33658">
        <ele>221.8</ele>
        <time>2022-01-29T12:11:33Z</time>
      </trkpt>
      <trkpt lat="46.50282" lon="5.3361">
        <ele>221.8</ele>
        <time>2022-01-29T12:11:41Z</time>
      </trkpt>
      <trkpt lat="46.50325" lon="5.33563">
        <ele>221.2</ele>
        <time>2022-01-29T12:11:49Z</time>
      </trkpt>
      <trkpt lat="46.50341" lon="5.33547">
        <ele>221</ele>
        <time>2022-01-29T12:11:52Z</time>
      </trkpt>
      <trkpt lat="46.50363" lon="5.33524">
        <ele>220.6</ele>
        <time>2022-01-29T12:11:56Z</time>
      </trkpt>
      <trkpt lat="46.50385" lon="5.33501">
        <ele>220.2</ele>
        <time>2022-01-29T12:12:00Z</time>
      </trkpt>
      <trkpt lat="46.50431" lon="5.33449">
        <ele>219.8</ele>
        <time>2022-01-29T12:12:08Z</time>
      </trkpt>
      <trkpt lat="46.50436" lon="5.33441">
        <ele>219.8</ele>
        <time>2022-01-29T12:12:09Z</time>
      </trkpt>
      <trkpt lat="46.50446" lon="5.33426">
        <ele>219.4</ele>
        <time>2022-01-29T12:12:11Z</time>
      </trkpt>
      <trkpt lat="46.50458" lon="5.33397">
        <ele>218.4</ele>
        <time>2022-01-29T12:12:14Z</time>
      </trkpt>
      <trkpt lat="46.50461" lon="5.33387">
        <ele>218.2</ele>
        <time>2022-01-29T12:12:15Z</time>
      </trkpt>
      <trkpt lat="46.50463" lon="5.33379">
        <ele>218.2</ele>
        <time>2022-01-29T12:12:16Z</time>
      </trkpt>
      <trkpt lat="46.50466" lon="5.33355">
        <ele>218</ele>
        <time>2022-01-29T12:12:18Z</time>
      </trkpt>
      <trkpt lat="46.50466" lon="5.33345">
        <ele>218</ele>
        <time>2022-01-29T12:12:19Z</time>
      </trkpt>
      <trkpt lat="46.50468" lon="5.33298">
        <ele>217.8</ele>
        <time>2022-01-29T12:12:24Z</time>
      </trkpt>
      <trkpt lat="46.50467" lon="5.3327">
        <ele>217.8</ele>
        <time>2022-01-29T12:12:28Z</time>
      </trkpt>
      <trkpt lat="46.50467" lon="5.33259">
        <ele>217.8</ele>
        <time>2022-01-29T12:12:29Z</time>
      </trkpt>
      <trkpt lat="46.50468" lon="5.33249">
        <ele>217.8</ele>
        <time>2022-01-29T12:12:30Z</time>
      </trkpt>
      <trkpt lat="46.50468" lon="5.33221">
        <ele>217.8</ele>
        <time>2022-01-29T12:12:33Z</time>
      </trkpt>
      <trkpt lat="46.50469" lon="5.33196">
        <ele>217.8</ele>
        <time>2022-01-29T12:12:36Z</time>
      </trkpt>
      <trkpt lat="46.50469" lon="5.33175">
        <ele>217.8</ele>
        <time>2022-01-29T12:12:38Z</time>
      </trkpt>
      <trkpt lat="46.50469" lon="5.33165">
        <ele>217.8</ele>
        <time>2022-01-29T12:12:39Z</time>
      </trkpt>
      <trkpt lat="46.50468" lon="5.33132">
        <ele>217.8</ele>
        <time>2022-01-29T12:12:42Z</time>
      </trkpt>
      <trkpt lat="46.50469" lon="5.33099">
        <ele>217</ele>
        <time>2022-01-29T12:12:45Z</time>
      </trkpt>
      <trkpt lat="46.5047" lon="5.33074">
        <ele>216.4</ele>
        <time>2022-01-29T12:12:47Z</time>
      </trkpt>
      <trkpt lat="46.50469" lon="5.33049">
        <ele>216</ele>
        <time>2022-01-29T12:12:49Z</time>
      </trkpt>
      <trkpt lat="46.50471" lon="5.33014">
        <ele>215</ele>
        <time>2022-01-29T12:12:52Z</time>
      </trkpt>
      <trkpt lat="46.50472" lon="5.33002">
        <ele>214.8</ele>
        <time>2022-01-29T12:12:53Z</time>
      </trkpt>
      <trkpt lat="46.50473" lon="5.32976">
        <ele>214</ele>
        <time>2022-01-29T12:12:55Z</time>
      </trkpt>
      <trkpt lat="46.50473" lon="5.32949">
        <ele>212.8</ele>
        <time>2022-01-29T12:12:57Z</time>
      </trkpt>
      <trkpt lat="46.50474" lon="5.32908">
        <ele>211.6</ele>
        <time>2022-01-29T12:13:00Z</time>
      </trkpt>
      <trkpt lat="46.50474" lon="5.32894">
        <ele>211</ele>
        <time>2022-01-29T12:13:01Z</time>
      </trkpt>
      <trkpt lat="46.50474" lon="5.32865">
        <ele>210.2</ele>
        <time>2022-01-29T12:13:03Z</time>
      </trkpt>
      <trkpt lat="46.50475" lon="5.32837">
        <ele>209.2</ele>
        <time>2022-01-29T12:13:05Z</time>
      </trkpt>
      <trkpt lat="46.50475" lon="5.32811">
        <ele>208</ele>
        <time>2022-01-29T12:13:07Z</time>
      </trkpt>
      <trkpt lat="46.50476" lon="5.32773">
        <ele>206.8</ele>
        <time>2022-01-29T12:13:10Z</time>
      </trkpt>
      <trkpt lat="46.50477" lon="5.32724">
        <ele>205.8</ele>
        <time>2022-01-29T12:13:14Z</time>
      </trkpt>
      <trkpt lat="46.50477" lon="5.32689">
        <ele>205.4</ele>
        <time>2022-01-29T12:13:17Z</time>
      </trkpt>
      <trkpt lat="46.50478" lon="5.3262">
        <ele>204.6</ele>
        <time>2022-01-29T12:13:23Z</time>
      </trkpt>
      <trkpt lat="46.50477" lon="5.32586">
        <ele>204.2</ele>
        <time>2022-01-29T12:13:26Z</time>
      </trkpt>
      <trkpt lat="46.50474" lon="5.32528">
        <ele>203.6</ele>
        <time>2022-01-29T12:13:31Z</time>
      </trkpt>
      <trkpt lat="46.50472" lon="5.32483">
        <ele>203.2</ele>
        <time>2022-01-29T12:13:35Z</time>
      </trkpt>
      <trkpt lat="46.50463" lon="5.32417">
        <ele>202.8</ele>
        <time>2022-01-29T12:13:41Z</time>
      </trkpt>
      <trkpt lat="46.50459" lon="5.32396">
        <ele>202.4</ele>
        <time>2022-01-29T12:13:43Z</time>
      </trkpt>
      <trkpt lat="46.50442" lon="5.32318">
        <ele>201.8</ele>
        <time>2022-01-29T12:13:51Z</time>
      </trkpt>
      <trkpt lat="46.5044" lon="5.32308">
        <ele>201.8</ele>
        <time>2022-01-29T12:13:52Z</time>
      </trkpt>
      <trkpt lat="46.50433" lon="5.32238">
        <ele>202</ele>
        <time>2022-01-29T12:13:59Z</time>
      </trkpt>
      <trkpt lat="46.50434" lon="5.32166">
        <ele>201.8</ele>
        <time>2022-01-29T12:14:06Z</time>
      </trkpt>
      <trkpt lat="46.50434" lon="5.32144">
        <ele>201.6</ele>
        <time>2022-01-29T12:14:08Z</time>
      </trkpt>
      <trkpt lat="46.50436" lon="5.32055">
        <ele>200.8</ele>
        <time>2022-01-29T12:14:16Z</time>
      </trkpt>
      <trkpt lat="46.50436" lon="5.32044">
        <ele>200.8</ele>
        <time>2022-01-29T12:14:17Z</time>
      </trkpt>
      <trkpt lat="46.50437" lon="5.32033">
        <ele>200.6</ele>
        <time>2022-01-29T12:14:18Z</time>
      </trkpt>
      <trkpt lat="46.50438" lon="5.31956">
        <ele>199.6</ele>
        <time>2022-01-29T12:14:25Z</time>
      </trkpt>
      <trkpt lat="46.50439" lon="5.31924">
        <ele>199.4</ele>
        <time>2022-01-29T12:14:28Z</time>
      </trkpt>
      <trkpt lat="46.50433" lon="5.31842">
        <ele>199.2</ele>
        <time>2022-01-29T12:14:36Z</time>
      </trkpt>
      <trkpt lat="46.50415" lon="5.31767">
        <ele>199</ele>
        <time>2022-01-29T12:14:44Z</time>
      </trkpt>
      <trkpt lat="46.50396" lon="5.31717">
        <ele>199</ele>
        <time>2022-01-29T12:14:50Z</time>
      </trkpt>
      <trkpt lat="46.5037" lon="5.31672">
        <ele>198.8</ele>
        <time>2022-01-29T12:14:56Z</time>
      </trkpt>
      <trkpt lat="46.50365" lon="5.31666">
        <ele>198.6</ele>
        <time>2022-01-29T12:14:57Z</time>
      </trkpt>
      <trkpt lat="46.50355" lon="5.31654">
        <ele>198.6</ele>
        <time>2022-01-29T12:14:59Z</time>
      </trkpt>
      <trkpt lat="46.50338" lon="5.3164">
        <ele>198.4</ele>
        <time>2022-01-29T12:15:02Z</time>
      </trkpt>
      <trkpt lat="46.50292" lon="5.31605">
        <ele>197.8</ele>
        <time>2022-01-29T12:15:10Z</time>
      </trkpt>
      <trkpt lat="46.50275" lon="5.31592">
        <ele>197.6</ele>
        <time>2022-01-29T12:15:13Z</time>
      </trkpt>
      <trkpt lat="46.50237" lon="5.31548">
        <ele>197.4</ele>
        <time>2022-01-29T12:15:21Z</time>
      </trkpt>
      <trkpt lat="46.50216" lon="5.3151">
        <ele>197.8</ele>
        <time>2022-01-29T12:15:27Z</time>
      </trkpt>
      <trkpt lat="46.502" lon="5.31461">
        <ele>198.6</ele>
        <time>2022-01-29T12:15:35Z</time>
      </trkpt>
      <trkpt lat="46.50198" lon="5.31455">
        <ele>198.8</ele>
        <time>2022-01-29T12:15:36Z</time>
      </trkpt>
      <trkpt lat="46.50193" lon="5.31439">
        <ele>200</ele>
        <time>2022-01-29T12:15:39Z</time>
      </trkpt>
      <trkpt lat="46.50185" lon="5.31419">
        <ele>200.8</ele>
        <time>2022-01-29T12:15:43Z</time>
      </trkpt>
      <trkpt lat="46.50183" lon="5.31414">
        <ele>201</ele>
        <time>2022-01-29T12:15:44Z</time>
      </trkpt>
      <trkpt lat="46.50177" lon="5.31394">
        <ele>202</ele>
        <time>2022-01-29T12:15:48Z</time>
      </trkpt>
      <trkpt lat="46.50173" lon="5.31382">
        <ele>202.4</ele>
        <time>2022-01-29T12:15:50Z</time>
      </trkpt>
      <trkpt lat="46.50165" lon="5.31361">
        <ele>203.2</ele>
        <time>2022-01-29T12:15:54Z</time>
      </trkpt>
      <trkpt lat="46.5016" lon="5.31346">
        <ele>203.8</ele>
        <time>2022-01-29T12:15:57Z</time>
      </trkpt>
      <trkpt lat="46.50153" lon="5.31329">
        <ele>204.2</ele>
        <time>2022-01-29T12:16:00Z</time>
      </trkpt>
      <trkpt lat="46.50148" lon="5.31317">
        <ele>204.4</ele>
        <time>2022-01-29T12:16:02Z</time>
      </trkpt>
      <trkpt lat="46.50144" lon="5.31303">
        <ele>204.8</ele>
        <time>2022-01-29T12:16:04Z</time>
      </trkpt>
      <trkpt lat="46.50136" lon="5.31276">
        <ele>205.6</ele>
        <time>2022-01-29T12:16:08Z</time>
      </trkpt>
      <trkpt lat="46.50121" lon="5.31232">
        <ele>205.6</ele>
        <time>2022-01-29T12:16:14Z</time>
      </trkpt>
      <trkpt lat="46.50102" lon="5.31177">
        <ele>204.6</ele>
        <time>2022-01-29T12:16:21Z</time>
      </trkpt>
      <trkpt lat="46.50096" lon="5.31157">
        <ele>204.4</ele>
        <time>2022-01-29T12:16:23Z</time>
      </trkpt>
      <trkpt lat="46.50078" lon="5.31104">
        <ele>203.6</ele>
        <time>2022-01-29T12:16:29Z</time>
      </trkpt>
      <trkpt lat="46.50069" lon="5.31079">
        <ele>203.4</ele>
        <time>2022-01-29T12:16:32Z</time>
      </trkpt>
      <trkpt lat="46.50062" lon="5.31058">
        <ele>203.4</ele>
        <time>2022-01-29T12:16:35Z</time>
      </trkpt>
      <trkpt lat="46.5005" lon="5.31023">
        <ele>204.8</ele>
        <time>2022-01-29T12:16:41Z</time>
      </trkpt>
      <trkpt lat="46.50044" lon="5.30998">
        <ele>206.2</ele>
        <time>2022-01-29T12:16:46Z</time>
      </trkpt>
      <trkpt lat="46.50035" lon="5.30977">
        <ele>207.2</ele>
        <time>2022-01-29T12:16:50Z</time>
      </trkpt>
      <trkpt lat="46.50031" lon="5.30966">
        <ele>207.6</ele>
        <time>2022-01-29T12:16:52Z</time>
      </trkpt>
      <trkpt lat="46.50026" lon="5.3095">
        <ele>208.4</ele>
        <time>2022-01-29T12:16:55Z</time>
      </trkpt>
      <trkpt lat="46.50015" lon="5.30926">
        <ele>209.6</ele>
        <time>2022-01-29T12:17:00Z</time>
      </trkpt>
      <trkpt lat="46.50014" lon="5.30921">
        <ele>209.8</ele>
        <time>2022-01-29T12:17:01Z</time>
      </trkpt>
      <trkpt lat="46.50006" lon="5.30902">
        <ele>210.6</ele>
        <time>2022-01-29T12:17:05Z</time>
      </trkpt>
      <trkpt lat="46.50001" lon="5.30887">
        <ele>211.4</ele>
        <time>2022-01-29T12:17:08Z</time>
      </trkpt>
      <trkpt lat="46.5" lon="5.30883">
        <ele>211.6</ele>
        <time>2022-01-29T12:17:09Z</time>
      </trkpt>
      <trkpt lat="46.49991" lon="5.30859">
        <ele>212.8</ele>
        <time>2022-01-29T12:17:14Z</time>
      </trkpt>
      <trkpt lat="46.49989" lon="5.30854">
        <ele>213.2</ele>
        <time>2022-01-29T12:17:15Z</time>
      </trkpt>
      <trkpt lat="46.49984" lon="5.3084">
        <ele>213.8</ele>
        <time>2022-01-29T12:17:18Z</time>
      </trkpt>
      <trkpt lat="46.49976" lon="5.3081">
        <ele>214.4</ele>
        <time>2022-01-29T12:17:23Z</time>
      </trkpt>
      <trkpt lat="46.49972" lon="5.30792">
        <ele>215</ele>
        <time>2022-01-29T12:17:26Z</time>
      </trkpt>
      <trkpt lat="46.49964" lon="5.30759">
        <ele>215.8</ele>
        <time>2022-01-29T12:17:32Z</time>
      </trkpt>
      <trkpt lat="46.49963" lon="5.30754">
        <ele>216</ele>
        <time>2022-01-29T12:17:33Z</time>
      </trkpt>
      <trkpt lat="46.49954" lon="5.30706">
        <ele>216.4</ele>
        <time>2022-01-29T12:17:40Z</time>
      </trkpt>
      <trkpt lat="46.49946" lon="5.30664">
        <ele>216.2</ele>
        <time>2022-01-29T12:17:45Z</time>
      </trkpt>
      <trkpt lat="46.49936" lon="5.30596">
        <ele>215.2</ele>
        <time>2022-01-29T12:17:52Z</time>
      </trkpt>
      <trkpt lat="46.49935" lon="5.30586">
        <ele>214.8</ele>
        <time>2022-01-29T12:17:53Z</time>
      </trkpt>
      <trkpt lat="46.49936" lon="5.30553">
        <ele>214</ele>
        <time>2022-01-29T12:17:56Z</time>
      </trkpt>
      <trkpt lat="46.49937" lon="5.30542">
        <ele>214</ele>
        <time>2022-01-29T12:17:57Z</time>
      </trkpt>
      <trkpt lat="46.49941" lon="5.30521">
        <ele>213.8</ele>
        <time>2022-01-29T12:17:59Z</time>
      </trkpt>
      <trkpt lat="46.49952" lon="5.30489">
        <ele>212.8</ele>
        <time>2022-01-29T12:18:02Z</time>
      </trkpt>
      <trkpt lat="46.49968" lon="5.30461">
        <ele>211.8</ele>
        <time>2022-01-29T12:18:05Z</time>
      </trkpt>
      <trkpt lat="46.49975" lon="5.30453">
        <ele>211.6</ele>
        <time>2022-01-29T12:18:06Z</time>
      </trkpt>
      <trkpt lat="46.49997" lon="5.30432">
        <ele>210.4</ele>
        <time>2022-01-29T12:18:09Z</time>
      </trkpt>
      <trkpt lat="46.50013" lon="5.3042">
        <ele>209.6</ele>
        <time>2022-01-29T12:18:11Z</time>
      </trkpt>
      <trkpt lat="46.50021" lon="5.30413">
        <ele>209.2</ele>
        <time>2022-01-29T12:18:12Z</time>
      </trkpt>
      <trkpt lat="46.5005" lon="5.30386">
        <ele>208</ele>
        <time>2022-01-29T12:18:16Z</time>
      </trkpt>
      <trkpt lat="46.50056" lon="5.30378">
        <ele>208</ele>
        <time>2022-01-29T12:18:17Z</time>
      </trkpt>
      <trkpt lat="46.50074" lon="5.30342">
        <ele>207.8</ele>
        <time>2022-01-29T12:18:21Z</time>
      </trkpt>
      <trkpt lat="46.50084" lon="5.30306">
        <ele>208.2</ele>
        <time>2022-01-29T12:18:25Z</time>
      </trkpt>
      <trkpt lat="46.50085" lon="5.30297">
        <ele>208.2</ele>
        <time>2022-01-29T12:18:26Z</time>
      </trkpt>
      <trkpt lat="46.50089" lon="5.30247">
        <ele>209.2</ele>
        <time>2022-01-29T12:18:32Z</time>
      </trkpt>
      <trkpt lat="46.50089" lon="5.3023">
        <ele>209.4</ele>
        <time>2022-01-29T12:18:34Z</time>
      </trkpt>
      <trkpt lat="46.50089" lon="5.30213">
        <ele>209.6</ele>
        <time>2022-01-29T12:18:36Z</time>
      </trkpt>
      <trkpt lat="46.50089" lon="5.30205">
        <ele>209.8</ele>
        <time>2022-01-29T12:18:37Z</time>
      </trkpt>
      <trkpt lat="46.50089" lon="5.3016">
        <ele>210.4</ele>
        <time>2022-01-29T12:18:42Z</time>
      </trkpt>
      <trkpt lat="46.5009" lon="5.30142">
        <ele>210.6</ele>
        <time>2022-01-29T12:18:44Z</time>
      </trkpt>
      <trkpt lat="46.5009" lon="5.30084">
        <ele>211</ele>
        <time>2022-01-29T12:18:51Z</time>
      </trkpt>
      <trkpt lat="46.50089" lon="5.30049">
        <ele>211.6</ele>
        <time>2022-01-29T12:18:55Z</time>
      </trkpt>
      <trkpt lat="46.50086" lon="5.29998">
        <ele>211.8</ele>
        <time>2022-01-29T12:19:01Z</time>
      </trkpt>
      <trkpt lat="46.50074" lon="5.29948">
        <ele>211.8</ele>
        <time>2022-01-29T12:19:07Z</time>
      </trkpt>
      <trkpt lat="46.50052" lon="5.29904">
        <ele>211.6</ele>
        <time>2022-01-29T12:19:13Z</time>
      </trkpt>
      <trkpt lat="46.50028" lon="5.29876">
        <ele>211.4</ele>
        <time>2022-01-29T12:19:18Z</time>
      </trkpt>
      <trkpt lat="46.50024" lon="5.29871">
        <ele>211.2</ele>
        <time>2022-01-29T12:19:19Z</time>
      </trkpt>
      <trkpt lat="46.5002" lon="5.29858">
        <ele>211</ele>
        <time>2022-01-29T12:19:21Z</time>
      </trkpt>
      <trkpt lat="46.50025" lon="5.29845">
        <ele>211</ele>
        <time>2022-01-29T12:19:23Z</time>
      </trkpt>
      <trkpt lat="46.50029" lon="5.29838">
        <ele>210.6</ele>
        <time>2022-01-29T12:19:24Z</time>
      </trkpt>
      <trkpt lat="46.50038" lon="5.29826">
        <ele>210.2</ele>
        <time>2022-01-29T12:19:26Z</time>
      </trkpt>
      <trkpt lat="46.50048" lon="5.29814">
        <ele>210</ele>
        <time>2022-01-29T12:19:28Z</time>
      </trkpt>
      <trkpt lat="46.5006" lon="5.29804">
        <ele>210</ele>
        <time>2022-01-29T12:19:30Z</time>
      </trkpt>
      <trkpt lat="46.50066" lon="5.298">
        <ele>210</ele>
        <time>2022-01-29T12:19:31Z</time>
      </trkpt>
      <trkpt lat="46.50092" lon="5.29791">
        <ele>210</ele>
        <time>2022-01-29T12:19:35Z</time>
      </trkpt>
      <trkpt lat="46.50133" lon="5.29777">
        <ele>211.2</ele>
        <time>2022-01-29T12:19:42Z</time>
      </trkpt>
      <trkpt lat="46.50139" lon="5.29776">
        <ele>211.4</ele>
        <time>2022-01-29T12:19:43Z</time>
      </trkpt>
      <trkpt lat="46.50166" lon="5.29772">
        <ele>212.6</ele>
        <time>2022-01-29T12:19:48Z</time>
      </trkpt>
      <trkpt lat="46.50177" lon="5.29772">
        <ele>213.2</ele>
        <time>2022-01-29T12:19:50Z</time>
      </trkpt>
      <trkpt lat="46.50182" lon="5.29772">
        <ele>213.8</ele>
        <time>2022-01-29T12:19:51Z</time>
      </trkpt>
      <trkpt lat="46.50188" lon="5.29772">
        <ele>214</ele>
        <time>2022-01-29T12:19:52Z</time>
      </trkpt>
      <trkpt lat="46.50205" lon="5.29773">
        <ele>214.8</ele>
        <time>2022-01-29T12:19:55Z</time>
      </trkpt>
      <trkpt lat="46.50222" lon="5.29773">
        <ele>215.6</ele>
        <time>2022-01-29T12:19:58Z</time>
      </trkpt>
      <trkpt lat="46.50244" lon="5.29771">
        <ele>215.8</ele>
        <time>2022-01-29T12:20:02Z</time>
      </trkpt>
      <trkpt lat="46.50261" lon="5.29766">
        <ele>215.8</ele>
        <time>2022-01-29T12:20:05Z</time>
      </trkpt>
      <trkpt lat="46.5031" lon="5.29747">
        <ele>216.4</ele>
        <time>2022-01-29T12:20:14Z</time>
      </trkpt>
      <trkpt lat="46.50364" lon="5.29724">
        <ele>216.8</ele>
        <time>2022-01-29T12:20:24Z</time>
      </trkpt>
      <trkpt lat="46.5037" lon="5.29721">
        <ele>217</ele>
        <time>2022-01-29T12:20:25Z</time>
      </trkpt>
      <trkpt lat="46.50403" lon="5.29702">
        <ele>217.4</ele>
        <time>2022-01-29T12:20:31Z</time>
      </trkpt>
      <trkpt lat="46.50449" lon="5.29671">
        <ele>217.2</ele>
        <time>2022-01-29T12:20:39Z</time>
      </trkpt>
      <trkpt lat="46.50501" lon="5.29635">
        <ele>217</ele>
        <time>2022-01-29T12:20:48Z</time>
      </trkpt>
      <trkpt lat="46.50507" lon="5.29632">
        <ele>217</ele>
        <time>2022-01-29T12:20:49Z</time>
      </trkpt>
      <trkpt lat="46.50558" lon="5.29593">
        <ele>217</ele>
        <time>2022-01-29T12:20:58Z</time>
      </trkpt>
      <trkpt lat="46.50602" lon="5.29557">
        <ele>216.8</ele>
        <time>2022-01-29T12:21:06Z</time>
      </trkpt>
      <trkpt lat="46.50642" lon="5.29529">
        <ele>216.6</ele>
        <time>2022-01-29T12:21:13Z</time>
      </trkpt>
      <trkpt lat="46.50648" lon="5.29527">
        <ele>216.6</ele>
        <time>2022-01-29T12:21:14Z</time>
      </trkpt>
      <trkpt lat="46.50654" lon="5.29525">
        <ele>216.6</ele>
        <time>2022-01-29T12:21:15Z</time>
      </trkpt>
      <trkpt lat="46.50667" lon="5.29525">
        <ele>216.6</ele>
        <time>2022-01-29T12:21:17Z</time>
      </trkpt>
      <trkpt lat="46.50674" lon="5.29527">
        <ele>216.6</ele>
        <time>2022-01-29T12:21:18Z</time>
      </trkpt>
      <trkpt lat="46.50695" lon="5.29536">
        <ele>216</ele>
        <time>2022-01-29T12:21:21Z</time>
      </trkpt>
      <trkpt lat="46.5071" lon="5.29543">
        <ele>215.4</ele>
        <time>2022-01-29T12:21:23Z</time>
      </trkpt>
      <trkpt lat="46.50725" lon="5.29551">
        <ele>214.8</ele>
        <time>2022-01-29T12:21:25Z</time>
      </trkpt>
      <trkpt lat="46.50758" lon="5.29563">
        <ele>214</ele>
        <time>2022-01-29T12:21:29Z</time>
      </trkpt>
      <trkpt lat="46.50766" lon="5.29565">
        <ele>214</ele>
        <time>2022-01-29T12:21:30Z</time>
      </trkpt>
      <trkpt lat="46.50803" lon="5.29568">
        <ele>212.6</ele>
        <time>2022-01-29T12:21:34Z</time>
      </trkpt>
      <trkpt lat="46.50833" lon="5.2957">
        <ele>211</ele>
        <time>2022-01-29T12:21:37Z</time>
      </trkpt>
      <trkpt lat="46.50864" lon="5.29573">
        <ele>210.2</ele>
        <time>2022-01-29T12:21:40Z</time>
      </trkpt>
      <trkpt lat="46.50884" lon="5.29573">
        <ele>208.8</ele>
        <time>2022-01-29T12:21:42Z</time>
      </trkpt>
      <trkpt lat="46.50895" lon="5.29572">
        <ele>208.2</ele>
        <time>2022-01-29T12:21:43Z</time>
      </trkpt>
      <trkpt lat="46.50906" lon="5.2957">
        <ele>207.6</ele>
        <time>2022-01-29T12:21:44Z</time>
      </trkpt>
      <trkpt lat="46.50916" lon="5.29566">
        <ele>207.4</ele>
        <time>2022-01-29T12:21:45Z</time>
      </trkpt>
      <trkpt lat="46.50936" lon="5.29552">
        <ele>206.8</ele>
        <time>2022-01-29T12:21:47Z</time>
      </trkpt>
      <trkpt lat="46.50947" lon="5.29544">
        <ele>206</ele>
        <time>2022-01-29T12:21:48Z</time>
      </trkpt>
      <trkpt lat="46.50968" lon="5.29528">
        <ele>204.6</ele>
        <time>2022-01-29T12:21:50Z</time>
      </trkpt>
      <trkpt lat="46.50989" lon="5.29511">
        <ele>203</ele>
        <time>2022-01-29T12:21:52Z</time>
      </trkpt>
      <trkpt lat="46.5101" lon="5.29494">
        <ele>201.8</ele>
        <time>2022-01-29T12:21:54Z</time>
      </trkpt>
      <trkpt lat="46.51021" lon="5.29485">
        <ele>200.6</ele>
        <time>2022-01-29T12:21:55Z</time>
      </trkpt>
      <trkpt lat="46.51042" lon="5.29469">
        <ele>199</ele>
        <time>2022-01-29T12:21:57Z</time>
      </trkpt>
      <trkpt lat="46.51064" lon="5.29455">
        <ele>197.6</ele>
        <time>2022-01-29T12:21:59Z</time>
      </trkpt>
      <trkpt lat="46.51074" lon="5.2945">
        <ele>197.4</ele>
        <time>2022-01-29T12:22:00Z</time>
      </trkpt>
      <trkpt lat="46.51096" lon="5.29441">
        <ele>196</ele>
        <time>2022-01-29T12:22:02Z</time>
      </trkpt>
      <trkpt lat="46.51126" lon="5.29432">
        <ele>194.8</ele>
        <time>2022-01-29T12:22:05Z</time>
      </trkpt>
      <trkpt lat="46.51174" lon="5.29419">
        <ele>193.6</ele>
        <time>2022-01-29T12:22:10Z</time>
      </trkpt>
      <trkpt lat="46.51202" lon="5.29411">
        <ele>193</ele>
        <time>2022-01-29T12:22:13Z</time>
      </trkpt>
      <trkpt lat="46.51239" lon="5.29403">
        <ele>192.6</ele>
        <time>2022-01-29T12:22:17Z</time>
      </trkpt>
      <trkpt lat="46.51274" lon="5.29394">
        <ele>192.2</ele>
        <time>2022-01-29T12:22:21Z</time>
      </trkpt>
      <trkpt lat="46.51314" lon="5.29371">
        <ele>191.6</ele>
        <time>2022-01-29T12:22:26Z</time>
      </trkpt>
      <trkpt lat="46.51351" lon="5.29348">
        <ele>191.8</ele>
        <time>2022-01-29T12:22:31Z</time>
      </trkpt>
      <trkpt lat="46.51358" lon="5.29342">
        <ele>191.8</ele>
        <time>2022-01-29T12:22:32Z</time>
      </trkpt>
      <trkpt lat="46.51364" lon="5.29335">
        <ele>191.8</ele>
        <time>2022-01-29T12:22:33Z</time>
      </trkpt>
      <trkpt lat="46.5137" lon="5.29328">
        <ele>191.8</ele>
        <time>2022-01-29T12:22:34Z</time>
      </trkpt>
      <trkpt lat="46.5138" lon="5.29311">
        <ele>191.8</ele>
        <time>2022-01-29T12:22:36Z</time>
      </trkpt>
      <trkpt lat="46.51413" lon="5.29253">
        <ele>191.8</ele>
        <time>2022-01-29T12:22:43Z</time>
      </trkpt>
      <trkpt lat="46.51432" lon="5.29224">
        <ele>192</ele>
        <time>2022-01-29T12:22:47Z</time>
      </trkpt>
      <trkpt lat="46.5144" lon="5.29207">
        <ele>191.8</ele>
        <time>2022-01-29T12:22:49Z</time>
      </trkpt>
      <trkpt lat="46.51443" lon="5.29198">
        <ele>191.8</ele>
        <time>2022-01-29T12:22:50Z</time>
      </trkpt>
      <trkpt lat="46.51456" lon="5.29138">
        <ele>191.8</ele>
        <time>2022-01-29T12:22:56Z</time>
      </trkpt>
      <trkpt lat="46.51471" lon="5.29052">
        <ele>191.4</ele>
        <time>2022-01-29T12:23:04Z</time>
      </trkpt>
      <trkpt lat="46.51474" lon="5.29033">
        <ele>191.2</ele>
        <time>2022-01-29T12:23:06Z</time>
      </trkpt>
      <trkpt lat="46.51484" lon="5.2898">
        <ele>190.6</ele>
        <time>2022-01-29T12:23:11Z</time>
      </trkpt>
      <trkpt lat="46.51491" lon="5.28937">
        <ele>190.4</ele>
        <time>2022-01-29T12:23:15Z</time>
      </trkpt>
      <trkpt lat="46.51503" lon="5.28863">
        <ele>189.8</ele>
        <time>2022-01-29T12:23:22Z</time>
      </trkpt>
      <trkpt lat="46.51507" lon="5.28843">
        <ele>189.6</ele>
        <time>2022-01-29T12:23:24Z</time>
      </trkpt>
      <trkpt lat="46.51511" lon="5.28819">
        <ele>189.4</ele>
        <time>2022-01-29T12:23:27Z</time>
      </trkpt>
      <trkpt lat="46.51511" lon="5.28812">
        <ele>189.4</ele>
        <time>2022-01-29T12:23:28Z</time>
      </trkpt>
      <trkpt lat="46.5151" lon="5.28778">
        <ele>189.4</ele>
        <time>2022-01-29T12:23:32Z</time>
      </trkpt>
      <trkpt lat="46.51498" lon="5.28718">
        <ele>189.6</ele>
        <time>2022-01-29T12:23:39Z</time>
      </trkpt>
      <trkpt lat="46.51474" lon="5.28647">
        <ele>190</ele>
        <time>2022-01-29T12:23:47Z</time>
      </trkpt>
      <trkpt lat="46.51448" lon="5.28571">
        <ele>189.8</ele>
        <time>2022-01-29T12:23:56Z</time>
      </trkpt>
      <trkpt lat="46.51425" lon="5.28498">
        <ele>190.2</ele>
        <time>2022-01-29T12:24:05Z</time>
      </trkpt>
      <trkpt lat="46.51423" lon="5.2849">
        <ele>190.2</ele>
        <time>2022-01-29T12:24:06Z</time>
      </trkpt>
      <trkpt lat="46.51421" lon="5.28473">
        <ele>190.2</ele>
        <time>2022-01-29T12:24:08Z</time>
      </trkpt>
      <trkpt lat="46.51421" lon="5.28464">
        <ele>190.4</ele>
        <time>2022-01-29T12:24:09Z</time>
      </trkpt>
      <trkpt lat="46.51422" lon="5.28456">
        <ele>190.4</ele>
        <time>2022-01-29T12:24:10Z</time>
      </trkpt>
      <trkpt lat="46.51425" lon="5.28441">
        <ele>190.4</ele>
        <time>2022-01-29T12:24:12Z</time>
      </trkpt>
      <trkpt lat="46.51428" lon="5.28434">
        <ele>190.4</ele>
        <time>2022-01-29T12:24:13Z</time>
      </trkpt>
      <trkpt lat="46.51437" lon="5.28415">
        <ele>190.8</ele>
        <time>2022-01-29T12:24:16Z</time>
      </trkpt>
      <trkpt lat="46.51447" lon="5.28398">
        <ele>191.2</ele>
        <time>2022-01-29T12:24:19Z</time>
      </trkpt>
      <trkpt lat="46.51459" lon="5.28372">
        <ele>192</ele>
        <time>2022-01-29T12:24:23Z</time>
      </trkpt>
      <trkpt lat="46.51475" lon="5.28338">
        <ele>193.2</ele>
        <time>2022-01-29T12:24:29Z</time>
      </trkpt>
      <trkpt lat="46.51481" lon="5.28327">
        <ele>193.4</ele>
        <time>2022-01-29T12:24:31Z</time>
      </trkpt>
      <trkpt lat="46.51493" lon="5.28305">
        <ele>194.4</ele>
        <time>2022-01-29T12:24:35Z</time>
      </trkpt>
      <trkpt lat="46.51511" lon="5.28272">
        <ele>195.6</ele>
        <time>2022-01-29T12:24:41Z</time>
      </trkpt>
      <trkpt lat="46.51516" lon="5.28261">
        <ele>196.2</ele>
        <time>2022-01-29T12:24:43Z</time>
      </trkpt>
      <trkpt lat="46.51521" lon="5.2825">
        <ele>196.8</ele>
        <time>2022-01-29T12:24:45Z</time>
      </trkpt>
      <trkpt lat="46.51533" lon="5.28223">
        <ele>197.6</ele>
        <time>2022-01-29T12:24:50Z</time>
      </trkpt>
      <trkpt lat="46.51538" lon="5.28212">
        <ele>198</ele>
        <time>2022-01-29T12:24:52Z</time>
      </trkpt>
      <trkpt lat="46.51548" lon="5.28184">
        <ele>199</ele>
        <time>2022-01-29T12:24:57Z</time>
      </trkpt>
      <trkpt lat="46.5155" lon="5.28178">
        <ele>199.2</ele>
        <time>2022-01-29T12:24:58Z</time>
      </trkpt>
      <trkpt lat="46.51556" lon="5.28162">
        <ele>200.2</ele>
        <time>2022-01-29T12:25:01Z</time>
      </trkpt>
      <trkpt lat="46.51563" lon="5.28138">
        <ele>201.2</ele>
        <time>2022-01-29T12:25:05Z</time>
      </trkpt>
      <trkpt lat="46.51568" lon="5.2812">
        <ele>201.8</ele>
        <time>2022-01-29T12:25:08Z</time>
      </trkpt>
      <trkpt lat="46.51573" lon="5.28103">
        <ele>202.4</ele>
        <time>2022-01-29T12:25:11Z</time>
      </trkpt>
      <trkpt lat="46.51585" lon="5.28069">
        <ele>203.6</ele>
        <time>2022-01-29T12:25:17Z</time>
      </trkpt>
      <trkpt lat="46.51587" lon="5.28063">
        <ele>203.8</ele>
        <time>2022-01-29T12:25:18Z</time>
      </trkpt>
      <trkpt lat="46.51595" lon="5.2804">
        <ele>204.8</ele>
        <time>2022-01-29T12:25:22Z</time>
      </trkpt>
      <trkpt lat="46.51608" lon="5.28014">
        <ele>205.4</ele>
        <time>2022-01-29T12:25:27Z</time>
      </trkpt>
      <trkpt lat="46.51616" lon="5.28">
        <ele>205.8</ele>
        <time>2022-01-29T12:25:30Z</time>
      </trkpt>
      <trkpt lat="46.51631" lon="5.27983">
        <ele>206.4</ele>
        <time>2022-01-29T12:25:34Z</time>
      </trkpt>
      <trkpt lat="46.51649" lon="5.27964">
        <ele>206.8</ele>
        <time>2022-01-29T12:25:38Z</time>
      </trkpt>
      <trkpt lat="46.51653" lon="5.2796">
        <ele>207</ele>
        <time>2022-01-29T12:25:39Z</time>
      </trkpt>
      <trkpt lat="46.51694" lon="5.27918">
        <ele>206.8</ele>
        <time>2022-01-29T12:25:47Z</time>
      </trkpt>
      <trkpt lat="46.51736" lon="5.27875">
        <ele>205.8</ele>
        <time>2022-01-29T12:25:54Z</time>
      </trkpt>
      <trkpt lat="46.51742" lon="5.27868">
        <ele>205.6</ele>
        <time>2022-01-29T12:25:55Z</time>
      </trkpt>
      <trkpt lat="46.51771" lon="5.2784">
        <ele>205</ele>
        <time>2022-01-29T12:25:59Z</time>
      </trkpt>
      <trkpt lat="46.51793" lon="5.27817">
        <ele>204</ele>
        <time>2022-01-29T12:26:02Z</time>
      </trkpt>
      <trkpt lat="46.51801" lon="5.27809">
        <ele>203.6</ele>
        <time>2022-01-29T12:26:03Z</time>
      </trkpt>
      <trkpt lat="46.51825" lon="5.27784">
        <ele>202.6</ele>
        <time>2022-01-29T12:26:06Z</time>
      </trkpt>
      <trkpt lat="46.51849" lon="5.27758">
        <ele>201</ele>
        <time>2022-01-29T12:26:09Z</time>
      </trkpt>
      <trkpt lat="46.51857" lon="5.27749">
        <ele>200.8</ele>
        <time>2022-01-29T12:26:10Z</time>
      </trkpt>
      <trkpt lat="46.51875" lon="5.27732">
        <ele>200</ele>
        <time>2022-01-29T12:26:12Z</time>
      </trkpt>
      <trkpt lat="46.5189" lon="5.27716">
        <ele>198.2</ele>
        <time>2022-01-29T12:26:14Z</time>
      </trkpt>
      <trkpt lat="46.51919" lon="5.27687">
        <ele>197.2</ele>
        <time>2022-01-29T12:26:17Z</time>
      </trkpt>
      <trkpt lat="46.51927" lon="5.27677">
        <ele>196.8</ele>
        <time>2022-01-29T12:26:18Z</time>
      </trkpt>
      <trkpt lat="46.51959" lon="5.27637">
        <ele>195.4</ele>
        <time>2022-01-29T12:26:22Z</time>
      </trkpt>
      <trkpt lat="46.51982" lon="5.27607">
        <ele>194.4</ele>
        <time>2022-01-29T12:26:25Z</time>
      </trkpt>
      <trkpt lat="46.52011" lon="5.27568">
        <ele>192.8</ele>
        <time>2022-01-29T12:26:29Z</time>
      </trkpt>
      <trkpt lat="46.52024" lon="5.2755">
        <ele>192.6</ele>
        <time>2022-01-29T12:26:31Z</time>
      </trkpt>
      <trkpt lat="46.52066" lon="5.27495">
        <ele>192.6</ele>
        <time>2022-01-29T12:26:38Z</time>
      </trkpt>
      <trkpt lat="46.52099" lon="5.2745">
        <ele>194.2</ele>
        <time>2022-01-29T12:26:45Z</time>
      </trkpt>
      <trkpt lat="46.52115" lon="5.27417">
        <ele>195.6</ele>
        <time>2022-01-29T12:26:50Z</time>
      </trkpt>
      <trkpt lat="46.5212" lon="5.27404">
        <ele>196</ele>
        <time>2022-01-29T12:26:52Z</time>
      </trkpt>
      <trkpt lat="46.52126" lon="5.27377">
        <ele>196.8</ele>
        <time>2022-01-29T12:26:56Z</time>
      </trkpt>
      <trkpt lat="46.52126" lon="5.2737">
        <ele>197</ele>
        <time>2022-01-29T12:26:57Z</time>
      </trkpt>
      <trkpt lat="46.52126" lon="5.27356">
        <ele>197.4</ele>
        <time>2022-01-29T12:26:59Z</time>
      </trkpt>
      <trkpt lat="46.52125" lon="5.27343">
        <ele>198</ele>
        <time>2022-01-29T12:27:01Z</time>
      </trkpt>
      <trkpt lat="46.52124" lon="5.27336">
        <ele>198</ele>
        <time>2022-01-29T12:27:02Z</time>
      </trkpt>
      <trkpt lat="46.52122" lon="5.2733">
        <ele>198.4</ele>
        <time>2022-01-29T12:27:03Z</time>
      </trkpt>
      <trkpt lat="46.52116" lon="5.27317">
        <ele>198.8</ele>
        <time>2022-01-29T12:27:06Z</time>
      </trkpt>
      <trkpt lat="46.52113" lon="5.27313">
        <ele>199</ele>
        <time>2022-01-29T12:27:07Z</time>
      </trkpt>
      <trkpt lat="46.52104" lon="5.27305">
        <ele>199.8</ele>
        <time>2022-01-29T12:27:10Z</time>
      </trkpt>
      <trkpt lat="46.52096" lon="5.27301">
        <ele>200.2</ele>
        <time>2022-01-29T12:27:12Z</time>
      </trkpt>
      <trkpt lat="46.52077" lon="5.27292">
        <ele>201</ele>
        <time>2022-01-29T12:27:16Z</time>
      </trkpt>
      <trkpt lat="46.52073" lon="5.27289">
        <ele>201.2</ele>
        <time>2022-01-29T12:27:17Z</time>
      </trkpt>
      <trkpt lat="46.52069" lon="5.27286">
        <ele>201.2</ele>
        <time>2022-01-29T12:27:18Z</time>
      </trkpt>
      <trkpt lat="46.52052" lon="5.27272">
        <ele>202</ele>
        <time>2022-01-29T12:27:22Z</time>
      </trkpt>
      <trkpt lat="46.52045" lon="5.27263">
        <ele>202.2</ele>
        <time>2022-01-29T12:27:24Z</time>
      </trkpt>
      <trkpt lat="46.52039" lon="5.27253">
        <ele>202.8</ele>
        <time>2022-01-29T12:27:26Z</time>
      </trkpt>
      <trkpt lat="46.52032" lon="5.27243">
        <ele>203</ele>
        <time>2022-01-29T12:27:28Z</time>
      </trkpt>
      <trkpt lat="46.52031" lon="5.27239">
        <ele>203.4</ele>
        <time>2022-01-29T12:27:29Z</time>
      </trkpt>
      <trkpt lat="46.5202" lon="5.27209">
        <ele>204.4</ele>
        <time>2022-01-29T12:27:34Z</time>
      </trkpt>
      <trkpt lat="46.52011" lon="5.27178">
        <ele>205.6</ele>
        <time>2022-01-29T12:27:39Z</time>
      </trkpt>
      <trkpt lat="46.52005" lon="5.2715">
        <ele>206.8</ele>
        <time>2022-01-29T12:27:44Z</time>
      </trkpt>
      <trkpt lat="46.52" lon="5.27117">
        <ele>208</ele>
        <time>2022-01-29T12:27:50Z</time>
      </trkpt>
      <trkpt lat="46.51998" lon="5.271">
        <ele>208.6</ele>
        <time>2022-01-29T12:27:53Z</time>
      </trkpt>
      <trkpt lat="46.51996" lon="5.27079">
        <ele>209</ele>
        <time>2022-01-29T12:27:57Z</time>
      </trkpt>
      <trkpt lat="46.51993" lon="5.27056">
        <ele>209.8</ele>
        <time>2022-01-29T12:28:01Z</time>
      </trkpt>
      <trkpt lat="46.51992" lon="5.27044">
        <ele>210.2</ele>
        <time>2022-01-29T12:28:03Z</time>
      </trkpt>
      <trkpt lat="46.51989" lon="5.27011">
        <ele>211.2</ele>
        <time>2022-01-29T12:28:09Z</time>
      </trkpt>
      <trkpt lat="46.51989" lon="5.27006">
        <ele>211.2</ele>
        <time>2022-01-29T12:28:10Z</time>
      </trkpt>
      <trkpt lat="46.5198" lon="5.26949">
        <ele>212.4</ele>
        <time>2022-01-29T12:28:20Z</time>
      </trkpt>
      <trkpt lat="46.51965" lon="5.26904">
        <ele>212.8</ele>
        <time>2022-01-29T12:28:27Z</time>
      </trkpt>
      <trkpt lat="46.51952" lon="5.26862">
        <ele>212.8</ele>
        <time>2022-01-29T12:28:32Z</time>
      </trkpt>
      <trkpt lat="46.51951" lon="5.26852">
        <ele>212.8</ele>
        <time>2022-01-29T12:28:33Z</time>
      </trkpt>
      <trkpt lat="46.51951" lon="5.2684">
        <ele>212.6</ele>
        <time>2022-01-29T12:28:34Z</time>
      </trkpt>
      <trkpt lat="46.51955" lon="5.26817">
        <ele>212.4</ele>
        <time>2022-01-29T12:28:36Z</time>
      </trkpt>
      <trkpt lat="46.51964" lon="5.26797">
        <ele>211</ele>
        <time>2022-01-29T12:28:38Z</time>
      </trkpt>
      <trkpt lat="46.5197" lon="5.26787">
        <ele>210.8</ele>
        <time>2022-01-29T12:28:39Z</time>
      </trkpt>
      <trkpt lat="46.51977" lon="5.26779">
        <ele>210.2</ele>
        <time>2022-01-29T12:28:40Z</time>
      </trkpt>
      <trkpt lat="46.51985" lon="5.26772">
        <ele>209.8</ele>
        <time>2022-01-29T12:28:41Z</time>
      </trkpt>
      <trkpt lat="46.52001" lon="5.26759">
        <ele>209.2</ele>
        <time>2022-01-29T12:28:43Z</time>
      </trkpt>
      <trkpt lat="46.5201" lon="5.26752">
        <ele>208.6</ele>
        <time>2022-01-29T12:28:44Z</time>
      </trkpt>
      <trkpt lat="46.52027" lon="5.26738">
        <ele>207.4</ele>
        <time>2022-01-29T12:28:46Z</time>
      </trkpt>
      <trkpt lat="46.52053" lon="5.26717">
        <ele>206.2</ele>
        <time>2022-01-29T12:28:49Z</time>
      </trkpt>
      <trkpt lat="46.52088" lon="5.26688">
        <ele>204.6</ele>
        <time>2022-01-29T12:28:53Z</time>
      </trkpt>
      <trkpt lat="46.52106" lon="5.26672">
        <ele>203.4</ele>
        <time>2022-01-29T12:28:55Z</time>
      </trkpt>
      <trkpt lat="46.52123" lon="5.26654">
        <ele>202.2</ele>
        <time>2022-01-29T12:28:57Z</time>
      </trkpt>
      <trkpt lat="46.52143" lon="5.26625">
        <ele>200.8</ele>
        <time>2022-01-29T12:29:00Z</time>
      </trkpt>
      <trkpt lat="46.5215" lon="5.26612">
        <ele>200.4</ele>
        <time>2022-01-29T12:29:01Z</time>
      </trkpt>
      <trkpt lat="46.52161" lon="5.26592">
        <ele>199.2</ele>
        <time>2022-01-29T12:29:03Z</time>
      </trkpt>
      <trkpt lat="46.52174" lon="5.26568">
        <ele>198.2</ele>
        <time>2022-01-29T12:29:05Z</time>
      </trkpt>
      <trkpt lat="46.52188" lon="5.26551">
        <ele>197.6</ele>
        <time>2022-01-29T12:29:07Z</time>
      </trkpt>
      <trkpt lat="46.52204" lon="5.26537">
        <ele>197.4</ele>
        <time>2022-01-29T12:29:09Z</time>
      </trkpt>
      <trkpt lat="46.52221" lon="5.26527">
        <ele>197</ele>
        <time>2022-01-29T12:29:11Z</time>
      </trkpt>
      <trkpt lat="46.52248" lon="5.26515">
        <ele>196</ele>
        <time>2022-01-29T12:29:14Z</time>
      </trkpt>
      <trkpt lat="46.52303" lon="5.2649">
        <ele>195.2</ele>
        <time>2022-01-29T12:29:20Z</time>
      </trkpt>
      <trkpt lat="46.52312" lon="5.26486">
        <ele>194.6</ele>
        <time>2022-01-29T12:29:21Z</time>
      </trkpt>
      <trkpt lat="46.5234" lon="5.26473">
        <ele>193.6</ele>
        <time>2022-01-29T12:29:24Z</time>
      </trkpt>
      <trkpt lat="46.52367" lon="5.26461">
        <ele>192.4</ele>
        <time>2022-01-29T12:29:27Z</time>
      </trkpt>
      <trkpt lat="46.52376" lon="5.26455">
        <ele>192.2</ele>
        <time>2022-01-29T12:29:28Z</time>
      </trkpt>
      <trkpt lat="46.5239" lon="5.26437">
        <ele>191</ele>
        <time>2022-01-29T12:29:30Z</time>
      </trkpt>
      <trkpt lat="46.52411" lon="5.26393">
        <ele>189.6</ele>
        <time>2022-01-29T12:29:34Z</time>
      </trkpt>
      <trkpt lat="46.52441" lon="5.26314">
        <ele>188.8</ele>
        <time>2022-01-29T12:29:41Z</time>
      </trkpt>
      <trkpt lat="46.52449" lon="5.26293">
        <ele>188.6</ele>
        <time>2022-01-29T12:29:43Z</time>
      </trkpt>
      <trkpt lat="46.52452" lon="5.26283">
        <ele>188.6</ele>
        <time>2022-01-29T12:29:44Z</time>
      </trkpt>
      <trkpt lat="46.52479" lon="5.26213">
        <ele>188.4</ele>
        <time>2022-01-29T12:29:51Z</time>
      </trkpt>
      <trkpt lat="46.52483" lon="5.26203">
        <ele>188.2</ele>
        <time>2022-01-29T12:29:52Z</time>
      </trkpt>
      <trkpt lat="46.52512" lon="5.2613">
        <ele>188</ele>
        <time>2022-01-29T12:30:00Z</time>
      </trkpt>
      <trkpt lat="46.52523" lon="5.26119">
        <ele>187.8</ele>
        <time>2022-01-29T12:30:02Z</time>
      </trkpt>
      <trkpt lat="46.52529" lon="5.26118">
        <ele>187.8</ele>
        <time>2022-01-29T12:30:03Z</time>
      </trkpt>
      <trkpt lat="46.52557" lon="5.26115">
        <ele>187.8</ele>
        <time>2022-01-29T12:30:07Z</time>
      </trkpt>
      <trkpt lat="46.52563" lon="5.26112">
        <ele>188</ele>
        <time>2022-01-29T12:30:08Z</time>
      </trkpt>
      <trkpt lat="46.52568" lon="5.26108">
        <ele>188</ele>
        <time>2022-01-29T12:30:09Z</time>
      </trkpt>
      <trkpt lat="46.52576" lon="5.26097">
        <ele>188.2</ele>
        <time>2022-01-29T12:30:11Z</time>
      </trkpt>
      <trkpt lat="46.52586" lon="5.26066">
        <ele>189</ele>
        <time>2022-01-29T12:30:16Z</time>
      </trkpt>
      <trkpt lat="46.52588" lon="5.26055">
        <ele>189.8</ele>
        <time>2022-01-29T12:30:18Z</time>
      </trkpt>
      <trkpt lat="46.52593" lon="5.26034">
        <ele>190.8</ele>
        <time>2022-01-29T12:30:22Z</time>
      </trkpt>
      <trkpt lat="46.52597" lon="5.2601">
        <ele>192.2</ele>
        <time>2022-01-29T12:30:27Z</time>
      </trkpt>
      <trkpt lat="46.526" lon="5.25998">
        <ele>193</ele>
        <time>2022-01-29T12:30:30Z</time>
      </trkpt>
      <trkpt lat="46.52601" lon="5.25994">
        <ele>193.2</ele>
        <time>2022-01-29T12:30:31Z</time>
      </trkpt>
      <trkpt lat="46.52602" lon="5.2599">
        <ele>193.6</ele>
        <time>2022-01-29T12:30:32Z</time>
      </trkpt>
      <trkpt lat="46.52607" lon="5.25979">
        <ele>194.6</ele>
        <time>2022-01-29T12:30:35Z</time>
      </trkpt>
      <trkpt lat="46.52622" lon="5.25963">
        <ele>195.6</ele>
        <time>2022-01-29T12:30:40Z</time>
      </trkpt>
      <trkpt lat="46.52627" lon="5.25959">
        <ele>196.4</ele>
        <time>2022-01-29T12:30:42Z</time>
      </trkpt>
      <trkpt lat="46.5263" lon="5.25958">
        <ele>196.8</ele>
        <time>2022-01-29T12:30:43Z</time>
      </trkpt>
      <trkpt lat="46.52646" lon="5.25953">
        <ele>198</ele>
        <time>2022-01-29T12:30:48Z</time>
      </trkpt>
      <trkpt lat="46.52657" lon="5.25948">
        <ele>199</ele>
        <time>2022-01-29T12:30:51Z</time>
      </trkpt>
      <trkpt lat="46.52671" lon="5.25938">
        <ele>200</ele>
        <time>2022-01-29T12:30:55Z</time>
      </trkpt>
      <trkpt lat="46.52674" lon="5.25931">
        <ele>200.4</ele>
        <time>2022-01-29T12:30:57Z</time>
      </trkpt>
      <trkpt lat="46.52682" lon="5.25915">
        <ele>201.4</ele>
        <time>2022-01-29T12:31:00Z</time>
      </trkpt>
      <trkpt lat="46.52684" lon="5.25911">
        <ele>201.4</ele>
        <time>2022-01-29T12:31:01Z</time>
      </trkpt>
      <trkpt lat="46.52689" lon="5.25894">
        <ele>202.6</ele>
        <time>2022-01-29T12:31:05Z</time>
      </trkpt>
      <trkpt lat="46.52691" lon="5.25885">
        <ele>203.2</ele>
        <time>2022-01-29T12:31:07Z</time>
      </trkpt>
      <trkpt lat="46.52693" lon="5.25876">
        <ele>203.6</ele>
        <time>2022-01-29T12:31:09Z</time>
      </trkpt>
      <trkpt lat="46.52695" lon="5.25849">
        <ele>204.8</ele>
        <time>2022-01-29T12:31:15Z</time>
      </trkpt>
      <trkpt lat="46.52695" lon="5.25844">
        <ele>205</ele>
        <time>2022-01-29T12:31:16Z</time>
      </trkpt>
      <trkpt lat="46.52695" lon="5.25825">
        <ele>205.8</ele>
        <time>2022-01-29T12:31:20Z</time>
      </trkpt>
      <trkpt lat="46.52695" lon="5.25801">
        <ele>207</ele>
        <time>2022-01-29T12:31:25Z</time>
      </trkpt>
      <trkpt lat="46.52696" lon="5.25791">
        <ele>207.2</ele>
        <time>2022-01-29T12:31:27Z</time>
      </trkpt>
      <trkpt lat="46.52705" lon="5.25756">
        <ele>208.2</ele>
        <time>2022-01-29T12:31:34Z</time>
      </trkpt>
      <trkpt lat="46.52715" lon="5.25709">
        <ele>208.8</ele>
        <time>2022-01-29T12:31:42Z</time>
      </trkpt>
      <trkpt lat="46.52718" lon="5.25688">
        <ele>209</ele>
        <time>2022-01-29T12:31:45Z</time>
      </trkpt>
      <trkpt lat="46.52719" lon="5.25661">
        <ele>209.2</ele>
        <time>2022-01-29T12:31:49Z</time>
      </trkpt>
      <trkpt lat="46.5272" lon="5.25625">
        <ele>209.4</ele>
        <time>2022-01-29T12:31:54Z</time>
      </trkpt>
      <trkpt lat="46.5272" lon="5.25604">
        <ele>209.6</ele>
        <time>2022-01-29T12:31:57Z</time>
      </trkpt>
      <trkpt lat="46.52723" lon="5.25522">
        <ele>210.2</ele>
        <time>2022-01-29T12:32:09Z</time>
      </trkpt>
      <trkpt lat="46.52724" lon="5.25486">
        <ele>208.2</ele>
        <time>2022-01-29T12:32:14Z</time>
      </trkpt>
      <trkpt lat="46.52722" lon="5.25473">
        <ele>210.6</ele>
        <time>2022-01-29T12:32:16Z</time>
      </trkpt>
      <trkpt lat="46.52708" lon="5.25443">
        <ele>210.8</ele>
        <time>2022-01-29T12:32:21Z</time>
      </trkpt>
      <trkpt lat="46.52674" lon="5.25395">
        <ele>211.4</ele>
        <time>2022-01-29T12:32:30Z</time>
      </trkpt>
      <trkpt lat="46.52646" lon="5.2535">
        <ele>211.6</ele>
        <time>2022-01-29T12:32:38Z</time>
      </trkpt>
      <trkpt lat="46.5264" lon="5.25337">
        <ele>211.6</ele>
        <time>2022-01-29T12:32:40Z</time>
      </trkpt>
      <trkpt lat="46.52625" lon="5.25296">
        <ele>212.2</ele>
        <time>2022-01-29T12:32:46Z</time>
      </trkpt>
      <trkpt lat="46.52622" lon="5.2528">
        <ele>212.4</ele>
        <time>2022-01-29T12:32:48Z</time>
      </trkpt>
      <trkpt lat="46.52619" lon="5.25245">
        <ele>212.4</ele>
        <time>2022-01-29T12:32:52Z</time>
      </trkpt>
      <trkpt lat="46.52616" lon="5.25162">
        <ele>212.2</ele>
        <time>2022-01-29T12:33:01Z</time>
      </trkpt>
      <trkpt lat="46.52616" lon="5.25153">
        <ele>212.2</ele>
        <time>2022-01-29T12:33:02Z</time>
      </trkpt>
      <trkpt lat="46.52613" lon="5.25068">
        <ele>211.6</ele>
        <time>2022-01-29T12:33:11Z</time>
      </trkpt>
      <trkpt lat="46.52607" lon="5.25001">
        <ele>211.4</ele>
        <time>2022-01-29T12:33:18Z</time>
      </trkpt>
      <trkpt lat="46.52595" lon="5.24924">
        <ele>211.4</ele>
        <time>2022-01-29T12:33:26Z</time>
      </trkpt>
      <trkpt lat="46.52594" lon="5.24915">
        <ele>211.4</ele>
        <time>2022-01-29T12:33:27Z</time>
      </trkpt>
      <trkpt lat="46.52589" lon="5.2484">
        <ele>211</ele>
        <time>2022-01-29T12:33:35Z</time>
      </trkpt>
      <trkpt lat="46.52586" lon="5.24757">
        <ele>211.2</ele>
        <time>2022-01-29T12:33:44Z</time>
      </trkpt>
      <trkpt lat="46.52586" lon="5.24748">
        <ele>211.2</ele>
        <time>2022-01-29T12:33:45Z</time>
      </trkpt>
      <trkpt lat="46.52582" lon="5.24668">
        <ele>211</ele>
        <time>2022-01-29T12:33:54Z</time>
      </trkpt>
      <trkpt lat="46.52576" lon="5.24635">
        <ele>211.2</ele>
        <time>2022-01-29T12:33:58Z</time>
      </trkpt>
      <trkpt lat="46.52571" lon="5.24619">
        <ele>211.2</ele>
        <time>2022-01-29T12:34:00Z</time>
      </trkpt>
      <trkpt lat="46.52548" lon="5.24551">
        <ele>211.2</ele>
        <time>2022-01-29T12:34:08Z</time>
      </trkpt>
      <trkpt lat="46.52538" lon="5.24524">
        <ele>210.8</ele>
        <time>2022-01-29T12:34:11Z</time>
      </trkpt>
      <trkpt lat="46.52521" lon="5.24467">
        <ele>210</ele>
        <time>2022-01-29T12:34:17Z</time>
      </trkpt>
      <trkpt lat="46.52519" lon="5.24457">
        <ele>209.8</ele>
        <time>2022-01-29T12:34:18Z</time>
      </trkpt>
      <trkpt lat="46.52505" lon="5.24376">
        <ele>208.8</ele>
        <time>2022-01-29T12:34:26Z</time>
      </trkpt>
      <trkpt lat="46.52503" lon="5.24356">
        <ele>208.8</ele>
        <time>2022-01-29T12:34:28Z</time>
      </trkpt>
      <trkpt lat="46.52495" lon="5.24299">
        <ele>208.4</ele>
        <time>2022-01-29T12:34:34Z</time>
      </trkpt>
      <trkpt lat="46.52486" lon="5.24233">
        <ele>208.8</ele>
        <time>2022-01-29T12:34:42Z</time>
      </trkpt>
      <trkpt lat="46.52479" lon="5.24177">
        <ele>209.2</ele>
        <time>2022-01-29T12:34:49Z</time>
      </trkpt>
      <trkpt lat="46.52476" lon="5.24145">
        <ele>209.8</ele>
        <time>2022-01-29T12:34:54Z</time>
      </trkpt>
      <trkpt lat="46.52476" lon="5.2414">
        <ele>209.8</ele>
        <time>2022-01-29T12:34:55Z</time>
      </trkpt>
      <trkpt lat="46.52481" lon="5.24128">
        <ele>210</ele>
        <time>2022-01-29T12:34:58Z</time>
      </trkpt>
      <trkpt lat="46.52481" lon="5.24123">
        <ele>210.4</ele>
        <time>2022-01-29T12:34:59Z</time>
      </trkpt>
      <trkpt lat="46.5248" lon="5.24112">
        <ele>210.4</ele>
        <time>2022-01-29T12:35:01Z</time>
      </trkpt>
      <trkpt lat="46.5248" lon="5.24105">
        <ele>210.4</ele>
        <time>2022-01-29T12:35:02Z</time>
      </trkpt>
      <trkpt lat="46.52483" lon="5.24081">
        <ele>210.4</ele>
        <time>2022-01-29T12:35:05Z</time>
      </trkpt>
      <trkpt lat="46.52491" lon="5.24026">
        <ele>210.6</ele>
        <time>2022-01-29T12:35:11Z</time>
      </trkpt>
      <trkpt lat="46.52499" lon="5.23967">
        <ele>210.8</ele>
        <time>2022-01-29T12:35:17Z</time>
      </trkpt>
      <trkpt lat="46.52503" lon="5.23896">
        <ele>210.8</ele>
        <time>2022-01-29T12:35:24Z</time>
      </trkpt>
      <trkpt lat="46.52495" lon="5.23846">
        <ele>210.8</ele>
        <time>2022-01-29T12:35:29Z</time>
      </trkpt>
      <trkpt lat="46.52476" lon="5.23768">
        <ele>209.2</ele>
        <time>2022-01-29T12:35:37Z</time>
      </trkpt>
      <trkpt lat="46.52474" lon="5.23759">
        <ele>209.2</ele>
        <time>2022-01-29T12:35:38Z</time>
      </trkpt>
      <trkpt lat="46.52462" lon="5.2371">
        <ele>209</ele>
        <time>2022-01-29T12:35:43Z</time>
      </trkpt>
      <trkpt lat="46.52452" lon="5.23671">
        <ele>209</ele>
        <time>2022-01-29T12:35:47Z</time>
      </trkpt>
      <trkpt lat="46.52433" lon="5.23596">
        <ele>208.4</ele>
        <time>2022-01-29T12:35:55Z</time>
      </trkpt>
      <trkpt lat="46.52428" lon="5.23579">
        <ele>208.2</ele>
        <time>2022-01-29T12:35:57Z</time>
      </trkpt>
      <trkpt lat="46.52421" lon="5.23545">
        <ele>208.2</ele>
        <time>2022-01-29T12:36:01Z</time>
      </trkpt>
      <trkpt lat="46.52419" lon="5.23528">
        <ele>208.2</ele>
        <time>2022-01-29T12:36:03Z</time>
      </trkpt>
      <trkpt lat="46.5242" lon="5.23519">
        <ele>208.4</ele>
        <time>2022-01-29T12:36:04Z</time>
      </trkpt>
      <trkpt lat="46.52422" lon="5.23501">
        <ele>208.4</ele>
        <time>2022-01-29T12:36:06Z</time>
      </trkpt>
      <trkpt lat="46.52424" lon="5.23493">
        <ele>208.4</ele>
        <time>2022-01-29T12:36:07Z</time>
      </trkpt>
      <trkpt lat="46.52442" lon="5.23447">
        <ele>208.8</ele>
        <time>2022-01-29T12:36:13Z</time>
      </trkpt>
      <trkpt lat="46.52471" lon="5.2338">
        <ele>209</ele>
        <time>2022-01-29T12:36:22Z</time>
      </trkpt>
      <trkpt lat="46.52481" lon="5.23358">
        <ele>209.4</ele>
        <time>2022-01-29T12:36:25Z</time>
      </trkpt>
      <trkpt lat="46.52511" lon="5.23288">
        <ele>209.8</ele>
        <time>2022-01-29T12:36:34Z</time>
      </trkpt>
      <trkpt lat="46.5254" lon="5.23219">
        <ele>209.2</ele>
        <time>2022-01-29T12:36:43Z</time>
      </trkpt>
      <trkpt lat="46.52563" lon="5.23164">
        <ele>208.8</ele>
        <time>2022-01-29T12:36:48Z</time>
      </trkpt>
      <trkpt lat="46.5257" lon="5.23145">
        <ele>208.2</ele>
        <time>2022-01-29T12:36:50Z</time>
      </trkpt>
      <trkpt lat="46.52588" lon="5.23104">
        <ele>207</ele>
        <time>2022-01-29T12:36:55Z</time>
      </trkpt>
      <trkpt lat="46.52601" lon="5.23071">
        <ele>205.8</ele>
        <time>2022-01-29T12:36:58Z</time>
      </trkpt>
      <trkpt lat="46.52604" lon="5.23059">
        <ele>205.8</ele>
        <time>2022-01-29T12:36:59Z</time>
      </trkpt>
      <trkpt lat="46.52609" lon="5.23033">
        <ele>205.4</ele>
        <time>2022-01-29T12:37:00Z</time>
      </trkpt>
      <trkpt lat="46.52611" lon="5.23006">
        <ele>204.8</ele>
        <time>2022-01-29T12:37:02Z</time>
      </trkpt>
      <trkpt lat="46.52612" lon="5.22992">
        <ele>204.4</ele>
        <time>2022-01-29T12:37:03Z</time>
      </trkpt>
      <trkpt lat="46.52612" lon="5.2295">
        <ele>203.2</ele>
        <time>2022-01-29T12:37:06Z</time>
      </trkpt>
      <trkpt lat="46.52612" lon="5.22908">
        <ele>202.2</ele>
        <time>2022-01-29T12:37:09Z</time>
      </trkpt>
      <trkpt lat="46.52613" lon="5.2288">
        <ele>200.8</ele>
        <time>2022-01-29T12:37:12Z</time>
      </trkpt>
      <trkpt lat="46.52614" lon="5.2284">
        <ele>199.8</ele>
        <time>2022-01-29T12:37:15Z</time>
      </trkpt>
      <trkpt lat="46.52616" lon="5.22788">
        <ele>198.6</ele>
        <time>2022-01-29T12:37:18Z</time>
      </trkpt>
      <trkpt lat="46.52618" lon="5.22726">
        <ele>198</ele>
        <time>2022-01-29T12:37:23Z</time>
      </trkpt>
      <trkpt lat="46.52618" lon="5.2269">
        <ele>197.6</ele>
        <time>2022-01-29T12:37:26Z</time>
      </trkpt>
      <trkpt lat="46.52621" lon="5.22609">
        <ele>196.6</ele>
        <time>2022-01-29T12:37:33Z</time>
      </trkpt>
      <trkpt lat="46.52624" lon="5.22522">
        <ele>196.6</ele>
        <time>2022-01-29T12:37:41Z</time>
      </trkpt>
      <trkpt lat="46.52635" lon="5.22459">
        <ele>196.4</ele>
        <time>2022-01-29T12:37:47Z</time>
      </trkpt>
      <trkpt lat="46.52654" lon="5.22383">
        <ele>196.2</ele>
        <time>2022-01-29T12:37:55Z</time>
      </trkpt>
      <trkpt lat="46.52656" lon="5.22374">
        <ele>196.2</ele>
        <time>2022-01-29T12:37:56Z</time>
      </trkpt>
      <trkpt lat="46.52675" lon="5.22298">
        <ele>196.2</ele>
        <time>2022-01-29T12:38:05Z</time>
      </trkpt>
      <trkpt lat="46.52685" lon="5.22262">
        <ele>196.8</ele>
        <time>2022-01-29T12:38:10Z</time>
      </trkpt>
      <trkpt lat="46.52695" lon="5.22223">
        <ele>198</ele>
        <time>2022-01-29T12:38:16Z</time>
      </trkpt>
      <trkpt lat="46.52703" lon="5.22191">
        <ele>199</ele>
        <time>2022-01-29T12:38:22Z</time>
      </trkpt>
      <trkpt lat="46.52706" lon="5.22173">
        <ele>199.4</ele>
        <time>2022-01-29T12:38:24Z</time>
      </trkpt>
      <trkpt lat="46.5271" lon="5.22156">
        <ele>200</ele>
        <time>2022-01-29T12:38:27Z</time>
      </trkpt>
      <trkpt lat="46.52717" lon="5.2213">
        <ele>201</ele>
        <time>2022-01-29T12:38:32Z</time>
      </trkpt>
      <trkpt lat="46.52718" lon="5.22124">
        <ele>201.4</ele>
        <time>2022-01-29T12:38:33Z</time>
      </trkpt>
      <trkpt lat="46.52724" lon="5.22104">
        <ele>202.4</ele>
        <time>2022-01-29T12:38:37Z</time>
      </trkpt>
      <trkpt lat="46.52729" lon="5.22077">
        <ele>203.8</ele>
        <time>2022-01-29T12:38:42Z</time>
      </trkpt>
      <trkpt lat="46.52731" lon="5.22066">
        <ele>204.6</ele>
        <time>2022-01-29T12:38:45Z</time>
      </trkpt>
      <trkpt lat="46.52732" lon="5.22053">
        <ele>205.2</ele>
        <time>2022-01-29T12:38:46Z</time>
      </trkpt>
      <trkpt lat="46.52732" lon="5.22022">
        <ele>206.2</ele>
        <time>2022-01-29T12:38:51Z</time>
      </trkpt>
      <trkpt lat="46.52731" lon="5.22016">
        <ele>206.4</ele>
        <time>2022-01-29T12:38:52Z</time>
      </trkpt>
      <trkpt lat="46.52726" lon="5.21982">
        <ele>207.4</ele>
        <time>2022-01-29T12:38:57Z</time>
      </trkpt>
      <trkpt lat="46.52722" lon="5.21954">
        <ele>208.2</ele>
        <time>2022-01-29T12:39:01Z</time>
      </trkpt>
      <trkpt lat="46.5272" lon="5.2194">
        <ele>208.4</ele>
        <time>2022-01-29T12:39:03Z</time>
      </trkpt>
      <trkpt lat="46.52712" lon="5.21891">
        <ele>208.8</ele>
        <time>2022-01-29T12:39:10Z</time>
      </trkpt>
      <trkpt lat="46.527" lon="5.21815">
        <ele>209.2</ele>
        <time>2022-01-29T12:39:20Z</time>
      </trkpt>
      <trkpt lat="46.52698" lon="5.21799">
        <ele>209.2</ele>
        <time>2022-01-29T12:39:22Z</time>
      </trkpt>
      <trkpt lat="46.52686" lon="5.21729">
        <ele>209.4</ele>
        <time>2022-01-29T12:39:31Z</time>
      </trkpt>
      <trkpt lat="46.52677" lon="5.21673">
        <ele>209.6</ele>
        <time>2022-01-29T12:39:38Z</time>
      </trkpt>
      <trkpt lat="46.52675" lon="5.21657">
        <ele>209.6</ele>
        <time>2022-01-29T12:39:40Z</time>
      </trkpt>
      <trkpt lat="46.52662" lon="5.21573">
        <ele>209.8</ele>
        <time>2022-01-29T12:39:50Z</time>
      </trkpt>
      <trkpt lat="46.5266" lon="5.21564">
        <ele>209.8</ele>
        <time>2022-01-29T12:39:51Z</time>
      </trkpt>
      <trkpt lat="46.52648" lon="5.21485">
        <ele>209.4</ele>
        <time>2022-01-29T12:40:00Z</time>
      </trkpt>
      <trkpt lat="46.52645" lon="5.21467">
        <ele>209.4</ele>
        <time>2022-01-29T12:40:02Z</time>
      </trkpt>
      <trkpt lat="46.52632" lon="5.21385">
        <ele>208.6</ele>
        <time>2022-01-29T12:40:11Z</time>
      </trkpt>
      <trkpt lat="46.52628" lon="5.21357">
        <ele>208.6</ele>
        <time>2022-01-29T12:40:15Z</time>
      </trkpt>
      <trkpt lat="46.52615" lon="5.21279">
        <ele>207.8</ele>
        <time>2022-01-29T12:40:22Z</time>
      </trkpt>
      <trkpt lat="46.52612" lon="5.21258">
        <ele>207.6</ele>
        <time>2022-01-29T12:40:24Z</time>
      </trkpt>
      <trkpt lat="46.5261" lon="5.21248">
        <ele>207.2</ele>
        <time>2022-01-29T12:40:25Z</time>
      </trkpt>
      <trkpt lat="46.52601" lon="5.21193">
        <ele>206.4</ele>
        <time>2022-01-29T12:40:30Z</time>
      </trkpt>
      <trkpt lat="46.52594" lon="5.21147">
        <ele>205.8</ele>
        <time>2022-01-29T12:40:34Z</time>
      </trkpt>
      <trkpt lat="46.52591" lon="5.21125">
        <ele>205.4</ele>
        <time>2022-01-29T12:40:36Z</time>
      </trkpt>
      <trkpt lat="46.52578" lon="5.21045">
        <ele>204.8</ele>
        <time>2022-01-29T12:40:44Z</time>
      </trkpt>
      <trkpt lat="46.52577" lon="5.21035">
        <ele>204.8</ele>
        <time>2022-01-29T12:40:45Z</time>
      </trkpt>
      <trkpt lat="46.52569" lon="5.20977">
        <ele>204.6</ele>
        <time>2022-01-29T12:40:52Z</time>
      </trkpt>
      <trkpt lat="46.52563" lon="5.20923">
        <ele>205.6</ele>
        <time>2022-01-29T12:40:59Z</time>
      </trkpt>
      <trkpt lat="46.52559" lon="5.20864">
        <ele>206.6</ele>
        <time>2022-01-29T12:41:06Z</time>
      </trkpt>
      <trkpt lat="46.52558" lon="5.20837">
        <ele>206.8</ele>
        <time>2022-01-29T12:41:09Z</time>
      </trkpt>
      <trkpt lat="46.52556" lon="5.20793">
        <ele>207.6</ele>
        <time>2022-01-29T12:41:14Z</time>
      </trkpt>
      <trkpt lat="46.52551" lon="5.20723">
        <ele>208.4</ele>
        <time>2022-01-29T12:41:22Z</time>
      </trkpt>
      <trkpt lat="46.52546" lon="5.20655">
        <ele>208.6</ele>
        <time>2022-01-29T12:41:30Z</time>
      </trkpt>
      <trkpt lat="46.52545" lon="5.20647">
        <ele>208.8</ele>
        <time>2022-01-29T12:41:31Z</time>
      </trkpt>
      <trkpt lat="46.52541" lon="5.20579">
        <ele>208.6</ele>
        <time>2022-01-29T12:41:39Z</time>
      </trkpt>
      <trkpt lat="46.52536" lon="5.205">
        <ele>208.4</ele>
        <time>2022-01-29T12:41:48Z</time>
      </trkpt>
      <trkpt lat="46.52536" lon="5.20492">
        <ele>208.4</ele>
        <time>2022-01-29T12:41:49Z</time>
      </trkpt>
      <trkpt lat="46.5253" lon="5.20406">
        <ele>207.8</ele>
        <time>2022-01-29T12:41:58Z</time>
      </trkpt>
      <trkpt lat="46.52526" lon="5.20352">
        <ele>206.8</ele>
        <time>2022-01-29T12:42:03Z</time>
      </trkpt>
      <trkpt lat="46.52523" lon="5.20306">
        <ele>205.4</ele>
        <time>2022-01-29T12:42:07Z</time>
      </trkpt>
      <trkpt lat="46.5252" lon="5.20258">
        <ele>204.2</ele>
        <time>2022-01-29T12:42:11Z</time>
      </trkpt>
      <trkpt lat="46.52517" lon="5.2022">
        <ele>203.2</ele>
        <time>2022-01-29T12:42:14Z</time>
      </trkpt>
      <trkpt lat="46.52515" lon="5.20195">
        <ele>202.2</ele>
        <time>2022-01-29T12:42:16Z</time>
      </trkpt>
      <trkpt lat="46.52515" lon="5.20183">
        <ele>202</ele>
        <time>2022-01-29T12:42:17Z</time>
      </trkpt>
      <trkpt lat="46.52512" lon="5.20121">
        <ele>200.8</ele>
        <time>2022-01-29T12:42:22Z</time>
      </trkpt>
      <trkpt lat="46.52512" lon="5.20098">
        <ele>200.4</ele>
        <time>2022-01-29T12:42:24Z</time>
      </trkpt>
      <trkpt lat="46.52512" lon="5.20086">
        <ele>199.8</ele>
        <time>2022-01-29T12:42:25Z</time>
      </trkpt>
      <trkpt lat="46.52515" lon="5.20022">
        <ele>198.8</ele>
        <time>2022-01-29T12:42:31Z</time>
      </trkpt>
      <trkpt lat="46.52518" lon="5.19943">
        <ele>198.8</ele>
        <time>2022-01-29T12:42:39Z</time>
      </trkpt>
      <trkpt lat="46.52518" lon="5.19943">
        <ele>198.8</ele>
        <time>2022-01-29T12:42:40Z</time>
      </trkpt>
      <trkpt lat="46.52517" lon="5.19861">
        <ele>199.4</ele>
        <time>2022-01-29T12:42:48Z</time>
      </trkpt>
      <trkpt lat="46.52517" lon="5.19844">
        <ele>199.6</ele>
        <time>2022-01-29T12:42:50Z</time>
      </trkpt>
      <trkpt lat="46.52517" lon="5.19836">
        <ele>200</ele>
        <time>2022-01-29T12:42:51Z</time>
      </trkpt>
      <trkpt lat="46.52516" lon="5.19771">
        <ele>200.2</ele>
        <time>2022-01-29T12:42:59Z</time>
      </trkpt>
      <trkpt lat="46.52515" lon="5.19719">
        <ele>201</ele>
        <time>2022-01-29T12:43:06Z</time>
      </trkpt>
      <trkpt lat="46.52514" lon="5.19706">
        <ele>201.4</ele>
        <time>2022-01-29T12:43:08Z</time>
      </trkpt>
      <trkpt lat="46.52514" lon="5.19692">
        <ele>202</ele>
        <time>2022-01-29T12:43:10Z</time>
      </trkpt>
      <trkpt lat="46.52512" lon="5.19658">
        <ele>203.2</ele>
        <time>2022-01-29T12:43:16Z</time>
      </trkpt>
      <trkpt lat="46.52513" lon="5.19631">
        <ele>204</ele>
        <time>2022-01-29T12:43:19Z</time>
      </trkpt>
      <trkpt lat="46.52513" lon="5.19617">
        <ele>204.4</ele>
        <time>2022-01-29T12:43:21Z</time>
      </trkpt>
      <trkpt lat="46.52513" lon="5.19565">
        <ele>205.4</ele>
        <time>2022-01-29T12:43:28Z</time>
      </trkpt>
      <trkpt lat="46.52512" lon="5.19558">
        <ele>205.6</ele>
        <time>2022-01-29T12:43:29Z</time>
      </trkpt>
      <trkpt lat="46.52511" lon="5.19496">
        <ele>206.6</ele>
        <time>2022-01-29T12:43:37Z</time>
      </trkpt>
      <trkpt lat="46.5251" lon="5.19472">
        <ele>206.6</ele>
        <time>2022-01-29T12:43:40Z</time>
      </trkpt>
      <trkpt lat="46.52509" lon="5.19391">
        <ele>206.8</ele>
        <time>2022-01-29T12:43:50Z</time>
      </trkpt>
      <trkpt lat="46.52508" lon="5.19382">
        <ele>206.8</ele>
        <time>2022-01-29T12:43:51Z</time>
      </trkpt>
      <trkpt lat="46.52507" lon="5.19296">
        <ele>206.8</ele>
        <time>2022-01-29T12:44:01Z</time>
      </trkpt>
      <trkpt lat="46.52506" lon="5.19288">
        <ele>206.8</ele>
        <time>2022-01-29T12:44:02Z</time>
      </trkpt>
      <trkpt lat="46.52505" lon="5.19213">
        <ele>207</ele>
        <time>2022-01-29T12:44:12Z</time>
      </trkpt>
      <trkpt lat="46.52506" lon="5.19133">
        <ele>207</ele>
        <time>2022-01-29T12:44:20Z</time>
      </trkpt>
      <trkpt lat="46.52508" lon="5.19124">
        <ele>206.8</ele>
        <time>2022-01-29T12:44:21Z</time>
      </trkpt>
      <trkpt lat="46.52521" lon="5.19074">
        <ele>206.6</ele>
        <time>2022-01-29T12:44:27Z</time>
      </trkpt>
      <trkpt lat="46.52553" lon="5.19">
        <ele>206</ele>
        <time>2022-01-29T12:44:36Z</time>
      </trkpt>
      <trkpt lat="46.52561" lon="5.18982">
        <ele>205.8</ele>
        <time>2022-01-29T12:44:38Z</time>
      </trkpt>
      <trkpt lat="46.52574" lon="5.18953">
        <ele>205</ele>
        <time>2022-01-29T12:44:41Z</time>
      </trkpt>
      <trkpt lat="46.52582" lon="5.18934">
        <ele>204.6</ele>
        <time>2022-01-29T12:44:43Z</time>
      </trkpt>
      <trkpt lat="46.52597" lon="5.189">
        <ele>203.6</ele>
        <time>2022-01-29T12:44:46Z</time>
      </trkpt>
      <trkpt lat="46.52609" lon="5.18866">
        <ele>202.8</ele>
        <time>2022-01-29T12:44:49Z</time>
      </trkpt>
      <trkpt lat="46.52612" lon="5.18854">
        <ele>202.4</ele>
        <time>2022-01-29T12:44:50Z</time>
      </trkpt>
      <trkpt lat="46.52617" lon="5.1883">
        <ele>201.8</ele>
        <time>2022-01-29T12:44:52Z</time>
      </trkpt>
      <trkpt lat="46.52618" lon="5.18818">
        <ele>201.4</ele>
        <time>2022-01-29T12:44:53Z</time>
      </trkpt>
      <trkpt lat="46.5262" lon="5.18763">
        <ele>200.2</ele>
        <time>2022-01-29T12:44:58Z</time>
      </trkpt>
      <trkpt lat="46.52623" lon="5.18695">
        <ele>200</ele>
        <time>2022-01-29T12:45:05Z</time>
      </trkpt>
      <trkpt lat="46.52627" lon="5.18615">
        <ele>200.8</ele>
        <time>2022-01-29T12:45:14Z</time>
      </trkpt>
      <trkpt lat="46.52629" lon="5.18562">
        <ele>200.4</ele>
        <time>2022-01-29T12:45:19Z</time>
      </trkpt>
      <trkpt lat="46.52635" lon="5.18525">
        <ele>199.6</ele>
        <time>2022-01-29T12:45:22Z</time>
      </trkpt>
      <trkpt lat="46.52638" lon="5.18514">
        <ele>199.2</ele>
        <time>2022-01-29T12:45:23Z</time>
      </trkpt>
      <trkpt lat="46.5265" lon="5.18482">
        <ele>198.2</ele>
        <time>2022-01-29T12:45:26Z</time>
      </trkpt>
      <trkpt lat="46.5266" lon="5.18461">
        <ele>197</ele>
        <time>2022-01-29T12:45:29Z</time>
      </trkpt>
      <trkpt lat="46.52674" lon="5.18431">
        <ele>195.8</ele>
        <time>2022-01-29T12:45:32Z</time>
      </trkpt>
      <trkpt lat="46.527" lon="5.18373">
        <ele>194.8</ele>
        <time>2022-01-29T12:45:37Z</time>
      </trkpt>
      <trkpt lat="46.52718" lon="5.18335">
        <ele>194</ele>
        <time>2022-01-29T12:45:41Z</time>
      </trkpt>
      <trkpt lat="46.52726" lon="5.18316">
        <ele>193.8</ele>
        <time>2022-01-29T12:45:43Z</time>
      </trkpt>
      <trkpt lat="46.52759" lon="5.18244">
        <ele>193.4</ele>
        <time>2022-01-29T12:45:51Z</time>
      </trkpt>
      <trkpt lat="46.52762" lon="5.18236">
        <ele>193.4</ele>
        <time>2022-01-29T12:45:52Z</time>
      </trkpt>
      <trkpt lat="46.5277" lon="5.18201">
        <ele>193.6</ele>
        <time>2022-01-29T12:45:56Z</time>
      </trkpt>
      <trkpt lat="46.52771" lon="5.18193">
        <ele>193.6</ele>
        <time>2022-01-29T12:45:57Z</time>
      </trkpt>
      <trkpt lat="46.52774" lon="5.1816">
        <ele>193.8</ele>
        <time>2022-01-29T12:46:01Z</time>
      </trkpt>
      <trkpt lat="46.52776" lon="5.18114">
        <ele>195</ele>
        <time>2022-01-29T12:46:07Z</time>
      </trkpt>
      <trkpt lat="46.52777" lon="5.18062">
        <ele>196.2</ele>
        <time>2022-01-29T12:46:13Z</time>
      </trkpt>
      <trkpt lat="46.52777" lon="5.18044">
        <ele>196.4</ele>
        <time>2022-01-29T12:46:15Z</time>
      </trkpt>
      <trkpt lat="46.52769" lon="5.17994">
        <ele>196.4</ele>
        <time>2022-01-29T12:46:20Z</time>
      </trkpt>
      <trkpt lat="46.5276" lon="5.1794">
        <ele>195</ele>
        <time>2022-01-29T12:46:25Z</time>
      </trkpt>
      <trkpt lat="46.5276" lon="5.17928">
        <ele>194.6</ele>
        <time>2022-01-29T12:46:26Z</time>
      </trkpt>
      <trkpt lat="46.52763" lon="5.17891">
        <ele>194</ele>
        <time>2022-01-29T12:46:29Z</time>
      </trkpt>
      <trkpt lat="46.52766" lon="5.17859">
        <ele>192.8</ele>
        <time>2022-01-29T12:46:33Z</time>
      </trkpt>
      <trkpt lat="46.52771" lon="5.1781">
        <ele>192.6</ele>
        <time>2022-01-29T12:46:37Z</time>
      </trkpt>
      <trkpt lat="46.52779" lon="5.17733">
        <ele>192.4</ele>
        <time>2022-01-29T12:46:45Z</time>
      </trkpt>
      <trkpt lat="46.52782" lon="5.17705">
        <ele>192.2</ele>
        <time>2022-01-29T12:46:48Z</time>
      </trkpt>
      <trkpt lat="46.52788" lon="5.17679">
        <ele>192.2</ele>
        <time>2022-01-29T12:46:51Z</time>
      </trkpt>
      <trkpt lat="46.52797" lon="5.17666">
        <ele>192.2</ele>
        <time>2022-01-29T12:46:53Z</time>
      </trkpt>
      <trkpt lat="46.52812" lon="5.17649">
        <ele>192.4</ele>
        <time>2022-01-29T12:46:56Z</time>
      </trkpt>
      <trkpt lat="46.52819" lon="5.17638">
        <ele>192.4</ele>
        <time>2022-01-29T12:46:58Z</time>
      </trkpt>
      <trkpt lat="46.52819" lon="5.17631">
        <ele>192.4</ele>
        <time>2022-01-29T12:46:59Z</time>
      </trkpt>
      <trkpt lat="46.52818" lon="5.17625">
        <ele>192.4</ele>
        <time>2022-01-29T12:47:00Z</time>
      </trkpt>
      <trkpt lat="46.52812" lon="5.17613">
        <ele>192.4</ele>
        <time>2022-01-29T12:47:02Z</time>
      </trkpt>
      <trkpt lat="46.52797" lon="5.17589">
        <ele>192.8</ele>
        <time>2022-01-29T12:47:06Z</time>
      </trkpt>
      <trkpt lat="46.52793" lon="5.17582">
        <ele>192.8</ele>
        <time>2022-01-29T12:47:07Z</time>
      </trkpt>
      <trkpt lat="46.52759" lon="5.17528">
        <ele>192.8</ele>
        <time>2022-01-29T12:47:15Z</time>
      </trkpt>
      <trkpt lat="46.5272" lon="5.17467">
        <ele>192.8</ele>
        <time>2022-01-29T12:47:25Z</time>
      </trkpt>
      <trkpt lat="46.52694" lon="5.17435">
        <ele>193.8</ele>
        <time>2022-01-29T12:47:32Z</time>
      </trkpt>
      <trkpt lat="46.52691" lon="5.17431">
        <ele>194</ele>
        <time>2022-01-29T12:47:33Z</time>
      </trkpt>
      <trkpt lat="46.52671" lon="5.17408">
        <ele>195</ele>
        <time>2022-01-29T12:47:39Z</time>
      </trkpt>
      <trkpt lat="46.52664" lon="5.17401">
        <ele>195.4</ele>
        <time>2022-01-29T12:47:41Z</time>
      </trkpt>
      <trkpt lat="46.52654" lon="5.1739">
        <ele>196</ele>
        <time>2022-01-29T12:47:44Z</time>
      </trkpt>
      <trkpt lat="46.52641" lon="5.17377">
        <ele>197</ele>
        <time>2022-01-29T12:47:48Z</time>
      </trkpt>
      <trkpt lat="46.5263" lon="5.17363">
        <ele>198</ele>
        <time>2022-01-29T12:47:52Z</time>
      </trkpt>
      <trkpt lat="46.52618" lon="5.17352">
        <ele>199</ele>
        <time>2022-01-29T12:47:56Z</time>
      </trkpt>
      <trkpt lat="46.52616" lon="5.17349">
        <ele>199.2</ele>
        <time>2022-01-29T12:47:57Z</time>
      </trkpt>
      <trkpt lat="46.52603" lon="5.17336">
        <ele>200.4</ele>
        <time>2022-01-29T12:48:02Z</time>
      </trkpt>
      <trkpt lat="46.52598" lon="5.17331">
        <ele>201</ele>
        <time>2022-01-29T12:48:04Z</time>
      </trkpt>
      <trkpt lat="46.52592" lon="5.17324">
        <ele>201.4</ele>
        <time>2022-01-29T12:48:06Z</time>
      </trkpt>
      <trkpt lat="46.5258" lon="5.17311">
        <ele>202.6</ele>
        <time>2022-01-29T12:48:10Z</time>
      </trkpt>
      <trkpt lat="46.52566" lon="5.17297">
        <ele>203.4</ele>
        <time>2022-01-29T12:48:14Z</time>
      </trkpt>
      <trkpt lat="46.52562" lon="5.17293">
        <ele>203.8</ele>
        <time>2022-01-29T12:48:15Z</time>
      </trkpt>
      <trkpt lat="46.52546" lon="5.17275">
        <ele>204.8</ele>
        <time>2022-01-29T12:48:20Z</time>
      </trkpt>
      <trkpt lat="46.52537" lon="5.17264">
        <ele>205.2</ele>
        <time>2022-01-29T12:48:23Z</time>
      </trkpt>
      <trkpt lat="46.52521" lon="5.17245">
        <ele>206</ele>
        <time>2022-01-29T12:48:28Z</time>
      </trkpt>
      <trkpt lat="46.52504" lon="5.17226">
        <ele>206.6</ele>
        <time>2022-01-29T12:48:33Z</time>
      </trkpt>
      <trkpt lat="46.52467" lon="5.17184">
        <ele>207</ele>
        <time>2022-01-29T12:48:43Z</time>
      </trkpt>
      <trkpt lat="46.52435" lon="5.17148">
        <ele>207.2</ele>
        <time>2022-01-29T12:48:51Z</time>
      </trkpt>
      <trkpt lat="46.52431" lon="5.17143">
        <ele>207.2</ele>
        <time>2022-01-29T12:48:52Z</time>
      </trkpt>
      <trkpt lat="46.5239" lon="5.17092">
        <ele>207.4</ele>
        <time>2022-01-29T12:49:02Z</time>
      </trkpt>
      <trkpt lat="46.52385" lon="5.17087">
        <ele>207.4</ele>
        <time>2022-01-29T12:49:03Z</time>
      </trkpt>
      <trkpt lat="46.52339" lon="5.17035">
        <ele>207</ele>
        <time>2022-01-29T12:49:13Z</time>
      </trkpt>
      <trkpt lat="46.52303" lon="5.1699">
        <ele>206.6</ele>
        <time>2022-01-29T12:49:21Z</time>
      </trkpt>
      <trkpt lat="46.52283" lon="5.16945">
        <ele>206.4</ele>
        <time>2022-01-29T12:49:27Z</time>
      </trkpt>
      <trkpt lat="46.52276" lon="5.16893">
        <ele>206.4</ele>
        <time>2022-01-29T12:49:33Z</time>
      </trkpt>
      <trkpt lat="46.52279" lon="5.16833">
        <ele>206.4</ele>
        <time>2022-01-29T12:49:40Z</time>
      </trkpt>
      <trkpt lat="46.5228" lon="5.16751">
        <ele>207.2</ele>
        <time>2022-01-29T12:49:50Z</time>
      </trkpt>
      <trkpt lat="46.52275" lon="5.16702">
        <ele>208</ele>
        <time>2022-01-29T12:49:56Z</time>
      </trkpt>
      <trkpt lat="46.52273" lon="5.16695">
        <ele>208</ele>
        <time>2022-01-29T12:49:57Z</time>
      </trkpt>
      <trkpt lat="46.52265" lon="5.16674">
        <ele>208.2</ele>
        <time>2022-01-29T12:50:00Z</time>
      </trkpt>
      <trkpt lat="46.52256" lon="5.16661">
        <ele>208.2</ele>
        <time>2022-01-29T12:50:02Z</time>
      </trkpt>
      <trkpt lat="46.52252" lon="5.16655">
        <ele>208.4</ele>
        <time>2022-01-29T12:50:03Z</time>
      </trkpt>
      <trkpt lat="46.52241" lon="5.16644">
        <ele>208.6</ele>
        <time>2022-01-29T12:50:05Z</time>
      </trkpt>
      <trkpt lat="46.52235" lon="5.1664">
        <ele>208.6</ele>
        <time>2022-01-29T12:50:06Z</time>
      </trkpt>
      <trkpt lat="46.52194" lon="5.16616">
        <ele>208.4</ele>
        <time>2022-01-29T12:50:13Z</time>
      </trkpt>
      <trkpt lat="46.52138" lon="5.16586">
        <ele>208.2</ele>
        <time>2022-01-29T12:50:23Z</time>
      </trkpt>
      <trkpt lat="46.52081" lon="5.16554">
        <ele>208.4</ele>
        <time>2022-01-29T12:50:33Z</time>
      </trkpt>
      <trkpt lat="46.52075" lon="5.16551">
        <ele>208.4</ele>
        <time>2022-01-29T12:50:34Z</time>
      </trkpt>
      <trkpt lat="46.52048" lon="5.16543">
        <ele>208</ele>
        <time>2022-01-29T12:50:38Z</time>
      </trkpt>
      <trkpt lat="46.52041" lon="5.16543">
        <ele>207.8</ele>
        <time>2022-01-29T12:50:39Z</time>
      </trkpt>
      <trkpt lat="46.52013" lon="5.16547">
        <ele>207.2</ele>
        <time>2022-01-29T12:50:43Z</time>
      </trkpt>
      <trkpt lat="46.51999" lon="5.1655">
        <ele>207</ele>
        <time>2022-01-29T12:50:45Z</time>
      </trkpt>
      <trkpt lat="46.5194" lon="5.16561">
        <ele>206</ele>
        <time>2022-01-29T12:50:53Z</time>
      </trkpt>
      <trkpt lat="46.51906" lon="5.16568">
        <ele>204.6</ele>
        <time>2022-01-29T12:50:57Z</time>
      </trkpt>
      <trkpt lat="46.51879" lon="5.16574">
        <ele>203.6</ele>
        <time>2022-01-29T12:51:00Z</time>
      </trkpt>
      <trkpt lat="46.51861" lon="5.16577">
        <ele>202.4</ele>
        <time>2022-01-29T12:51:02Z</time>
      </trkpt>
      <trkpt lat="46.51834" lon="5.16578">
        <ele>201.4</ele>
        <time>2022-01-29T12:51:05Z</time>
      </trkpt>
      <trkpt lat="46.51825" lon="5.16578">
        <ele>201</ele>
        <time>2022-01-29T12:51:06Z</time>
      </trkpt>
      <trkpt lat="46.51809" lon="5.16576">
        <ele>200.2</ele>
        <time>2022-01-29T12:51:08Z</time>
      </trkpt>
      <trkpt lat="46.51769" lon="5.16574">
        <ele>199</ele>
        <time>2022-01-29T12:51:13Z</time>
      </trkpt>
      <trkpt lat="46.51761" lon="5.16575">
        <ele>199</ele>
        <time>2022-01-29T12:51:14Z</time>
      </trkpt>
      <trkpt lat="46.51747" lon="5.1658">
        <ele>198.8</ele>
        <time>2022-01-29T12:51:16Z</time>
      </trkpt>
      <trkpt lat="46.51725" lon="5.16599">
        <ele>198.6</ele>
        <time>2022-01-29T12:51:20Z</time>
      </trkpt>
      <trkpt lat="46.51691" lon="5.16637">
        <ele>199.6</ele>
        <time>2022-01-29T12:51:28Z</time>
      </trkpt>
      <trkpt lat="46.51686" lon="5.16641">
        <ele>200</ele>
        <time>2022-01-29T12:51:29Z</time>
      </trkpt>
      <trkpt lat="46.51676" lon="5.16647">
        <ele>200.4</ele>
        <time>2022-01-29T12:51:31Z</time>
      </trkpt>
      <trkpt lat="46.51665" lon="5.1665">
        <ele>200.8</ele>
        <time>2022-01-29T12:51:33Z</time>
      </trkpt>
      <trkpt lat="46.51633" lon="5.16656">
        <ele>201.4</ele>
        <time>2022-01-29T12:51:39Z</time>
      </trkpt>
      <trkpt lat="46.51622" lon="5.1666">
        <ele>201.6</ele>
        <time>2022-01-29T12:51:41Z</time>
      </trkpt>
      <trkpt lat="46.5161" lon="5.16665">
        <ele>202</ele>
        <time>2022-01-29T12:51:43Z</time>
      </trkpt>
      <trkpt lat="46.5158" lon="5.16684">
        <ele>202.4</ele>
        <time>2022-01-29T12:51:48Z</time>
      </trkpt>
      <trkpt lat="46.51554" lon="5.16699">
        <ele>202.2</ele>
        <time>2022-01-29T12:51:52Z</time>
      </trkpt>
      <trkpt lat="46.51547" lon="5.167">
        <ele>201.8</ele>
        <time>2022-01-29T12:51:53Z</time>
      </trkpt>
      <trkpt lat="46.5154" lon="5.167">
        <ele>201.6</ele>
        <time>2022-01-29T12:51:54Z</time>
      </trkpt>
      <trkpt lat="46.5152" lon="5.16692">
        <ele>201.4</ele>
        <time>2022-01-29T12:51:57Z</time>
      </trkpt>
      <trkpt lat="46.51464" lon="5.16674">
        <ele>200.6</ele>
        <time>2022-01-29T12:52:05Z</time>
      </trkpt>
      <trkpt lat="46.51459" lon="5.16673">
        <ele>200.4</ele>
        <time>2022-01-29T12:52:06Z</time>
      </trkpt>
      <trkpt lat="46.51418" lon="5.16671">
        <ele>200.2</ele>
        <time>2022-01-29T12:52:12Z</time>
      </trkpt>
      <trkpt lat="46.51395" lon="5.16681">
        <ele>200.2</ele>
        <time>2022-01-29T12:52:17Z</time>
      </trkpt>
      <trkpt lat="46.51383" lon="5.1669">
        <ele>200.2</ele>
        <time>2022-01-29T12:52:18Z</time>
      </trkpt>
      <trkpt lat="46.51362" lon="5.16709">
        <ele>200.4</ele>
        <time>2022-01-29T12:52:22Z</time>
      </trkpt>
      <trkpt lat="46.51322" lon="5.1674">
        <ele>200.4</ele>
        <time>2022-01-29T12:52:29Z</time>
      </trkpt>
      <trkpt lat="46.5127" lon="5.16773">
        <ele>200.2</ele>
        <time>2022-01-29T12:52:38Z</time>
      </trkpt>
      <trkpt lat="46.51264" lon="5.16776">
        <ele>200.2</ele>
        <time>2022-01-29T12:52:39Z</time>
      </trkpt>
      <trkpt lat="46.51257" lon="5.16778">
        <ele>200.2</ele>
        <time>2022-01-29T12:52:40Z</time>
      </trkpt>
      <trkpt lat="46.51243" lon="5.16779">
        <ele>200</ele>
        <time>2022-01-29T12:52:42Z</time>
      </trkpt>
      <trkpt lat="46.51236" lon="5.16778">
        <ele>200</ele>
        <time>2022-01-29T12:52:43Z</time>
      </trkpt>
      <trkpt lat="46.51217" lon="5.16769">
        <ele>199.8</ele>
        <time>2022-01-29T12:52:46Z</time>
      </trkpt>
      <trkpt lat="46.51205" lon="5.1676">
        <ele>199.2</ele>
        <time>2022-01-29T12:52:48Z</time>
      </trkpt>
      <trkpt lat="46.51173" lon="5.16721">
        <ele>198.8</ele>
        <time>2022-01-29T12:52:54Z</time>
      </trkpt>
      <trkpt lat="46.51146" lon="5.16684">
        <ele>198.2</ele>
        <time>2022-01-29T12:52:59Z</time>
      </trkpt>
      <trkpt lat="46.51124" lon="5.16654">
        <ele>197.8</ele>
        <time>2022-01-29T12:53:03Z</time>
      </trkpt>
      <trkpt lat="46.51094" lon="5.16624">
        <ele>197.2</ele>
        <time>2022-01-29T12:53:08Z</time>
      </trkpt>
      <trkpt lat="46.51087" lon="5.16621">
        <ele>197</ele>
        <time>2022-01-29T12:53:09Z</time>
      </trkpt>
      <trkpt lat="46.51041" lon="5.16604">
        <ele>196.8</ele>
        <time>2022-01-29T12:53:16Z</time>
      </trkpt>
      <trkpt lat="46.51016" lon="5.16589">
        <ele>196.6</ele>
        <time>2022-01-29T12:53:20Z</time>
      </trkpt>
      <trkpt lat="46.51011" lon="5.16584">
        <ele>196.4</ele>
        <time>2022-01-29T12:53:21Z</time>
      </trkpt>
      <trkpt lat="46.50995" lon="5.16569">
        <ele>196.4</ele>
        <time>2022-01-29T12:53:24Z</time>
      </trkpt>
      <trkpt lat="46.50978" lon="5.16558">
        <ele>196.2</ele>
        <time>2022-01-29T12:53:27Z</time>
      </trkpt>
      <trkpt lat="46.50972" lon="5.16557">
        <ele>196.2</ele>
        <time>2022-01-29T12:53:28Z</time>
      </trkpt>
      <trkpt lat="46.50966" lon="5.16556">
        <ele>196</ele>
        <time>2022-01-29T12:53:29Z</time>
      </trkpt>
      <trkpt lat="46.50946" lon="5.16557">
        <ele>195.8</ele>
        <time>2022-01-29T12:53:32Z</time>
      </trkpt>
      <trkpt lat="46.50902" lon="5.16566">
        <ele>195.4</ele>
        <time>2022-01-29T12:53:39Z</time>
      </trkpt>
      <trkpt lat="46.5087" lon="5.16565">
        <ele>195.2</ele>
        <time>2022-01-29T12:53:44Z</time>
      </trkpt>
      <trkpt lat="46.50823" lon="5.1655">
        <ele>195</ele>
        <time>2022-01-29T12:53:52Z</time>
      </trkpt>
      <trkpt lat="46.5077" lon="5.16532">
        <ele>195</ele>
        <time>2022-01-29T12:54:01Z</time>
      </trkpt>
      <trkpt lat="46.50728" lon="5.16533">
        <ele>195</ele>
        <time>2022-01-29T12:54:08Z</time>
      </trkpt>
      <trkpt lat="46.50684" lon="5.1655">
        <ele>195</ele>
        <time>2022-01-29T12:54:16Z</time>
      </trkpt>
      <trkpt lat="46.50646" lon="5.16582">
        <ele>195.2</ele>
        <time>2022-01-29T12:54:24Z</time>
      </trkpt>
      <trkpt lat="46.5061" lon="5.16614">
        <ele>195.8</ele>
        <time>2022-01-29T12:54:32Z</time>
      </trkpt>
      <trkpt lat="46.50582" lon="5.16636">
        <ele>196.2</ele>
        <time>2022-01-29T12:54:38Z</time>
      </trkpt>
      <trkpt lat="46.50567" lon="5.16646">
        <ele>196.2</ele>
        <time>2022-01-29T12:54:41Z</time>
      </trkpt>
      <trkpt lat="46.50515" lon="5.16678">
        <ele>196.6</ele>
        <time>2022-01-29T12:54:51Z</time>
      </trkpt>
      <trkpt lat="46.50463" lon="5.16708">
        <ele>196.6</ele>
        <time>2022-01-29T12:55:00Z</time>
      </trkpt>
      <trkpt lat="46.50451" lon="5.16713">
        <ele>196.4</ele>
        <time>2022-01-29T12:55:02Z</time>
      </trkpt>
      <trkpt lat="46.50431" lon="5.16715">
        <ele>196</ele>
        <time>2022-01-29T12:55:05Z</time>
      </trkpt>
      <trkpt lat="46.50387" lon="5.16704">
        <ele>195.2</ele>
        <time>2022-01-29T12:55:12Z</time>
      </trkpt>
      <trkpt lat="46.50374" lon="5.167">
        <ele>195</ele>
        <time>2022-01-29T12:55:14Z</time>
      </trkpt>
      <trkpt lat="46.50343" lon="5.16687">
        <ele>194.6</ele>
        <time>2022-01-29T12:55:19Z</time>
      </trkpt>
      <trkpt lat="46.50337" lon="5.16683">
        <ele>194.6</ele>
        <time>2022-01-29T12:55:20Z</time>
      </trkpt>
      <trkpt lat="46.50311" lon="5.16654">
        <ele>194.2</ele>
        <time>2022-01-29T12:55:25Z</time>
      </trkpt>
      <trkpt lat="46.50307" lon="5.16648">
        <ele>194.2</ele>
        <time>2022-01-29T12:55:26Z</time>
      </trkpt>
      <trkpt lat="46.50291" lon="5.16632">
        <ele>194.2</ele>
        <time>2022-01-29T12:55:29Z</time>
      </trkpt>
      <trkpt lat="46.50286" lon="5.16628">
        <ele>194.2</ele>
        <time>2022-01-29T12:55:30Z</time>
      </trkpt>
      <trkpt lat="46.5028" lon="5.16625">
        <ele>194.2</ele>
        <time>2022-01-29T12:55:31Z</time>
      </trkpt>
      <trkpt lat="46.50269" lon="5.16622">
        <ele>194</ele>
        <time>2022-01-29T12:55:33Z</time>
      </trkpt>
      <trkpt lat="46.50263" lon="5.16622">
        <ele>194</ele>
        <time>2022-01-29T12:55:34Z</time>
      </trkpt>
      <trkpt lat="46.50212" lon="5.16624">
        <ele>194.2</ele>
        <time>2022-01-29T12:55:43Z</time>
      </trkpt>
      <trkpt lat="46.50157" lon="5.16628">
        <ele>195</ele>
        <time>2022-01-29T12:55:53Z</time>
      </trkpt>
      <trkpt lat="46.50152" lon="5.16628">
        <ele>195</ele>
        <time>2022-01-29T12:55:54Z</time>
      </trkpt>
      <trkpt lat="46.50132" lon="5.16628">
        <ele>195.2</ele>
        <time>2022-01-29T12:55:58Z</time>
      </trkpt>
      <trkpt lat="46.50102" lon="5.16627">
        <ele>195.8</ele>
        <time>2022-01-29T12:56:04Z</time>
      </trkpt>
      <trkpt lat="46.50077" lon="5.16622">
        <ele>196.4</ele>
        <time>2022-01-29T12:56:09Z</time>
      </trkpt>
      <trkpt lat="46.50054" lon="5.16616">
        <ele>197.2</ele>
        <time>2022-01-29T12:56:14Z</time>
      </trkpt>
      <trkpt lat="46.50035" lon="5.16612">
        <ele>197.6</ele>
        <time>2022-01-29T12:56:18Z</time>
      </trkpt>
      <trkpt lat="46.50016" lon="5.16607">
        <ele>198</ele>
        <time>2022-01-29T12:56:22Z</time>
      </trkpt>
      <trkpt lat="46.49994" lon="5.16599">
        <ele>198.8</ele>
        <time>2022-01-29T12:56:27Z</time>
      </trkpt>
      <trkpt lat="46.49979" lon="5.16594">
        <ele>199</ele>
        <time>2022-01-29T12:56:30Z</time>
      </trkpt>
      <trkpt lat="46.49955" lon="5.16586">
        <ele>199.8</ele>
        <time>2022-01-29T12:56:35Z</time>
      </trkpt>
      <trkpt lat="46.49931" lon="5.16578">
        <ele>200.4</ele>
        <time>2022-01-29T12:56:40Z</time>
      </trkpt>
      <trkpt lat="46.49916" lon="5.16574">
        <ele>200.8</ele>
        <time>2022-01-29T12:56:43Z</time>
      </trkpt>
      <trkpt lat="46.49874" lon="5.16567">
        <ele>201.2</ele>
        <time>2022-01-29T12:56:51Z</time>
      </trkpt>
      <trkpt lat="46.49815" lon="5.16558">
        <ele>201.8</ele>
        <time>2022-01-29T12:57:02Z</time>
      </trkpt>
      <trkpt lat="46.49804" lon="5.16557">
        <ele>201.8</ele>
        <time>2022-01-29T12:57:04Z</time>
      </trkpt>
      <trkpt lat="46.49799" lon="5.16556">
        <ele>202</ele>
        <time>2022-01-29T12:57:05Z</time>
      </trkpt>
      <trkpt lat="46.49741" lon="5.16547">
        <ele>202.6</ele>
        <time>2022-01-29T12:57:16Z</time>
      </trkpt>
      <trkpt lat="46.49725" lon="5.16547">
        <ele>203</ele>
        <time>2022-01-29T12:57:19Z</time>
      </trkpt>
      <trkpt lat="46.49695" lon="5.16549">
        <ele>204</ele>
        <time>2022-01-29T12:57:25Z</time>
      </trkpt>
      <trkpt lat="46.49679" lon="5.16553">
        <ele>204.4</ele>
        <time>2022-01-29T12:57:29Z</time>
      </trkpt>
      <trkpt lat="46.49667" lon="5.16555">
        <ele>205</ele>
        <time>2022-01-29T12:57:32Z</time>
      </trkpt>
      <trkpt lat="46.49651" lon="5.1656">
        <ele>206.2</ele>
        <time>2022-01-29T12:57:36Z</time>
      </trkpt>
      <trkpt lat="46.49631" lon="5.1657">
        <ele>207.4</ele>
        <time>2022-01-29T12:57:41Z</time>
      </trkpt>
      <trkpt lat="46.49615" lon="5.16577">
        <ele>208</ele>
        <time>2022-01-29T12:57:45Z</time>
      </trkpt>
      <trkpt lat="46.49604" lon="5.16582">
        <ele>208.6</ele>
        <time>2022-01-29T12:57:48Z</time>
      </trkpt>
      <trkpt lat="46.49584" lon="5.1659">
        <ele>209.6</ele>
        <time>2022-01-29T12:57:53Z</time>
      </trkpt>
      <trkpt lat="46.4958" lon="5.16591">
        <ele>209.6</ele>
        <time>2022-01-29T12:57:54Z</time>
      </trkpt>
      <trkpt lat="46.49549" lon="5.16604">
        <ele>210.6</ele>
        <time>2022-01-29T12:58:01Z</time>
      </trkpt>
      <trkpt lat="46.49539" lon="5.16607">
        <ele>211</ele>
        <time>2022-01-29T12:58:03Z</time>
      </trkpt>
      <trkpt lat="46.4949" lon="5.16625">
        <ele>211</ele>
        <time>2022-01-29T12:58:12Z</time>
      </trkpt>
      <trkpt lat="46.49451" lon="5.16632">
        <ele>210.6</ele>
        <time>2022-01-29T12:58:18Z</time>
      </trkpt>
      <trkpt lat="46.49411" lon="5.16632">
        <ele>209.6</ele>
        <time>2022-01-29T12:58:24Z</time>
      </trkpt>
      <trkpt lat="46.49404" lon="5.16632">
        <ele>209.6</ele>
        <time>2022-01-29T12:58:25Z</time>
      </trkpt>
      <trkpt lat="46.49345" lon="5.16631">
        <ele>209</ele>
        <time>2022-01-29T12:58:34Z</time>
      </trkpt>
      <trkpt lat="46.49325" lon="5.1663">
        <ele>208.8</ele>
        <time>2022-01-29T12:58:37Z</time>
      </trkpt>
      <trkpt lat="46.49291" lon="5.16629">
        <ele>208.6</ele>
        <time>2022-01-29T12:58:42Z</time>
      </trkpt>
      <trkpt lat="46.49271" lon="5.16628">
        <ele>208.4</ele>
        <time>2022-01-29T12:58:45Z</time>
      </trkpt>
      <trkpt lat="46.49216" lon="5.16636">
        <ele>207.6</ele>
        <time>2022-01-29T12:58:53Z</time>
      </trkpt>
      <trkpt lat="46.4921" lon="5.16638">
        <ele>207.4</ele>
        <time>2022-01-29T12:58:54Z</time>
      </trkpt>
      <trkpt lat="46.49163" lon="5.16656">
        <ele>207</ele>
        <time>2022-01-29T12:59:01Z</time>
      </trkpt>
      <trkpt lat="46.49114" lon="5.16673">
        <ele>206.8</ele>
        <time>2022-01-29T12:59:09Z</time>
      </trkpt>
      <trkpt lat="46.49059" lon="5.16693">
        <ele>207</ele>
        <time>2022-01-29T12:59:18Z</time>
      </trkpt>
      <trkpt lat="46.49046" lon="5.16698">
        <ele>207</ele>
        <time>2022-01-29T12:59:20Z</time>
      </trkpt>
      <trkpt lat="46.49003" lon="5.16715">
        <ele>207.2</ele>
        <time>2022-01-29T12:59:27Z</time>
      </trkpt>
      <trkpt lat="46.48951" lon="5.1674">
        <ele>207.4</ele>
        <time>2022-01-29T12:59:36Z</time>
      </trkpt>
      <trkpt lat="46.48907" lon="5.16762">
        <ele>208</ele>
        <time>2022-01-29T12:59:44Z</time>
      </trkpt>
      <trkpt lat="46.48854" lon="5.16794">
        <ele>208.6</ele>
        <time>2022-01-29T12:59:54Z</time>
      </trkpt>
      <trkpt lat="46.48817" lon="5.16815">
        <ele>209.8</ele>
        <time>2022-01-29T13:00:01Z</time>
      </trkpt>
      <trkpt lat="46.48812" lon="5.16817">
        <ele>209.8</ele>
        <time>2022-01-29T13:00:02Z</time>
      </trkpt>
      <trkpt lat="46.48768" lon="5.16831">
        <ele>210.8</ele>
        <time>2022-01-29T13:00:10Z</time>
      </trkpt>
      <trkpt lat="46.48714" lon="5.16838">
        <ele>210.4</ele>
        <time>2022-01-29T13:00:19Z</time>
      </trkpt>
      <trkpt lat="46.48702" lon="5.1684">
        <ele>210.4</ele>
        <time>2022-01-29T13:00:21Z</time>
      </trkpt>
      <trkpt lat="46.48646" lon="5.16848">
        <ele>210.4</ele>
        <time>2022-01-29T13:00:30Z</time>
      </trkpt>
      <trkpt lat="46.48634" lon="5.16849">
        <ele>210.2</ele>
        <time>2022-01-29T13:00:32Z</time>
      </trkpt>
      <trkpt lat="46.48608" lon="5.16852">
        <ele>210</ele>
        <time>2022-01-29T13:00:37Z</time>
      </trkpt>
      <trkpt lat="46.48602" lon="5.16856">
        <ele>210</ele>
        <time>2022-01-29T13:00:39Z</time>
      </trkpt>
      <trkpt lat="46.48601" lon="5.1686">
        <ele>210</ele>
        <time>2022-01-29T13:00:40Z</time>
      </trkpt>
      <trkpt lat="46.48607" lon="5.16866">
        <ele>210</ele>
        <time>2022-01-29T13:00:43Z</time>
      </trkpt>
      <trkpt lat="46.48614" lon="5.16868">
        <ele>210</ele>
        <time>2022-01-29T13:00:48Z</time>
      </trkpt>
      <trkpt lat="46.48614" lon="5.16869">
        <ele>210</ele>
        <time>2022-01-29T13:00:51Z</time>
      </trkpt>
      <trkpt lat="46.4861" lon="5.16864">
        <ele>209.8</ele>
        <time>2022-01-29T13:01:39Z</time>
      </trkpt>
      <trkpt lat="46.48607" lon="5.16861">
        <ele>209.8</ele>
        <time>2022-01-29T13:01:40Z</time>
      </trkpt>
      <trkpt lat="46.48596" lon="5.16851">
        <ele>209.8</ele>
        <time>2022-01-29T13:01:43Z</time>
      </trkpt>
      <trkpt lat="46.48592" lon="5.16849">
        <ele>209.6</ele>
        <time>2022-01-29T13:01:44Z</time>
      </trkpt>
      <trkpt lat="46.48563" lon="5.16842">
        <ele>209.6</ele>
        <time>2022-01-29T13:01:49Z</time>
      </trkpt>
      <trkpt lat="46.48556" lon="5.16841">
        <ele>209.4</ele>
        <time>2022-01-29T13:01:50Z</time>
      </trkpt>
      <trkpt lat="46.48532" lon="5.16831">
        <ele>209.4</ele>
        <time>2022-01-29T13:01:54Z</time>
      </trkpt>
      <trkpt lat="46.48488" lon="5.16805">
        <ele>210.2</ele>
        <time>2022-01-29T13:02:02Z</time>
      </trkpt>
      <trkpt lat="46.4845" lon="5.1678">
        <ele>210.8</ele>
        <time>2022-01-29T13:02:10Z</time>
      </trkpt>
      <trkpt lat="46.48446" lon="5.16777">
        <ele>211</ele>
        <time>2022-01-29T13:02:11Z</time>
      </trkpt>
      <trkpt lat="46.4842" lon="5.16757">
        <ele>212</ele>
        <time>2022-01-29T13:02:17Z</time>
      </trkpt>
      <trkpt lat="46.48405" lon="5.16749">
        <ele>212.4</ele>
        <time>2022-01-29T13:02:20Z</time>
      </trkpt>
      <trkpt lat="46.48382" lon="5.16734">
        <ele>213</ele>
        <time>2022-01-29T13:02:25Z</time>
      </trkpt>
      <trkpt lat="46.48353" lon="5.16717">
        <ele>214</ele>
        <time>2022-01-29T13:02:31Z</time>
      </trkpt>
      <trkpt lat="46.48344" lon="5.16711">
        <ele>214.2</ele>
        <time>2022-01-29T13:02:33Z</time>
      </trkpt>
      <trkpt lat="46.48299" lon="5.16683">
        <ele>215.4</ele>
        <time>2022-01-29T13:02:42Z</time>
      </trkpt>
      <trkpt lat="46.48294" lon="5.1668">
        <ele>215.4</ele>
        <time>2022-01-29T13:02:43Z</time>
      </trkpt>
      <trkpt lat="46.48251" lon="5.16659">
        <ele>215.6</ele>
        <time>2022-01-29T13:02:51Z</time>
      </trkpt>
      <trkpt lat="46.48196" lon="5.16636">
        <ele>215.8</ele>
        <time>2022-01-29T13:03:01Z</time>
      </trkpt>
      <trkpt lat="46.48167" lon="5.16623">
        <ele>215.8</ele>
        <time>2022-01-29T13:03:06Z</time>
      </trkpt>
      <trkpt lat="46.48117" lon="5.16591">
        <ele>215.8</ele>
        <time>2022-01-29T13:03:15Z</time>
      </trkpt>
      <trkpt lat="46.48068" lon="5.16547">
        <ele>215.4</ele>
        <time>2022-01-29T13:03:24Z</time>
      </trkpt>
      <trkpt lat="46.4802" lon="5.1651">
        <ele>214.6</ele>
        <time>2022-01-29T13:03:32Z</time>
      </trkpt>
      <trkpt lat="46.48014" lon="5.16506">
        <ele>214.4</ele>
        <time>2022-01-29T13:03:33Z</time>
      </trkpt>
      <trkpt lat="46.48008" lon="5.16502">
        <ele>214.2</ele>
        <time>2022-01-29T13:03:34Z</time>
      </trkpt>
      <trkpt lat="46.47971" lon="5.16475">
        <ele>213.8</ele>
        <time>2022-01-29T13:03:40Z</time>
      </trkpt>
      <trkpt lat="46.47934" lon="5.16448">
        <ele>213.2</ele>
        <time>2022-01-29T13:03:46Z</time>
      </trkpt>
      <trkpt lat="46.47922" lon="5.16437">
        <ele>212.8</ele>
        <time>2022-01-29T13:03:48Z</time>
      </trkpt>
      <trkpt lat="46.47894" lon="5.16408">
        <ele>212.2</ele>
        <time>2022-01-29T13:03:53Z</time>
      </trkpt>
      <trkpt lat="46.47866" lon="5.16378">
        <ele>211.6</ele>
        <time>2022-01-29T13:03:58Z</time>
      </trkpt>
      <trkpt lat="46.47821" lon="5.16327">
        <ele>211.2</ele>
        <time>2022-01-29T13:04:07Z</time>
      </trkpt>
      <trkpt lat="46.47786" lon="5.16291">
        <ele>211.4</ele>
        <time>2022-01-29T13:04:14Z</time>
      </trkpt>
      <trkpt lat="46.47749" lon="5.16255">
        <ele>211.6</ele>
        <time>2022-01-29T13:04:21Z</time>
      </trkpt>
      <trkpt lat="46.4771" lon="5.16233">
        <ele>211.8</ele>
        <time>2022-01-29T13:04:28Z</time>
      </trkpt>
      <trkpt lat="46.47686" lon="5.16229">
        <ele>212.2</ele>
        <time>2022-01-29T13:04:32Z</time>
      </trkpt>
      <trkpt lat="46.47671" lon="5.16226">
        <ele>212.4</ele>
        <time>2022-01-29T13:04:35Z</time>
      </trkpt>
      <trkpt lat="46.47639" lon="5.16219">
        <ele>213.2</ele>
        <time>2022-01-29T13:04:41Z</time>
      </trkpt>
      <trkpt lat="46.47627" lon="5.16216">
        <ele>213.4</ele>
        <time>2022-01-29T13:04:43Z</time>
      </trkpt>
      <trkpt lat="46.47595" lon="5.16198">
        <ele>214.2</ele>
        <time>2022-01-29T13:04:49Z</time>
      </trkpt>
      <trkpt lat="46.47591" lon="5.16195">
        <ele>214.2</ele>
        <time>2022-01-29T13:04:50Z</time>
      </trkpt>
      <trkpt lat="46.4758" lon="5.16184">
        <ele>214.4</ele>
        <time>2022-01-29T13:04:52Z</time>
      </trkpt>
      <trkpt lat="46.47567" lon="5.16167">
        <ele>214.6</ele>
        <time>2022-01-29T13:04:55Z</time>
      </trkpt>
      <trkpt lat="46.4754" lon="5.16115">
        <ele>214.8</ele>
        <time>2022-01-29T13:05:03Z</time>
      </trkpt>
      <trkpt lat="46.47522" lon="5.16057">
        <ele>215.4</ele>
        <time>2022-01-29T13:05:11Z</time>
      </trkpt>
      <trkpt lat="46.47503" lon="5.15998">
        <ele>216.2</ele>
        <time>2022-01-29T13:05:20Z</time>
      </trkpt>
      <trkpt lat="46.47499" lon="5.15992">
        <ele>216.2</ele>
        <time>2022-01-29T13:05:21Z</time>
      </trkpt>
      <trkpt lat="46.47495" lon="5.15987">
        <ele>216.6</ele>
        <time>2022-01-29T13:05:22Z</time>
      </trkpt>
      <trkpt lat="46.47492" lon="5.15982">
        <ele>216.6</ele>
        <time>2022-01-29T13:05:23Z</time>
      </trkpt>
      <trkpt lat="46.47488" lon="5.15979">
        <ele>217</ele>
        <time>2022-01-29T13:05:24Z</time>
      </trkpt>
      <trkpt lat="46.47472" lon="5.15969">
        <ele>217.6</ele>
        <time>2022-01-29T13:05:29Z</time>
      </trkpt>
      <trkpt lat="46.4747" lon="5.15967">
        <ele>217.6</ele>
        <time>2022-01-29T13:05:30Z</time>
      </trkpt>
      <trkpt lat="46.47466" lon="5.15965">
        <ele>217.8</ele>
        <time>2022-01-29T13:05:32Z</time>
      </trkpt>
      <trkpt lat="46.4746" lon="5.15967">
        <ele>217.8</ele>
        <time>2022-01-29T13:05:34Z</time>
      </trkpt>
      <trkpt lat="46.47455" lon="5.15968">
        <ele>218</ele>
        <time>2022-01-29T13:05:35Z</time>
      </trkpt>
      <trkpt lat="46.4744" lon="5.1597">
        <ele>218</ele>
        <time>2022-01-29T13:05:38Z</time>
      </trkpt>
      <trkpt lat="46.47403" lon="5.15967">
        <ele>218</ele>
        <time>2022-01-29T13:05:44Z</time>
      </trkpt>
      <trkpt lat="46.47352" lon="5.15952">
        <ele>218</ele>
        <time>2022-01-29T13:05:52Z</time>
      </trkpt>
      <trkpt lat="46.47301" lon="5.15927">
        <ele>217.8</ele>
        <time>2022-01-29T13:06:00Z</time>
      </trkpt>
      <trkpt lat="46.47256" lon="5.15908">
        <ele>217.6</ele>
        <time>2022-01-29T13:06:07Z</time>
      </trkpt>
      <trkpt lat="46.47249" lon="5.15906">
        <ele>217.6</ele>
        <time>2022-01-29T13:06:08Z</time>
      </trkpt>
      <trkpt lat="46.47229" lon="5.15903">
        <ele>217.6</ele>
        <time>2022-01-29T13:06:11Z</time>
      </trkpt>
      <trkpt lat="46.47216" lon="5.15903">
        <ele>217.4</ele>
        <time>2022-01-29T13:06:13Z</time>
      </trkpt>
      <trkpt lat="46.47158" lon="5.15906">
        <ele>217.4</ele>
        <time>2022-01-29T13:06:22Z</time>
      </trkpt>
      <trkpt lat="46.47152" lon="5.15906">
        <ele>217.4</ele>
        <time>2022-01-29T13:06:23Z</time>
      </trkpt>
      <trkpt lat="46.47098" lon="5.1591">
        <ele>217.6</ele>
        <time>2022-01-29T13:06:32Z</time>
      </trkpt>
      <trkpt lat="46.47072" lon="5.15912">
        <ele>218</ele>
        <time>2022-01-29T13:06:36Z</time>
      </trkpt>
      <trkpt lat="46.47021" lon="5.15908">
        <ele>218</ele>
        <time>2022-01-29T13:06:44Z</time>
      </trkpt>
      <trkpt lat="46.46985" lon="5.15889">
        <ele>217.6</ele>
        <time>2022-01-29T13:06:50Z</time>
      </trkpt>
      <trkpt lat="46.46935" lon="5.15849">
        <ele>217.6</ele>
        <time>2022-01-29T13:06:59Z</time>
      </trkpt>
      <trkpt lat="46.46914" lon="5.15831">
        <ele>217.8</ele>
        <time>2022-01-29T13:07:03Z</time>
      </trkpt>
      <trkpt lat="46.46861" lon="5.15789">
        <ele>217.8</ele>
        <time>2022-01-29T13:07:13Z</time>
      </trkpt>
      <trkpt lat="46.4685" lon="5.15781">
        <ele>217.8</ele>
        <time>2022-01-29T13:07:15Z</time>
      </trkpt>
      <trkpt lat="46.46806" lon="5.15746">
        <ele>217.6</ele>
        <time>2022-01-29T13:07:23Z</time>
      </trkpt>
      <trkpt lat="46.46753" lon="5.15707">
        <ele>217.2</ele>
        <time>2022-01-29T13:07:32Z</time>
      </trkpt>
      <trkpt lat="46.46711" lon="5.15674">
        <ele>216.6</ele>
        <time>2022-01-29T13:07:39Z</time>
      </trkpt>
      <trkpt lat="46.46691" lon="5.15659">
        <ele>216.4</ele>
        <time>2022-01-29T13:07:42Z</time>
      </trkpt>
      <trkpt lat="46.46656" lon="5.15635">
        <ele>215.6</ele>
        <time>2022-01-29T13:07:47Z</time>
      </trkpt>
      <trkpt lat="46.46635" lon="5.15623">
        <ele>215.2</ele>
        <time>2022-01-29T13:07:50Z</time>
      </trkpt>
      <trkpt lat="46.46582" lon="5.15602">
        <ele>214.6</ele>
        <time>2022-01-29T13:07:57Z</time>
      </trkpt>
      <trkpt lat="46.46575" lon="5.15599">
        <ele>214.4</ele>
        <time>2022-01-29T13:07:58Z</time>
      </trkpt>
      <trkpt lat="46.46517" lon="5.15581">
        <ele>213.6</ele>
        <time>2022-01-29T13:08:06Z</time>
      </trkpt>
      <trkpt lat="46.4651" lon="5.15579">
        <ele>213.4</ele>
        <time>2022-01-29T13:08:07Z</time>
      </trkpt>
      <trkpt lat="46.46495" lon="5.15575">
        <ele>213.2</ele>
        <time>2022-01-29T13:08:09Z</time>
      </trkpt>
      <trkpt lat="46.46437" lon="5.15556">
        <ele>212.4</ele>
        <time>2022-01-29T13:08:17Z</time>
      </trkpt>
      <trkpt lat="46.46422" lon="5.15552">
        <ele>212.2</ele>
        <time>2022-01-29T13:08:19Z</time>
      </trkpt>
      <trkpt lat="46.46365" lon="5.15532">
        <ele>211.8</ele>
        <time>2022-01-29T13:08:27Z</time>
      </trkpt>
      <trkpt lat="46.46351" lon="5.15527">
        <ele>211.6</ele>
        <time>2022-01-29T13:08:29Z</time>
      </trkpt>
      <trkpt lat="46.46337" lon="5.15522">
        <ele>211.4</ele>
        <time>2022-01-29T13:08:31Z</time>
      </trkpt>
      <trkpt lat="46.46283" lon="5.155">
        <ele>211</ele>
        <time>2022-01-29T13:08:39Z</time>
      </trkpt>
      <trkpt lat="46.46276" lon="5.15497">
        <ele>210.8</ele>
        <time>2022-01-29T13:08:40Z</time>
      </trkpt>
      <trkpt lat="46.46221" lon="5.15475">
        <ele>210.6</ele>
        <time>2022-01-29T13:08:48Z</time>
      </trkpt>
      <trkpt lat="46.46208" lon="5.1547">
        <ele>210.6</ele>
        <time>2022-01-29T13:08:50Z</time>
      </trkpt>
      <trkpt lat="46.4618" lon="5.1546">
        <ele>210.4</ele>
        <time>2022-01-29T13:08:54Z</time>
      </trkpt>
      <trkpt lat="46.46132" lon="5.15437">
        <ele>209.4</ele>
        <time>2022-01-29T13:09:01Z</time>
      </trkpt>
      <trkpt lat="46.46125" lon="5.15433">
        <ele>209.2</ele>
        <time>2022-01-29T13:09:02Z</time>
      </trkpt>
      <trkpt lat="46.4608" lon="5.15397">
        <ele>208.4</ele>
        <time>2022-01-29T13:09:09Z</time>
      </trkpt>
      <trkpt lat="46.46069" lon="5.15385">
        <ele>208.2</ele>
        <time>2022-01-29T13:09:11Z</time>
      </trkpt>
      <trkpt lat="46.46049" lon="5.15363">
        <ele>208</ele>
        <time>2022-01-29T13:09:15Z</time>
      </trkpt>
      <trkpt lat="46.46026" lon="5.15329">
        <ele>208.4</ele>
        <time>2022-01-29T13:09:21Z</time>
      </trkpt>
      <trkpt lat="46.4601" lon="5.15303">
        <ele>209.4</ele>
        <time>2022-01-29T13:09:27Z</time>
      </trkpt>
      <trkpt lat="46.46004" lon="5.15292">
        <ele>210.2</ele>
        <time>2022-01-29T13:09:31Z</time>
      </trkpt>
      <trkpt lat="46.45998" lon="5.15281">
        <ele>210.4</ele>
        <time>2022-01-29T13:09:34Z</time>
      </trkpt>
      <trkpt lat="46.45995" lon="5.15277">
        <ele>210.6</ele>
        <time>2022-01-29T13:09:35Z</time>
      </trkpt>
      <trkpt lat="46.45992" lon="5.15273">
        <ele>210.8</ele>
        <time>2022-01-29T13:09:36Z</time>
      </trkpt>
      <trkpt lat="46.45981" lon="5.15255">
        <ele>211.4</ele>
        <time>2022-01-29T13:09:40Z</time>
      </trkpt>
      <trkpt lat="46.45965" lon="5.15226">
        <ele>212.6</ele>
        <time>2022-01-29T13:09:46Z</time>
      </trkpt>
      <trkpt lat="46.45952" lon="5.15204">
        <ele>213.4</ele>
        <time>2022-01-29T13:09:51Z</time>
      </trkpt>
      <trkpt lat="46.45949" lon="5.152">
        <ele>214</ele>
        <time>2022-01-29T13:09:52Z</time>
      </trkpt>
      <trkpt lat="46.45937" lon="5.15185">
        <ele>215</ele>
        <time>2022-01-29T13:09:56Z</time>
      </trkpt>
      <trkpt lat="46.45934" lon="5.15182">
        <ele>215</ele>
        <time>2022-01-29T13:09:57Z</time>
      </trkpt>
      <trkpt lat="46.45927" lon="5.15175">
        <ele>215.6</ele>
        <time>2022-01-29T13:09:59Z</time>
      </trkpt>
      <trkpt lat="46.45915" lon="5.15166">
        <ele>216.2</ele>
        <time>2022-01-29T13:10:02Z</time>
      </trkpt>
      <trkpt lat="46.45897" lon="5.15156">
        <ele>217</ele>
        <time>2022-01-29T13:10:06Z</time>
      </trkpt>
      <trkpt lat="46.45892" lon="5.15154">
        <ele>217.2</ele>
        <time>2022-01-29T13:10:07Z</time>
      </trkpt>
      <trkpt lat="46.45864" lon="5.15148">
        <ele>217.4</ele>
        <time>2022-01-29T13:10:12Z</time>
      </trkpt>
      <trkpt lat="46.45819" lon="5.15141">
        <ele>216.8</ele>
        <time>2022-01-29T13:10:19Z</time>
      </trkpt>
      <trkpt lat="46.4578" lon="5.15144">
        <ele>216</ele>
        <time>2022-01-29T13:10:25Z</time>
      </trkpt>
      <trkpt lat="46.45774" lon="5.15145">
        <ele>216</ele>
        <time>2022-01-29T13:10:26Z</time>
      </trkpt>
      <trkpt lat="46.45738" lon="5.15159">
        <ele>216.2</ele>
        <time>2022-01-29T13:10:32Z</time>
      </trkpt>
      <trkpt lat="46.45728" lon="5.15165">
        <ele>216.2</ele>
        <time>2022-01-29T13:10:34Z</time>
      </trkpt>
      <trkpt lat="46.45694" lon="5.15197">
        <ele>216.8</ele>
        <time>2022-01-29T13:10:41Z</time>
      </trkpt>
      <trkpt lat="46.45673" lon="5.1522">
        <ele>217.2</ele>
        <time>2022-01-29T13:10:46Z</time>
      </trkpt>
      <trkpt lat="46.45651" lon="5.15243">
        <ele>217.8</ele>
        <time>2022-01-29T13:10:51Z</time>
      </trkpt>
      <trkpt lat="46.45625" lon="5.1527">
        <ele>218.4</ele>
        <time>2022-01-29T13:10:57Z</time>
      </trkpt>
      <trkpt lat="46.45612" lon="5.15283">
        <ele>218.4</ele>
        <time>2022-01-29T13:11:00Z</time>
      </trkpt>
      <trkpt lat="46.45571" lon="5.15319">
        <ele>219.4</ele>
        <time>2022-01-29T13:11:09Z</time>
      </trkpt>
      <trkpt lat="46.45557" lon="5.1533">
        <ele>219.8</ele>
        <time>2022-01-29T13:11:12Z</time>
      </trkpt>
      <trkpt lat="46.45518" lon="5.15359">
        <ele>220</ele>
        <time>2022-01-29T13:11:19Z</time>
      </trkpt>
      <trkpt lat="46.45482" lon="5.15381">
        <ele>219.4</ele>
        <time>2022-01-29T13:11:25Z</time>
      </trkpt>
      <trkpt lat="46.45425" lon="5.15406">
        <ele>218.4</ele>
        <time>2022-01-29T13:11:33Z</time>
      </trkpt>
      <trkpt lat="46.45417" lon="5.15408">
        <ele>218.2</ele>
        <time>2022-01-29T13:11:34Z</time>
      </trkpt>
      <trkpt lat="46.45378" lon="5.15414">
        <ele>217.4</ele>
        <time>2022-01-29T13:11:39Z</time>
      </trkpt>
      <trkpt lat="46.45354" lon="5.15417">
        <ele>216.2</ele>
        <time>2022-01-29T13:11:42Z</time>
      </trkpt>
      <trkpt lat="46.45323" lon="5.15421">
        <ele>215.2</ele>
        <time>2022-01-29T13:11:46Z</time>
      </trkpt>
      <trkpt lat="46.45277" lon="5.15427">
        <ele>214.2</ele>
        <time>2022-01-29T13:11:52Z</time>
      </trkpt>
      <trkpt lat="46.4527" lon="5.15428">
        <ele>214.2</ele>
        <time>2022-01-29T13:11:53Z</time>
      </trkpt>
      <trkpt lat="46.45232" lon="5.15433">
        <ele>214.2</ele>
        <time>2022-01-29T13:11:59Z</time>
      </trkpt>
      <trkpt lat="46.45174" lon="5.15441">
        <ele>214.8</ele>
        <time>2022-01-29T13:12:08Z</time>
      </trkpt>
      <trkpt lat="46.45114" lon="5.1545">
        <ele>213.6</ele>
        <time>2022-01-29T13:12:16Z</time>
      </trkpt>
      <trkpt lat="46.4508" lon="5.15453">
        <ele>213.2</ele>
        <time>2022-01-29T13:12:20Z</time>
      </trkpt>
      <trkpt lat="46.45063" lon="5.15453">
        <ele>212.4</ele>
        <time>2022-01-29T13:12:22Z</time>
      </trkpt>
      <trkpt lat="46.45055" lon="5.15451">
        <ele>212</ele>
        <time>2022-01-29T13:12:23Z</time>
      </trkpt>
      <trkpt lat="46.4503" lon="5.15442">
        <ele>211.4</ele>
        <time>2022-01-29T13:12:26Z</time>
      </trkpt>
      <trkpt lat="46.45022" lon="5.15438">
        <ele>211</ele>
        <time>2022-01-29T13:12:27Z</time>
      </trkpt>
      <trkpt lat="46.44993" lon="5.15416">
        <ele>209.8</ele>
        <time>2022-01-29T13:12:31Z</time>
      </trkpt>
      <trkpt lat="46.44987" lon="5.15411">
        <ele>209.8</ele>
        <time>2022-01-29T13:12:32Z</time>
      </trkpt>
      <trkpt lat="46.44951" lon="5.15381">
        <ele>208.8</ele>
        <time>2022-01-29T13:12:38Z</time>
      </trkpt>
      <trkpt lat="46.44945" lon="5.15376">
        <ele>208.8</ele>
        <time>2022-01-29T13:12:39Z</time>
      </trkpt>
      <trkpt lat="46.44901" lon="5.15339">
        <ele>209</ele>
        <time>2022-01-29T13:12:47Z</time>
      </trkpt>
      <trkpt lat="46.44854" lon="5.153">
        <ele>209.8</ele>
        <time>2022-01-29T13:12:56Z</time>
      </trkpt>
      <trkpt lat="46.44829" lon="5.15279">
        <ele>210</ele>
        <time>2022-01-29T13:13:01Z</time>
      </trkpt>
      <trkpt lat="46.44814" lon="5.1527">
        <ele>210</ele>
        <time>2022-01-29T13:13:04Z</time>
      </trkpt>
      <trkpt lat="46.44782" lon="5.15253">
        <ele>211</ele>
        <time>2022-01-29T13:13:10Z</time>
      </trkpt>
      <trkpt lat="46.44771" lon="5.15249">
        <ele>211.4</ele>
        <time>2022-01-29T13:13:12Z</time>
      </trkpt>
      <trkpt lat="46.44736" lon="5.15236">
        <ele>212.2</ele>
        <time>2022-01-29T13:13:19Z</time>
      </trkpt>
      <trkpt lat="46.44724" lon="5.15233">
        <ele>212.4</ele>
        <time>2022-01-29T13:13:21Z</time>
      </trkpt>
      <trkpt lat="46.44688" lon="5.15229">
        <ele>213</ele>
        <time>2022-01-29T13:13:28Z</time>
      </trkpt>
      <trkpt lat="46.44676" lon="5.15229">
        <ele>213.2</ele>
        <time>2022-01-29T13:13:30Z</time>
      </trkpt>
      <trkpt lat="46.44629" lon="5.15232">
        <ele>214</ele>
        <time>2022-01-29T13:13:39Z</time>
      </trkpt>
      <trkpt lat="46.44618" lon="5.15234">
        <ele>214.4</ele>
        <time>2022-01-29T13:13:41Z</time>
      </trkpt>
      <trkpt lat="46.44587" lon="5.15239">
        <ele>215</ele>
        <time>2022-01-29T13:13:47Z</time>
      </trkpt>
      <trkpt lat="46.44577" lon="5.15241">
        <ele>215.4</ele>
        <time>2022-01-29T13:13:49Z</time>
      </trkpt>
      <trkpt lat="46.44541" lon="5.15249">
        <ele>216.4</ele>
        <time>2022-01-29T13:13:56Z</time>
      </trkpt>
      <trkpt lat="46.44537" lon="5.1525">
        <ele>216.6</ele>
        <time>2022-01-29T13:13:57Z</time>
      </trkpt>
      <trkpt lat="46.44483" lon="5.15263">
        <ele>217.4</ele>
        <time>2022-01-29T13:14:07Z</time>
      </trkpt>
      <trkpt lat="46.44478" lon="5.15264">
        <ele>217.4</ele>
        <time>2022-01-29T13:14:08Z</time>
      </trkpt>
      <trkpt lat="46.44432" lon="5.15271">
        <ele>217.4</ele>
        <time>2022-01-29T13:14:15Z</time>
      </trkpt>
      <trkpt lat="46.44378" lon="5.15284">
        <ele>216.4</ele>
        <time>2022-01-29T13:14:23Z</time>
      </trkpt>
      <trkpt lat="46.4437" lon="5.15287">
        <ele>216.2</ele>
        <time>2022-01-29T13:14:24Z</time>
      </trkpt>
      <trkpt lat="46.44332" lon="5.15309">
        <ele>215.6</ele>
        <time>2022-01-29T13:14:30Z</time>
      </trkpt>
      <trkpt lat="46.44287" lon="5.15344">
        <ele>215.8</ele>
        <time>2022-01-29T13:14:38Z</time>
      </trkpt>
      <trkpt lat="46.44265" lon="5.15357">
        <ele>215.8</ele>
        <time>2022-01-29T13:14:42Z</time>
      </trkpt>
      <trkpt lat="46.44251" lon="5.1536">
        <ele>216</ele>
        <time>2022-01-29T13:14:44Z</time>
      </trkpt>
      <trkpt lat="46.44202" lon="5.15359">
        <ele>216.2</ele>
        <time>2022-01-29T13:14:52Z</time>
      </trkpt>
      <trkpt lat="46.44144" lon="5.15355">
        <ele>216</ele>
        <time>2022-01-29T13:15:01Z</time>
      </trkpt>
      <trkpt lat="46.44086" lon="5.15351">
        <ele>215.8</ele>
        <time>2022-01-29T13:15:10Z</time>
      </trkpt>
      <trkpt lat="46.44074" lon="5.1535">
        <ele>216</ele>
        <time>2022-01-29T13:15:12Z</time>
      </trkpt>
      <trkpt lat="46.44018" lon="5.1535">
        <ele>216.2</ele>
        <time>2022-01-29T13:15:21Z</time>
      </trkpt>
      <trkpt lat="46.44007" lon="5.15351">
        <ele>216.4</ele>
        <time>2022-01-29T13:15:23Z</time>
      </trkpt>
      <trkpt lat="46.43949" lon="5.15353">
        <ele>217</ele>
        <time>2022-01-29T13:15:33Z</time>
      </trkpt>
      <trkpt lat="46.43942" lon="5.15353">
        <ele>217.2</ele>
        <time>2022-01-29T13:15:34Z</time>
      </trkpt>
      <trkpt lat="46.43932" lon="5.15353">
        <ele>217.2</ele>
        <time>2022-01-29T13:15:36Z</time>
      </trkpt>
      <trkpt lat="46.43892" lon="5.15351">
        <ele>217.8</ele>
        <time>2022-01-29T13:15:43Z</time>
      </trkpt>
      <trkpt lat="46.43863" lon="5.15343">
        <ele>218</ele>
        <time>2022-01-29T13:15:48Z</time>
      </trkpt>
      <trkpt lat="46.43857" lon="5.1534">
        <ele>218.2</ele>
        <time>2022-01-29T13:15:49Z</time>
      </trkpt>
      <trkpt lat="46.43852" lon="5.15337">
        <ele>218.2</ele>
        <time>2022-01-29T13:15:50Z</time>
      </trkpt>
      <trkpt lat="46.43832" lon="5.15324">
        <ele>218.8</ele>
        <time>2022-01-29T13:15:54Z</time>
      </trkpt>
      <trkpt lat="46.43808" lon="5.15304">
        <ele>219.6</ele>
        <time>2022-01-29T13:15:59Z</time>
      </trkpt>
      <trkpt lat="46.43801" lon="5.15296">
        <ele>219.8</ele>
        <time>2022-01-29T13:16:01Z</time>
      </trkpt>
      <trkpt lat="46.43759" lon="5.15255">
        <ele>220.6</ele>
        <time>2022-01-29T13:16:10Z</time>
      </trkpt>
      <trkpt lat="46.43722" lon="5.15213">
        <ele>220.8</ele>
        <time>2022-01-29T13:16:17Z</time>
      </trkpt>
      <trkpt lat="46.43716" lon="5.15206">
        <ele>220.8</ele>
        <time>2022-01-29T13:16:18Z</time>
      </trkpt>
      <trkpt lat="46.43693" lon="5.15177">
        <ele>220.6</ele>
        <time>2022-01-29T13:16:22Z</time>
      </trkpt>
      <trkpt lat="46.43668" lon="5.15148">
        <ele>219.4</ele>
        <time>2022-01-29T13:16:26Z</time>
      </trkpt>
      <trkpt lat="46.43643" lon="5.15117">
        <ele>218.2</ele>
        <time>2022-01-29T13:16:30Z</time>
      </trkpt>
      <trkpt lat="46.43636" lon="5.15109">
        <ele>218</ele>
        <time>2022-01-29T13:16:31Z</time>
      </trkpt>
      <trkpt lat="46.43623" lon="5.15094">
        <ele>217.2</ele>
        <time>2022-01-29T13:16:33Z</time>
      </trkpt>
      <trkpt lat="46.43595" lon="5.1506">
        <ele>216</ele>
        <time>2022-01-29T13:16:37Z</time>
      </trkpt>
      <trkpt lat="46.43575" lon="5.15037">
        <ele>215.2</ele>
        <time>2022-01-29T13:16:40Z</time>
      </trkpt>
      <trkpt lat="46.43568" lon="5.15029">
        <ele>214.8</ele>
        <time>2022-01-29T13:16:41Z</time>
      </trkpt>
      <trkpt lat="46.43541" lon="5.14997">
        <ele>213.8</ele>
        <time>2022-01-29T13:16:45Z</time>
      </trkpt>
      <trkpt lat="46.4352" lon="5.14973">
        <ele>212.4</ele>
        <time>2022-01-29T13:16:48Z</time>
      </trkpt>
      <trkpt lat="46.435" lon="5.14948">
        <ele>211.4</ele>
        <time>2022-01-29T13:16:51Z</time>
      </trkpt>
      <trkpt lat="46.43492" lon="5.1494">
        <ele>211.2</ele>
        <time>2022-01-29T13:16:52Z</time>
      </trkpt>
      <trkpt lat="46.43465" lon="5.14908">
        <ele>210</ele>
        <time>2022-01-29T13:16:56Z</time>
      </trkpt>
      <trkpt lat="46.43445" lon="5.14885">
        <ele>209</ele>
        <time>2022-01-29T13:16:59Z</time>
      </trkpt>
      <trkpt lat="46.43432" lon="5.14869">
        <ele>208.2</ele>
        <time>2022-01-29T13:17:01Z</time>
      </trkpt>
      <trkpt lat="46.4342" lon="5.14855">
        <ele>207.8</ele>
        <time>2022-01-29T13:17:03Z</time>
      </trkpt>
      <trkpt lat="46.43388" lon="5.14824">
        <ele>207</ele>
        <time>2022-01-29T13:17:08Z</time>
      </trkpt>
      <trkpt lat="46.43369" lon="5.14809">
        <ele>206.8</ele>
        <time>2022-01-29T13:17:11Z</time>
      </trkpt>
      <trkpt lat="46.43351" lon="5.14796">
        <ele>206.8</ele>
        <time>2022-01-29T13:17:14Z</time>
      </trkpt>
      <trkpt lat="46.43313" lon="5.14767">
        <ele>207.4</ele>
        <time>2022-01-29T13:17:21Z</time>
      </trkpt>
      <trkpt lat="46.43277" lon="5.14737">
        <ele>208</ele>
        <time>2022-01-29T13:17:28Z</time>
      </trkpt>
      <trkpt lat="46.43257" lon="5.14719">
        <ele>208.4</ele>
        <time>2022-01-29T13:17:32Z</time>
      </trkpt>
      <trkpt lat="46.43217" lon="5.14672">
        <ele>208.6</ele>
        <time>2022-01-29T13:17:41Z</time>
      </trkpt>
      <trkpt lat="46.43197" lon="5.14646">
        <ele>209</ele>
        <time>2022-01-29T13:17:46Z</time>
      </trkpt>
      <trkpt lat="46.43181" lon="5.14625">
        <ele>209.6</ele>
        <time>2022-01-29T13:17:50Z</time>
      </trkpt>
      <trkpt lat="46.43165" lon="5.14605">
        <ele>210.2</ele>
        <time>2022-01-29T13:17:54Z</time>
      </trkpt>
      <trkpt lat="46.4314" lon="5.14573">
        <ele>210.6</ele>
        <time>2022-01-29T13:18:00Z</time>
      </trkpt>
      <trkpt lat="46.43121" lon="5.14546">
        <ele>211.2</ele>
        <time>2022-01-29T13:18:05Z</time>
      </trkpt>
      <trkpt lat="46.43109" lon="5.14527">
        <ele>211.6</ele>
        <time>2022-01-29T13:18:08Z</time>
      </trkpt>
      <trkpt lat="46.43076" lon="5.14472">
        <ele>211.6</ele>
        <time>2022-01-29T13:18:15Z</time>
      </trkpt>
      <trkpt lat="46.43051" lon="5.14432">
        <ele>210.2</ele>
        <time>2022-01-29T13:18:20Z</time>
      </trkpt>
      <trkpt lat="46.43026" lon="5.14393">
        <ele>209.6</ele>
        <time>2022-01-29T13:18:25Z</time>
      </trkpt>
      <trkpt lat="46.42991" lon="5.14334">
        <ele>209.2</ele>
        <time>2022-01-29T13:18:33Z</time>
      </trkpt>
      <trkpt lat="46.42982" lon="5.14321">
        <ele>209.2</ele>
        <time>2022-01-29T13:18:35Z</time>
      </trkpt>
      <trkpt lat="46.42955" lon="5.14287">
        <ele>209.8</ele>
        <time>2022-01-29T13:18:41Z</time>
      </trkpt>
      <trkpt lat="46.42915" lon="5.14252">
        <ele>210.4</ele>
        <time>2022-01-29T13:18:49Z</time>
      </trkpt>
      <trkpt lat="46.42887" lon="5.14227">
        <ele>211</ele>
        <time>2022-01-29T13:18:55Z</time>
      </trkpt>
      <trkpt lat="46.42875" lon="5.14217">
        <ele>211.4</ele>
        <time>2022-01-29T13:18:57Z</time>
      </trkpt>
      <trkpt lat="46.42839" lon="5.14188">
        <ele>211.8</ele>
        <time>2022-01-29T13:19:04Z</time>
      </trkpt>
      <trkpt lat="46.42803" lon="5.14152">
        <ele>212</ele>
        <time>2022-01-29T13:19:11Z</time>
      </trkpt>
      <trkpt lat="46.42796" lon="5.14143">
        <ele>212</ele>
        <time>2022-01-29T13:19:12Z</time>
      </trkpt>
      <trkpt lat="46.42784" lon="5.14118">
        <ele>211.8</ele>
        <time>2022-01-29T13:19:15Z</time>
      </trkpt>
      <trkpt lat="46.4278" lon="5.14107">
        <ele>211.6</ele>
        <time>2022-01-29T13:19:16Z</time>
      </trkpt>
      <trkpt lat="46.42773" lon="5.14073">
        <ele>210.6</ele>
        <time>2022-01-29T13:19:19Z</time>
      </trkpt>
      <trkpt lat="46.42772" lon="5.14062">
        <ele>210.4</ele>
        <time>2022-01-29T13:19:20Z</time>
      </trkpt>
      <trkpt lat="46.42772" lon="5.14053">
        <ele>210</ele>
        <time>2022-01-29T13:19:21Z</time>
      </trkpt>
      <trkpt lat="46.42772" lon="5.14028">
        <ele>209.4</ele>
        <time>2022-01-29T13:19:23Z</time>
      </trkpt>
      <trkpt lat="46.42774" lon="5.13998">
        <ele>208.8</ele>
        <time>2022-01-29T13:19:26Z</time>
      </trkpt>
      <trkpt lat="46.42777" lon="5.13956">
        <ele>208.6</ele>
        <time>2022-01-29T13:19:30Z</time>
      </trkpt>
      <trkpt lat="46.42777" lon="5.13933">
        <ele>208.4</ele>
        <time>2022-01-29T13:19:32Z</time>
      </trkpt>
      <trkpt lat="46.42774" lon="5.13916">
        <ele>208.4</ele>
        <time>2022-01-29T13:19:34Z</time>
      </trkpt>
      <trkpt lat="46.42772" lon="5.13906">
        <ele>208.6</ele>
        <time>2022-01-29T13:19:35Z</time>
      </trkpt>
      <trkpt lat="46.42766" lon="5.13888">
        <ele>208.6</ele>
        <time>2022-01-29T13:19:37Z</time>
      </trkpt>
      <trkpt lat="46.42762" lon="5.1388">
        <ele>208.6</ele>
        <time>2022-01-29T13:19:38Z</time>
      </trkpt>
      <trkpt lat="46.42737" lon="5.13841">
        <ele>209.2</ele>
        <time>2022-01-29T13:19:44Z</time>
      </trkpt>
      <trkpt lat="46.42729" lon="5.1383">
        <ele>209.6</ele>
        <time>2022-01-29T13:19:46Z</time>
      </trkpt>
      <trkpt lat="46.42718" lon="5.13813">
        <ele>210</ele>
        <time>2022-01-29T13:19:49Z</time>
      </trkpt>
      <trkpt lat="46.42714" lon="5.13807">
        <ele>210</ele>
        <time>2022-01-29T13:19:50Z</time>
      </trkpt>
      <trkpt lat="46.42695" lon="5.13777">
        <ele>211</ele>
        <time>2022-01-29T13:19:55Z</time>
      </trkpt>
      <trkpt lat="46.42678" lon="5.13753">
        <ele>211.4</ele>
        <time>2022-01-29T13:19:59Z</time>
      </trkpt>
      <trkpt lat="46.42661" lon="5.13736">
        <ele>211.8</ele>
        <time>2022-01-29T13:20:02Z</time>
      </trkpt>
      <trkpt lat="46.42651" lon="5.1373">
        <ele>212</ele>
        <time>2022-01-29T13:20:04Z</time>
      </trkpt>
      <trkpt lat="46.42613" lon="5.13718">
        <ele>212</ele>
        <time>2022-01-29T13:20:10Z</time>
      </trkpt>
      <trkpt lat="46.42583" lon="5.137">
        <ele>211.8</ele>
        <time>2022-01-29T13:20:15Z</time>
      </trkpt>
      <trkpt lat="46.42578" lon="5.13695">
        <ele>211.6</ele>
        <time>2022-01-29T13:20:16Z</time>
      </trkpt>
      <trkpt lat="46.42553" lon="5.13657">
        <ele>211.6</ele>
        <time>2022-01-29T13:20:22Z</time>
      </trkpt>
      <trkpt lat="46.42531" lon="5.13617">
        <ele>212</ele>
        <time>2022-01-29T13:20:28Z</time>
      </trkpt>
      <trkpt lat="46.42528" lon="5.13611">
        <ele>212.2</ele>
        <time>2022-01-29T13:20:29Z</time>
      </trkpt>
      <trkpt lat="46.42524" lon="5.13605">
        <ele>212.2</ele>
        <time>2022-01-29T13:20:30Z</time>
      </trkpt>
      <trkpt lat="46.42501" lon="5.13582">
        <ele>212.8</ele>
        <time>2022-01-29T13:20:35Z</time>
      </trkpt>
      <trkpt lat="46.42498" lon="5.1358">
        <ele>213</ele>
        <time>2022-01-29T13:20:36Z</time>
      </trkpt>
      <trkpt lat="46.42494" lon="5.13577">
        <ele>213.2</ele>
        <time>2022-01-29T13:20:37Z</time>
      </trkpt>
      <trkpt lat="46.4248" lon="5.13568">
        <ele>213.4</ele>
        <time>2022-01-29T13:20:40Z</time>
      </trkpt>
      <trkpt lat="46.42471" lon="5.13564">
        <ele>213.6</ele>
        <time>2022-01-29T13:20:42Z</time>
      </trkpt>
      <trkpt lat="46.42459" lon="5.13558">
        <ele>214.2</ele>
        <time>2022-01-29T13:20:45Z</time>
      </trkpt>
      <trkpt lat="46.42447" lon="5.13553">
        <ele>214.6</ele>
        <time>2022-01-29T13:20:48Z</time>
      </trkpt>
      <trkpt lat="46.42443" lon="5.1355">
        <ele>214.8</ele>
        <time>2022-01-29T13:20:49Z</time>
      </trkpt>
      <trkpt lat="46.4243" lon="5.13544">
        <ele>215.4</ele>
        <time>2022-01-29T13:20:52Z</time>
      </trkpt>
      <trkpt lat="46.42391" lon="5.13528">
        <ele>216.6</ele>
        <time>2022-01-29T13:20:59Z</time>
      </trkpt>
      <trkpt lat="46.42376" lon="5.13521">
        <ele>217.4</ele>
        <time>2022-01-29T13:21:02Z</time>
      </trkpt>
      <trkpt lat="46.42372" lon="5.13518">
        <ele>217.6</ele>
        <time>2022-01-29T13:21:03Z</time>
      </trkpt>
      <trkpt lat="46.42363" lon="5.13513">
        <ele>217.8</ele>
        <time>2022-01-29T13:21:05Z</time>
      </trkpt>
      <trkpt lat="46.42354" lon="5.13511">
        <ele>217.8</ele>
        <time>2022-01-29T13:21:06Z</time>
      </trkpt>
      <trkpt lat="46.42324" lon="5.13499">
        <ele>217.8</ele>
        <time>2022-01-29T13:21:11Z</time>
      </trkpt>
      <trkpt lat="46.42281" lon="5.13481">
        <ele>217.4</ele>
        <time>2022-01-29T13:21:18Z</time>
      </trkpt>
      <trkpt lat="46.42229" lon="5.1346">
        <ele>216.8</ele>
        <time>2022-01-29T13:21:26Z</time>
      </trkpt>
      <trkpt lat="46.42178" lon="5.13431">
        <ele>216.4</ele>
        <time>2022-01-29T13:21:35Z</time>
      </trkpt>
      <trkpt lat="46.42178" lon="5.13431">
        <ele>216.4</ele>
        <time>2022-01-29T13:21:36Z</time>
      </trkpt>
      <trkpt lat="46.42167" lon="5.13422">
        <ele>216.4</ele>
        <time>2022-01-29T13:21:37Z</time>
      </trkpt>
      <trkpt lat="46.42143" lon="5.13396">
        <ele>216.2</ele>
        <time>2022-01-29T13:21:42Z</time>
      </trkpt>
      <trkpt lat="46.4211" lon="5.13354">
        <ele>216.4</ele>
        <time>2022-01-29T13:21:50Z</time>
      </trkpt>
      <trkpt lat="46.42077" lon="5.13311">
        <ele>216.8</ele>
        <time>2022-01-29T13:21:59Z</time>
      </trkpt>
      <trkpt lat="46.4205" lon="5.13275">
        <ele>217.4</ele>
        <time>2022-01-29T13:22:05Z</time>
      </trkpt>
      <trkpt lat="46.4203" lon="5.1325">
        <ele>217.8</ele>
        <time>2022-01-29T13:22:10Z</time>
      </trkpt>
      <trkpt lat="46.42003" lon="5.13215">
        <ele>218.6</ele>
        <time>2022-01-29T13:22:17Z</time>
      </trkpt>
      <trkpt lat="46.41999" lon="5.1321">
        <ele>218.8</ele>
        <time>2022-01-29T13:22:18Z</time>
      </trkpt>
      <trkpt lat="46.4197" lon="5.13169">
        <ele>219.8</ele>
        <time>2022-01-29T13:22:27Z</time>
      </trkpt>
      <trkpt lat="46.41963" lon="5.13159">
        <ele>220</ele>
        <time>2022-01-29T13:22:28Z</time>
      </trkpt>
      <trkpt lat="46.41943" lon="5.13134">
        <ele>221</ele>
        <time>2022-01-29T13:22:33Z</time>
      </trkpt>
      <trkpt lat="46.41922" lon="5.13106">
        <ele>221.8</ele>
        <time>2022-01-29T13:22:39Z</time>
      </trkpt>
      <trkpt lat="46.41918" lon="5.131">
        <ele>222</ele>
        <time>2022-01-29T13:22:41Z</time>
      </trkpt>
      <trkpt lat="46.41887" lon="5.1306">
        <ele>222.8</ele>
        <time>2022-01-29T13:22:48Z</time>
      </trkpt>
      <trkpt lat="46.41883" lon="5.13055">
        <ele>223</ele>
        <time>2022-01-29T13:22:49Z</time>
      </trkpt>
      <trkpt lat="46.4185" lon="5.13012">
        <ele>223.6</ele>
        <time>2022-01-29T13:22:57Z</time>
      </trkpt>
      <trkpt lat="46.41809" lon="5.12959">
        <ele>223.6</ele>
        <time>2022-01-29T13:23:06Z</time>
      </trkpt>
      <trkpt lat="46.41805" lon="5.12953">
        <ele>223.6</ele>
        <time>2022-01-29T13:23:07Z</time>
      </trkpt>
      <trkpt lat="46.41761" lon="5.12897">
        <ele>223.6</ele>
        <time>2022-01-29T13:23:16Z</time>
      </trkpt>
      <trkpt lat="46.41719" lon="5.12857">
        <ele>223.4</ele>
        <time>2022-01-29T13:23:24Z</time>
      </trkpt>
      <trkpt lat="46.41668" lon="5.12821">
        <ele>223.2</ele>
        <time>2022-01-29T13:23:33Z</time>
      </trkpt>
      <trkpt lat="46.41661" lon="5.12816">
        <ele>223.2</ele>
        <time>2022-01-29T13:23:34Z</time>
      </trkpt>
      <trkpt lat="46.4161" lon="5.12781">
        <ele>223.4</ele>
        <time>2022-01-29T13:23:43Z</time>
      </trkpt>
      <trkpt lat="46.41604" lon="5.12777">
        <ele>223.4</ele>
        <time>2022-01-29T13:23:44Z</time>
      </trkpt>
      <trkpt lat="46.41554" lon="5.12743">
        <ele>224</ele>
        <time>2022-01-29T13:23:53Z</time>
      </trkpt>
      <trkpt lat="46.41548" lon="5.12739">
        <ele>224</ele>
        <time>2022-01-29T13:23:54Z</time>
      </trkpt>
      <trkpt lat="46.41533" lon="5.12729">
        <ele>224</ele>
        <time>2022-01-29T13:23:57Z</time>
      </trkpt>
      <trkpt lat="46.41507" lon="5.1271">
        <ele>224.4</ele>
        <time>2022-01-29T13:24:02Z</time>
      </trkpt>
      <trkpt lat="46.41473" lon="5.12688">
        <ele>224.4</ele>
        <time>2022-01-29T13:24:08Z</time>
      </trkpt>
      <trkpt lat="46.41418" lon="5.1265">
        <ele>225</ele>
        <time>2022-01-29T13:24:18Z</time>
      </trkpt>
      <trkpt lat="46.41413" lon="5.12646">
        <ele>225</ele>
        <time>2022-01-29T13:24:19Z</time>
      </trkpt>
      <trkpt lat="46.41392" lon="5.12631">
        <ele>225.2</ele>
        <time>2022-01-29T13:24:23Z</time>
      </trkpt>
      <trkpt lat="46.41343" lon="5.12597">
        <ele>225.8</ele>
        <time>2022-01-29T13:24:32Z</time>
      </trkpt>
      <trkpt lat="46.41293" lon="5.12562">
        <ele>225.8</ele>
        <time>2022-01-29T13:24:41Z</time>
      </trkpt>
      <trkpt lat="46.41286" lon="5.12557">
        <ele>225.6</ele>
        <time>2022-01-29T13:24:42Z</time>
      </trkpt>
      <trkpt lat="46.41232" lon="5.12521">
        <ele>225.6</ele>
        <time>2022-01-29T13:24:51Z</time>
      </trkpt>
      <trkpt lat="46.4121" lon="5.12506">
        <ele>225.6</ele>
        <time>2022-01-29T13:24:55Z</time>
      </trkpt>
      <trkpt lat="46.41155" lon="5.12468">
        <ele>225.4</ele>
        <time>2022-01-29T13:25:04Z</time>
      </trkpt>
      <trkpt lat="46.41149" lon="5.12464">
        <ele>225.4</ele>
        <time>2022-01-29T13:25:05Z</time>
      </trkpt>
      <trkpt lat="46.41099" lon="5.12429">
        <ele>224.8</ele>
        <time>2022-01-29T13:25:13Z</time>
      </trkpt>
      <trkpt lat="46.41078" lon="5.12414">
        <ele>224.4</ele>
        <time>2022-01-29T13:25:16Z</time>
      </trkpt>
      <trkpt lat="46.41071" lon="5.12409">
        <ele>224.2</ele>
        <time>2022-01-29T13:25:17Z</time>
      </trkpt>
      <trkpt lat="46.41031" lon="5.1238">
        <ele>223.2</ele>
        <time>2022-01-29T13:25:23Z</time>
      </trkpt>
      <trkpt lat="46.41015" lon="5.1237">
        <ele>222.8</ele>
        <time>2022-01-29T13:25:25Z</time>
      </trkpt>
      <trkpt lat="46.40985" lon="5.12349">
        <ele>222</ele>
        <time>2022-01-29T13:25:29Z</time>
      </trkpt>
      <trkpt lat="46.40947" lon="5.12323">
        <ele>220.8</ele>
        <time>2022-01-29T13:25:34Z</time>
      </trkpt>
      <trkpt lat="46.40917" lon="5.12302">
        <ele>219.8</ele>
        <time>2022-01-29T13:25:38Z</time>
      </trkpt>
      <trkpt lat="46.40891" lon="5.12284">
        <ele>218.6</ele>
        <time>2022-01-29T13:25:41Z</time>
      </trkpt>
      <trkpt lat="46.40875" lon="5.12273">
        <ele>218</ele>
        <time>2022-01-29T13:25:43Z</time>
      </trkpt>
      <trkpt lat="46.40859" lon="5.12262">
        <ele>217.4</ele>
        <time>2022-01-29T13:25:45Z</time>
      </trkpt>
      <trkpt lat="46.40834" lon="5.12245">
        <ele>216</ele>
        <time>2022-01-29T13:25:48Z</time>
      </trkpt>
      <trkpt lat="46.40811" lon="5.12229">
        <ele>214.8</ele>
        <time>2022-01-29T13:25:51Z</time>
      </trkpt>
      <trkpt lat="46.40786" lon="5.12212">
        <ele>213.8</ele>
        <time>2022-01-29T13:25:54Z</time>
      </trkpt>
      <trkpt lat="46.40771" lon="5.12201">
        <ele>213.4</ele>
        <time>2022-01-29T13:25:56Z</time>
      </trkpt>
      <trkpt lat="46.40749" lon="5.12186">
        <ele>212.6</ele>
        <time>2022-01-29T13:25:59Z</time>
      </trkpt>
      <trkpt lat="46.40721" lon="5.12166">
        <ele>212</ele>
        <time>2022-01-29T13:26:04Z</time>
      </trkpt>
      <trkpt lat="46.40678" lon="5.12138">
        <ele>212.6</ele>
        <time>2022-01-29T13:26:10Z</time>
      </trkpt>
      <trkpt lat="46.40627" lon="5.12106">
        <ele>213</ele>
        <time>2022-01-29T13:26:18Z</time>
      </trkpt>
      <trkpt lat="46.40614" lon="5.12098">
        <ele>213</ele>
        <time>2022-01-29T13:26:20Z</time>
      </trkpt>
      <trkpt lat="46.40577" lon="5.12078">
        <ele>211.6</ele>
        <time>2022-01-29T13:26:25Z</time>
      </trkpt>
      <trkpt lat="46.4057" lon="5.12074">
        <ele>211.2</ele>
        <time>2022-01-29T13:26:26Z</time>
      </trkpt>
      <trkpt lat="46.40538" lon="5.12059">
        <ele>210.4</ele>
        <time>2022-01-29T13:26:30Z</time>
      </trkpt>
      <trkpt lat="46.40515" lon="5.12049">
        <ele>209.2</ele>
        <time>2022-01-29T13:26:33Z</time>
      </trkpt>
      <trkpt lat="46.40499" lon="5.12041">
        <ele>208.8</ele>
        <time>2022-01-29T13:26:35Z</time>
      </trkpt>
      <trkpt lat="46.4047" lon="5.12028">
        <ele>208.2</ele>
        <time>2022-01-29T13:26:39Z</time>
      </trkpt>
      <trkpt lat="46.40436" lon="5.12013">
        <ele>207.8</ele>
        <time>2022-01-29T13:26:44Z</time>
      </trkpt>
      <trkpt lat="46.40388" lon="5.11994">
        <ele>208</ele>
        <time>2022-01-29T13:26:52Z</time>
      </trkpt>
      <trkpt lat="46.40351" lon="5.11979">
        <ele>208.6</ele>
        <time>2022-01-29T13:26:59Z</time>
      </trkpt>
      <trkpt lat="46.40335" lon="5.11972">
        <ele>209.2</ele>
        <time>2022-01-29T13:27:02Z</time>
      </trkpt>
      <trkpt lat="46.40292" lon="5.11956">
        <ele>210</ele>
        <time>2022-01-29T13:27:10Z</time>
      </trkpt>
      <trkpt lat="46.40286" lon="5.11953">
        <ele>210.2</ele>
        <time>2022-01-29T13:27:11Z</time>
      </trkpt>
      <trkpt lat="46.40242" lon="5.11937">
        <ele>210.2</ele>
        <time>2022-01-29T13:27:20Z</time>
      </trkpt>
      <trkpt lat="46.40234" lon="5.11934">
        <ele>210</ele>
        <time>2022-01-29T13:27:23Z</time>
      </trkpt>
      <trkpt lat="46.40231" lon="5.11936">
        <ele>210</ele>
        <time>2022-01-29T13:27:24Z</time>
      </trkpt>
      <trkpt lat="46.4023" lon="5.11939">
        <ele>210</ele>
        <time>2022-01-29T13:27:25Z</time>
      </trkpt>
      <trkpt lat="46.40232" lon="5.11949">
        <ele>209.8</ele>
        <time>2022-01-29T13:27:27Z</time>
      </trkpt>
      <trkpt lat="46.4024" lon="5.11979">
        <ele>209.8</ele>
        <time>2022-01-29T13:27:32Z</time>
      </trkpt>
      <trkpt lat="46.40253" lon="5.12036">
        <ele>210.2</ele>
        <time>2022-01-29T13:27:39Z</time>
      </trkpt>
      <trkpt lat="46.40268" lon="5.12108">
        <ele>211.2</ele>
        <time>2022-01-29T13:27:47Z</time>
      </trkpt>
      <trkpt lat="46.40272" lon="5.12134">
        <ele>211.4</ele>
        <time>2022-01-29T13:27:50Z</time>
      </trkpt>
      <trkpt lat="46.40284" lon="5.1219">
        <ele>211.6</ele>
        <time>2022-01-29T13:27:56Z</time>
      </trkpt>
      <trkpt lat="46.40298" lon="5.12262">
        <ele>211.6</ele>
        <time>2022-01-29T13:28:05Z</time>
      </trkpt>
      <trkpt lat="46.40315" lon="5.12344">
        <ele>211.8</ele>
        <time>2022-01-29T13:28:13Z</time>
      </trkpt>
      <trkpt lat="46.40319" lon="5.12362">
        <ele>211.8</ele>
        <time>2022-01-29T13:28:15Z</time>
      </trkpt>
      <trkpt lat="46.40334" lon="5.12432">
        <ele>212</ele>
        <time>2022-01-29T13:28:23Z</time>
      </trkpt>
      <trkpt lat="46.4034" lon="5.12466">
        <ele>212.8</ele>
        <time>2022-01-29T13:28:28Z</time>
      </trkpt>
      <trkpt lat="46.40342" lon="5.12477">
        <ele>213.4</ele>
        <time>2022-01-29T13:28:30Z</time>
      </trkpt>
      <trkpt lat="46.40343" lon="5.12483">
        <ele>214</ele>
        <time>2022-01-29T13:28:31Z</time>
      </trkpt>
      <trkpt lat="46.40348" lon="5.12507">
        <ele>215.2</ele>
        <time>2022-01-29T13:28:35Z</time>
      </trkpt>
      <trkpt lat="46.40352" lon="5.12527">
        <ele>216.2</ele>
        <time>2022-01-29T13:28:38Z</time>
      </trkpt>
      <trkpt lat="46.40353" lon="5.12532">
        <ele>216.4</ele>
        <time>2022-01-29T13:28:39Z</time>
      </trkpt>
      <trkpt lat="46.40363" lon="5.12579">
        <ele>217.6</ele>
        <time>2022-01-29T13:28:46Z</time>
      </trkpt>
      <trkpt lat="46.40364" lon="5.12585">
        <ele>218</ele>
        <time>2022-01-29T13:28:47Z</time>
      </trkpt>
      <trkpt lat="46.4037" lon="5.12609">
        <ele>218.8</ele>
        <time>2022-01-29T13:28:51Z</time>
      </trkpt>
      <trkpt lat="46.4038" lon="5.12653">
        <ele>220</ele>
        <time>2022-01-29T13:28:58Z</time>
      </trkpt>
      <trkpt lat="46.40381" lon="5.1266">
        <ele>220</ele>
        <time>2022-01-29T13:28:59Z</time>
      </trkpt>
      <trkpt lat="46.4039" lon="5.12699">
        <ele>221.2</ele>
        <time>2022-01-29T13:29:05Z</time>
      </trkpt>
      <trkpt lat="46.40396" lon="5.12725">
        <ele>221.6</ele>
        <time>2022-01-29T13:29:09Z</time>
      </trkpt>
      <trkpt lat="46.40406" lon="5.12775">
        <ele>222.2</ele>
        <time>2022-01-29T13:29:16Z</time>
      </trkpt>
      <trkpt lat="46.4041" lon="5.12797">
        <ele>222.2</ele>
        <time>2022-01-29T13:29:19Z</time>
      </trkpt>
      <trkpt lat="46.40426" lon="5.12877">
        <ele>223.2</ele>
        <time>2022-01-29T13:29:30Z</time>
      </trkpt>
      <trkpt lat="46.40429" lon="5.12891">
        <ele>223.4</ele>
        <time>2022-01-29T13:29:32Z</time>
      </trkpt>
      <trkpt lat="46.4044" lon="5.12946">
        <ele>224.4</ele>
        <time>2022-01-29T13:29:40Z</time>
      </trkpt>
      <trkpt lat="46.40445" lon="5.12977">
        <ele>224.8</ele>
        <time>2022-01-29T13:29:44Z</time>
      </trkpt>
      <trkpt lat="46.40455" lon="5.13032">
        <ele>224.8</ele>
        <time>2022-01-29T13:29:50Z</time>
      </trkpt>
      <trkpt lat="46.40469" lon="5.13104">
        <ele>223.8</ele>
        <time>2022-01-29T13:29:57Z</time>
      </trkpt>
      <trkpt lat="46.40474" lon="5.13128">
        <ele>223</ele>
        <time>2022-01-29T13:29:59Z</time>
      </trkpt>
      <trkpt lat="46.40482" lon="5.13171">
        <ele>221.6</ele>
        <time>2022-01-29T13:30:03Z</time>
      </trkpt>
      <trkpt lat="46.40489" lon="5.13207">
        <ele>220.8</ele>
        <time>2022-01-29T13:30:06Z</time>
      </trkpt>
      <trkpt lat="46.40491" lon="5.13216">
        <ele>220.6</ele>
        <time>2022-01-29T13:30:07Z</time>
      </trkpt>
      <trkpt lat="46.40506" lon="5.13293">
        <ele>220</ele>
        <time>2022-01-29T13:30:14Z</time>
      </trkpt>
      <trkpt lat="46.40508" lon="5.13303">
        <ele>220</ele>
        <time>2022-01-29T13:30:15Z</time>
      </trkpt>
      <trkpt lat="46.40518" lon="5.13353">
        <ele>220.4</ele>
        <time>2022-01-29T13:30:21Z</time>
      </trkpt>
      <trkpt lat="46.40523" lon="5.13374">
        <ele>221.6</ele>
        <time>2022-01-29T13:30:24Z</time>
      </trkpt>
      <trkpt lat="46.40523" lon="5.13381">
        <ele>221.6</ele>
        <time>2022-01-29T13:30:25Z</time>
      </trkpt>
      <trkpt lat="46.40526" lon="5.13393">
        <ele>222.2</ele>
        <time>2022-01-29T13:30:27Z</time>
      </trkpt>
      <trkpt lat="46.40529" lon="5.13407">
        <ele>222.8</ele>
        <time>2022-01-29T13:30:29Z</time>
      </trkpt>
      <trkpt lat="46.40535" lon="5.13434">
        <ele>223.8</ele>
        <time>2022-01-29T13:30:33Z</time>
      </trkpt>
      <trkpt lat="46.40536" lon="5.1344">
        <ele>224</ele>
        <time>2022-01-29T13:30:34Z</time>
      </trkpt>
      <trkpt lat="46.4054" lon="5.13459">
        <ele>225</ele>
        <time>2022-01-29T13:30:37Z</time>
      </trkpt>
      <trkpt lat="46.40542" lon="5.13467">
        <ele>225.2</ele>
        <time>2022-01-29T13:30:38Z</time>
      </trkpt>
      <trkpt lat="46.40545" lon="5.1348">
        <ele>225.8</ele>
        <time>2022-01-29T13:30:41Z</time>
      </trkpt>
      <trkpt lat="46.4055" lon="5.13511">
        <ele>226.4</ele>
        <time>2022-01-29T13:30:44Z</time>
      </trkpt>
      <trkpt lat="46.40558" lon="5.13554">
        <ele>226.8</ele>
        <time>2022-01-29T13:30:50Z</time>
      </trkpt>
      <trkpt lat="46.40568" lon="5.13605">
        <ele>227.2</ele>
        <time>2022-01-29T13:30:56Z</time>
      </trkpt>
      <trkpt lat="46.40579" lon="5.13672">
        <ele>226.8</ele>
        <time>2022-01-29T13:31:03Z</time>
      </trkpt>
      <trkpt lat="46.40595" lon="5.13752">
        <ele>226</ele>
        <time>2022-01-29T13:31:11Z</time>
      </trkpt>
      <trkpt lat="46.40596" lon="5.13763">
        <ele>225.8</ele>
        <time>2022-01-29T13:31:12Z</time>
      </trkpt>
      <trkpt lat="46.40603" lon="5.13796">
        <ele>225.4</ele>
        <time>2022-01-29T13:31:15Z</time>
      </trkpt>
      <trkpt lat="46.40617" lon="5.13863">
        <ele>224.4</ele>
        <time>2022-01-29T13:31:21Z</time>
      </trkpt>
      <trkpt lat="46.40631" lon="5.13935">
        <ele>223.4</ele>
        <time>2022-01-29T13:31:28Z</time>
      </trkpt>
      <trkpt lat="46.40642" lon="5.13991">
        <ele>224.2</ele>
        <time>2022-01-29T13:31:35Z</time>
      </trkpt>
      <trkpt lat="46.40646" lon="5.14009">
        <ele>224.4</ele>
        <time>2022-01-29T13:31:37Z</time>
      </trkpt>
      <trkpt lat="46.4065" lon="5.14033">
        <ele>225.2</ele>
        <time>2022-01-29T13:31:40Z</time>
      </trkpt>
      <trkpt lat="46.40653" lon="5.14051">
        <ele>225.4</ele>
        <time>2022-01-29T13:31:42Z</time>
      </trkpt>
      <trkpt lat="46.40662" lon="5.14098">
        <ele>225.8</ele>
        <time>2022-01-29T13:31:47Z</time>
      </trkpt>
      <trkpt lat="46.40673" lon="5.14162">
        <ele>225</ele>
        <time>2022-01-29T13:31:54Z</time>
      </trkpt>
      <trkpt lat="46.40683" lon="5.14213">
        <ele>224.4</ele>
        <time>2022-01-29T13:31:57Z</time>
      </trkpt>
      <trkpt lat="46.4069" lon="5.14246">
        <ele>222.8</ele>
        <time>2022-01-29T13:32:00Z</time>
      </trkpt>
      <trkpt lat="46.40704" lon="5.14314">
        <ele>222</ele>
        <time>2022-01-29T13:32:06Z</time>
      </trkpt>
      <trkpt lat="46.40714" lon="5.14371">
        <ele>222.4</ele>
        <time>2022-01-29T13:32:12Z</time>
      </trkpt>
      <trkpt lat="46.40726" lon="5.14447">
        <ele>222.4</ele>
        <time>2022-01-29T13:32:19Z</time>
      </trkpt>
      <trkpt lat="46.40727" lon="5.14462">
        <ele>222.4</ele>
        <time>2022-01-29T13:32:20Z</time>
      </trkpt>
      <trkpt lat="46.40725" lon="5.14496">
        <ele>221.4</ele>
        <time>2022-01-29T13:32:23Z</time>
      </trkpt>
      <trkpt lat="46.40722" lon="5.14508">
        <ele>221.2</ele>
        <time>2022-01-29T13:32:24Z</time>
      </trkpt>
      <trkpt lat="46.40715" lon="5.14546">
        <ele>220.2</ele>
        <time>2022-01-29T13:32:27Z</time>
      </trkpt>
      <trkpt lat="46.40709" lon="5.1458">
        <ele>219.2</ele>
        <time>2022-01-29T13:32:31Z</time>
      </trkpt>
      <trkpt lat="46.40707" lon="5.14592">
        <ele>218.8</ele>
        <time>2022-01-29T13:32:32Z</time>
      </trkpt>
      <trkpt lat="46.40694" lon="5.14664">
        <ele>218</ele>
        <time>2022-01-29T13:32:38Z</time>
      </trkpt>
      <trkpt lat="46.40688" lon="5.14722">
        <ele>218</ele>
        <time>2022-01-29T13:32:44Z</time>
      </trkpt>
      <trkpt lat="46.40685" lon="5.14784">
        <ele>218.8</ele>
        <time>2022-01-29T13:32:51Z</time>
      </trkpt>
      <trkpt lat="46.40685" lon="5.14838">
        <ele>219.8</ele>
        <time>2022-01-29T13:32:58Z</time>
      </trkpt>
      <trkpt lat="46.40684" lon="5.14877">
        <ele>220.8</ele>
        <time>2022-01-29T13:33:03Z</time>
      </trkpt>
      <trkpt lat="46.40684" lon="5.14885">
        <ele>221.2</ele>
        <time>2022-01-29T13:33:04Z</time>
      </trkpt>
      <trkpt lat="46.40683" lon="5.1493">
        <ele>222</ele>
        <time>2022-01-29T13:33:10Z</time>
      </trkpt>
      <trkpt lat="46.40683" lon="5.1495">
        <ele>222.6</ele>
        <time>2022-01-29T13:33:13Z</time>
      </trkpt>
      <trkpt lat="46.40682" lon="5.14963">
        <ele>223.2</ele>
        <time>2022-01-29T13:33:15Z</time>
      </trkpt>
      <trkpt lat="46.4068" lon="5.14992">
        <ele>224.2</ele>
        <time>2022-01-29T13:33:19Z</time>
      </trkpt>
      <trkpt lat="46.40679" lon="5.15015">
        <ele>225</ele>
        <time>2022-01-29T13:33:22Z</time>
      </trkpt>
      <trkpt lat="46.40679" lon="5.15029">
        <ele>225.2</ele>
        <time>2022-01-29T13:33:24Z</time>
      </trkpt>
      <trkpt lat="46.40678" lon="5.15075">
        <ele>226.2</ele>
        <time>2022-01-29T13:33:30Z</time>
      </trkpt>
      <trkpt lat="46.40678" lon="5.15081">
        <ele>226.4</ele>
        <time>2022-01-29T13:33:31Z</time>
      </trkpt>
      <trkpt lat="46.40678" lon="5.15156">
        <ele>226.8</ele>
        <time>2022-01-29T13:33:40Z</time>
      </trkpt>
      <trkpt lat="46.40677" lon="5.15239">
        <ele>226.8</ele>
        <time>2022-01-29T13:33:49Z</time>
      </trkpt>
      <trkpt lat="46.40676" lon="5.15298">
        <ele>226.8</ele>
        <time>2022-01-29T13:33:55Z</time>
      </trkpt>
      <trkpt lat="46.40675" lon="5.15383">
        <ele>225.8</ele>
        <time>2022-01-29T13:34:03Z</time>
      </trkpt>
      <trkpt lat="46.40675" lon="5.15426">
        <ele>225.4</ele>
        <time>2022-01-29T13:34:07Z</time>
      </trkpt>
      <trkpt lat="46.40673" lon="5.15493">
        <ele>224.6</ele>
        <time>2022-01-29T13:34:13Z</time>
      </trkpt>
      <trkpt lat="46.40672" lon="5.15518">
        <ele>224.4</ele>
        <time>2022-01-29T13:34:15Z</time>
      </trkpt>
      <trkpt lat="46.40671" lon="5.15587">
        <ele>223.6</ele>
        <time>2022-01-29T13:34:21Z</time>
      </trkpt>
      <trkpt lat="46.40671" lon="5.15619">
        <ele>223.2</ele>
        <time>2022-01-29T13:34:24Z</time>
      </trkpt>
      <trkpt lat="46.4067" lon="5.15667">
        <ele>222.2</ele>
        <time>2022-01-29T13:34:28Z</time>
      </trkpt>
      <trkpt lat="46.40669" lon="5.15745">
        <ele>221.2</ele>
        <time>2022-01-29T13:34:35Z</time>
      </trkpt>
      <trkpt lat="46.40669" lon="5.15755">
        <ele>221.2</ele>
        <time>2022-01-29T13:34:36Z</time>
      </trkpt>
      <trkpt lat="46.40668" lon="5.15802">
        <ele>221.8</ele>
        <time>2022-01-29T13:34:41Z</time>
      </trkpt>
      <trkpt lat="46.40668" lon="5.15809">
        <ele>222</ele>
        <time>2022-01-29T13:34:42Z</time>
      </trkpt>
      <trkpt lat="46.40668" lon="5.15827">
        <ele>222.4</ele>
        <time>2022-01-29T13:34:44Z</time>
      </trkpt>
      <trkpt lat="46.40668" lon="5.15859">
        <ele>223</ele>
        <time>2022-01-29T13:34:48Z</time>
      </trkpt>
      <trkpt lat="46.40668" lon="5.15867">
        <ele>223.6</ele>
        <time>2022-01-29T13:34:49Z</time>
      </trkpt>
      <trkpt lat="46.40667" lon="5.15918">
        <ele>224.6</ele>
        <time>2022-01-29T13:34:55Z</time>
      </trkpt>
      <trkpt lat="46.40667" lon="5.15934">
        <ele>225</ele>
        <time>2022-01-29T13:34:57Z</time>
      </trkpt>
      <trkpt lat="46.40665" lon="5.15992">
        <ele>225.2</ele>
        <time>2022-01-29T13:35:03Z</time>
      </trkpt>
      <trkpt lat="46.40663" lon="5.16081">
        <ele>224.2</ele>
        <time>2022-01-29T13:35:11Z</time>
      </trkpt>
      <trkpt lat="46.40662" lon="5.16116">
        <ele>223.2</ele>
        <time>2022-01-29T13:35:14Z</time>
      </trkpt>
      <trkpt lat="46.4066" lon="5.1618">
        <ele>221.4</ele>
        <time>2022-01-29T13:35:19Z</time>
      </trkpt>
      <trkpt lat="46.40659" lon="5.16227">
        <ele>220.2</ele>
        <time>2022-01-29T13:35:23Z</time>
      </trkpt>
      <trkpt lat="46.40659" lon="5.16268">
        <ele>220</ele>
        <time>2022-01-29T13:35:27Z</time>
      </trkpt>
      <trkpt lat="46.40658" lon="5.16319">
        <ele>220.2</ele>
        <time>2022-01-29T13:35:33Z</time>
      </trkpt>
      <trkpt lat="46.40658" lon="5.16349">
        <ele>220.8</ele>
        <time>2022-01-29T13:35:37Z</time>
      </trkpt>
      <trkpt lat="46.40657" lon="5.16363">
        <ele>221.4</ele>
        <time>2022-01-29T13:35:39Z</time>
      </trkpt>
      <trkpt lat="46.40657" lon="5.16363">
        <ele>221.6</ele>
        <time>2022-01-29T13:35:40Z</time>
      </trkpt>
      <trkpt lat="46.40657" lon="5.16378">
        <ele>222.4</ele>
        <time>2022-01-29T13:35:41Z</time>
      </trkpt>
      <trkpt lat="46.40657" lon="5.16413">
        <ele>223.6</ele>
        <time>2022-01-29T13:35:46Z</time>
      </trkpt>
      <trkpt lat="46.40658" lon="5.1646">
        <ele>224.8</ele>
        <time>2022-01-29T13:35:52Z</time>
      </trkpt>
      <trkpt lat="46.40658" lon="5.16538">
        <ele>225.4</ele>
        <time>2022-01-29T13:36:01Z</time>
      </trkpt>
      <trkpt lat="46.40658" lon="5.16606">
        <ele>225.2</ele>
        <time>2022-01-29T13:36:08Z</time>
      </trkpt>
      <trkpt lat="46.40658" lon="5.16667">
        <ele>224.8</ele>
        <time>2022-01-29T13:36:14Z</time>
      </trkpt>
      <trkpt lat="46.40657" lon="5.16739">
        <ele>223.6</ele>
        <time>2022-01-29T13:36:21Z</time>
      </trkpt>
      <trkpt lat="46.40657" lon="5.16739">
        <ele>223.6</ele>
        <time>2022-01-29T13:36:22Z</time>
      </trkpt>
      <trkpt lat="46.40655" lon="5.16814">
        <ele>223.2</ele>
        <time>2022-01-29T13:36:30Z</time>
      </trkpt>
      <trkpt lat="46.40654" lon="5.16898">
        <ele>224.4</ele>
        <time>2022-01-29T13:36:39Z</time>
      </trkpt>
      <trkpt lat="46.40653" lon="5.16914">
        <ele>224.6</ele>
        <time>2022-01-29T13:36:42Z</time>
      </trkpt>
      <trkpt lat="46.40651" lon="5.16991">
        <ele>225.2</ele>
        <time>2022-01-29T13:36:51Z</time>
      </trkpt>
      <trkpt lat="46.40649" lon="5.17055">
        <ele>225.2</ele>
        <time>2022-01-29T13:36:58Z</time>
      </trkpt>
      <trkpt lat="46.40646" lon="5.17138">
        <ele>224.8</ele>
        <time>2022-01-29T13:37:06Z</time>
      </trkpt>
      <trkpt lat="46.40643" lon="5.17222">
        <ele>224.2</ele>
        <time>2022-01-29T13:37:14Z</time>
      </trkpt>
      <trkpt lat="46.40643" lon="5.17233">
        <ele>224</ele>
        <time>2022-01-29T13:37:15Z</time>
      </trkpt>
      <trkpt lat="46.40642" lon="5.17286">
        <ele>223.4</ele>
        <time>2022-01-29T13:37:20Z</time>
      </trkpt>
      <trkpt lat="46.40641" lon="5.17334">
        <ele>222.2</ele>
        <time>2022-01-29T13:37:24Z</time>
      </trkpt>
      <trkpt lat="46.4064" lon="5.1739">
        <ele>221.2</ele>
        <time>2022-01-29T13:37:28Z</time>
      </trkpt>
      <trkpt lat="46.40639" lon="5.17432">
        <ele>220</ele>
        <time>2022-01-29T13:37:31Z</time>
      </trkpt>
      <trkpt lat="46.40638" lon="5.17446">
        <ele>219.8</ele>
        <time>2022-01-29T13:37:32Z</time>
      </trkpt>
      <trkpt lat="46.40638" lon="5.17475">
        <ele>219</ele>
        <time>2022-01-29T13:37:34Z</time>
      </trkpt>
      <trkpt lat="46.40637" lon="5.17505">
        <ele>217.8</ele>
        <time>2022-01-29T13:37:36Z</time>
      </trkpt>
      <trkpt lat="46.40636" lon="5.17535">
        <ele>216.4</ele>
        <time>2022-01-29T13:37:38Z</time>
      </trkpt>
      <trkpt lat="46.40635" lon="5.17565">
        <ele>215.2</ele>
        <time>2022-01-29T13:37:40Z</time>
      </trkpt>
      <trkpt lat="46.40634" lon="5.17595">
        <ele>213.8</ele>
        <time>2022-01-29T13:37:42Z</time>
      </trkpt>
      <trkpt lat="46.40633" lon="5.17637">
        <ele>212.8</ele>
        <time>2022-01-29T13:37:45Z</time>
      </trkpt>
      <trkpt lat="46.40633" lon="5.17664">
        <ele>212.2</ele>
        <time>2022-01-29T13:37:47Z</time>
      </trkpt>
      <trkpt lat="46.40633" lon="5.17691">
        <ele>211.8</ele>
        <time>2022-01-29T13:37:49Z</time>
      </trkpt>
      <trkpt lat="46.40631" lon="5.17728">
        <ele>211.4</ele>
        <time>2022-01-29T13:37:52Z</time>
      </trkpt>
      <trkpt lat="46.4063" lon="5.1781">
        <ele>211.2</ele>
        <time>2022-01-29T13:37:59Z</time>
      </trkpt>
      <trkpt lat="46.40628" lon="5.17884">
        <ele>211.4</ele>
        <time>2022-01-29T13:38:06Z</time>
      </trkpt>
      <trkpt lat="46.40628" lon="5.17939">
        <ele>211.8</ele>
        <time>2022-01-29T13:38:12Z</time>
      </trkpt>
      <trkpt lat="46.40627" lon="5.17953">
        <ele>212.2</ele>
        <time>2022-01-29T13:38:14Z</time>
      </trkpt>
      <trkpt lat="46.40626" lon="5.17967">
        <ele>212.6</ele>
        <time>2022-01-29T13:38:16Z</time>
      </trkpt>
      <trkpt lat="46.40625" lon="5.17983">
        <ele>213.4</ele>
        <time>2022-01-29T13:38:18Z</time>
      </trkpt>
      <trkpt lat="46.40624" lon="5.18003">
        <ele>214.6</ele>
        <time>2022-01-29T13:38:21Z</time>
      </trkpt>
      <trkpt lat="46.40624" lon="5.18017">
        <ele>215.4</ele>
        <time>2022-01-29T13:38:23Z</time>
      </trkpt>
      <trkpt lat="46.40624" lon="5.18024">
        <ele>215.8</ele>
        <time>2022-01-29T13:38:24Z</time>
      </trkpt>
      <trkpt lat="46.40623" lon="5.18044">
        <ele>216.8</ele>
        <time>2022-01-29T13:38:27Z</time>
      </trkpt>
      <trkpt lat="46.40623" lon="5.1805">
        <ele>217</ele>
        <time>2022-01-29T13:38:28Z</time>
      </trkpt>
      <trkpt lat="46.40623" lon="5.18072">
        <ele>217.8</ele>
        <time>2022-01-29T13:38:31Z</time>
      </trkpt>
      <trkpt lat="46.40623" lon="5.1808">
        <ele>218.2</ele>
        <time>2022-01-29T13:38:32Z</time>
      </trkpt>
      <trkpt lat="46.40624" lon="5.18087">
        <ele>218.4</ele>
        <time>2022-01-29T13:38:33Z</time>
      </trkpt>
      <trkpt lat="46.40624" lon="5.18102">
        <ele>218.6</ele>
        <time>2022-01-29T13:38:35Z</time>
      </trkpt>
      <trkpt lat="46.40623" lon="5.18109">
        <ele>219.2</ele>
        <time>2022-01-29T13:38:36Z</time>
      </trkpt>
      <trkpt lat="46.40622" lon="5.18117">
        <ele>219.4</ele>
        <time>2022-01-29T13:38:37Z</time>
      </trkpt>
      <trkpt lat="46.40622" lon="5.18123">
        <ele>219.6</ele>
        <time>2022-01-29T13:38:38Z</time>
      </trkpt>
      <trkpt lat="46.40622" lon="5.18137">
        <ele>220.2</ele>
        <time>2022-01-29T13:38:40Z</time>
      </trkpt>
      <trkpt lat="46.40621" lon="5.1817">
        <ele>221.2</ele>
        <time>2022-01-29T13:38:45Z</time>
      </trkpt>
      <trkpt lat="46.40621" lon="5.18177">
        <ele>221.4</ele>
        <time>2022-01-29T13:38:46Z</time>
      </trkpt>
      <trkpt lat="46.40619" lon="5.18225">
        <ele>222.4</ele>
        <time>2022-01-29T13:38:53Z</time>
      </trkpt>
      <trkpt lat="46.40619" lon="5.18232">
        <ele>222.6</ele>
        <time>2022-01-29T13:38:54Z</time>
      </trkpt>
      <trkpt lat="46.40618" lon="5.18274">
        <ele>222.8</ele>
        <time>2022-01-29T13:38:59Z</time>
      </trkpt>
      <trkpt lat="46.40615" lon="5.18339">
        <ele>222</ele>
        <time>2022-01-29T13:39:05Z</time>
      </trkpt>
      <trkpt lat="46.40615" lon="5.18363">
        <ele>221.2</ele>
        <time>2022-01-29T13:39:07Z</time>
      </trkpt>
      <trkpt lat="46.40614" lon="5.18402">
        <ele>220.4</ele>
        <time>2022-01-29T13:39:10Z</time>
      </trkpt>
      <trkpt lat="46.40613" lon="5.18415">
        <ele>220.2</ele>
        <time>2022-01-29T13:39:11Z</time>
      </trkpt>
      <trkpt lat="46.40613" lon="5.18441">
        <ele>218.8</ele>
        <time>2022-01-29T13:39:13Z</time>
      </trkpt>
      <trkpt lat="46.40611" lon="5.1848">
        <ele>217.6</ele>
        <time>2022-01-29T13:39:16Z</time>
      </trkpt>
      <trkpt lat="46.4061" lon="5.18515">
        <ele>216.6</ele>
        <time>2022-01-29T13:39:19Z</time>
      </trkpt>
      <trkpt lat="46.40609" lon="5.18526">
        <ele>216.6</ele>
        <time>2022-01-29T13:39:20Z</time>
      </trkpt>
      <trkpt lat="46.40607" lon="5.18588">
        <ele>216</ele>
        <time>2022-01-29T13:39:26Z</time>
      </trkpt>
      <trkpt lat="46.40604" lon="5.18671">
        <ele>216.2</ele>
        <time>2022-01-29T13:39:34Z</time>
      </trkpt>
      <trkpt lat="46.40601" lon="5.18751">
        <ele>215.4</ele>
        <time>2022-01-29T13:39:41Z</time>
      </trkpt>
      <trkpt lat="46.406" lon="5.18763">
        <ele>215</ele>
        <time>2022-01-29T13:39:42Z</time>
      </trkpt>
      <trkpt lat="46.40599" lon="5.18797">
        <ele>214.4</ele>
        <time>2022-01-29T13:39:45Z</time>
      </trkpt>
      <trkpt lat="46.40596" lon="5.18863">
        <ele>213.4</ele>
        <time>2022-01-29T13:39:51Z</time>
      </trkpt>
      <trkpt lat="46.40596" lon="5.18874">
        <ele>213.4</ele>
        <time>2022-01-29T13:39:52Z</time>
      </trkpt>
      <trkpt lat="46.40593" lon="5.18954">
        <ele>212.6</ele>
        <time>2022-01-29T13:39:59Z</time>
      </trkpt>
      <trkpt lat="46.40593" lon="5.18977">
        <ele>212.4</ele>
        <time>2022-01-29T13:40:01Z</time>
      </trkpt>
      <trkpt lat="46.40592" lon="5.1901">
        <ele>212</ele>
        <time>2022-01-29T13:40:04Z</time>
      </trkpt>
      <trkpt lat="46.40589" lon="5.19094">
        <ele>211.4</ele>
        <time>2022-01-29T13:40:12Z</time>
      </trkpt>
      <trkpt lat="46.40589" lon="5.19105">
        <ele>211.6</ele>
        <time>2022-01-29T13:40:13Z</time>
      </trkpt>
      <trkpt lat="46.40589" lon="5.19115">
        <ele>211.4</ele>
        <time>2022-01-29T13:40:14Z</time>
      </trkpt>
      <trkpt lat="46.40586" lon="5.19196">
        <ele>211.4</ele>
        <time>2022-01-29T13:40:22Z</time>
      </trkpt>
      <trkpt lat="46.40585" lon="5.19227">
        <ele>211.4</ele>
        <time>2022-01-29T13:40:25Z</time>
      </trkpt>
      <trkpt lat="46.40584" lon="5.19312">
        <ele>211.4</ele>
        <time>2022-01-29T13:40:34Z</time>
      </trkpt>
      <trkpt lat="46.40582" lon="5.19374">
        <ele>212.4</ele>
        <time>2022-01-29T13:40:42Z</time>
      </trkpt>
      <trkpt lat="46.40582" lon="5.19389">
        <ele>212.6</ele>
        <time>2022-01-29T13:40:43Z</time>
      </trkpt>
      <trkpt lat="46.4058" lon="5.19443">
        <ele>213.6</ele>
        <time>2022-01-29T13:40:50Z</time>
      </trkpt>
      <trkpt lat="46.40577" lon="5.195">
        <ele>214.8</ele>
        <time>2022-01-29T13:40:58Z</time>
      </trkpt>
      <trkpt lat="46.40577" lon="5.19507">
        <ele>215</ele>
        <time>2022-01-29T13:40:59Z</time>
      </trkpt>
      <trkpt lat="46.40577" lon="5.19534">
        <ele>216</ele>
        <time>2022-01-29T13:41:03Z</time>
      </trkpt>
      <trkpt lat="46.40578" lon="5.19561">
        <ele>217.2</ele>
        <time>2022-01-29T13:41:07Z</time>
      </trkpt>
      <trkpt lat="46.40577" lon="5.19574">
        <ele>217.6</ele>
        <time>2022-01-29T13:41:09Z</time>
      </trkpt>
      <trkpt lat="46.40575" lon="5.19594">
        <ele>218.2</ele>
        <time>2022-01-29T13:41:12Z</time>
      </trkpt>
      <trkpt lat="46.40574" lon="5.19607">
        <ele>218.4</ele>
        <time>2022-01-29T13:41:14Z</time>
      </trkpt>
      <trkpt lat="46.40574" lon="5.19623">
        <ele>219.6</ele>
        <time>2022-01-29T13:41:17Z</time>
      </trkpt>
      <trkpt lat="46.40573" lon="5.1963">
        <ele>219.6</ele>
        <time>2022-01-29T13:41:18Z</time>
      </trkpt>
      <trkpt lat="46.40573" lon="5.19648">
        <ele>220.8</ele>
        <time>2022-01-29T13:41:21Z</time>
      </trkpt>
      <trkpt lat="46.40572" lon="5.19673">
        <ele>222</ele>
        <time>2022-01-29T13:41:25Z</time>
      </trkpt>
      <trkpt lat="46.40572" lon="5.19677">
        <ele>222.2</ele>
        <time>2022-01-29T13:41:26Z</time>
      </trkpt>
      <trkpt lat="46.40571" lon="5.19695">
        <ele>223</ele>
        <time>2022-01-29T13:41:29Z</time>
      </trkpt>
      <trkpt lat="46.4057" lon="5.19725">
        <ele>223.8</ele>
        <time>2022-01-29T13:41:34Z</time>
      </trkpt>
      <trkpt lat="46.4057" lon="5.19732">
        <ele>224.4</ele>
        <time>2022-01-29T13:41:35Z</time>
      </trkpt>
      <trkpt lat="46.40569" lon="5.19765">
        <ele>225.8</ele>
        <time>2022-01-29T13:41:41Z</time>
      </trkpt>
      <trkpt lat="46.40569" lon="5.19783">
        <ele>226.4</ele>
        <time>2022-01-29T13:41:44Z</time>
      </trkpt>
      <trkpt lat="46.40569" lon="5.19808">
        <ele>226.8</ele>
        <time>2022-01-29T13:41:48Z</time>
      </trkpt>
      <trkpt lat="46.40568" lon="5.19849">
        <ele>227.4</ele>
        <time>2022-01-29T13:41:54Z</time>
      </trkpt>
      <trkpt lat="46.40567" lon="5.19886">
        <ele>227.8</ele>
        <time>2022-01-29T13:41:59Z</time>
      </trkpt>
      <trkpt lat="46.40567" lon="5.199">
        <ele>228</ele>
        <time>2022-01-29T13:42:01Z</time>
      </trkpt>
      <trkpt lat="46.40565" lon="5.19984">
        <ele>228.2</ele>
        <time>2022-01-29T13:42:11Z</time>
      </trkpt>
      <trkpt lat="46.40562" lon="5.20063">
        <ele>228.4</ele>
        <time>2022-01-29T13:42:20Z</time>
      </trkpt>
      <trkpt lat="46.40561" lon="5.20081">
        <ele>228.6</ele>
        <time>2022-01-29T13:42:22Z</time>
      </trkpt>
      <trkpt lat="46.40557" lon="5.20162">
        <ele>229.2</ele>
        <time>2022-01-29T13:42:31Z</time>
      </trkpt>
      <trkpt lat="46.40556" lon="5.2018">
        <ele>229.2</ele>
        <time>2022-01-29T13:42:33Z</time>
      </trkpt>
      <trkpt lat="46.4055" lon="5.20258">
        <ele>229.8</ele>
        <time>2022-01-29T13:42:42Z</time>
      </trkpt>
      <trkpt lat="46.40549" lon="5.20276">
        <ele>229.8</ele>
        <time>2022-01-29T13:42:44Z</time>
      </trkpt>
      <trkpt lat="46.40543" lon="5.2036">
        <ele>230</ele>
        <time>2022-01-29T13:42:53Z</time>
      </trkpt>
      <trkpt lat="46.40536" lon="5.2044">
        <ele>229.2</ele>
        <time>2022-01-29T13:43:01Z</time>
      </trkpt>
      <trkpt lat="46.40532" lon="5.20502">
        <ele>228</ele>
        <time>2022-01-29T13:43:06Z</time>
      </trkpt>
      <trkpt lat="46.40528" lon="5.20543">
        <ele>226.8</ele>
        <time>2022-01-29T13:43:09Z</time>
      </trkpt>
      <trkpt lat="46.40526" lon="5.20586">
        <ele>224.8</ele>
        <time>2022-01-29T13:43:12Z</time>
      </trkpt>
      <trkpt lat="46.40525" lon="5.20601">
        <ele>224.4</ele>
        <time>2022-01-29T13:43:13Z</time>
      </trkpt>
      <trkpt lat="46.40524" lon="5.20617">
        <ele>223.8</ele>
        <time>2022-01-29T13:43:14Z</time>
      </trkpt>
      <trkpt lat="46.40521" lon="5.20648">
        <ele>222.6</ele>
        <time>2022-01-29T13:43:16Z</time>
      </trkpt>
      <trkpt lat="46.40517" lon="5.20695">
        <ele>221.4</ele>
        <time>2022-01-29T13:43:19Z</time>
      </trkpt>
      <trkpt lat="46.40516" lon="5.20711">
        <ele>219.8</ele>
        <time>2022-01-29T13:43:20Z</time>
      </trkpt>
      <trkpt lat="46.40515" lon="5.20727">
        <ele>218.8</ele>
        <time>2022-01-29T13:43:21Z</time>
      </trkpt>
      <trkpt lat="46.40514" lon="5.20744">
        <ele>218.4</ele>
        <time>2022-01-29T13:43:22Z</time>
      </trkpt>
      <trkpt lat="46.40512" lon="5.20776">
        <ele>217.2</ele>
        <time>2022-01-29T13:43:24Z</time>
      </trkpt>
      <trkpt lat="46.4051" lon="5.20808">
        <ele>215.8</ele>
        <time>2022-01-29T13:43:26Z</time>
      </trkpt>
      <trkpt lat="46.40508" lon="5.20841">
        <ele>214.6</ele>
        <time>2022-01-29T13:43:28Z</time>
      </trkpt>
      <trkpt lat="46.40507" lon="5.20856">
        <ele>213.8</ele>
        <time>2022-01-29T13:43:29Z</time>
      </trkpt>
      <trkpt lat="46.40506" lon="5.20871">
        <ele>212.8</ele>
        <time>2022-01-29T13:43:30Z</time>
      </trkpt>
      <trkpt lat="46.40504" lon="5.20902">
        <ele>211.6</ele>
        <time>2022-01-29T13:43:32Z</time>
      </trkpt>
      <trkpt lat="46.405" lon="5.20944">
        <ele>211.2</ele>
        <time>2022-01-29T13:43:35Z</time>
      </trkpt>
      <trkpt lat="46.40498" lon="5.20972">
        <ele>210.6</ele>
        <time>2022-01-29T13:43:37Z</time>
      </trkpt>
      <trkpt lat="46.40492" lon="5.21052">
        <ele>210</ele>
        <time>2022-01-29T13:43:43Z</time>
      </trkpt>
      <trkpt lat="46.4049" lon="5.21091">
        <ele>209.6</ele>
        <time>2022-01-29T13:43:46Z</time>
      </trkpt>
      <trkpt lat="46.40486" lon="5.21151">
        <ele>209.2</ele>
        <time>2022-01-29T13:43:51Z</time>
      </trkpt>
      <trkpt lat="46.4048" lon="5.21229">
        <ele>209</ele>
        <time>2022-01-29T13:43:58Z</time>
      </trkpt>
      <trkpt lat="46.40474" lon="5.21312">
        <ele>209</ele>
        <time>2022-01-29T13:44:06Z</time>
      </trkpt>
      <trkpt lat="46.40468" lon="5.21397">
        <ele>209.6</ele>
        <time>2022-01-29T13:44:14Z</time>
      </trkpt>
      <trkpt lat="46.40462" lon="5.21485">
        <ele>208.8</ele>
        <time>2022-01-29T13:44:22Z</time>
      </trkpt>
      <trkpt lat="46.40461" lon="5.21495">
        <ele>208.8</ele>
        <time>2022-01-29T13:44:23Z</time>
      </trkpt>
      <trkpt lat="46.40457" lon="5.21547">
        <ele>208.6</ele>
        <time>2022-01-29T13:44:28Z</time>
      </trkpt>
      <trkpt lat="46.40455" lon="5.21567">
        <ele>208.4</ele>
        <time>2022-01-29T13:44:30Z</time>
      </trkpt>
      <trkpt lat="46.4045" lon="5.21645">
        <ele>208</ele>
        <time>2022-01-29T13:44:38Z</time>
      </trkpt>
      <trkpt lat="46.40446" lon="5.217">
        <ele>207.8</ele>
        <time>2022-01-29T13:44:44Z</time>
      </trkpt>
      <trkpt lat="46.40443" lon="5.21737">
        <ele>207.2</ele>
        <time>2022-01-29T13:44:48Z</time>
      </trkpt>
      <trkpt lat="46.40436" lon="5.21819">
        <ele>207.4</ele>
        <time>2022-01-29T13:44:57Z</time>
      </trkpt>
      <trkpt lat="46.40435" lon="5.21828">
        <ele>207.4</ele>
        <time>2022-01-29T13:44:58Z</time>
      </trkpt>
      <trkpt lat="46.40431" lon="5.21898">
        <ele>207.8</ele>
        <time>2022-01-29T13:45:06Z</time>
      </trkpt>
      <trkpt lat="46.40428" lon="5.21923">
        <ele>208</ele>
        <time>2022-01-29T13:45:09Z</time>
      </trkpt>
      <trkpt lat="46.40428" lon="5.21941">
        <ele>208.2</ele>
        <time>2022-01-29T13:45:11Z</time>
      </trkpt>
      <trkpt lat="46.40422" lon="5.22015">
        <ele>208.8</ele>
        <time>2022-01-29T13:45:20Z</time>
      </trkpt>
      <trkpt lat="46.40419" lon="5.22069">
        <ele>209.8</ele>
        <time>2022-01-29T13:45:27Z</time>
      </trkpt>
      <trkpt lat="46.40417" lon="5.22091">
        <ele>210.2</ele>
        <time>2022-01-29T13:45:30Z</time>
      </trkpt>
      <trkpt lat="46.40413" lon="5.22128">
        <ele>211</ele>
        <time>2022-01-29T13:45:35Z</time>
      </trkpt>
      <trkpt lat="46.40409" lon="5.22182">
        <ele>211.6</ele>
        <time>2022-01-29T13:45:42Z</time>
      </trkpt>
      <trkpt lat="46.40405" lon="5.22245">
        <ele>211.6</ele>
        <time>2022-01-29T13:45:49Z</time>
      </trkpt>
      <trkpt lat="46.404" lon="5.22307">
        <ele>210.2</ele>
        <time>2022-01-29T13:45:56Z</time>
      </trkpt>
      <trkpt lat="46.40399" lon="5.22325">
        <ele>209.8</ele>
        <time>2022-01-29T13:45:58Z</time>
      </trkpt>
      <trkpt lat="46.40394" lon="5.22383">
        <ele>209.4</ele>
        <time>2022-01-29T13:46:04Z</time>
      </trkpt>
      <trkpt lat="46.40392" lon="5.22421">
        <ele>208.8</ele>
        <time>2022-01-29T13:46:08Z</time>
      </trkpt>
      <trkpt lat="46.40389" lon="5.22462">
        <ele>208.4</ele>
        <time>2022-01-29T13:46:12Z</time>
      </trkpt>
      <trkpt lat="46.40384" lon="5.22519">
        <ele>208</ele>
        <time>2022-01-29T13:46:17Z</time>
      </trkpt>
      <trkpt lat="46.40383" lon="5.22543">
        <ele>207.2</ele>
        <time>2022-01-29T13:46:19Z</time>
      </trkpt>
      <trkpt lat="46.40379" lon="5.2258">
        <ele>206.4</ele>
        <time>2022-01-29T13:46:22Z</time>
      </trkpt>
      <trkpt lat="46.40379" lon="5.22593">
        <ele>206</ele>
        <time>2022-01-29T13:46:23Z</time>
      </trkpt>
      <trkpt lat="46.40375" lon="5.22642">
        <ele>204.8</ele>
        <time>2022-01-29T13:46:27Z</time>
      </trkpt>
      <trkpt lat="46.40372" lon="5.22676">
        <ele>204.4</ele>
        <time>2022-01-29T13:46:30Z</time>
      </trkpt>
      <trkpt lat="46.40366" lon="5.22758">
        <ele>204.2</ele>
        <time>2022-01-29T13:46:38Z</time>
      </trkpt>
      <trkpt lat="46.40361" lon="5.22823">
        <ele>205</ele>
        <time>2022-01-29T13:46:45Z</time>
      </trkpt>
      <trkpt lat="46.40355" lon="5.22886">
        <ele>205.6</ele>
        <time>2022-01-29T13:46:51Z</time>
      </trkpt>
      <trkpt lat="46.40354" lon="5.22907">
        <ele>205.4</ele>
        <time>2022-01-29T13:46:53Z</time>
      </trkpt>
      <trkpt lat="46.4035" lon="5.2296">
        <ele>204.6</ele>
        <time>2022-01-29T13:46:58Z</time>
      </trkpt>
      <trkpt lat="46.40343" lon="5.23034">
        <ele>204.2</ele>
        <time>2022-01-29T13:47:06Z</time>
      </trkpt>
      <trkpt lat="46.40337" lon="5.23092">
        <ele>205</ele>
        <time>2022-01-29T13:47:13Z</time>
      </trkpt>
      <trkpt lat="46.40331" lon="5.23139">
        <ele>206.2</ele>
        <time>2022-01-29T13:47:19Z</time>
      </trkpt>
      <trkpt lat="46.40329" lon="5.23163">
        <ele>206.8</ele>
        <time>2022-01-29T13:47:22Z</time>
      </trkpt>
      <trkpt lat="46.40327" lon="5.23197">
        <ele>207.2</ele>
        <time>2022-01-29T13:47:26Z</time>
      </trkpt>
      <trkpt lat="46.40324" lon="5.23244">
        <ele>207.6</ele>
        <time>2022-01-29T13:47:31Z</time>
      </trkpt>
      <trkpt lat="46.40321" lon="5.23308">
        <ele>207.2</ele>
        <time>2022-01-29T13:47:37Z</time>
      </trkpt>
      <trkpt lat="46.40318" lon="5.23366">
        <ele>206</ele>
        <time>2022-01-29T13:47:42Z</time>
      </trkpt>
      <trkpt lat="46.40317" lon="5.23376">
        <ele>205.8</ele>
        <time>2022-01-29T13:47:43Z</time>
      </trkpt>
      <trkpt lat="46.40313" lon="5.2342">
        <ele>204.8</ele>
        <time>2022-01-29T13:47:47Z</time>
      </trkpt>
      <trkpt lat="46.40308" lon="5.23485">
        <ele>204.4</ele>
        <time>2022-01-29T13:47:53Z</time>
      </trkpt>
      <trkpt lat="46.40303" lon="5.23564">
        <ele>204.6</ele>
        <time>2022-01-29T13:48:01Z</time>
      </trkpt>
      <trkpt lat="46.40298" lon="5.23618">
        <ele>205.2</ele>
        <time>2022-01-29T13:48:08Z</time>
      </trkpt>
      <trkpt lat="46.40297" lon="5.23632">
        <ele>206</ele>
        <time>2022-01-29T13:48:10Z</time>
      </trkpt>
      <trkpt lat="46.40295" lon="5.23665">
        <ele>207</ele>
        <time>2022-01-29T13:48:15Z</time>
      </trkpt>
      <trkpt lat="46.40294" lon="5.23671">
        <ele>207.2</ele>
        <time>2022-01-29T13:48:16Z</time>
      </trkpt>
      <trkpt lat="46.4029" lon="5.23713">
        <ele>208.4</ele>
        <time>2022-01-29T13:48:23Z</time>
      </trkpt>
      <trkpt lat="46.40292" lon="5.23735">
        <ele>209.6</ele>
        <time>2022-01-29T13:48:27Z</time>
      </trkpt>
      <trkpt lat="46.40292" lon="5.23741">
        <ele>209.8</ele>
        <time>2022-01-29T13:48:28Z</time>
      </trkpt>
      <trkpt lat="46.40294" lon="5.23758">
        <ele>210.6</ele>
        <time>2022-01-29T13:48:31Z</time>
      </trkpt>
      <trkpt lat="46.403" lon="5.2378">
        <ele>211.8</ele>
        <time>2022-01-29T13:48:35Z</time>
      </trkpt>
      <trkpt lat="46.40308" lon="5.23802">
        <ele>213</ele>
        <time>2022-01-29T13:48:39Z</time>
      </trkpt>
      <trkpt lat="46.40313" lon="5.23819">
        <ele>213.6</ele>
        <time>2022-01-29T13:48:42Z</time>
      </trkpt>
      <trkpt lat="46.40317" lon="5.23829">
        <ele>214.2</ele>
        <time>2022-01-29T13:48:44Z</time>
      </trkpt>
      <trkpt lat="46.40326" lon="5.2385">
        <ele>215.4</ele>
        <time>2022-01-29T13:48:48Z</time>
      </trkpt>
      <trkpt lat="46.40336" lon="5.2387">
        <ele>216.2</ele>
        <time>2022-01-29T13:48:52Z</time>
      </trkpt>
      <trkpt lat="46.40341" lon="5.2388">
        <ele>216.6</ele>
        <time>2022-01-29T13:48:54Z</time>
      </trkpt>
      <trkpt lat="46.40353" lon="5.23905">
        <ele>217.6</ele>
        <time>2022-01-29T13:48:59Z</time>
      </trkpt>
      <trkpt lat="46.40367" lon="5.23932">
        <ele>218</ele>
        <time>2022-01-29T13:49:03Z</time>
      </trkpt>
      <trkpt lat="46.40391" lon="5.23982">
        <ele>217.4</ele>
        <time>2022-01-29T13:49:10Z</time>
      </trkpt>
      <trkpt lat="46.40422" lon="5.24025">
        <ele>217.2</ele>
        <time>2022-01-29T13:49:17Z</time>
      </trkpt>
      <trkpt lat="46.40435" lon="5.24043">
        <ele>217</ele>
        <time>2022-01-29T13:49:20Z</time>
      </trkpt>
      <trkpt lat="46.40441" lon="5.24057">
        <ele>216.8</ele>
        <time>2022-01-29T13:49:22Z</time>
      </trkpt>
      <trkpt lat="46.40447" lon="5.24079">
        <ele>216.6</ele>
        <time>2022-01-29T13:49:25Z</time>
      </trkpt>
      <trkpt lat="46.40449" lon="5.2409">
        <ele>216.4</ele>
        <time>2022-01-29T13:49:27Z</time>
      </trkpt>
      <trkpt lat="46.4045" lon="5.24103">
        <ele>215.8</ele>
        <time>2022-01-29T13:49:31Z</time>
      </trkpt>
      <trkpt lat="46.40451" lon="5.24111">
        <ele>215.6</ele>
        <time>2022-01-29T13:49:36Z</time>
      </trkpt>
      <trkpt lat="46.40459" lon="5.24135">
        <ele>215.4</ele>
        <time>2022-01-29T13:49:40Z</time>
      </trkpt>
      <trkpt lat="46.40468" lon="5.2418">
        <ele>215.2</ele>
        <time>2022-01-29T13:49:45Z</time>
      </trkpt>
      <trkpt lat="46.4048" lon="5.24234">
        <ele>215</ele>
        <time>2022-01-29T13:49:51Z</time>
      </trkpt>
      <trkpt lat="46.40498" lon="5.24311">
        <ele>215.2</ele>
        <time>2022-01-29T13:50:00Z</time>
      </trkpt>
      <trkpt lat="46.405" lon="5.24319">
        <ele>215.2</ele>
        <time>2022-01-29T13:50:01Z</time>
      </trkpt>
      <trkpt lat="46.40509" lon="5.24359">
        <ele>215.8</ele>
        <time>2022-01-29T13:50:07Z</time>
      </trkpt>
      <trkpt lat="46.40511" lon="5.24372">
        <ele>216.8</ele>
        <time>2022-01-29T13:50:09Z</time>
      </trkpt>
      <trkpt lat="46.40518" lon="5.24403">
        <ele>218</ele>
        <time>2022-01-29T13:50:14Z</time>
      </trkpt>
      <trkpt lat="46.40519" lon="5.24409">
        <ele>218.4</ele>
        <time>2022-01-29T13:50:15Z</time>
      </trkpt>
      <trkpt lat="46.40523" lon="5.24427">
        <ele>219.4</ele>
        <time>2022-01-29T13:50:18Z</time>
      </trkpt>
      <trkpt lat="46.40528" lon="5.24444">
        <ele>220.4</ele>
        <time>2022-01-29T13:50:21Z</time>
      </trkpt>
      <trkpt lat="46.4053" lon="5.2445">
        <ele>220.8</ele>
        <time>2022-01-29T13:50:22Z</time>
      </trkpt>
      <trkpt lat="46.40533" lon="5.24467">
        <ele>221.6</ele>
        <time>2022-01-29T13:50:25Z</time>
      </trkpt>
      <trkpt lat="46.40538" lon="5.24489">
        <ele>222.8</ele>
        <time>2022-01-29T13:50:29Z</time>
      </trkpt>
      <trkpt lat="46.4054" lon="5.24499">
        <ele>223.4</ele>
        <time>2022-01-29T13:50:31Z</time>
      </trkpt>
      <trkpt lat="46.40541" lon="5.24504">
        <ele>224</ele>
        <time>2022-01-29T13:50:32Z</time>
      </trkpt>
      <trkpt lat="46.40549" lon="5.24534">
        <ele>225.2</ele>
        <time>2022-01-29T13:50:38Z</time>
      </trkpt>
      <trkpt lat="46.40552" lon="5.24544">
        <ele>225.6</ele>
        <time>2022-01-29T13:50:40Z</time>
      </trkpt>
      <trkpt lat="46.40558" lon="5.24568">
        <ele>226.4</ele>
        <time>2022-01-29T13:50:45Z</time>
      </trkpt>
      <trkpt lat="46.40562" lon="5.24588">
        <ele>227.4</ele>
        <time>2022-01-29T13:50:49Z</time>
      </trkpt>
      <trkpt lat="46.40563" lon="5.24593">
        <ele>227.6</ele>
        <time>2022-01-29T13:50:50Z</time>
      </trkpt>
      <trkpt lat="46.40573" lon="5.24633">
        <ele>228.6</ele>
        <time>2022-01-29T13:50:57Z</time>
      </trkpt>
      <trkpt lat="46.40574" lon="5.2464">
        <ele>228.6</ele>
        <time>2022-01-29T13:50:58Z</time>
      </trkpt>
      <trkpt lat="46.40584" lon="5.2468">
        <ele>228.8</ele>
        <time>2022-01-29T13:51:03Z</time>
      </trkpt>
      <trkpt lat="46.40599" lon="5.24744">
        <ele>227.8</ele>
        <time>2022-01-29T13:51:09Z</time>
      </trkpt>
      <trkpt lat="46.40602" lon="5.24755">
        <ele>227.4</ele>
        <time>2022-01-29T13:51:10Z</time>
      </trkpt>
      <trkpt lat="46.40614" lon="5.24805">
        <ele>226.2</ele>
        <time>2022-01-29T13:51:14Z</time>
      </trkpt>
      <trkpt lat="46.4062" lon="5.24831">
        <ele>225.2</ele>
        <time>2022-01-29T13:51:16Z</time>
      </trkpt>
      <trkpt lat="46.40627" lon="5.24859">
        <ele>224</ele>
        <time>2022-01-29T13:51:18Z</time>
      </trkpt>
      <trkpt lat="46.40634" lon="5.24888">
        <ele>222.8</ele>
        <time>2022-01-29T13:51:20Z</time>
      </trkpt>
      <trkpt lat="46.40637" lon="5.24903">
        <ele>221.6</ele>
        <time>2022-01-29T13:51:21Z</time>
      </trkpt>
      <trkpt lat="46.40644" lon="5.24932">
        <ele>220.6</ele>
        <time>2022-01-29T13:51:23Z</time>
      </trkpt>
      <trkpt lat="46.40655" lon="5.24977">
        <ele>219</ele>
        <time>2022-01-29T13:51:26Z</time>
      </trkpt>
      <trkpt lat="46.40662" lon="5.25009">
        <ele>217.2</ele>
        <time>2022-01-29T13:51:28Z</time>
      </trkpt>
      <trkpt lat="46.4067" lon="5.2504">
        <ele>216</ele>
        <time>2022-01-29T13:51:30Z</time>
      </trkpt>
      <trkpt lat="46.40673" lon="5.25055">
        <ele>215</ele>
        <time>2022-01-29T13:51:31Z</time>
      </trkpt>
      <trkpt lat="46.40681" lon="5.25087">
        <ele>213</ele>
        <time>2022-01-29T13:51:33Z</time>
      </trkpt>
      <trkpt lat="46.40688" lon="5.25118">
        <ele>211.4</ele>
        <time>2022-01-29T13:51:35Z</time>
      </trkpt>
      <trkpt lat="46.40696" lon="5.2515">
        <ele>210</ele>
        <time>2022-01-29T13:51:37Z</time>
      </trkpt>
      <trkpt lat="46.40703" lon="5.25182">
        <ele>208.6</ele>
        <time>2022-01-29T13:51:39Z</time>
      </trkpt>
      <trkpt lat="46.40711" lon="5.25213">
        <ele>207.4</ele>
        <time>2022-01-29T13:51:41Z</time>
      </trkpt>
      <trkpt lat="46.40715" lon="5.25228">
        <ele>206.2</ele>
        <time>2022-01-29T13:51:42Z</time>
      </trkpt>
      <trkpt lat="46.40722" lon="5.25256">
        <ele>204.8</ele>
        <time>2022-01-29T13:51:44Z</time>
      </trkpt>
      <trkpt lat="46.40732" lon="5.25297">
        <ele>204</ele>
        <time>2022-01-29T13:51:47Z</time>
      </trkpt>
      <trkpt lat="46.40738" lon="5.25323">
        <ele>203.6</ele>
        <time>2022-01-29T13:51:49Z</time>
      </trkpt>
      <trkpt lat="46.40753" lon="5.25383">
        <ele>203.2</ele>
        <time>2022-01-29T13:51:54Z</time>
      </trkpt>
      <trkpt lat="46.40772" lon="5.25456">
        <ele>203</ele>
        <time>2022-01-29T13:52:01Z</time>
      </trkpt>
      <trkpt lat="46.40794" lon="5.25534">
        <ele>203</ele>
        <time>2022-01-29T13:52:08Z</time>
      </trkpt>
      <trkpt lat="46.40812" lon="5.25604">
        <ele>203</ele>
        <time>2022-01-29T13:52:15Z</time>
      </trkpt>
      <trkpt lat="46.40827" lon="5.25659">
        <ele>204.4</ele>
        <time>2022-01-29T13:52:22Z</time>
      </trkpt>
      <trkpt lat="46.4083" lon="5.25674">
        <ele>205</ele>
        <time>2022-01-29T13:52:24Z</time>
      </trkpt>
      <trkpt lat="46.40839" lon="5.25709">
        <ele>206.4</ele>
        <time>2022-01-29T13:52:29Z</time>
      </trkpt>
      <trkpt lat="46.40841" lon="5.25715">
        <ele>206.4</ele>
        <time>2022-01-29T13:52:30Z</time>
      </trkpt>
      <trkpt lat="46.4085" lon="5.25744">
        <ele>207.4</ele>
        <time>2022-01-29T13:52:34Z</time>
      </trkpt>
      <trkpt lat="46.40862" lon="5.25787">
        <ele>208.6</ele>
        <time>2022-01-29T13:52:40Z</time>
      </trkpt>
      <trkpt lat="46.40864" lon="5.25794">
        <ele>209</ele>
        <time>2022-01-29T13:52:41Z</time>
      </trkpt>
      <trkpt lat="46.40886" lon="5.25872">
        <ele>209.6</ele>
        <time>2022-01-29T13:52:51Z</time>
      </trkpt>
      <trkpt lat="46.40903" lon="5.25935">
        <ele>209.6</ele>
        <time>2022-01-29T13:52:58Z</time>
      </trkpt>
      <trkpt lat="46.4092" lon="5.25992">
        <ele>209</ele>
        <time>2022-01-29T13:53:04Z</time>
      </trkpt>
      <trkpt lat="46.40942" lon="5.26073">
        <ele>208</ele>
        <time>2022-01-29T13:53:12Z</time>
      </trkpt>
      <trkpt lat="46.40948" lon="5.26093">
        <ele>207.8</ele>
        <time>2022-01-29T13:53:14Z</time>
      </trkpt>
      <trkpt lat="46.40968" lon="5.26166">
        <ele>207.8</ele>
        <time>2022-01-29T13:53:22Z</time>
      </trkpt>
      <trkpt lat="46.40981" lon="5.26218">
        <ele>208.2</ele>
        <time>2022-01-29T13:53:28Z</time>
      </trkpt>
      <trkpt lat="46.40995" lon="5.26271">
        <ele>209.4</ele>
        <time>2022-01-29T13:53:35Z</time>
      </trkpt>
      <trkpt lat="46.41003" lon="5.26299">
        <ele>210.2</ele>
        <time>2022-01-29T13:53:39Z</time>
      </trkpt>
      <trkpt lat="46.41009" lon="5.26319">
        <ele>210.8</ele>
        <time>2022-01-29T13:53:42Z</time>
      </trkpt>
      <trkpt lat="46.41012" lon="5.26331">
        <ele>211.2</ele>
        <time>2022-01-29T13:53:44Z</time>
      </trkpt>
      <trkpt lat="46.41022" lon="5.26363">
        <ele>212.4</ele>
        <time>2022-01-29T13:53:49Z</time>
      </trkpt>
      <trkpt lat="46.41026" lon="5.26377">
        <ele>213</ele>
        <time>2022-01-29T13:53:51Z</time>
      </trkpt>
      <trkpt lat="46.41033" lon="5.26405">
        <ele>213.8</ele>
        <time>2022-01-29T13:53:55Z</time>
      </trkpt>
      <trkpt lat="46.41038" lon="5.26427">
        <ele>214.2</ele>
        <time>2022-01-29T13:53:58Z</time>
      </trkpt>
      <trkpt lat="46.41042" lon="5.26442">
        <ele>214.6</ele>
        <time>2022-01-29T13:54:00Z</time>
      </trkpt>
      <trkpt lat="46.41044" lon="5.26449">
        <ele>214.8</ele>
        <time>2022-01-29T13:54:01Z</time>
      </trkpt>
      <trkpt lat="46.41049" lon="5.26471">
        <ele>215.4</ele>
        <time>2022-01-29T13:54:04Z</time>
      </trkpt>
      <trkpt lat="46.41058" lon="5.26499">
        <ele>216</ele>
        <time>2022-01-29T13:54:08Z</time>
      </trkpt>
      <trkpt lat="46.41067" lon="5.26531">
        <ele>216.2</ele>
        <time>2022-01-29T13:54:12Z</time>
      </trkpt>
      <trkpt lat="46.41083" lon="5.26594">
        <ele>216.8</ele>
        <time>2022-01-29T13:54:20Z</time>
      </trkpt>
      <trkpt lat="46.41086" lon="5.26608">
        <ele>217</ele>
        <time>2022-01-29T13:54:22Z</time>
      </trkpt>
      <trkpt lat="46.41091" lon="5.26627">
        <ele>217.4</ele>
        <time>2022-01-29T13:54:25Z</time>
      </trkpt>
      <trkpt lat="46.41097" lon="5.26645">
        <ele>218.2</ele>
        <time>2022-01-29T13:54:28Z</time>
      </trkpt>
      <trkpt lat="46.41101" lon="5.26662">
        <ele>219.2</ele>
        <time>2022-01-29T13:54:31Z</time>
      </trkpt>
      <trkpt lat="46.41107" lon="5.26684">
        <ele>220</ele>
        <time>2022-01-29T13:54:35Z</time>
      </trkpt>
      <trkpt lat="46.41108" lon="5.26689">
        <ele>220.4</ele>
        <time>2022-01-29T13:54:36Z</time>
      </trkpt>
      <trkpt lat="46.41113" lon="5.2671">
        <ele>221.6</ele>
        <time>2022-01-29T13:54:40Z</time>
      </trkpt>
      <trkpt lat="46.41114" lon="5.26715">
        <ele>221.8</ele>
        <time>2022-01-29T13:54:41Z</time>
      </trkpt>
      <trkpt lat="46.41118" lon="5.26729">
        <ele>222.6</ele>
        <time>2022-01-29T13:54:44Z</time>
      </trkpt>
      <trkpt lat="46.41124" lon="5.26748">
        <ele>223.8</ele>
        <time>2022-01-29T13:54:48Z</time>
      </trkpt>
      <trkpt lat="46.41129" lon="5.26773">
        <ele>224.8</ele>
        <time>2022-01-29T13:54:53Z</time>
      </trkpt>
      <trkpt lat="46.41138" lon="5.26798">
        <ele>226</ele>
        <time>2022-01-29T13:54:58Z</time>
      </trkpt>
      <trkpt lat="46.41143" lon="5.26809">
        <ele>226.4</ele>
        <time>2022-01-29T13:55:00Z</time>
      </trkpt>
      <trkpt lat="46.41149" lon="5.26823">
        <ele>227.4</ele>
        <time>2022-01-29T13:55:03Z</time>
      </trkpt>
      <trkpt lat="46.41158" lon="5.26835">
        <ele>228</ele>
        <time>2022-01-29T13:55:06Z</time>
      </trkpt>
      <trkpt lat="46.41164" lon="5.26842">
        <ele>228.4</ele>
        <time>2022-01-29T13:55:08Z</time>
      </trkpt>
      <trkpt lat="46.41173" lon="5.26861">
        <ele>229.2</ele>
        <time>2022-01-29T13:55:12Z</time>
      </trkpt>
      <trkpt lat="46.41173" lon="5.26867">
        <ele>229.4</ele>
        <time>2022-01-29T13:55:13Z</time>
      </trkpt>
      <trkpt lat="46.41173" lon="5.26885">
        <ele>230</ele>
        <time>2022-01-29T13:55:16Z</time>
      </trkpt>
      <trkpt lat="46.41174" lon="5.26891">
        <ele>230.2</ele>
        <time>2022-01-29T13:55:17Z</time>
      </trkpt>
      <trkpt lat="46.41176" lon="5.26896">
        <ele>230.4</ele>
        <time>2022-01-29T13:55:18Z</time>
      </trkpt>
      <trkpt lat="46.41179" lon="5.269">
        <ele>230.6</ele>
        <time>2022-01-29T13:55:19Z</time>
      </trkpt>
      <trkpt lat="46.41183" lon="5.26904">
        <ele>230.6</ele>
        <time>2022-01-29T13:55:20Z</time>
      </trkpt>
      <trkpt lat="46.41187" lon="5.26906">
        <ele>230.8</ele>
        <time>2022-01-29T13:55:21Z</time>
      </trkpt>
      <trkpt lat="46.41191" lon="5.26908">
        <ele>230.8</ele>
        <time>2022-01-29T13:55:22Z</time>
      </trkpt>
      <trkpt lat="46.412" lon="5.26906">
        <ele>231</ele>
        <time>2022-01-29T13:55:24Z</time>
      </trkpt>
      <trkpt lat="46.41204" lon="5.26903">
        <ele>231.2</ele>
        <time>2022-01-29T13:55:25Z</time>
      </trkpt>
      <trkpt lat="46.41208" lon="5.26898">
        <ele>231.2</ele>
        <time>2022-01-29T13:55:26Z</time>
      </trkpt>
      <trkpt lat="46.41212" lon="5.26886">
        <ele>231.2</ele>
        <time>2022-01-29T13:55:28Z</time>
      </trkpt>
      <trkpt lat="46.41216" lon="5.26867">
        <ele>231.2</ele>
        <time>2022-01-29T13:55:31Z</time>
      </trkpt>
      <trkpt lat="46.41221" lon="5.26855">
        <ele>231</ele>
        <time>2022-01-29T13:55:33Z</time>
      </trkpt>
      <trkpt lat="46.41225" lon="5.2685">
        <ele>231</ele>
        <time>2022-01-29T13:55:34Z</time>
      </trkpt>
      <trkpt lat="46.41243" lon="5.26832">
        <ele>230.6</ele>
        <time>2022-01-29T13:55:38Z</time>
      </trkpt>
      <trkpt lat="46.41254" lon="5.26825">
        <ele>230.2</ele>
        <time>2022-01-29T13:55:40Z</time>
      </trkpt>
      <trkpt lat="46.41266" lon="5.26822">
        <ele>229.6</ele>
        <time>2022-01-29T13:55:42Z</time>
      </trkpt>
      <trkpt lat="46.4128" lon="5.26818">
        <ele>229</ele>
        <time>2022-01-29T13:55:44Z</time>
      </trkpt>
      <trkpt lat="46.41302" lon="5.26809">
        <ele>228.6</ele>
        <time>2022-01-29T13:55:47Z</time>
      </trkpt>
      <trkpt lat="46.41317" lon="5.26798">
        <ele>227.8</ele>
        <time>2022-01-29T13:55:49Z</time>
      </trkpt>
      <trkpt lat="46.41325" lon="5.26791">
        <ele>227.2</ele>
        <time>2022-01-29T13:55:50Z</time>
      </trkpt>
      <trkpt lat="46.41339" lon="5.26777">
        <ele>226.2</ele>
        <time>2022-01-29T13:55:52Z</time>
      </trkpt>
      <trkpt lat="46.41361" lon="5.26754">
        <ele>224.6</ele>
        <time>2022-01-29T13:55:55Z</time>
      </trkpt>
      <trkpt lat="46.41384" lon="5.26731">
        <ele>223.4</ele>
        <time>2022-01-29T13:55:58Z</time>
      </trkpt>
      <trkpt lat="46.414" lon="5.26715">
        <ele>222</ele>
        <time>2022-01-29T13:56:00Z</time>
      </trkpt>
      <trkpt lat="46.41416" lon="5.26699">
        <ele>221.2</ele>
        <time>2022-01-29T13:56:02Z</time>
      </trkpt>
      <trkpt lat="46.41431" lon="5.26682">
        <ele>220.2</ele>
        <time>2022-01-29T13:56:04Z</time>
      </trkpt>
      <trkpt lat="46.41447" lon="5.26666">
        <ele>219.2</ele>
        <time>2022-01-29T13:56:06Z</time>
      </trkpt>
      <trkpt lat="46.4147" lon="5.26643">
        <ele>218</ele>
        <time>2022-01-29T13:56:09Z</time>
      </trkpt>
      <trkpt lat="46.41477" lon="5.26635">
        <ele>217.8</ele>
        <time>2022-01-29T13:56:10Z</time>
      </trkpt>
      <trkpt lat="46.41499" lon="5.26613">
        <ele>216.6</ele>
        <time>2022-01-29T13:56:13Z</time>
      </trkpt>
      <trkpt lat="46.41528" lon="5.26584">
        <ele>215.4</ele>
        <time>2022-01-29T13:56:17Z</time>
      </trkpt>
      <trkpt lat="46.41541" lon="5.2657">
        <ele>215</ele>
        <time>2022-01-29T13:56:19Z</time>
      </trkpt>
      <trkpt lat="46.41568" lon="5.26545">
        <ele>214.2</ele>
        <time>2022-01-29T13:56:23Z</time>
      </trkpt>
      <trkpt lat="46.41589" lon="5.26531">
        <ele>213.8</ele>
        <time>2022-01-29T13:56:26Z</time>
      </trkpt>
      <trkpt lat="46.41639" lon="5.26511">
        <ele>213.6</ele>
        <time>2022-01-29T13:56:33Z</time>
      </trkpt>
      <trkpt lat="46.41683" lon="5.26509">
        <ele>214</ele>
        <time>2022-01-29T13:56:39Z</time>
      </trkpt>
      <trkpt lat="46.41725" lon="5.26519">
        <ele>214.2</ele>
        <time>2022-01-29T13:56:45Z</time>
      </trkpt>
      <trkpt lat="46.41774" lon="5.26538">
        <ele>214</ele>
        <time>2022-01-29T13:56:52Z</time>
      </trkpt>
      <trkpt lat="46.41828" lon="5.2656">
        <ele>214.4</ele>
        <time>2022-01-29T13:57:00Z</time>
      </trkpt>
      <trkpt lat="46.41841" lon="5.26565">
        <ele>214.4</ele>
        <time>2022-01-29T13:57:02Z</time>
      </trkpt>
      <trkpt lat="46.41899" lon="5.26589">
        <ele>214.8</ele>
        <time>2022-01-29T13:57:11Z</time>
      </trkpt>
      <trkpt lat="46.41911" lon="5.26594">
        <ele>214.8</ele>
        <time>2022-01-29T13:57:13Z</time>
      </trkpt>
      <trkpt lat="46.41947" lon="5.26608">
        <ele>215.4</ele>
        <time>2022-01-29T13:57:19Z</time>
      </trkpt>
      <trkpt lat="46.41984" lon="5.26622">
        <ele>215.8</ele>
        <time>2022-01-29T13:57:25Z</time>
      </trkpt>
      <trkpt lat="46.42039" lon="5.26644">
        <ele>216</ele>
        <time>2022-01-29T13:57:34Z</time>
      </trkpt>
      <trkpt lat="46.42064" lon="5.26653">
        <ele>216.2</ele>
        <time>2022-01-29T13:57:38Z</time>
      </trkpt>
      <trkpt lat="46.42108" lon="5.2667">
        <ele>216.2</ele>
        <time>2022-01-29T13:57:45Z</time>
      </trkpt>
      <trkpt lat="46.4215" lon="5.26685">
        <ele>216.6</ele>
        <time>2022-01-29T13:57:52Z</time>
      </trkpt>
      <trkpt lat="46.42162" lon="5.2669">
        <ele>216.8</ele>
        <time>2022-01-29T13:57:54Z</time>
      </trkpt>
      <trkpt lat="46.42205" lon="5.26703">
        <ele>217.2</ele>
        <time>2022-01-29T13:58:01Z</time>
      </trkpt>
      <trkpt lat="46.42237" lon="5.26715">
        <ele>217.6</ele>
        <time>2022-01-29T13:58:06Z</time>
      </trkpt>
      <trkpt lat="46.42257" lon="5.26723">
        <ele>217.8</ele>
        <time>2022-01-29T13:58:09Z</time>
      </trkpt>
      <trkpt lat="46.42302" lon="5.26735">
        <ele>217.2</ele>
        <time>2022-01-29T13:58:15Z</time>
      </trkpt>
      <trkpt lat="46.42341" lon="5.26745">
        <ele>216.6</ele>
        <time>2022-01-29T13:58:20Z</time>
      </trkpt>
      <trkpt lat="46.42373" lon="5.26752">
        <ele>215.4</ele>
        <time>2022-01-29T13:58:24Z</time>
      </trkpt>
      <trkpt lat="46.42381" lon="5.26754">
        <ele>215.4</ele>
        <time>2022-01-29T13:58:25Z</time>
      </trkpt>
      <trkpt lat="46.42411" lon="5.26761">
        <ele>214.4</ele>
        <time>2022-01-29T13:58:29Z</time>
      </trkpt>
      <trkpt lat="46.42456" lon="5.26771">
        <ele>213.2</ele>
        <time>2022-01-29T13:58:35Z</time>
      </trkpt>
      <trkpt lat="46.42489" lon="5.26779">
        <ele>212</ele>
        <time>2022-01-29T13:58:39Z</time>
      </trkpt>
      <trkpt lat="46.42505" lon="5.26783">
        <ele>211.6</ele>
        <time>2022-01-29T13:58:41Z</time>
      </trkpt>
      <trkpt lat="46.42539" lon="5.26791">
        <ele>210.8</ele>
        <time>2022-01-29T13:58:45Z</time>
      </trkpt>
      <trkpt lat="46.42562" lon="5.26797">
        <ele>210.6</ele>
        <time>2022-01-29T13:58:48Z</time>
      </trkpt>
      <trkpt lat="46.42608" lon="5.26809">
        <ele>211</ele>
        <time>2022-01-29T13:58:55Z</time>
      </trkpt>
      <trkpt lat="46.42639" lon="5.26818">
        <ele>212.2</ele>
        <time>2022-01-29T13:59:01Z</time>
      </trkpt>
      <trkpt lat="46.42644" lon="5.2682">
        <ele>212.4</ele>
        <time>2022-01-29T13:59:02Z</time>
      </trkpt>
      <trkpt lat="46.42663" lon="5.26824">
        <ele>213.4</ele>
        <time>2022-01-29T13:59:06Z</time>
      </trkpt>
      <trkpt lat="46.42676" lon="5.26828">
        <ele>214.2</ele>
        <time>2022-01-29T13:59:09Z</time>
      </trkpt>
      <trkpt lat="46.42681" lon="5.2683">
        <ele>214.4</ele>
        <time>2022-01-29T13:59:10Z</time>
      </trkpt>
      <trkpt lat="46.42693" lon="5.26833">
        <ele>215.6</ele>
        <time>2022-01-29T13:59:13Z</time>
      </trkpt>
      <trkpt lat="46.42705" lon="5.26836">
        <ele>217</ele>
        <time>2022-01-29T13:59:16Z</time>
      </trkpt>
      <trkpt lat="46.42722" lon="5.26839">
        <ele>218</ele>
        <time>2022-01-29T13:59:20Z</time>
      </trkpt>
      <trkpt lat="46.42742" lon="5.26843">
        <ele>219.6</ele>
        <time>2022-01-29T13:59:25Z</time>
      </trkpt>
      <trkpt lat="46.42758" lon="5.26848">
        <ele>220.8</ele>
        <time>2022-01-29T13:59:29Z</time>
      </trkpt>
      <trkpt lat="46.42778" lon="5.2685">
        <ele>222</ele>
        <time>2022-01-29T13:59:34Z</time>
      </trkpt>
      <trkpt lat="46.42794" lon="5.26855">
        <ele>223.2</ele>
        <time>2022-01-29T13:59:38Z</time>
      </trkpt>
      <trkpt lat="46.42806" lon="5.26858">
        <ele>224.2</ele>
        <time>2022-01-29T13:59:41Z</time>
      </trkpt>
      <trkpt lat="46.42811" lon="5.26858">
        <ele>224.4</ele>
        <time>2022-01-29T13:59:42Z</time>
      </trkpt>
      <trkpt lat="46.42836" lon="5.26863">
        <ele>225.2</ele>
        <time>2022-01-29T13:59:48Z</time>
      </trkpt>
      <trkpt lat="46.42841" lon="5.26863">
        <ele>225.6</ele>
        <time>2022-01-29T13:59:49Z</time>
      </trkpt>
      <trkpt lat="46.42864" lon="5.26864">
        <ele>227</ele>
        <time>2022-01-29T13:59:54Z</time>
      </trkpt>
      <trkpt lat="46.42888" lon="5.26862">
        <ele>227.6</ele>
        <time>2022-01-29T13:59:59Z</time>
      </trkpt>
      <trkpt lat="46.42908" lon="5.2686">
        <ele>228</ele>
        <time>2022-01-29T14:00:03Z</time>
      </trkpt>
      <trkpt lat="46.42935" lon="5.26856">
        <ele>228.2</ele>
        <time>2022-01-29T14:00:08Z</time>
      </trkpt>
      <trkpt lat="46.42985" lon="5.26849">
        <ele>228</ele>
        <time>2022-01-29T14:00:16Z</time>
      </trkpt>
      <trkpt lat="46.43036" lon="5.26844">
        <ele>227.4</ele>
        <time>2022-01-29T14:00:23Z</time>
      </trkpt>
      <trkpt lat="46.4306" lon="5.26844">
        <ele>226.8</ele>
        <time>2022-01-29T14:00:26Z</time>
      </trkpt>
      <trkpt lat="46.43077" lon="5.26846">
        <ele>226.4</ele>
        <time>2022-01-29T14:00:28Z</time>
      </trkpt>
      <trkpt lat="46.43095" lon="5.26848">
        <ele>225.8</ele>
        <time>2022-01-29T14:00:30Z</time>
      </trkpt>
      <trkpt lat="46.43133" lon="5.26857">
        <ele>224</ele>
        <time>2022-01-29T14:00:34Z</time>
      </trkpt>
      <trkpt lat="46.43163" lon="5.26865">
        <ele>222.4</ele>
        <time>2022-01-29T14:00:37Z</time>
      </trkpt>
      <trkpt lat="46.43185" lon="5.26871">
        <ele>221.2</ele>
        <time>2022-01-29T14:00:39Z</time>
      </trkpt>
      <trkpt lat="46.43195" lon="5.26874">
        <ele>220.8</ele>
        <time>2022-01-29T14:00:40Z</time>
      </trkpt>
      <trkpt lat="46.43206" lon="5.26877">
        <ele>219.8</ele>
        <time>2022-01-29T14:00:41Z</time>
      </trkpt>
      <trkpt lat="46.43227" lon="5.2688">
        <ele>218.6</ele>
        <time>2022-01-29T14:00:43Z</time>
      </trkpt>
      <trkpt lat="46.43257" lon="5.26881">
        <ele>217.2</ele>
        <time>2022-01-29T14:00:46Z</time>
      </trkpt>
      <trkpt lat="46.43286" lon="5.26881">
        <ele>216.2</ele>
        <time>2022-01-29T14:00:49Z</time>
      </trkpt>
      <trkpt lat="46.43322" lon="5.26882">
        <ele>215.4</ele>
        <time>2022-01-29T14:00:53Z</time>
      </trkpt>
      <trkpt lat="46.4334" lon="5.26882">
        <ele>215.2</ele>
        <time>2022-01-29T14:00:55Z</time>
      </trkpt>
      <trkpt lat="46.43392" lon="5.26889">
        <ele>214.6</ele>
        <time>2022-01-29T14:01:01Z</time>
      </trkpt>
      <trkpt lat="46.4341" lon="5.26892">
        <ele>214.2</ele>
        <time>2022-01-29T14:01:03Z</time>
      </trkpt>
      <trkpt lat="46.43462" lon="5.26901">
        <ele>213.2</ele>
        <time>2022-01-29T14:01:09Z</time>
      </trkpt>
      <trkpt lat="46.4348" lon="5.26905">
        <ele>212.8</ele>
        <time>2022-01-29T14:01:11Z</time>
      </trkpt>
      <trkpt lat="46.43542" lon="5.26916">
        <ele>212</ele>
        <time>2022-01-29T14:01:18Z</time>
      </trkpt>
      <trkpt lat="46.43567" lon="5.26921">
        <ele>211.8</ele>
        <time>2022-01-29T14:01:21Z</time>
      </trkpt>
      <trkpt lat="46.43623" lon="5.2694">
        <ele>211.2</ele>
        <time>2022-01-29T14:01:28Z</time>
      </trkpt>
      <trkpt lat="46.43631" lon="5.26943">
        <ele>211</ele>
        <time>2022-01-29T14:01:29Z</time>
      </trkpt>
      <trkpt lat="46.43686" lon="5.26964">
        <ele>210.6</ele>
        <time>2022-01-29T14:01:36Z</time>
      </trkpt>
      <trkpt lat="46.43694" lon="5.26967">
        <ele>210.6</ele>
        <time>2022-01-29T14:01:37Z</time>
      </trkpt>
      <trkpt lat="46.43748" lon="5.26988">
        <ele>210.2</ele>
        <time>2022-01-29T14:01:44Z</time>
      </trkpt>
      <trkpt lat="46.43779" lon="5.26997">
        <ele>210</ele>
        <time>2022-01-29T14:01:48Z</time>
      </trkpt>
      <trkpt lat="46.43794" lon="5.26998">
        <ele>209.8</ele>
        <time>2022-01-29T14:01:50Z</time>
      </trkpt>
      <trkpt lat="46.43809" lon="5.26993">
        <ele>209.8</ele>
        <time>2022-01-29T14:01:52Z</time>
      </trkpt>
      <trkpt lat="46.43834" lon="5.26975">
        <ele>209.6</ele>
        <time>2022-01-29T14:01:56Z</time>
      </trkpt>
      <trkpt lat="46.43853" lon="5.26951">
        <ele>209.8</ele>
        <time>2022-01-29T14:02:00Z</time>
      </trkpt>
      <trkpt lat="46.43857" lon="5.26943">
        <ele>210</ele>
        <time>2022-01-29T14:02:01Z</time>
      </trkpt>
      <trkpt lat="46.43865" lon="5.26918">
        <ele>210.2</ele>
        <time>2022-01-29T14:02:04Z</time>
      </trkpt>
      <trkpt lat="46.43868" lon="5.26901">
        <ele>210.6</ele>
        <time>2022-01-29T14:02:06Z</time>
      </trkpt>
      <trkpt lat="46.43871" lon="5.26863">
        <ele>211</ele>
        <time>2022-01-29T14:02:10Z</time>
      </trkpt>
      <trkpt lat="46.43873" lon="5.26844">
        <ele>211</ele>
        <time>2022-01-29T14:02:12Z</time>
      </trkpt>
      <trkpt lat="46.43879" lon="5.26825">
        <ele>211.2</ele>
        <time>2022-01-29T14:02:14Z</time>
      </trkpt>
      <trkpt lat="46.43891" lon="5.26814">
        <ele>211</ele>
        <time>2022-01-29T14:02:16Z</time>
      </trkpt>
      <trkpt lat="46.43897" lon="5.26812">
        <ele>211</ele>
        <time>2022-01-29T14:02:17Z</time>
      </trkpt>
      <trkpt lat="46.43903" lon="5.26813">
        <ele>210.8</ele>
        <time>2022-01-29T14:02:18Z</time>
      </trkpt>
      <trkpt lat="46.43909" lon="5.26818">
        <ele>210.6</ele>
        <time>2022-01-29T14:02:19Z</time>
      </trkpt>
      <trkpt lat="46.43915" lon="5.26823">
        <ele>210.4</ele>
        <time>2022-01-29T14:02:20Z</time>
      </trkpt>
      <trkpt lat="46.43931" lon="5.26829">
        <ele>210</ele>
        <time>2022-01-29T14:02:22Z</time>
      </trkpt>
      <trkpt lat="46.43943" lon="5.26824">
        <ele>209.8</ele>
        <time>2022-01-29T14:02:24Z</time>
      </trkpt>
      <trkpt lat="46.43949" lon="5.26819">
        <ele>209.8</ele>
        <time>2022-01-29T14:02:25Z</time>
      </trkpt>
      <trkpt lat="46.43953" lon="5.26811">
        <ele>209.6</ele>
        <time>2022-01-29T14:02:26Z</time>
      </trkpt>
      <trkpt lat="46.43961" lon="5.26796">
        <ele>209.6</ele>
        <time>2022-01-29T14:02:28Z</time>
      </trkpt>
      <trkpt lat="46.43973" lon="5.26788">
        <ele>209.6</ele>
        <time>2022-01-29T14:02:30Z</time>
      </trkpt>
      <trkpt lat="46.43987" lon="5.2679">
        <ele>209.4</ele>
        <time>2022-01-29T14:02:32Z</time>
      </trkpt>
      <trkpt lat="46.43994" lon="5.26794">
        <ele>209.4</ele>
        <time>2022-01-29T14:02:33Z</time>
      </trkpt>
      <trkpt lat="46.44017" lon="5.26815">
        <ele>209</ele>
        <time>2022-01-29T14:02:37Z</time>
      </trkpt>
      <trkpt lat="46.44036" lon="5.26833">
        <ele>208.4</ele>
        <time>2022-01-29T14:02:40Z</time>
      </trkpt>
      <trkpt lat="46.44063" lon="5.26857">
        <ele>207.8</ele>
        <time>2022-01-29T14:02:44Z</time>
      </trkpt>
      <trkpt lat="46.4407" lon="5.26863">
        <ele>207.8</ele>
        <time>2022-01-29T14:02:45Z</time>
      </trkpt>
      <trkpt lat="46.44103" lon="5.26897">
        <ele>206.8</ele>
        <time>2022-01-29T14:02:50Z</time>
      </trkpt>
      <trkpt lat="46.4413" lon="5.26922">
        <ele>206.2</ele>
        <time>2022-01-29T14:02:54Z</time>
      </trkpt>
      <trkpt lat="46.44143" lon="5.26932">
        <ele>206</ele>
        <time>2022-01-29T14:02:56Z</time>
      </trkpt>
      <trkpt lat="46.44158" lon="5.26936">
        <ele>205.8</ele>
        <time>2022-01-29T14:02:58Z</time>
      </trkpt>
      <trkpt lat="46.44173" lon="5.26932">
        <ele>205.8</ele>
        <time>2022-01-29T14:03:00Z</time>
      </trkpt>
      <trkpt lat="46.44179" lon="5.26927">
        <ele>205.8</ele>
        <time>2022-01-29T14:03:01Z</time>
      </trkpt>
      <trkpt lat="46.44185" lon="5.26921">
        <ele>205.8</ele>
        <time>2022-01-29T14:03:02Z</time>
      </trkpt>
      <trkpt lat="46.44193" lon="5.26907">
        <ele>205.8</ele>
        <time>2022-01-29T14:03:04Z</time>
      </trkpt>
      <trkpt lat="46.44198" lon="5.26901">
        <ele>205.8</ele>
        <time>2022-01-29T14:03:05Z</time>
      </trkpt>
      <trkpt lat="46.44216" lon="5.26882">
        <ele>206.4</ele>
        <time>2022-01-29T14:03:09Z</time>
      </trkpt>
      <trkpt lat="46.44223" lon="5.26875">
        <ele>207</ele>
        <time>2022-01-29T14:03:11Z</time>
      </trkpt>
      <trkpt lat="46.44234" lon="5.26866">
        <ele>207.8</ele>
        <time>2022-01-29T14:03:14Z</time>
      </trkpt>
      <trkpt lat="46.44238" lon="5.26863">
        <ele>208.2</ele>
        <time>2022-01-29T14:03:15Z</time>
      </trkpt>
      <trkpt lat="46.44253" lon="5.26853">
        <ele>209.4</ele>
        <time>2022-01-29T14:03:19Z</time>
      </trkpt>
      <trkpt lat="46.44256" lon="5.26851">
        <ele>209.8</ele>
        <time>2022-01-29T14:03:20Z</time>
      </trkpt>
      <trkpt lat="46.4426" lon="5.26849">
        <ele>210</ele>
        <time>2022-01-29T14:03:21Z</time>
      </trkpt>
      <trkpt lat="46.44264" lon="5.26847">
        <ele>210.6</ele>
        <time>2022-01-29T14:03:22Z</time>
      </trkpt>
      <trkpt lat="46.44286" lon="5.26838">
        <ele>211.6</ele>
        <time>2022-01-29T14:03:27Z</time>
      </trkpt>
      <trkpt lat="46.44304" lon="5.26832">
        <ele>212.8</ele>
        <time>2022-01-29T14:03:31Z</time>
      </trkpt>
      <trkpt lat="46.44332" lon="5.26822">
        <ele>213.8</ele>
        <time>2022-01-29T14:03:37Z</time>
      </trkpt>
      <trkpt lat="46.44336" lon="5.26819">
        <ele>214</ele>
        <time>2022-01-29T14:03:38Z</time>
      </trkpt>
      <trkpt lat="46.44341" lon="5.26815">
        <ele>214</ele>
        <time>2022-01-29T14:03:39Z</time>
      </trkpt>
      <trkpt lat="46.44344" lon="5.26811">
        <ele>214.2</ele>
        <time>2022-01-29T14:03:40Z</time>
      </trkpt>
      <trkpt lat="46.44354" lon="5.26795">
        <ele>214.6</ele>
        <time>2022-01-29T14:03:43Z</time>
      </trkpt>
      <trkpt lat="46.44357" lon="5.26789">
        <ele>214.6</ele>
        <time>2022-01-29T14:03:44Z</time>
      </trkpt>
      <trkpt lat="46.44364" lon="5.26772">
        <ele>214.8</ele>
        <time>2022-01-29T14:03:47Z</time>
      </trkpt>
      <trkpt lat="46.4437" lon="5.26761">
        <ele>215</ele>
        <time>2022-01-29T14:03:49Z</time>
      </trkpt>
      <trkpt lat="46.44383" lon="5.26744">
        <ele>215.6</ele>
        <time>2022-01-29T14:03:53Z</time>
      </trkpt>
      <trkpt lat="46.4439" lon="5.26739">
        <ele>216.2</ele>
        <time>2022-01-29T14:03:55Z</time>
      </trkpt>
      <trkpt lat="46.44398" lon="5.26736">
        <ele>216.6</ele>
        <time>2022-01-29T14:03:57Z</time>
      </trkpt>
      <trkpt lat="46.44402" lon="5.26735">
        <ele>216.8</ele>
        <time>2022-01-29T14:03:58Z</time>
      </trkpt>
      <trkpt lat="46.44411" lon="5.26733">
        <ele>217.4</ele>
        <time>2022-01-29T14:04:00Z</time>
      </trkpt>
      <trkpt lat="46.44419" lon="5.26731">
        <ele>217.8</ele>
        <time>2022-01-29T14:04:02Z</time>
      </trkpt>
      <trkpt lat="46.44431" lon="5.26728">
        <ele>218.6</ele>
        <time>2022-01-29T14:04:05Z</time>
      </trkpt>
      <trkpt lat="46.44446" lon="5.26723">
        <ele>219.6</ele>
        <time>2022-01-29T14:04:09Z</time>
      </trkpt>
      <trkpt lat="46.44462" lon="5.26718">
        <ele>220.8</ele>
        <time>2022-01-29T14:04:13Z</time>
      </trkpt>
      <trkpt lat="46.4447" lon="5.26714">
        <ele>221</ele>
        <time>2022-01-29T14:04:15Z</time>
      </trkpt>
      <trkpt lat="46.44491" lon="5.26693">
        <ele>221.8</ele>
        <time>2022-01-29T14:04:21Z</time>
      </trkpt>
      <trkpt lat="46.44494" lon="5.26689">
        <ele>222</ele>
        <time>2022-01-29T14:04:22Z</time>
      </trkpt>
      <trkpt lat="46.44506" lon="5.26674">
        <ele>222.8</ele>
        <time>2022-01-29T14:04:26Z</time>
      </trkpt>
      <trkpt lat="46.44515" lon="5.26664">
        <ele>224</ele>
        <time>2022-01-29T14:04:29Z</time>
      </trkpt>
      <trkpt lat="46.44522" lon="5.26657">
        <ele>224.6</ele>
        <time>2022-01-29T14:04:31Z</time>
      </trkpt>
      <trkpt lat="46.44529" lon="5.26652">
        <ele>225</ele>
        <time>2022-01-29T14:04:33Z</time>
      </trkpt>
      <trkpt lat="46.44545" lon="5.26643">
        <ele>226</ele>
        <time>2022-01-29T14:04:37Z</time>
      </trkpt>
      <trkpt lat="46.44549" lon="5.26642">
        <ele>226.4</ele>
        <time>2022-01-29T14:04:38Z</time>
      </trkpt>
      <trkpt lat="46.44568" lon="5.2664">
        <ele>226.8</ele>
        <time>2022-01-29T14:04:42Z</time>
      </trkpt>
      <trkpt lat="46.44573" lon="5.26641">
        <ele>227</ele>
        <time>2022-01-29T14:04:43Z</time>
      </trkpt>
      <trkpt lat="46.44602" lon="5.26654">
        <ele>227</ele>
        <time>2022-01-29T14:04:48Z</time>
      </trkpt>
      <trkpt lat="46.44632" lon="5.26675">
        <ele>226.2</ele>
        <time>2022-01-29T14:04:52Z</time>
      </trkpt>
      <trkpt lat="46.44656" lon="5.26691">
        <ele>225</ele>
        <time>2022-01-29T14:04:55Z</time>
      </trkpt>
      <trkpt lat="46.44688" lon="5.26706">
        <ele>223.8</ele>
        <time>2022-01-29T14:04:59Z</time>
      </trkpt>
      <trkpt lat="46.44695" lon="5.26707">
        <ele>223.8</ele>
        <time>2022-01-29T14:05:00Z</time>
      </trkpt>
      <trkpt lat="46.44718" lon="5.26705">
        <ele>223.6</ele>
        <time>2022-01-29T14:05:03Z</time>
      </trkpt>
      <trkpt lat="46.44748" lon="5.26695">
        <ele>224.2</ele>
        <time>2022-01-29T14:05:08Z</time>
      </trkpt>
      <trkpt lat="46.44769" lon="5.26684">
        <ele>225.4</ele>
        <time>2022-01-29T14:05:12Z</time>
      </trkpt>
      <trkpt lat="46.44778" lon="5.26676">
        <ele>226</ele>
        <time>2022-01-29T14:05:14Z</time>
      </trkpt>
      <trkpt lat="46.44788" lon="5.26668">
        <ele>226.6</ele>
        <time>2022-01-29T14:05:16Z</time>
      </trkpt>
      <trkpt lat="46.44792" lon="5.26665">
        <ele>227</ele>
        <time>2022-01-29T14:05:17Z</time>
      </trkpt>
      <trkpt lat="46.44802" lon="5.26661">
        <ele>227.6</ele>
        <time>2022-01-29T14:05:19Z</time>
      </trkpt>
      <trkpt lat="46.44808" lon="5.2666">
        <ele>227.8</ele>
        <time>2022-01-29T14:05:20Z</time>
      </trkpt>
      <trkpt lat="46.4482" lon="5.26657">
        <ele>228.4</ele>
        <time>2022-01-29T14:05:22Z</time>
      </trkpt>
      <trkpt lat="46.44831" lon="5.26649">
        <ele>228.8</ele>
        <time>2022-01-29T14:05:24Z</time>
      </trkpt>
      <trkpt lat="46.44838" lon="5.26635">
        <ele>228.8</ele>
        <time>2022-01-29T14:05:26Z</time>
      </trkpt>
      <trkpt lat="46.4484" lon="5.26627">
        <ele>229</ele>
        <time>2022-01-29T14:05:27Z</time>
      </trkpt>
      <trkpt lat="46.44848" lon="5.26599">
        <ele>228.8</ele>
        <time>2022-01-29T14:05:30Z</time>
      </trkpt>
      <trkpt lat="46.44852" lon="5.26589">
        <ele>228.8</ele>
        <time>2022-01-29T14:05:31Z</time>
      </trkpt>
      <trkpt lat="46.44857" lon="5.26581">
        <ele>228.8</ele>
        <time>2022-01-29T14:05:32Z</time>
      </trkpt>
      <trkpt lat="46.4487" lon="5.26566">
        <ele>228.4</ele>
        <time>2022-01-29T14:05:34Z</time>
      </trkpt>
      <trkpt lat="46.44884" lon="5.26553">
        <ele>227.6</ele>
        <time>2022-01-29T14:05:36Z</time>
      </trkpt>
      <trkpt lat="46.449" lon="5.26544">
        <ele>227.2</ele>
        <time>2022-01-29T14:05:38Z</time>
      </trkpt>
      <trkpt lat="46.44924" lon="5.26535">
        <ele>226.6</ele>
        <time>2022-01-29T14:05:41Z</time>
      </trkpt>
      <trkpt lat="46.44962" lon="5.26518">
        <ele>225.8</ele>
        <time>2022-01-29T14:05:46Z</time>
      </trkpt>
      <trkpt lat="46.44991" lon="5.26516">
        <ele>225.6</ele>
        <time>2022-01-29T14:05:50Z</time>
      </trkpt>
      <trkpt lat="46.45047" lon="5.26517">
        <ele>225.8</ele>
        <time>2022-01-29T14:05:58Z</time>
      </trkpt>
      <trkpt lat="46.45054" lon="5.26517">
        <ele>226</ele>
        <time>2022-01-29T14:05:59Z</time>
      </trkpt>
      <trkpt lat="46.451" lon="5.26523">
        <ele>227</ele>
        <time>2022-01-29T14:06:06Z</time>
      </trkpt>
      <trkpt lat="46.45154" lon="5.26543">
        <ele>227.2</ele>
        <time>2022-01-29T14:06:14Z</time>
      </trkpt>
      <trkpt lat="46.45208" lon="5.26561">
        <ele>227.2</ele>
        <time>2022-01-29T14:06:22Z</time>
      </trkpt>
      <trkpt lat="46.45215" lon="5.26561">
        <ele>227</ele>
        <time>2022-01-29T14:06:23Z</time>
      </trkpt>
      <trkpt lat="46.45264" lon="5.26556">
        <ele>227</ele>
        <time>2022-01-29T14:06:30Z</time>
      </trkpt>
      <trkpt lat="46.4532" lon="5.26549">
        <ele>227</ele>
        <time>2022-01-29T14:06:38Z</time>
      </trkpt>
      <trkpt lat="46.45362" lon="5.2656">
        <ele>227</ele>
        <time>2022-01-29T14:06:44Z</time>
      </trkpt>
      <trkpt lat="46.4541" lon="5.2658">
        <ele>227.2</ele>
        <time>2022-01-29T14:06:51Z</time>
      </trkpt>
      <trkpt lat="46.45468" lon="5.26612">
        <ele>226.6</ele>
        <time>2022-01-29T14:06:59Z</time>
      </trkpt>
      <trkpt lat="46.45506" lon="5.26629">
        <ele>225.8</ele>
        <time>2022-01-29T14:07:04Z</time>
      </trkpt>
      <trkpt lat="46.45514" lon="5.26633">
        <ele>225.4</ele>
        <time>2022-01-29T14:07:05Z</time>
      </trkpt>
      <trkpt lat="46.45554" lon="5.26647">
        <ele>224.6</ele>
        <time>2022-01-29T14:07:10Z</time>
      </trkpt>
      <trkpt lat="46.45562" lon="5.26649">
        <ele>224.6</ele>
        <time>2022-01-29T14:07:11Z</time>
      </trkpt>
      <trkpt lat="46.45578" lon="5.26648">
        <ele>224</ele>
        <time>2022-01-29T14:07:13Z</time>
      </trkpt>
      <trkpt lat="46.45594" lon="5.26645">
        <ele>223.4</ele>
        <time>2022-01-29T14:07:15Z</time>
      </trkpt>
      <trkpt lat="46.45642" lon="5.26629">
        <ele>222.6</ele>
        <time>2022-01-29T14:07:21Z</time>
      </trkpt>
      <trkpt lat="46.45648" lon="5.26623">
        <ele>222.6</ele>
        <time>2022-01-29T14:07:22Z</time>
      </trkpt>
      <trkpt lat="46.45654" lon="5.26617">
        <ele>222.6</ele>
        <time>2022-01-29T14:07:23Z</time>
      </trkpt>
      <trkpt lat="46.45667" lon="5.26595">
        <ele>222.6</ele>
        <time>2022-01-29T14:07:26Z</time>
      </trkpt>
      <trkpt lat="46.45685" lon="5.26549">
        <ele>223.2</ele>
        <time>2022-01-29T14:07:32Z</time>
      </trkpt>
      <trkpt lat="46.45691" lon="5.26524">
        <ele>224</ele>
        <time>2022-01-29T14:07:35Z</time>
      </trkpt>
      <trkpt lat="46.45694" lon="5.26509">
        <ele>224.6</ele>
        <time>2022-01-29T14:07:37Z</time>
      </trkpt>
      <trkpt lat="46.45695" lon="5.26501">
        <ele>224.8</ele>
        <time>2022-01-29T14:07:38Z</time>
      </trkpt>
      <trkpt lat="46.45699" lon="5.2647">
        <ele>225.6</ele>
        <time>2022-01-29T14:07:42Z</time>
      </trkpt>
      <trkpt lat="46.45703" lon="5.26435">
        <ele>226.6</ele>
        <time>2022-01-29T14:07:46Z</time>
      </trkpt>
      <trkpt lat="46.45705" lon="5.26417">
        <ele>226.8</ele>
        <time>2022-01-29T14:07:48Z</time>
      </trkpt>
      <trkpt lat="46.45714" lon="5.26365">
        <ele>227.2</ele>
        <time>2022-01-29T14:07:54Z</time>
      </trkpt>
      <trkpt lat="46.45732" lon="5.2629">
        <ele>227.8</ele>
        <time>2022-01-29T14:08:03Z</time>
      </trkpt>
      <trkpt lat="46.45734" lon="5.26282">
        <ele>227.8</ele>
        <time>2022-01-29T14:08:04Z</time>
      </trkpt>
      <trkpt lat="46.45753" lon="5.26207">
        <ele>228.4</ele>
        <time>2022-01-29T14:08:13Z</time>
      </trkpt>
      <trkpt lat="46.45758" lon="5.26191">
        <ele>228.4</ele>
        <time>2022-01-29T14:08:15Z</time>
      </trkpt>
      <trkpt lat="46.45765" lon="5.26177">
        <ele>228.6</ele>
        <time>2022-01-29T14:08:17Z</time>
      </trkpt>
      <trkpt lat="46.4577" lon="5.26172">
        <ele>228.6</ele>
        <time>2022-01-29T14:08:18Z</time>
      </trkpt>
      <trkpt lat="46.45775" lon="5.26167">
        <ele>228.8</ele>
        <time>2022-01-29T14:08:19Z</time>
      </trkpt>
      <trkpt lat="46.45781" lon="5.26164">
        <ele>228.8</ele>
        <time>2022-01-29T14:08:20Z</time>
      </trkpt>
      <trkpt lat="46.45787" lon="5.26162">
        <ele>228.8</ele>
        <time>2022-01-29T14:08:21Z</time>
      </trkpt>
      <trkpt lat="46.45794" lon="5.26162">
        <ele>229</ele>
        <time>2022-01-29T14:08:22Z</time>
      </trkpt>
      <trkpt lat="46.45838" lon="5.26163">
        <ele>229.2</ele>
        <time>2022-01-29T14:08:29Z</time>
      </trkpt>
      <trkpt lat="46.45895" lon="5.26165">
        <ele>229.4</ele>
        <time>2022-01-29T14:08:38Z</time>
      </trkpt>
      <trkpt lat="46.45915" lon="5.26165">
        <ele>229.4</ele>
        <time>2022-01-29T14:08:41Z</time>
      </trkpt>
      <trkpt lat="46.45976" lon="5.26167">
        <ele>229</ele>
        <time>2022-01-29T14:08:50Z</time>
      </trkpt>
      <trkpt lat="46.46035" lon="5.2617">
        <ele>228.2</ele>
        <time>2022-01-29T14:08:59Z</time>
      </trkpt>
      <trkpt lat="46.46041" lon="5.26172">
        <ele>228</ele>
        <time>2022-01-29T14:09:00Z</time>
      </trkpt>
      <trkpt lat="46.46047" lon="5.26174">
        <ele>228</ele>
        <time>2022-01-29T14:09:01Z</time>
      </trkpt>
      <trkpt lat="46.46055" lon="5.26177">
        <ele>227.8</ele>
        <time>2022-01-29T14:09:02Z</time>
      </trkpt>
      <trkpt lat="46.46078" lon="5.2619">
        <ele>227.4</ele>
        <time>2022-01-29T14:09:06Z</time>
      </trkpt>
      <trkpt lat="46.46103" lon="5.26204">
        <ele>226.8</ele>
        <time>2022-01-29T14:09:10Z</time>
      </trkpt>
      <trkpt lat="46.46147" lon="5.26229">
        <ele>225.8</ele>
        <time>2022-01-29T14:09:17Z</time>
      </trkpt>
      <trkpt lat="46.46176" lon="5.26245">
        <ele>225.2</ele>
        <time>2022-01-29T14:09:22Z</time>
      </trkpt>
      <trkpt lat="46.46184" lon="5.26252">
        <ele>225</ele>
        <time>2022-01-29T14:09:24Z</time>
      </trkpt>
      <trkpt lat="46.46186" lon="5.26262">
        <ele>224.8</ele>
        <time>2022-01-29T14:09:26Z</time>
      </trkpt>
      <trkpt lat="46.46186" lon="5.2627">
        <ele>224.6</ele>
        <time>2022-01-29T14:09:27Z</time>
      </trkpt>
      <trkpt lat="46.46182" lon="5.26311">
        <ele>224</ele>
        <time>2022-01-29T14:09:31Z</time>
      </trkpt>
      <trkpt lat="46.46179" lon="5.26347">
        <ele>223.2</ele>
        <time>2022-01-29T14:09:34Z</time>
      </trkpt>
      <trkpt lat="46.46175" lon="5.26386">
        <ele>222.4</ele>
        <time>2022-01-29T14:09:37Z</time>
      </trkpt>
      <trkpt lat="46.46174" lon="5.26399">
        <ele>221.6</ele>
        <time>2022-01-29T14:09:38Z</time>
      </trkpt>
      <trkpt lat="46.4617" lon="5.26441">
        <ele>220.2</ele>
        <time>2022-01-29T14:09:41Z</time>
      </trkpt>
      <trkpt lat="46.46167" lon="5.2647">
        <ele>219</ele>
        <time>2022-01-29T14:09:43Z</time>
      </trkpt>
      <trkpt lat="46.46165" lon="5.26484">
        <ele>218.6</ele>
        <time>2022-01-29T14:09:44Z</time>
      </trkpt>
      <trkpt lat="46.46164" lon="5.26499">
        <ele>218</ele>
        <time>2022-01-29T14:09:45Z</time>
      </trkpt>
      <trkpt lat="46.46161" lon="5.26529">
        <ele>217</ele>
        <time>2022-01-29T14:09:47Z</time>
      </trkpt>
      <trkpt lat="46.46157" lon="5.26574">
        <ele>215.4</ele>
        <time>2022-01-29T14:09:50Z</time>
      </trkpt>
      <trkpt lat="46.46153" lon="5.2662">
        <ele>214.4</ele>
        <time>2022-01-29T14:09:53Z</time>
      </trkpt>
      <trkpt lat="46.46151" lon="5.26652">
        <ele>213</ele>
        <time>2022-01-29T14:09:55Z</time>
      </trkpt>
      <trkpt lat="46.46149" lon="5.26684">
        <ele>211</ele>
        <time>2022-01-29T14:09:57Z</time>
      </trkpt>
      <trkpt lat="46.46148" lon="5.26701">
        <ele>210.6</ele>
        <time>2022-01-29T14:09:58Z</time>
      </trkpt>
      <trkpt lat="46.46148" lon="5.26717">
        <ele>209.6</ele>
        <time>2022-01-29T14:09:59Z</time>
      </trkpt>
      <trkpt lat="46.46147" lon="5.26749">
        <ele>208.4</ele>
        <time>2022-01-29T14:10:01Z</time>
      </trkpt>
      <trkpt lat="46.46146" lon="5.2678">
        <ele>206.8</ele>
        <time>2022-01-29T14:10:03Z</time>
      </trkpt>
      <trkpt lat="46.46145" lon="5.26811">
        <ele>205.6</ele>
        <time>2022-01-29T14:10:05Z</time>
      </trkpt>
      <trkpt lat="46.46144" lon="5.26841">
        <ele>204.8</ele>
        <time>2022-01-29T14:10:07Z</time>
      </trkpt>
      <trkpt lat="46.46144" lon="5.26856">
        <ele>204.4</ele>
        <time>2022-01-29T14:10:08Z</time>
      </trkpt>
      <trkpt lat="46.46142" lon="5.26927">
        <ele>203</ele>
        <time>2022-01-29T14:10:13Z</time>
      </trkpt>
      <trkpt lat="46.46141" lon="5.26954">
        <ele>202.8</ele>
        <time>2022-01-29T14:10:15Z</time>
      </trkpt>
      <trkpt lat="46.46139" lon="5.27038">
        <ele>202.6</ele>
        <time>2022-01-29T14:10:22Z</time>
      </trkpt>
      <trkpt lat="46.46137" lon="5.27119">
        <ele>202.4</ele>
        <time>2022-01-29T14:10:29Z</time>
      </trkpt>
      <trkpt lat="46.46136" lon="5.27131">
        <ele>202.4</ele>
        <time>2022-01-29T14:10:30Z</time>
      </trkpt>
      <trkpt lat="46.46135" lon="5.27168">
        <ele>202.4</ele>
        <time>2022-01-29T14:10:33Z</time>
      </trkpt>
      <trkpt lat="46.46135" lon="5.2718">
        <ele>202.2</ele>
        <time>2022-01-29T14:10:34Z</time>
      </trkpt>
      <trkpt lat="46.46134" lon="5.27229">
        <ele>201.6</ele>
        <time>2022-01-29T14:10:38Z</time>
      </trkpt>
      <trkpt lat="46.46134" lon="5.27252">
        <ele>201.2</ele>
        <time>2022-01-29T14:10:40Z</time>
      </trkpt>
      <trkpt lat="46.46131" lon="5.27332">
        <ele>200.8</ele>
        <time>2022-01-29T14:10:47Z</time>
      </trkpt>
      <trkpt lat="46.46131" lon="5.27343">
        <ele>200.8</ele>
        <time>2022-01-29T14:10:48Z</time>
      </trkpt>
      <trkpt lat="46.46129" lon="5.27429">
        <ele>200.8</ele>
        <time>2022-01-29T14:10:56Z</time>
      </trkpt>
      <trkpt lat="46.46128" lon="5.27472">
        <ele>200.6</ele>
        <time>2022-01-29T14:11:00Z</time>
      </trkpt>
      <trkpt lat="46.46126" lon="5.27558">
        <ele>200.4</ele>
        <time>2022-01-29T14:11:08Z</time>
      </trkpt>
      <trkpt lat="46.46124" lon="5.276">
        <ele>200.4</ele>
        <time>2022-01-29T14:11:12Z</time>
      </trkpt>
      <trkpt lat="46.46122" lon="5.27685">
        <ele>200.6</ele>
        <time>2022-01-29T14:11:20Z</time>
      </trkpt>
      <trkpt lat="46.46122" lon="5.27705">
        <ele>200.6</ele>
        <time>2022-01-29T14:11:22Z</time>
      </trkpt>
      <trkpt lat="46.4612" lon="5.27762">
        <ele>201.4</ele>
        <time>2022-01-29T14:11:28Z</time>
      </trkpt>
      <trkpt lat="46.46119" lon="5.2779">
        <ele>202.2</ele>
        <time>2022-01-29T14:11:31Z</time>
      </trkpt>
      <trkpt lat="46.4612" lon="5.27831">
        <ele>203.4</ele>
        <time>2022-01-29T14:11:36Z</time>
      </trkpt>
      <trkpt lat="46.46122" lon="5.27887">
        <ele>204.6</ele>
        <time>2022-01-29T14:11:43Z</time>
      </trkpt>
      <trkpt lat="46.46122" lon="5.279">
        <ele>205.2</ele>
        <time>2022-01-29T14:11:45Z</time>
      </trkpt>
      <trkpt lat="46.46123" lon="5.27915">
        <ele>205.8</ele>
        <time>2022-01-29T14:11:47Z</time>
      </trkpt>
      <trkpt lat="46.46124" lon="5.27928">
        <ele>206.4</ele>
        <time>2022-01-29T14:11:49Z</time>
      </trkpt>
      <trkpt lat="46.46126" lon="5.27941">
        <ele>207.4</ele>
        <time>2022-01-29T14:11:51Z</time>
      </trkpt>
      <trkpt lat="46.46131" lon="5.27958">
        <ele>208.4</ele>
        <time>2022-01-29T14:11:54Z</time>
      </trkpt>
      <trkpt lat="46.46134" lon="5.27962">
        <ele>208.6</ele>
        <time>2022-01-29T14:11:55Z</time>
      </trkpt>
      <trkpt lat="46.46137" lon="5.27967">
        <ele>209.2</ele>
        <time>2022-01-29T14:11:56Z</time>
      </trkpt>
      <trkpt lat="46.46144" lon="5.27974">
        <ele>209.6</ele>
        <time>2022-01-29T14:11:58Z</time>
      </trkpt>
      <trkpt lat="46.46155" lon="5.27983">
        <ele>211.4</ele>
        <time>2022-01-29T14:12:01Z</time>
      </trkpt>
      <trkpt lat="46.46158" lon="5.27986">
        <ele>211.6</ele>
        <time>2022-01-29T14:12:02Z</time>
      </trkpt>
      <trkpt lat="46.46163" lon="5.27991">
        <ele>212.4</ele>
        <time>2022-01-29T14:12:04Z</time>
      </trkpt>
      <trkpt lat="46.46175" lon="5.27998">
        <ele>213.6</ele>
        <time>2022-01-29T14:12:07Z</time>
      </trkpt>
      <trkpt lat="46.46179" lon="5.28">
        <ele>214</ele>
        <time>2022-01-29T14:12:08Z</time>
      </trkpt>
      <trkpt lat="46.46189" lon="5.28007">
        <ele>214.6</ele>
        <time>2022-01-29T14:12:11Z</time>
      </trkpt>
      <trkpt lat="46.46192" lon="5.2801">
        <ele>215.4</ele>
        <time>2022-01-29T14:12:12Z</time>
      </trkpt>
      <trkpt lat="46.46194" lon="5.28016">
        <ele>215.6</ele>
        <time>2022-01-29T14:12:13Z</time>
      </trkpt>
      <trkpt lat="46.46195" lon="5.28022">
        <ele>216</ele>
        <time>2022-01-29T14:12:14Z</time>
      </trkpt>
      <trkpt lat="46.46193" lon="5.28036">
        <ele>216.6</ele>
        <time>2022-01-29T14:12:16Z</time>
      </trkpt>
      <trkpt lat="46.46193" lon="5.28044">
        <ele>216.8</ele>
        <time>2022-01-29T14:12:17Z</time>
      </trkpt>
      <trkpt lat="46.46191" lon="5.28095">
        <ele>216.8</ele>
        <time>2022-01-29T14:12:23Z</time>
      </trkpt>
      <trkpt lat="46.46192" lon="5.28103">
        <ele>216.6</ele>
        <time>2022-01-29T14:12:24Z</time>
      </trkpt>
      <trkpt lat="46.46195" lon="5.28109">
        <ele>216.6</ele>
        <time>2022-01-29T14:12:25Z</time>
      </trkpt>
      <trkpt lat="46.46199" lon="5.28112">
        <ele>216.6</ele>
        <time>2022-01-29T14:12:26Z</time>
      </trkpt>
      <trkpt lat="46.46204" lon="5.28113">
        <ele>216.6</ele>
        <time>2022-01-29T14:12:27Z</time>
      </trkpt>
      <trkpt lat="46.46209" lon="5.28112">
        <ele>216.6</ele>
        <time>2022-01-29T14:12:28Z</time>
      </trkpt>
      <trkpt lat="46.46233" lon="5.28105">
        <ele>217</ele>
        <time>2022-01-29T14:12:33Z</time>
      </trkpt>
      <trkpt lat="46.46237" lon="5.28105">
        <ele>217.4</ele>
        <time>2022-01-29T14:12:34Z</time>
      </trkpt>
      <trkpt lat="46.46252" lon="5.28108">
        <ele>218</ele>
        <time>2022-01-29T14:12:38Z</time>
      </trkpt>
      <trkpt lat="46.46256" lon="5.28109">
        <ele>218.6</ele>
        <time>2022-01-29T14:12:39Z</time>
      </trkpt>
      <trkpt lat="46.46273" lon="5.28116">
        <ele>219.6</ele>
        <time>2022-01-29T14:12:44Z</time>
      </trkpt>
      <trkpt lat="46.46277" lon="5.28118">
        <ele>219.8</ele>
        <time>2022-01-29T14:12:45Z</time>
      </trkpt>
      <trkpt lat="46.46286" lon="5.28124">
        <ele>221</ele>
        <time>2022-01-29T14:12:48Z</time>
      </trkpt>
      <trkpt lat="46.46299" lon="5.28132">
        <ele>222</ele>
        <time>2022-01-29T14:12:52Z</time>
      </trkpt>
      <trkpt lat="46.46302" lon="5.28135">
        <ele>222.2</ele>
        <time>2022-01-29T14:12:53Z</time>
      </trkpt>
      <trkpt lat="46.46311" lon="5.28142">
        <ele>223.2</ele>
        <time>2022-01-29T14:12:56Z</time>
      </trkpt>
      <trkpt lat="46.46325" lon="5.28156">
        <ele>224.2</ele>
        <time>2022-01-29T14:13:01Z</time>
      </trkpt>
      <trkpt lat="46.46336" lon="5.28167">
        <ele>225.4</ele>
        <time>2022-01-29T14:13:05Z</time>
      </trkpt>
      <trkpt lat="46.46344" lon="5.28174">
        <ele>226.4</ele>
        <time>2022-01-29T14:13:08Z</time>
      </trkpt>
      <trkpt lat="46.46347" lon="5.28176">
        <ele>226.6</ele>
        <time>2022-01-29T14:13:09Z</time>
      </trkpt>
      <trkpt lat="46.46361" lon="5.28184">
        <ele>227.4</ele>
        <time>2022-01-29T14:13:13Z</time>
      </trkpt>
      <trkpt lat="46.46375" lon="5.28191">
        <ele>228.4</ele>
        <time>2022-01-29T14:13:17Z</time>
      </trkpt>
      <trkpt lat="46.46378" lon="5.28193">
        <ele>228.4</ele>
        <time>2022-01-29T14:13:18Z</time>
      </trkpt>
      <trkpt lat="46.46407" lon="5.28205">
        <ele>229.4</ele>
        <time>2022-01-29T14:13:25Z</time>
      </trkpt>
      <trkpt lat="46.46412" lon="5.28207">
        <ele>229.6</ele>
        <time>2022-01-29T14:13:26Z</time>
      </trkpt>
      <trkpt lat="46.4644" lon="5.28217">
        <ele>230.2</ele>
        <time>2022-01-29T14:13:31Z</time>
      </trkpt>
      <trkpt lat="46.46485" lon="5.28235">
        <ele>230.6</ele>
        <time>2022-01-29T14:13:39Z</time>
      </trkpt>
      <trkpt lat="46.4653" lon="5.28243">
        <ele>230.6</ele>
        <time>2022-01-29T14:13:46Z</time>
      </trkpt>
      <trkpt lat="46.46584" lon="5.28245">
        <ele>230.6</ele>
        <time>2022-01-29T14:13:54Z</time>
      </trkpt>
      <trkpt lat="46.4659" lon="5.28245">
        <ele>230.6</ele>
        <time>2022-01-29T14:13:55Z</time>
      </trkpt>
      <trkpt lat="46.46644" lon="5.28251">
        <ele>231</ele>
        <time>2022-01-29T14:14:03Z</time>
      </trkpt>
      <trkpt lat="46.46699" lon="5.28276">
        <ele>230.6</ele>
        <time>2022-01-29T14:14:11Z</time>
      </trkpt>
      <trkpt lat="46.46753" lon="5.2831">
        <ele>230.2</ele>
        <time>2022-01-29T14:14:19Z</time>
      </trkpt>
      <trkpt lat="46.46788" lon="5.28329">
        <ele>230.2</ele>
        <time>2022-01-29T14:14:25Z</time>
      </trkpt>
      <trkpt lat="46.46796" lon="5.28332">
        <ele>230.2</ele>
        <time>2022-01-29T14:14:27Z</time>
      </trkpt>
      <trkpt lat="46.46797" lon="5.28335">
        <ele>230.2</ele>
        <time>2022-01-29T14:14:28Z</time>
      </trkpt>
      <trkpt lat="46.46791" lon="5.28338">
        <ele>230</ele>
        <time>2022-01-29T14:14:31Z</time>
      </trkpt>
      <trkpt lat="46.46774" lon="5.28343">
        <ele>229.8</ele>
        <time>2022-01-29T14:14:35Z</time>
      </trkpt>
      <trkpt lat="46.46745" lon="5.28349">
        <ele>229.8</ele>
        <time>2022-01-29T14:14:40Z</time>
      </trkpt>
      <trkpt lat="46.46735" lon="5.28358">
        <ele>229.8</ele>
        <time>2022-01-29T14:14:42Z</time>
      </trkpt>
      <trkpt lat="46.46732" lon="5.28364">
        <ele>229.8</ele>
        <time>2022-01-29T14:14:43Z</time>
      </trkpt>
      <trkpt lat="46.46728" lon="5.28374">
        <ele>230</ele>
        <time>2022-01-29T14:14:44Z</time>
      </trkpt>
      <trkpt lat="46.46718" lon="5.28408">
        <ele>230.2</ele>
        <time>2022-01-29T14:14:48Z</time>
      </trkpt>
      <trkpt lat="46.46698" lon="5.28488">
        <ele>230.6</ele>
        <time>2022-01-29T14:14:57Z</time>
      </trkpt>
      <trkpt lat="46.46696" lon="5.28497">
        <ele>230.4</ele>
        <time>2022-01-29T14:14:58Z</time>
      </trkpt>
      <trkpt lat="46.46679" lon="5.2857">
        <ele>230</ele>
        <time>2022-01-29T14:15:06Z</time>
      </trkpt>
      <trkpt lat="46.46661" lon="5.28647">
        <ele>230.4</ele>
        <time>2022-01-29T14:15:15Z</time>
      </trkpt>
      <trkpt lat="46.46659" lon="5.28656">
        <ele>230.4</ele>
        <time>2022-01-29T14:15:16Z</time>
      </trkpt>
      <trkpt lat="46.46641" lon="5.28737">
        <ele>230.6</ele>
        <time>2022-01-29T14:15:25Z</time>
      </trkpt>
      <trkpt lat="46.46638" lon="5.28746">
        <ele>230.8</ele>
        <time>2022-01-29T14:15:26Z</time>
      </trkpt>
      <trkpt lat="46.46622" lon="5.28807">
        <ele>231</ele>
        <time>2022-01-29T14:15:33Z</time>
      </trkpt>
      <trkpt lat="46.46618" lon="5.28814">
        <ele>231</ele>
        <time>2022-01-29T14:15:34Z</time>
      </trkpt>
      <trkpt lat="46.46614" lon="5.2882">
        <ele>231</ele>
        <time>2022-01-29T14:15:35Z</time>
      </trkpt>
      <trkpt lat="46.46592" lon="5.28854">
        <ele>231</ele>
        <time>2022-01-29T14:15:40Z</time>
      </trkpt>
      <trkpt lat="46.46564" lon="5.28902">
        <ele>231.8</ele>
        <time>2022-01-29T14:15:47Z</time>
      </trkpt>
      <trkpt lat="46.46548" lon="5.28926">
        <ele>232</ele>
        <time>2022-01-29T14:15:51Z</time>
      </trkpt>
      <trkpt lat="46.4651" lon="5.2899">
        <ele>232.2</ele>
        <time>2022-01-29T14:16:01Z</time>
      </trkpt>
      <trkpt lat="46.46506" lon="5.28996">
        <ele>232.2</ele>
        <time>2022-01-29T14:16:02Z</time>
      </trkpt>
      <trkpt lat="46.46468" lon="5.29055">
        <ele>232</ele>
        <time>2022-01-29T14:16:11Z</time>
      </trkpt>
      <trkpt lat="46.46462" lon="5.29064">
        <ele>231.8</ele>
        <time>2022-01-29T14:16:13Z</time>
      </trkpt>
      <trkpt lat="46.4646" lon="5.29076">
        <ele>231.8</ele>
        <time>2022-01-29T14:16:15Z</time>
      </trkpt>
      <trkpt lat="46.46462" lon="5.29091">
        <ele>231.8</ele>
        <time>2022-01-29T14:16:17Z</time>
      </trkpt>
      <trkpt lat="46.46464" lon="5.29099">
        <ele>231.6</ele>
        <time>2022-01-29T14:16:18Z</time>
      </trkpt>
      <trkpt lat="46.46476" lon="5.29152">
        <ele>231.8</ele>
        <time>2022-01-29T14:16:24Z</time>
      </trkpt>
      <trkpt lat="46.46488" lon="5.29205">
        <ele>232</ele>
        <time>2022-01-29T14:16:30Z</time>
      </trkpt>
      <trkpt lat="46.46503" lon="5.29278">
        <ele>231.6</ele>
        <time>2022-01-29T14:16:38Z</time>
      </trkpt>
      <trkpt lat="46.46515" lon="5.29332">
        <ele>230.6</ele>
        <time>2022-01-29T14:16:44Z</time>
      </trkpt>
      <trkpt lat="46.46518" lon="5.29349">
        <ele>230.2</ele>
        <time>2022-01-29T14:16:46Z</time>
      </trkpt>
      <trkpt lat="46.4653" lon="5.2941">
        <ele>229.8</ele>
        <time>2022-01-29T14:16:53Z</time>
      </trkpt>
      <trkpt lat="46.46539" lon="5.29454">
        <ele>230</ele>
        <time>2022-01-29T14:16:58Z</time>
      </trkpt>
      <trkpt lat="46.46554" lon="5.29515">
        <ele>229.6</ele>
        <time>2022-01-29T14:17:05Z</time>
      </trkpt>
      <trkpt lat="46.46557" lon="5.29524">
        <ele>229.4</ele>
        <time>2022-01-29T14:17:06Z</time>
      </trkpt>
      <trkpt lat="46.46567" lon="5.29557">
        <ele>229</ele>
        <time>2022-01-29T14:17:10Z</time>
      </trkpt>
      <trkpt lat="46.46573" lon="5.2958">
        <ele>229</ele>
        <time>2022-01-29T14:17:13Z</time>
      </trkpt>
      <trkpt lat="46.46585" lon="5.29627">
        <ele>229.8</ele>
        <time>2022-01-29T14:17:19Z</time>
      </trkpt>
      <trkpt lat="46.46596" lon="5.29668">
        <ele>230.6</ele>
        <time>2022-01-29T14:17:24Z</time>
      </trkpt>
      <trkpt lat="46.4661" lon="5.2972">
        <ele>231.2</ele>
        <time>2022-01-29T14:17:30Z</time>
      </trkpt>
      <trkpt lat="46.46614" lon="5.29737">
        <ele>231.8</ele>
        <time>2022-01-29T14:17:32Z</time>
      </trkpt>
      <trkpt lat="46.46627" lon="5.29789">
        <ele>232.4</ele>
        <time>2022-01-29T14:17:38Z</time>
      </trkpt>
      <trkpt lat="46.46638" lon="5.29831">
        <ele>232.8</ele>
        <time>2022-01-29T14:17:43Z</time>
      </trkpt>
      <trkpt lat="46.46641" lon="5.29839">
        <ele>233</ele>
        <time>2022-01-29T14:17:44Z</time>
      </trkpt>
      <trkpt lat="46.46657" lon="5.29893">
        <ele>233.2</ele>
        <time>2022-01-29T14:17:50Z</time>
      </trkpt>
      <trkpt lat="46.46662" lon="5.29912">
        <ele>233.2</ele>
        <time>2022-01-29T14:17:52Z</time>
      </trkpt>
      <trkpt lat="46.46677" lon="5.29971">
        <ele>232.8</ele>
        <time>2022-01-29T14:17:58Z</time>
      </trkpt>
      <trkpt lat="46.46695" lon="5.30035">
        <ele>232</ele>
        <time>2022-01-29T14:18:05Z</time>
      </trkpt>
      <trkpt lat="46.46702" lon="5.30064">
        <ele>231.6</ele>
        <time>2022-01-29T14:18:08Z</time>
      </trkpt>
      <trkpt lat="46.46714" lon="5.30115">
        <ele>230.8</ele>
        <time>2022-01-29T14:18:13Z</time>
      </trkpt>
      <trkpt lat="46.46734" lon="5.30194">
        <ele>231</ele>
        <time>2022-01-29T14:18:21Z</time>
      </trkpt>
      <trkpt lat="46.4674" lon="5.30212">
        <ele>231.4</ele>
        <time>2022-01-29T14:18:23Z</time>
      </trkpt>
      <trkpt lat="46.46758" lon="5.3024">
        <ele>231.8</ele>
        <time>2022-01-29T14:18:27Z</time>
      </trkpt>
      <trkpt lat="46.468" lon="5.3029">
        <ele>232.2</ele>
        <time>2022-01-29T14:18:35Z</time>
      </trkpt>
      <trkpt lat="46.46811" lon="5.30303">
        <ele>232.2</ele>
        <time>2022-01-29T14:18:37Z</time>
      </trkpt>
      <trkpt lat="46.46855" lon="5.30355">
        <ele>232</ele>
        <time>2022-01-29T14:18:45Z</time>
      </trkpt>
      <trkpt lat="46.4686" lon="5.30361">
        <ele>232</ele>
        <time>2022-01-29T14:18:46Z</time>
      </trkpt>
      <trkpt lat="46.46877" lon="5.30377">
        <ele>232</ele>
        <time>2022-01-29T14:18:49Z</time>
      </trkpt>
      <trkpt lat="46.46889" lon="5.30383">
        <ele>232</ele>
        <time>2022-01-29T14:18:51Z</time>
      </trkpt>
      <trkpt lat="46.46943" lon="5.30405">
        <ele>231.8</ele>
        <time>2022-01-29T14:18:59Z</time>
      </trkpt>
      <trkpt lat="46.46969" lon="5.3042">
        <ele>231.6</ele>
        <time>2022-01-29T14:19:03Z</time>
      </trkpt>
      <trkpt lat="46.4698" lon="5.30429">
        <ele>231.6</ele>
        <time>2022-01-29T14:19:05Z</time>
      </trkpt>
      <trkpt lat="46.4703" lon="5.30472">
        <ele>231.8</ele>
        <time>2022-01-29T14:19:14Z</time>
      </trkpt>
      <trkpt lat="46.47074" lon="5.30511">
        <ele>232.4</ele>
        <time>2022-01-29T14:19:22Z</time>
      </trkpt>
      <trkpt lat="46.47114" lon="5.3054">
        <ele>232.8</ele>
        <time>2022-01-29T14:19:29Z</time>
      </trkpt>
      <trkpt lat="46.4712" lon="5.30543">
        <ele>232.8</ele>
        <time>2022-01-29T14:19:30Z</time>
      </trkpt>
      <trkpt lat="46.47165" lon="5.30561">
        <ele>232.8</ele>
        <time>2022-01-29T14:19:37Z</time>
      </trkpt>
      <trkpt lat="46.47201" lon="5.3056">
        <ele>232.8</ele>
        <time>2022-01-29T14:19:42Z</time>
      </trkpt>
      <trkpt lat="46.47223" lon="5.3056">
        <ele>232.4</ele>
        <time>2022-01-29T14:19:45Z</time>
      </trkpt>
      <trkpt lat="46.47237" lon="5.30564">
        <ele>232.4</ele>
        <time>2022-01-29T14:19:47Z</time>
      </trkpt>
      <trkpt lat="46.47268" lon="5.3059">
        <ele>232.2</ele>
        <time>2022-01-29T14:19:52Z</time>
      </trkpt>
      <trkpt lat="46.47298" lon="5.30629">
        <ele>232.2</ele>
        <time>2022-01-29T14:19:58Z</time>
      </trkpt>
      <trkpt lat="46.47308" lon="5.30642">
        <ele>232.4</ele>
        <time>2022-01-29T14:20:00Z</time>
      </trkpt>
      <trkpt lat="46.47315" lon="5.3066">
        <ele>232.4</ele>
        <time>2022-01-29T14:20:02Z</time>
      </trkpt>
      <trkpt lat="46.47317" lon="5.30679">
        <ele>232.4</ele>
        <time>2022-01-29T14:20:04Z</time>
      </trkpt>
      <trkpt lat="46.47318" lon="5.30698">
        <ele>232.2</ele>
        <time>2022-01-29T14:20:06Z</time>
      </trkpt>
      <trkpt lat="46.47322" lon="5.30784">
        <ele>231.8</ele>
        <time>2022-01-29T14:20:14Z</time>
      </trkpt>
      <trkpt lat="46.47323" lon="5.30795">
        <ele>231.6</ele>
        <time>2022-01-29T14:20:15Z</time>
      </trkpt>
      <trkpt lat="46.47331" lon="5.30876">
        <ele>231.2</ele>
        <time>2022-01-29T14:20:23Z</time>
      </trkpt>
      <trkpt lat="46.47333" lon="5.30885">
        <ele>231.2</ele>
        <time>2022-01-29T14:20:24Z</time>
      </trkpt>
      <trkpt lat="46.47341" lon="5.30897">
        <ele>231.2</ele>
        <time>2022-01-29T14:20:26Z</time>
      </trkpt>
      <trkpt lat="46.47354" lon="5.30898">
        <ele>231.4</ele>
        <time>2022-01-29T14:20:28Z</time>
      </trkpt>
      <trkpt lat="46.47361" lon="5.30896">
        <ele>231.4</ele>
        <time>2022-01-29T14:20:29Z</time>
      </trkpt>
      <trkpt lat="46.47416" lon="5.30874">
        <ele>231.6</ele>
        <time>2022-01-29T14:20:37Z</time>
      </trkpt>
      <trkpt lat="46.47467" lon="5.30846">
        <ele>231.6</ele>
        <time>2022-01-29T14:20:45Z</time>
      </trkpt>
      <trkpt lat="46.47486" lon="5.30837">
        <ele>231.6</ele>
        <time>2022-01-29T14:20:48Z</time>
      </trkpt>
      <trkpt lat="46.47539" lon="5.30813">
        <ele>232.2</ele>
        <time>2022-01-29T14:20:57Z</time>
      </trkpt>
      <trkpt lat="46.4759" lon="5.30804">
        <ele>232.4</ele>
        <time>2022-01-29T14:21:05Z</time>
      </trkpt>
      <trkpt lat="46.47642" lon="5.30796">
        <ele>232.6</ele>
        <time>2022-01-29T14:21:13Z</time>
      </trkpt>
      <trkpt lat="46.47668" lon="5.30792">
        <ele>232.6</ele>
        <time>2022-01-29T14:21:17Z</time>
      </trkpt>
      <trkpt lat="46.47715" lon="5.30785">
        <ele>232.4</ele>
        <time>2022-01-29T14:21:24Z</time>
      </trkpt>
      <trkpt lat="46.47772" lon="5.30776">
        <ele>232.2</ele>
        <time>2022-01-29T14:21:32Z</time>
      </trkpt>
      <trkpt lat="46.47779" lon="5.30775">
        <ele>232</ele>
        <time>2022-01-29T14:21:33Z</time>
      </trkpt>
      <trkpt lat="46.47826" lon="5.30774">
        <ele>231.6</ele>
        <time>2022-01-29T14:21:40Z</time>
      </trkpt>
      <trkpt lat="46.47832" lon="5.30776">
        <ele>231.8</ele>
        <time>2022-01-29T14:21:41Z</time>
      </trkpt>
      <trkpt lat="46.47841" lon="5.30782">
        <ele>231.8</ele>
        <time>2022-01-29T14:21:43Z</time>
      </trkpt>
      <trkpt lat="46.47844" lon="5.30787">
        <ele>232</ele>
        <time>2022-01-29T14:21:44Z</time>
      </trkpt>
      <trkpt lat="46.47849" lon="5.30799">
        <ele>233</ele>
        <time>2022-01-29T14:21:48Z</time>
      </trkpt>
      <trkpt lat="46.47854" lon="5.30803">
        <ele>233.8</ele>
        <time>2022-01-29T14:21:50Z</time>
      </trkpt>
      <trkpt lat="46.47858" lon="5.30804">
        <ele>234.2</ele>
        <time>2022-01-29T14:21:51Z</time>
      </trkpt>
      <trkpt lat="46.47864" lon="5.30804">
        <ele>234.4</ele>
        <time>2022-01-29T14:21:52Z</time>
      </trkpt>
      <trkpt lat="46.4789" lon="5.30808">
        <ele>234.4</ele>
        <time>2022-01-29T14:21:56Z</time>
      </trkpt>
      <trkpt lat="46.47933" lon="5.3082">
        <ele>232.8</ele>
        <time>2022-01-29T14:22:01Z</time>
      </trkpt>
      <trkpt lat="46.47943" lon="5.30821">
        <ele>232.6</ele>
        <time>2022-01-29T14:22:02Z</time>
      </trkpt>
      <trkpt lat="46.47962" lon="5.30819">
        <ele>231.6</ele>
        <time>2022-01-29T14:22:04Z</time>
      </trkpt>
      <trkpt lat="46.47971" lon="5.30816">
        <ele>231</ele>
        <time>2022-01-29T14:22:05Z</time>
      </trkpt>
      <trkpt lat="46.47989" lon="5.30809">
        <ele>229.8</ele>
        <time>2022-01-29T14:22:07Z</time>
      </trkpt>
      <trkpt lat="46.48013" lon="5.30796">
        <ele>229.2</ele>
        <time>2022-01-29T14:22:10Z</time>
      </trkpt>
      <trkpt lat="46.48064" lon="5.30769">
        <ele>229</ele>
        <time>2022-01-29T14:22:17Z</time>
      </trkpt>
      <trkpt lat="46.48109" lon="5.30742">
        <ele>230.2</ele>
        <time>2022-01-29T14:22:24Z</time>
      </trkpt>
      <trkpt lat="46.48164" lon="5.30711">
        <ele>230.2</ele>
        <time>2022-01-29T14:22:32Z</time>
      </trkpt>
      <trkpt lat="46.48171" lon="5.30707">
        <ele>230.2</ele>
        <time>2022-01-29T14:22:33Z</time>
      </trkpt>
      <trkpt lat="46.48217" lon="5.30688">
        <ele>229.4</ele>
        <time>2022-01-29T14:22:39Z</time>
      </trkpt>
      <trkpt lat="46.48225" lon="5.30687">
        <ele>229.2</ele>
        <time>2022-01-29T14:22:40Z</time>
      </trkpt>
      <trkpt lat="46.48242" lon="5.30689">
        <ele>229</ele>
        <time>2022-01-29T14:22:42Z</time>
      </trkpt>
      <trkpt lat="46.48268" lon="5.30696">
        <ele>227.8</ele>
        <time>2022-01-29T14:22:45Z</time>
      </trkpt>
      <trkpt lat="46.48309" lon="5.307">
        <ele>226.8</ele>
        <time>2022-01-29T14:22:50Z</time>
      </trkpt>
      <trkpt lat="46.48325" lon="5.30696">
        <ele>226.4</ele>
        <time>2022-01-29T14:22:52Z</time>
      </trkpt>
      <trkpt lat="46.48339" lon="5.30687">
        <ele>226.4</ele>
        <time>2022-01-29T14:22:54Z</time>
      </trkpt>
      <trkpt lat="46.48377" lon="5.30653">
        <ele>226.2</ele>
        <time>2022-01-29T14:23:00Z</time>
      </trkpt>
      <trkpt lat="46.48422" lon="5.30609">
        <ele>226.6</ele>
        <time>2022-01-29T14:23:08Z</time>
      </trkpt>
      <trkpt lat="46.48464" lon="5.30568">
        <ele>227</ele>
        <time>2022-01-29T14:23:16Z</time>
      </trkpt>
      <trkpt lat="46.48505" lon="5.30529">
        <ele>227.8</ele>
        <time>2022-01-29T14:23:24Z</time>
      </trkpt>
      <trkpt lat="46.4851" lon="5.30524">
        <ele>227.8</ele>
        <time>2022-01-29T14:23:25Z</time>
      </trkpt>
      <trkpt lat="46.48549" lon="5.30497">
        <ele>227.8</ele>
        <time>2022-01-29T14:23:32Z</time>
      </trkpt>
      <trkpt lat="46.48575" lon="5.3049">
        <ele>228</ele>
        <time>2022-01-29T14:23:36Z</time>
      </trkpt>
      <trkpt lat="46.48582" lon="5.3049">
        <ele>228</ele>
        <time>2022-01-29T14:23:37Z</time>
      </trkpt>
      <trkpt lat="46.48639" lon="5.30501">
        <ele>227.4</ele>
        <time>2022-01-29T14:23:45Z</time>
      </trkpt>
      <trkpt lat="46.4869" lon="5.30499">
        <ele>227.2</ele>
        <time>2022-01-29T14:23:52Z</time>
      </trkpt>
      <trkpt lat="46.48711" lon="5.305">
        <ele>227.2</ele>
        <time>2022-01-29T14:23:55Z</time>
      </trkpt>
      <trkpt lat="46.48725" lon="5.30504">
        <ele>227.2</ele>
        <time>2022-01-29T14:23:57Z</time>
      </trkpt>
      <trkpt lat="46.48778" lon="5.30528">
        <ele>227.2</ele>
        <time>2022-01-29T14:24:05Z</time>
      </trkpt>
      <trkpt lat="46.48825" lon="5.30541">
        <ele>227.4</ele>
        <time>2022-01-29T14:24:12Z</time>
      </trkpt>
      <trkpt lat="46.48873" lon="5.30541">
        <ele>227.4</ele>
        <time>2022-01-29T14:24:19Z</time>
      </trkpt>
      <trkpt lat="46.48916" lon="5.30526">
        <ele>227.6</ele>
        <time>2022-01-29T14:24:25Z</time>
      </trkpt>
      <trkpt lat="46.48973" lon="5.30503">
        <ele>227.2</ele>
        <time>2022-01-29T14:24:33Z</time>
      </trkpt>
      <trkpt lat="46.48987" lon="5.30497">
        <ele>227</ele>
        <time>2022-01-29T14:24:35Z</time>
      </trkpt>
      <trkpt lat="46.49044" lon="5.30474">
        <ele>226.8</ele>
        <time>2022-01-29T14:24:43Z</time>
      </trkpt>
      <trkpt lat="46.49051" lon="5.30471">
        <ele>226.8</ele>
        <time>2022-01-29T14:24:44Z</time>
      </trkpt>
      <trkpt lat="46.49107" lon="5.30448">
        <ele>226.4</ele>
        <time>2022-01-29T14:24:52Z</time>
      </trkpt>
      <trkpt lat="46.49122" lon="5.30442">
        <ele>226.4</ele>
        <time>2022-01-29T14:24:54Z</time>
      </trkpt>
      <trkpt lat="46.49179" lon="5.30419">
        <ele>226</ele>
        <time>2022-01-29T14:25:02Z</time>
      </trkpt>
      <trkpt lat="46.49214" lon="5.30405">
        <ele>225.8</ele>
        <time>2022-01-29T14:25:07Z</time>
      </trkpt>
      <trkpt lat="46.49258" lon="5.30386">
        <ele>225.6</ele>
        <time>2022-01-29T14:25:13Z</time>
      </trkpt>
      <trkpt lat="46.49295" lon="5.30372">
        <ele>225.4</ele>
        <time>2022-01-29T14:25:18Z</time>
      </trkpt>
      <trkpt lat="46.49339" lon="5.30354">
        <ele>224.8</ele>
        <time>2022-01-29T14:25:24Z</time>
      </trkpt>
      <trkpt lat="46.49368" lon="5.30342">
        <ele>224.6</ele>
        <time>2022-01-29T14:25:28Z</time>
      </trkpt>
      <trkpt lat="46.49413" lon="5.30324">
        <ele>224.6</ele>
        <time>2022-01-29T14:25:34Z</time>
      </trkpt>
      <trkpt lat="46.49456" lon="5.30302">
        <ele>224.4</ele>
        <time>2022-01-29T14:25:40Z</time>
      </trkpt>
      <trkpt lat="46.49462" lon="5.30296">
        <ele>224.4</ele>
        <time>2022-01-29T14:25:41Z</time>
      </trkpt>
      <trkpt lat="46.49486" lon="5.30265">
        <ele>224.4</ele>
        <time>2022-01-29T14:25:45Z</time>
      </trkpt>
      <trkpt lat="46.49491" lon="5.30255">
        <ele>224.2</ele>
        <time>2022-01-29T14:25:46Z</time>
      </trkpt>
      <trkpt lat="46.49501" lon="5.30234">
        <ele>223.8</ele>
        <time>2022-01-29T14:25:48Z</time>
      </trkpt>
      <trkpt lat="46.49516" lon="5.30202">
        <ele>222.8</ele>
        <time>2022-01-29T14:25:51Z</time>
      </trkpt>
      <trkpt lat="46.49536" lon="5.30177">
        <ele>221.8</ele>
        <time>2022-01-29T14:25:54Z</time>
      </trkpt>
      <trkpt lat="46.49543" lon="5.30171">
        <ele>221.4</ele>
        <time>2022-01-29T14:25:55Z</time>
      </trkpt>
      <trkpt lat="46.49579" lon="5.30146">
        <ele>221</ele>
        <time>2022-01-29T14:26:00Z</time>
      </trkpt>
      <trkpt lat="46.49607" lon="5.3012">
        <ele>221</ele>
        <time>2022-01-29T14:26:05Z</time>
      </trkpt>
      <trkpt lat="46.49639" lon="5.30081">
        <ele>221</ele>
        <time>2022-01-29T14:26:11Z</time>
      </trkpt>
      <trkpt lat="46.49644" lon="5.30073">
        <ele>221</ele>
        <time>2022-01-29T14:26:12Z</time>
      </trkpt>
      <trkpt lat="46.49648" lon="5.30064">
        <ele>221</ele>
        <time>2022-01-29T14:26:13Z</time>
      </trkpt>
      <trkpt lat="46.49659" lon="5.30032">
        <ele>220.6</ele>
        <time>2022-01-29T14:26:16Z</time>
      </trkpt>
      <trkpt lat="46.49662" lon="5.3002">
        <ele>220.4</ele>
        <time>2022-01-29T14:26:17Z</time>
      </trkpt>
      <trkpt lat="46.49671" lon="5.29983">
        <ele>219.2</ele>
        <time>2022-01-29T14:26:20Z</time>
      </trkpt>
      <trkpt lat="46.49679" lon="5.29948">
        <ele>218.2</ele>
        <time>2022-01-29T14:26:23Z</time>
      </trkpt>
      <trkpt lat="46.49681" lon="5.29936">
        <ele>218</ele>
        <time>2022-01-29T14:26:24Z</time>
      </trkpt>
      <trkpt lat="46.4969" lon="5.29893">
        <ele>217.4</ele>
        <time>2022-01-29T14:26:28Z</time>
      </trkpt>
      <trkpt lat="46.49698" lon="5.29865">
        <ele>217.2</ele>
        <time>2022-01-29T14:26:31Z</time>
      </trkpt>
      <trkpt lat="46.49704" lon="5.29849">
        <ele>217.2</ele>
        <time>2022-01-29T14:26:33Z</time>
      </trkpt>
      <trkpt lat="46.49708" lon="5.29842">
        <ele>217.2</ele>
        <time>2022-01-29T14:26:34Z</time>
      </trkpt>
      <trkpt lat="46.49736" lon="5.29805">
        <ele>218.2</ele>
        <time>2022-01-29T14:26:40Z</time>
      </trkpt>
      <trkpt lat="46.4974" lon="5.298">
        <ele>218.4</ele>
        <time>2022-01-29T14:26:41Z</time>
      </trkpt>
      <trkpt lat="46.49752" lon="5.29793">
        <ele>218.6</ele>
        <time>2022-01-29T14:26:43Z</time>
      </trkpt>
      <trkpt lat="46.49758" lon="5.29792">
        <ele>218.6</ele>
        <time>2022-01-29T14:26:44Z</time>
      </trkpt>
      <trkpt lat="46.49797" lon="5.29796">
        <ele>219.2</ele>
        <time>2022-01-29T14:26:50Z</time>
      </trkpt>
      <trkpt lat="46.4985" lon="5.29815">
        <ele>218.6</ele>
        <time>2022-01-29T14:26:58Z</time>
      </trkpt>
      <trkpt lat="46.49878" lon="5.29826">
        <ele>218.4</ele>
        <time>2022-01-29T14:27:02Z</time>
      </trkpt>
      <trkpt lat="46.49892" lon="5.29833">
        <ele>218.2</ele>
        <time>2022-01-29T14:27:04Z</time>
      </trkpt>
      <trkpt lat="46.49899" lon="5.29836">
        <ele>218.2</ele>
        <time>2022-01-29T14:27:05Z</time>
      </trkpt>
      <trkpt lat="46.49914" lon="5.29842">
        <ele>218</ele>
        <time>2022-01-29T14:27:07Z</time>
      </trkpt>
      <trkpt lat="46.49954" lon="5.29855">
        <ele>217</ele>
        <time>2022-01-29T14:27:12Z</time>
      </trkpt>
      <trkpt lat="46.49962" lon="5.29856">
        <ele>216.8</ele>
        <time>2022-01-29T14:27:13Z</time>
      </trkpt>
      <trkpt lat="46.49995" lon="5.29861">
        <ele>215.8</ele>
        <time>2022-01-29T14:27:17Z</time>
      </trkpt>
      <trkpt lat="46.50003" lon="5.29863">
        <ele>215.8</ele>
        <time>2022-01-29T14:27:18Z</time>
      </trkpt>
      <trkpt lat="46.50017" lon="5.29872">
        <ele>215.4</ele>
        <time>2022-01-29T14:27:20Z</time>
      </trkpt>
      <trkpt lat="46.50023" lon="5.29878">
        <ele>215.4</ele>
        <time>2022-01-29T14:27:21Z</time>
      </trkpt>
      <trkpt lat="46.50052" lon="5.29912">
        <ele>215.2</ele>
        <time>2022-01-29T14:27:26Z</time>
      </trkpt>
      <trkpt lat="46.50056" lon="5.2992">
        <ele>215.2</ele>
        <time>2022-01-29T14:27:27Z</time>
      </trkpt>
      <trkpt lat="46.50074" lon="5.29959">
        <ele>215.4</ele>
        <time>2022-01-29T14:27:32Z</time>
      </trkpt>
      <trkpt lat="46.50085" lon="5.30014">
        <ele>215.8</ele>
        <time>2022-01-29T14:27:38Z</time>
      </trkpt>
      <trkpt lat="46.50087" lon="5.30098">
        <ele>216.4</ele>
        <time>2022-01-29T14:27:47Z</time>
      </trkpt>
      <trkpt lat="46.50087" lon="5.3011">
        <ele>216.4</ele>
        <time>2022-01-29T14:27:48Z</time>
      </trkpt>
      <trkpt lat="46.50087" lon="5.30192">
        <ele>216</ele>
        <time>2022-01-29T14:27:56Z</time>
      </trkpt>
      <trkpt lat="46.50086" lon="5.30202">
        <ele>216</ele>
        <time>2022-01-29T14:27:57Z</time>
      </trkpt>
      <trkpt lat="46.50084" lon="5.3028">
        <ele>215.6</ele>
        <time>2022-01-29T14:28:04Z</time>
      </trkpt>
      <trkpt lat="46.50073" lon="5.30332">
        <ele>215.2</ele>
        <time>2022-01-29T14:28:09Z</time>
      </trkpt>
      <trkpt lat="46.50069" lon="5.30343">
        <ele>214.8</ele>
        <time>2022-01-29T14:28:10Z</time>
      </trkpt>
      <trkpt lat="46.50065" lon="5.30354">
        <ele>214.6</ele>
        <time>2022-01-29T14:28:11Z</time>
      </trkpt>
      <trkpt lat="46.50054" lon="5.30373">
        <ele>214</ele>
        <time>2022-01-29T14:28:13Z</time>
      </trkpt>
      <trkpt lat="46.50041" lon="5.30389">
        <ele>213.6</ele>
        <time>2022-01-29T14:28:15Z</time>
      </trkpt>
      <trkpt lat="46.50028" lon="5.30402">
        <ele>213</ele>
        <time>2022-01-29T14:28:17Z</time>
      </trkpt>
      <trkpt lat="46.49988" lon="5.30433">
        <ele>212.6</ele>
        <time>2022-01-29T14:28:23Z</time>
      </trkpt>
      <trkpt lat="46.49958" lon="5.30465">
        <ele>213.4</ele>
        <time>2022-01-29T14:28:29Z</time>
      </trkpt>
      <trkpt lat="46.49944" lon="5.3049">
        <ele>214</ele>
        <time>2022-01-29T14:28:33Z</time>
      </trkpt>
      <trkpt lat="46.49939" lon="5.30504">
        <ele>214.2</ele>
        <time>2022-01-29T14:28:35Z</time>
      </trkpt>
      <trkpt lat="46.49936" lon="5.30518">
        <ele>214.6</ele>
        <time>2022-01-29T14:28:37Z</time>
      </trkpt>
      <trkpt lat="46.49931" lon="5.30547">
        <ele>215.4</ele>
        <time>2022-01-29T14:28:41Z</time>
      </trkpt>
      <trkpt lat="46.49931" lon="5.30554">
        <ele>215.8</ele>
        <time>2022-01-29T14:28:42Z</time>
      </trkpt>
      <trkpt lat="46.4993" lon="5.30583">
        <ele>216.4</ele>
        <time>2022-01-29T14:28:46Z</time>
      </trkpt>
      <trkpt lat="46.49931" lon="5.3059">
        <ele>217</ele>
        <time>2022-01-29T14:28:47Z</time>
      </trkpt>
      <trkpt lat="46.49931" lon="5.30596">
        <ele>217.2</ele>
        <time>2022-01-29T14:28:48Z</time>
      </trkpt>
      <trkpt lat="46.49937" lon="5.30637">
        <ele>218</ele>
        <time>2022-01-29T14:28:54Z</time>
      </trkpt>
      <trkpt lat="46.49939" lon="5.30644">
        <ele>218.4</ele>
        <time>2022-01-29T14:28:55Z</time>
      </trkpt>
      <trkpt lat="46.4994" lon="5.30651">
        <ele>218.6</ele>
        <time>2022-01-29T14:28:56Z</time>
      </trkpt>
      <trkpt lat="46.49943" lon="5.30673">
        <ele>219.2</ele>
        <time>2022-01-29T14:28:59Z</time>
      </trkpt>
      <trkpt lat="46.49946" lon="5.30686">
        <ele>219.6</ele>
        <time>2022-01-29T14:29:01Z</time>
      </trkpt>
      <trkpt lat="46.49949" lon="5.30714">
        <ele>220.4</ele>
        <time>2022-01-29T14:29:05Z</time>
      </trkpt>
      <trkpt lat="46.49958" lon="5.30756">
        <ele>221.4</ele>
        <time>2022-01-29T14:29:11Z</time>
      </trkpt>
      <trkpt lat="46.4997" lon="5.30806">
        <ele>221.8</ele>
        <time>2022-01-29T14:29:17Z</time>
      </trkpt>
      <trkpt lat="46.49987" lon="5.3086">
        <ele>221</ele>
        <time>2022-01-29T14:29:23Z</time>
      </trkpt>
      <trkpt lat="46.50002" lon="5.30898">
        <ele>220.4</ele>
        <time>2022-01-29T14:29:27Z</time>
      </trkpt>
      <trkpt lat="46.5001" lon="5.30919">
        <ele>220</ele>
        <time>2022-01-29T14:29:29Z</time>
      </trkpt>
      <trkpt lat="46.50022" lon="5.30953">
        <ele>219</ele>
        <time>2022-01-29T14:29:32Z</time>
      </trkpt>
      <trkpt lat="46.50035" lon="5.3099">
        <ele>218</ele>
        <time>2022-01-29T14:29:35Z</time>
      </trkpt>
      <trkpt lat="46.50039" lon="5.31003">
        <ele>217.6</ele>
        <time>2022-01-29T14:29:36Z</time>
      </trkpt>
      <trkpt lat="46.50048" lon="5.31028">
        <ele>216.2</ele>
        <time>2022-01-29T14:29:38Z</time>
      </trkpt>
      <trkpt lat="46.50062" lon="5.31068">
        <ele>214.4</ele>
        <time>2022-01-29T14:29:41Z</time>
      </trkpt>
      <trkpt lat="46.50076" lon="5.3111">
        <ele>213.2</ele>
        <time>2022-01-29T14:29:44Z</time>
      </trkpt>
      <trkpt lat="46.5009" lon="5.31151">
        <ele>211.6</ele>
        <time>2022-01-29T14:29:47Z</time>
      </trkpt>
      <trkpt lat="46.50098" lon="5.31176">
        <ele>210.6</ele>
        <time>2022-01-29T14:29:49Z</time>
      </trkpt>
      <trkpt lat="46.50118" lon="5.31235">
        <ele>210</ele>
        <time>2022-01-29T14:29:54Z</time>
      </trkpt>
      <trkpt lat="46.5014" lon="5.31299">
        <ele>210.6</ele>
        <time>2022-01-29T14:30:00Z</time>
      </trkpt>
      <trkpt lat="46.50166" lon="5.31376">
        <ele>211.4</ele>
        <time>2022-01-29T14:30:07Z</time>
      </trkpt>
      <trkpt lat="46.50191" lon="5.31445">
        <ele>210.8</ele>
        <time>2022-01-29T14:30:13Z</time>
      </trkpt>
      <trkpt lat="46.50199" lon="5.31469">
        <ele>209.8</ele>
        <time>2022-01-29T14:30:15Z</time>
      </trkpt>
      <trkpt lat="46.50207" lon="5.31494">
        <ele>208.6</ele>
        <time>2022-01-29T14:30:17Z</time>
      </trkpt>
      <trkpt lat="46.50216" lon="5.31519">
        <ele>208.4</ele>
        <time>2022-01-29T14:30:18Z</time>
      </trkpt>
      <trkpt lat="46.50221" lon="5.31531">
        <ele>207.8</ele>
        <time>2022-01-29T14:30:20Z</time>
      </trkpt>
      <trkpt lat="46.50227" lon="5.31542">
        <ele>207.4</ele>
        <time>2022-01-29T14:30:21Z</time>
      </trkpt>
      <trkpt lat="46.50247" lon="5.31573">
        <ele>206.4</ele>
        <time>2022-01-29T14:30:24Z</time>
      </trkpt>
      <trkpt lat="46.50255" lon="5.31582">
        <ele>206.4</ele>
        <time>2022-01-29T14:30:25Z</time>
      </trkpt>
      <trkpt lat="46.50285" lon="5.3161">
        <ele>205.4</ele>
        <time>2022-01-29T14:30:29Z</time>
      </trkpt>
      <trkpt lat="46.50293" lon="5.31616">
        <ele>205</ele>
        <time>2022-01-29T14:30:30Z</time>
      </trkpt>
      <trkpt lat="46.50338" lon="5.3165">
        <ele>204.2</ele>
        <time>2022-01-29T14:30:36Z</time>
      </trkpt>
      <trkpt lat="46.50359" lon="5.31667">
        <ele>204</ele>
        <time>2022-01-29T14:30:39Z</time>
      </trkpt>
      <trkpt lat="46.50372" lon="5.31681">
        <ele>204</ele>
        <time>2022-01-29T14:30:41Z</time>
      </trkpt>
      <trkpt lat="46.50396" lon="5.31723">
        <ele>204.2</ele>
        <time>2022-01-29T14:30:46Z</time>
      </trkpt>
      <trkpt lat="46.50411" lon="5.3176">
        <ele>204.6</ele>
        <time>2022-01-29T14:30:50Z</time>
      </trkpt>
      <trkpt lat="46.50417" lon="5.31779">
        <ele>204.8</ele>
        <time>2022-01-29T14:30:52Z</time>
      </trkpt>
      <trkpt lat="46.50432" lon="5.31848">
        <ele>205</ele>
        <time>2022-01-29T14:30:59Z</time>
      </trkpt>
      <trkpt lat="46.50435" lon="5.31868">
        <ele>205.2</ele>
        <time>2022-01-29T14:31:01Z</time>
      </trkpt>
      <trkpt lat="46.50437" lon="5.31889">
        <ele>205.2</ele>
        <time>2022-01-29T14:31:02Z</time>
      </trkpt>
      <trkpt lat="46.50437" lon="5.3193">
        <ele>205.4</ele>
        <time>2022-01-29T14:31:06Z</time>
      </trkpt>
      <trkpt lat="46.50434" lon="5.32011">
        <ele>205.8</ele>
        <time>2022-01-29T14:31:14Z</time>
      </trkpt>
      <trkpt lat="46.50433" lon="5.3205">
        <ele>206</ele>
        <time>2022-01-29T14:31:18Z</time>
      </trkpt>
      <trkpt lat="46.50433" lon="5.32059">
        <ele>206</ele>
        <time>2022-01-29T14:31:20Z</time>
      </trkpt>
      <trkpt lat="46.50431" lon="5.32142">
        <ele>206.6</ele>
        <time>2022-01-29T14:31:28Z</time>
      </trkpt>
      <trkpt lat="46.50431" lon="5.3216">
        <ele>207.2</ele>
        <time>2022-01-29T14:31:31Z</time>
      </trkpt>
      <trkpt lat="46.50429" lon="5.32232">
        <ele>208</ele>
        <time>2022-01-29T14:31:39Z</time>
      </trkpt>
      <trkpt lat="46.5043" lon="5.32258">
        <ele>208.4</ele>
        <time>2022-01-29T14:31:42Z</time>
      </trkpt>
      <trkpt lat="46.50431" lon="5.32275">
        <ele>208.6</ele>
        <time>2022-01-29T14:31:43Z</time>
      </trkpt>
      <trkpt lat="46.50435" lon="5.323">
        <ele>208.8</ele>
        <time>2022-01-29T14:31:46Z</time>
      </trkpt>
      <trkpt lat="46.5045" lon="5.32373">
        <ele>209.2</ele>
        <time>2022-01-29T14:31:54Z</time>
      </trkpt>
      <trkpt lat="46.50465" lon="5.32458">
        <ele>209</ele>
        <time>2022-01-29T14:32:03Z</time>
      </trkpt>
      <trkpt lat="46.50469" lon="5.32502">
        <ele>209.4</ele>
        <time>2022-01-29T14:32:09Z</time>
      </trkpt>
      <trkpt lat="46.50471" lon="5.32528">
        <ele>209.6</ele>
        <time>2022-01-29T14:32:12Z</time>
      </trkpt>
      <trkpt lat="46.50475" lon="5.32612">
        <ele>210.2</ele>
        <time>2022-01-29T14:32:21Z</time>
      </trkpt>
      <trkpt lat="46.50475" lon="5.32621">
        <ele>210.4</ele>
        <time>2022-01-29T14:32:22Z</time>
      </trkpt>
      <trkpt lat="46.50475" lon="5.32629">
        <ele>210.4</ele>
        <time>2022-01-29T14:32:23Z</time>
      </trkpt>
      <trkpt lat="46.50474" lon="5.32713">
        <ele>211.4</ele>
        <time>2022-01-29T14:32:33Z</time>
      </trkpt>
      <trkpt lat="46.50474" lon="5.32721">
        <ele>211.6</ele>
        <time>2022-01-29T14:32:34Z</time>
      </trkpt>
      <trkpt lat="46.50473" lon="5.32737">
        <ele>211.8</ele>
        <time>2022-01-29T14:32:36Z</time>
      </trkpt>
      <trkpt lat="46.50472" lon="5.32823">
        <ele>212.8</ele>
        <time>2022-01-29T14:32:46Z</time>
      </trkpt>
      <trkpt lat="46.50471" lon="5.32902">
        <ele>213.6</ele>
        <time>2022-01-29T14:32:56Z</time>
      </trkpt>
      <trkpt lat="46.50471" lon="5.32909">
        <ele>213.8</ele>
        <time>2022-01-29T14:32:57Z</time>
      </trkpt>
      <trkpt lat="46.50471" lon="5.32944">
        <ele>214.8</ele>
        <time>2022-01-29T14:33:02Z</time>
      </trkpt>
      <trkpt lat="46.50471" lon="5.32951">
        <ele>215.4</ele>
        <time>2022-01-29T14:33:04Z</time>
      </trkpt>
      <trkpt lat="46.5047" lon="5.32971">
        <ele>216</ele>
        <time>2022-01-29T14:33:06Z</time>
      </trkpt>
      <trkpt lat="46.5047" lon="5.32997">
        <ele>217</ele>
        <time>2022-01-29T14:33:10Z</time>
      </trkpt>
      <trkpt lat="46.5047" lon="5.3301">
        <ele>217.4</ele>
        <time>2022-01-29T14:33:12Z</time>
      </trkpt>
      <trkpt lat="46.50469" lon="5.33022">
        <ele>218.2</ele>
        <time>2022-01-29T14:33:15Z</time>
      </trkpt>
      <trkpt lat="46.50467" lon="5.33057">
        <ele>219.4</ele>
        <time>2022-01-29T14:33:20Z</time>
      </trkpt>
      <trkpt lat="46.50467" lon="5.33068">
        <ele>219.6</ele>
        <time>2022-01-29T14:33:22Z</time>
      </trkpt>
      <trkpt lat="46.50467" lon="5.3309">
        <ele>220.6</ele>
        <time>2022-01-29T14:33:26Z</time>
      </trkpt>
      <trkpt lat="46.50466" lon="5.33105">
        <ele>221.8</ele>
        <time>2022-01-29T14:33:29Z</time>
      </trkpt>
      <trkpt lat="46.50465" lon="5.33128">
        <ele>222.8</ele>
        <time>2022-01-29T14:33:33Z</time>
      </trkpt>
      <trkpt lat="46.50465" lon="5.33144">
        <ele>223.6</ele>
        <time>2022-01-29T14:33:36Z</time>
      </trkpt>
      <trkpt lat="46.50465" lon="5.33156">
        <ele>224</ele>
        <time>2022-01-29T14:33:38Z</time>
      </trkpt>
      <trkpt lat="46.50464" lon="5.33194">
        <ele>225.4</ele>
        <time>2022-01-29T14:33:44Z</time>
      </trkpt>
      <trkpt lat="46.50464" lon="5.33224">
        <ele>226.2</ele>
        <time>2022-01-29T14:33:49Z</time>
      </trkpt>
      <trkpt lat="46.50463" lon="5.33241">
        <ele>226.2</ele>
        <time>2022-01-29T14:33:50Z</time>
      </trkpt>
      <trkpt lat="46.50462" lon="5.33269">
        <ele>226.2</ele>
        <time>2022-01-29T14:33:53Z</time>
      </trkpt>
      <trkpt lat="46.50462" lon="5.33269">
        <ele>226.2</ele>
        <time>2022-01-29T14:33:54Z</time>
      </trkpt>
      <trkpt lat="46.50461" lon="5.33323">
        <ele>226.2</ele>
        <time>2022-01-29T14:33:59Z</time>
      </trkpt>
      <trkpt lat="46.50455" lon="5.33373">
        <ele>226</ele>
        <time>2022-01-29T14:34:04Z</time>
      </trkpt>
      <trkpt lat="46.50453" lon="5.33383">
        <ele>226</ele>
        <time>2022-01-29T14:34:05Z</time>
      </trkpt>
      <trkpt lat="46.5045" lon="5.33401">
        <ele>225.8</ele>
        <time>2022-01-29T14:34:07Z</time>
      </trkpt>
      <trkpt lat="46.50442" lon="5.33424">
        <ele>225.6</ele>
        <time>2022-01-29T14:34:10Z</time>
      </trkpt>
      <trkpt lat="46.50439" lon="5.33431">
        <ele>225.6</ele>
        <time>2022-01-29T14:34:11Z</time>
      </trkpt>
      <trkpt lat="46.50418" lon="5.33458">
        <ele>226</ele>
        <time>2022-01-29T14:34:17Z</time>
      </trkpt>
      <trkpt lat="46.50388" lon="5.33489">
        <ele>226.8</ele>
        <time>2022-01-29T14:34:23Z</time>
      </trkpt>
      <trkpt lat="46.5037" lon="5.33506">
        <ele>227.2</ele>
        <time>2022-01-29T14:34:27Z</time>
      </trkpt>
      <trkpt lat="46.5034" lon="5.33538">
        <ele>228</ele>
        <time>2022-01-29T14:34:34Z</time>
      </trkpt>
      <trkpt lat="46.50316" lon="5.33561">
        <ele>228.2</ele>
        <time>2022-01-29T14:34:39Z</time>
      </trkpt>
      <trkpt lat="46.50302" lon="5.33577">
        <ele>228.2</ele>
        <time>2022-01-29T14:34:42Z</time>
      </trkpt>
      <trkpt lat="46.5027" lon="5.33612">
        <ele>228.8</ele>
        <time>2022-01-29T14:34:49Z</time>
      </trkpt>
      <trkpt lat="46.50247" lon="5.3364">
        <ele>229.2</ele>
        <time>2022-01-29T14:34:54Z</time>
      </trkpt>
      <trkpt lat="46.50233" lon="5.33654">
        <ele>229.4</ele>
        <time>2022-01-29T14:34:57Z</time>
      </trkpt>
      <trkpt lat="46.5021" lon="5.33677">
        <ele>229.6</ele>
        <time>2022-01-29T14:35:02Z</time>
      </trkpt>
      <trkpt lat="46.50196" lon="5.33691">
        <ele>229.8</ele>
        <time>2022-01-29T14:35:05Z</time>
      </trkpt>
      <trkpt lat="46.50173" lon="5.33717">
        <ele>230.2</ele>
        <time>2022-01-29T14:35:10Z</time>
      </trkpt>
      <trkpt lat="46.50162" lon="5.33728">
        <ele>230.4</ele>
        <time>2022-01-29T14:35:12Z</time>
      </trkpt>
      <trkpt lat="46.50117" lon="5.33776">
        <ele>230</ele>
        <time>2022-01-29T14:35:20Z</time>
      </trkpt>
      <trkpt lat="46.50079" lon="5.33817">
        <ele>229.8</ele>
        <time>2022-01-29T14:35:27Z</time>
      </trkpt>
      <trkpt lat="46.5004" lon="5.33857">
        <ele>230.2</ele>
        <time>2022-01-29T14:35:35Z</time>
      </trkpt>
      <trkpt lat="46.50013" lon="5.33888">
        <ele>231</ele>
        <time>2022-01-29T14:35:41Z</time>
      </trkpt>
      <trkpt lat="46.50013" lon="5.33888">
        <ele>231.4</ele>
        <time>2022-01-29T14:35:42Z</time>
      </trkpt>
      <trkpt lat="46.50004" lon="5.33897">
        <ele>231.4</ele>
        <time>2022-01-29T14:35:43Z</time>
      </trkpt>
      <trkpt lat="46.4999" lon="5.33911">
        <ele>231.8</ele>
        <time>2022-01-29T14:35:46Z</time>
      </trkpt>
      <trkpt lat="46.49974" lon="5.33928">
        <ele>232</ele>
        <time>2022-01-29T14:35:49Z</time>
      </trkpt>
      <trkpt lat="46.49964" lon="5.3394">
        <ele>232.4</ele>
        <time>2022-01-29T14:35:51Z</time>
      </trkpt>
      <trkpt lat="46.49948" lon="5.33956">
        <ele>232.6</ele>
        <time>2022-01-29T14:35:54Z</time>
      </trkpt>
      <trkpt lat="46.49909" lon="5.33999">
        <ele>232.6</ele>
        <time>2022-01-29T14:36:01Z</time>
      </trkpt>
      <trkpt lat="46.49871" lon="5.34042">
        <ele>231.2</ele>
        <time>2022-01-29T14:36:07Z</time>
      </trkpt>
      <trkpt lat="46.49859" lon="5.34057">
        <ele>230.8</ele>
        <time>2022-01-29T14:36:09Z</time>
      </trkpt>
      <trkpt lat="46.49837" lon="5.34089">
        <ele>230.2</ele>
        <time>2022-01-29T14:36:13Z</time>
      </trkpt>
      <trkpt lat="46.49822" lon="5.34112">
        <ele>229.8</ele>
        <time>2022-01-29T14:36:16Z</time>
      </trkpt>
      <trkpt lat="46.49785" lon="5.34177">
        <ele>230.2</ele>
        <time>2022-01-29T14:36:24Z</time>
      </trkpt>
      <trkpt lat="46.49745" lon="5.34245">
        <ele>230</ele>
        <time>2022-01-29T14:36:32Z</time>
      </trkpt>
      <trkpt lat="46.49739" lon="5.34254">
        <ele>230</ele>
        <time>2022-01-29T14:36:33Z</time>
      </trkpt>
      <trkpt lat="46.49725" lon="5.34278">
        <ele>229.8</ele>
        <time>2022-01-29T14:36:36Z</time>
      </trkpt>
      <trkpt lat="46.49713" lon="5.34305">
        <ele>229.6</ele>
        <time>2022-01-29T14:36:39Z</time>
      </trkpt>
      <trkpt lat="46.49695" lon="5.34357">
        <ele>229.8</ele>
        <time>2022-01-29T14:36:45Z</time>
      </trkpt>
      <trkpt lat="46.49676" lon="5.34419">
        <ele>229.4</ele>
        <time>2022-01-29T14:36:51Z</time>
      </trkpt>
      <trkpt lat="46.49669" lon="5.34441">
        <ele>229</ele>
        <time>2022-01-29T14:36:53Z</time>
      </trkpt>
      <trkpt lat="46.4966" lon="5.34476">
        <ele>228</ele>
        <time>2022-01-29T14:36:56Z</time>
      </trkpt>
      <trkpt lat="46.49651" lon="5.34509">
        <ele>227.2</ele>
        <time>2022-01-29T14:36:59Z</time>
      </trkpt>
      <trkpt lat="46.49645" lon="5.34532">
        <ele>226.8</ele>
        <time>2022-01-29T14:37:01Z</time>
      </trkpt>
      <trkpt lat="46.4964" lon="5.34557">
        <ele>226.4</ele>
        <time>2022-01-29T14:37:03Z</time>
      </trkpt>
      <trkpt lat="46.49635" lon="5.34592">
        <ele>225.6</ele>
        <time>2022-01-29T14:37:06Z</time>
      </trkpt>
      <trkpt lat="46.49628" lon="5.34645">
        <ele>224.8</ele>
        <time>2022-01-29T14:37:12Z</time>
      </trkpt>
      <trkpt lat="46.49624" lon="5.34694">
        <ele>225.2</ele>
        <time>2022-01-29T14:37:17Z</time>
      </trkpt>
      <trkpt lat="46.49623" lon="5.34714">
        <ele>226.2</ele>
        <time>2022-01-29T14:37:20Z</time>
      </trkpt>
      <trkpt lat="46.49623" lon="5.34728">
        <ele>227</ele>
        <time>2022-01-29T14:37:23Z</time>
      </trkpt>
      <trkpt lat="46.49623" lon="5.34741">
        <ele>227</ele>
        <time>2022-01-29T14:37:24Z</time>
      </trkpt>
      <trkpt lat="46.49624" lon="5.34759">
        <ele>227.4</ele>
        <time>2022-01-29T14:37:27Z</time>
      </trkpt>
      <trkpt lat="46.49624" lon="5.34765">
        <ele>228</ele>
        <time>2022-01-29T14:37:28Z</time>
      </trkpt>
      <trkpt lat="46.49624" lon="5.34765">
        <ele>228</ele>
        <time>2022-01-29T14:37:29Z</time>
      </trkpt>
      <trkpt lat="46.49626" lon="5.34784">
        <ele>228.6</ele>
        <time>2022-01-29T14:37:31Z</time>
      </trkpt>
      <trkpt lat="46.49627" lon="5.34797">
        <ele>229</ele>
        <time>2022-01-29T14:37:33Z</time>
      </trkpt>
      <trkpt lat="46.49628" lon="5.34803">
        <ele>229.4</ele>
        <time>2022-01-29T14:37:34Z</time>
      </trkpt>
      <trkpt lat="46.49628" lon="5.3481">
        <ele>229.6</ele>
        <time>2022-01-29T14:37:35Z</time>
      </trkpt>
      <trkpt lat="46.49633" lon="5.3484">
        <ele>230.4</ele>
        <time>2022-01-29T14:37:39Z</time>
      </trkpt>
      <trkpt lat="46.49639" lon="5.34864">
        <ele>231.2</ele>
        <time>2022-01-29T14:37:42Z</time>
      </trkpt>
      <trkpt lat="46.49643" lon="5.3488">
        <ele>231.6</ele>
        <time>2022-01-29T14:37:44Z</time>
      </trkpt>
      <trkpt lat="46.49653" lon="5.34929">
        <ele>232.4</ele>
        <time>2022-01-29T14:37:50Z</time>
      </trkpt>
      <trkpt lat="46.49664" lon="5.3499">
        <ele>232.4</ele>
        <time>2022-01-29T14:37:58Z</time>
      </trkpt>
      <trkpt lat="46.4968" lon="5.35068">
        <ele>231.6</ele>
        <time>2022-01-29T14:38:05Z</time>
      </trkpt>
      <trkpt lat="46.49692" lon="5.35129">
        <ele>230.2</ele>
        <time>2022-01-29T14:38:11Z</time>
      </trkpt>
      <trkpt lat="46.49701" lon="5.35175">
        <ele>230</ele>
        <time>2022-01-29T14:38:16Z</time>
      </trkpt>
      <trkpt lat="46.49713" lon="5.35236">
        <ele>230.2</ele>
        <time>2022-01-29T14:38:23Z</time>
      </trkpt>
      <trkpt lat="46.49728" lon="5.3531">
        <ele>230.6</ele>
        <time>2022-01-29T14:38:31Z</time>
      </trkpt>
      <trkpt lat="46.49732" lon="5.35362">
        <ele>230</ele>
        <time>2022-01-29T14:38:36Z</time>
      </trkpt>
      <trkpt lat="46.49732" lon="5.35373">
        <ele>229.6</ele>
        <time>2022-01-29T14:38:38Z</time>
      </trkpt>
      <trkpt lat="46.49729" lon="5.35393">
        <ele>229.6</ele>
        <time>2022-01-29T14:38:39Z</time>
      </trkpt>
      <trkpt lat="46.49725" lon="5.3543">
        <ele>229.4</ele>
        <time>2022-01-29T14:38:43Z</time>
      </trkpt>
      <trkpt lat="46.49717" lon="5.35494">
        <ele>229.8</ele>
        <time>2022-01-29T14:38:51Z</time>
      </trkpt>
      <trkpt lat="46.49707" lon="5.35566">
        <ele>230.8</ele>
        <time>2022-01-29T14:39:00Z</time>
      </trkpt>
      <trkpt lat="46.49697" lon="5.35649">
        <ele>231.2</ele>
        <time>2022-01-29T14:39:10Z</time>
      </trkpt>
      <trkpt lat="46.49696" lon="5.35657">
        <ele>231.2</ele>
        <time>2022-01-29T14:39:11Z</time>
      </trkpt>
      <trkpt lat="46.49683" lon="5.35711">
        <ele>231.2</ele>
        <time>2022-01-29T14:39:17Z</time>
      </trkpt>
      <trkpt lat="46.49662" lon="5.35764">
        <ele>230.4</ele>
        <time>2022-01-29T14:39:23Z</time>
      </trkpt>
      <trkpt lat="46.49638" lon="5.35822">
        <ele>229.6</ele>
        <time>2022-01-29T14:39:29Z</time>
      </trkpt>
      <trkpt lat="46.49636" lon="5.35833">
        <ele>229.4</ele>
        <time>2022-01-29T14:39:30Z</time>
      </trkpt>
      <trkpt lat="46.49633" lon="5.35858">
        <ele>228.8</ele>
        <time>2022-01-29T14:39:32Z</time>
      </trkpt>
      <trkpt lat="46.49634" lon="5.35887">
        <ele>228</ele>
        <time>2022-01-29T14:39:34Z</time>
      </trkpt>
      <trkpt lat="46.49636" lon="5.35922">
        <ele>227.4</ele>
        <time>2022-01-29T14:39:37Z</time>
      </trkpt>
      <trkpt lat="46.49637" lon="5.35934">
        <ele>226.8</ele>
        <time>2022-01-29T14:39:38Z</time>
      </trkpt>
      <trkpt lat="46.49641" lon="5.35996">
        <ele>225.8</ele>
        <time>2022-01-29T14:39:43Z</time>
      </trkpt>
      <trkpt lat="46.49643" lon="5.36037">
        <ele>225.4</ele>
        <time>2022-01-29T14:39:47Z</time>
      </trkpt>
      <trkpt lat="46.49649" lon="5.36079">
        <ele>225.2</ele>
        <time>2022-01-29T14:39:51Z</time>
      </trkpt>
      <trkpt lat="46.49651" lon="5.36089">
        <ele>225.2</ele>
        <time>2022-01-29T14:39:52Z</time>
      </trkpt>
      <trkpt lat="46.49657" lon="5.36108">
        <ele>225</ele>
        <time>2022-01-29T14:39:54Z</time>
      </trkpt>
      <trkpt lat="46.49669" lon="5.36133">
        <ele>225</ele>
        <time>2022-01-29T14:39:57Z</time>
      </trkpt>
      <trkpt lat="46.49701" lon="5.36186">
        <ele>225</ele>
        <time>2022-01-29T14:40:05Z</time>
      </trkpt>
      <trkpt lat="46.49722" lon="5.36224">
        <ele>225</ele>
        <time>2022-01-29T14:40:09Z</time>
      </trkpt>
      <trkpt lat="46.49736" lon="5.36255">
        <ele>225.2</ele>
        <time>2022-01-29T14:40:13Z</time>
      </trkpt>
      <trkpt lat="46.49761" lon="5.36313">
        <ele>226</ele>
        <time>2022-01-29T14:40:22Z</time>
      </trkpt>
      <trkpt lat="46.49777" lon="5.36352">
        <ele>227</ele>
        <time>2022-01-29T14:40:27Z</time>
      </trkpt>
      <trkpt lat="46.49785" lon="5.36372">
        <ele>227.6</ele>
        <time>2022-01-29T14:40:30Z</time>
      </trkpt>
      <trkpt lat="46.4979" lon="5.36385">
        <ele>228.2</ele>
        <time>2022-01-29T14:40:32Z</time>
      </trkpt>
      <trkpt lat="46.49805" lon="5.36417">
        <ele>229.4</ele>
        <time>2022-01-29T14:40:37Z</time>
      </trkpt>
      <trkpt lat="46.49808" lon="5.36424">
        <ele>229.4</ele>
        <time>2022-01-29T14:40:38Z</time>
      </trkpt>
      <trkpt lat="46.49839" lon="5.36485">
        <ele>230.4</ele>
        <time>2022-01-29T14:40:48Z</time>
      </trkpt>
      <trkpt lat="46.49869" lon="5.36529">
        <ele>231.4</ele>
        <time>2022-01-29T14:40:56Z</time>
      </trkpt>
      <trkpt lat="46.49884" lon="5.36551">
        <ele>232</ele>
        <time>2022-01-29T14:41:00Z</time>
      </trkpt>
      <trkpt lat="46.49898" lon="5.36573">
        <ele>232.6</ele>
        <time>2022-01-29T14:41:04Z</time>
      </trkpt>
      <trkpt lat="46.49909" lon="5.3659">
        <ele>233</ele>
        <time>2022-01-29T14:41:07Z</time>
      </trkpt>
      <trkpt lat="46.49914" lon="5.36603">
        <ele>233.2</ele>
        <time>2022-01-29T14:41:09Z</time>
      </trkpt>
      <trkpt lat="46.49919" lon="5.36624">
        <ele>233.4</ele>
        <time>2022-01-29T14:41:12Z</time>
      </trkpt>
      <trkpt lat="46.49925" lon="5.36635">
        <ele>233.6</ele>
        <time>2022-01-29T14:41:14Z</time>
      </trkpt>
      <trkpt lat="46.49931" lon="5.36645">
        <ele>234</ele>
        <time>2022-01-29T14:41:16Z</time>
      </trkpt>
      <trkpt lat="46.49935" lon="5.36658">
        <ele>234.2</ele>
        <time>2022-01-29T14:41:18Z</time>
      </trkpt>
      <trkpt lat="46.49942" lon="5.36684">
        <ele>234.4</ele>
        <time>2022-01-29T14:41:23Z</time>
      </trkpt>
      <trkpt lat="46.49943" lon="5.36693">
        <ele>234.4</ele>
        <time>2022-01-29T14:41:28Z</time>
      </trkpt>
      <trkpt lat="46.49943" lon="5.36693">
        <ele>234.4</ele>
        <time>2022-01-29T14:41:29Z</time>
      </trkpt>
      <trkpt lat="46.49943" lon="5.36692">
        <ele>234.4</ele>
        <time>2022-01-29T14:42:22Z</time>
      </trkpt>
      <trkpt lat="46.49941" lon="5.36684">
        <ele>234.4</ele>
        <time>2022-01-29T14:42:24Z</time>
      </trkpt>
      <trkpt lat="46.49937" lon="5.36661">
        <ele>234.4</ele>
        <time>2022-01-29T14:42:28Z</time>
      </trkpt>
      <trkpt lat="46.49929" lon="5.36639">
        <ele>234.4</ele>
        <time>2022-01-29T14:42:32Z</time>
      </trkpt>
      <trkpt lat="46.49926" lon="5.36637">
        <ele>234.4</ele>
        <time>2022-01-29T14:42:33Z</time>
      </trkpt>
      <trkpt lat="46.49917" lon="5.36647">
        <ele>234.4</ele>
        <time>2022-01-29T14:42:36Z</time>
      </trkpt>
      <trkpt lat="46.49903" lon="5.36682">
        <ele>234.4</ele>
        <time>2022-01-29T14:42:41Z</time>
      </trkpt>
      <trkpt lat="46.49897" lon="5.36696">
        <ele>234.6</ele>
        <time>2022-01-29T14:42:43Z</time>
      </trkpt>
      <trkpt lat="46.49882" lon="5.36731">
        <ele>235.4</ele>
        <time>2022-01-29T14:42:48Z</time>
      </trkpt>
      <trkpt lat="46.49868" lon="5.36766">
        <ele>235.8</ele>
        <time>2022-01-29T14:42:53Z</time>
      </trkpt>
      <trkpt lat="46.49861" lon="5.36787">
        <ele>236</ele>
        <time>2022-01-29T14:42:56Z</time>
      </trkpt>
      <trkpt lat="46.49846" lon="5.36835">
        <ele>236.8</ele>
        <time>2022-01-29T14:43:03Z</time>
      </trkpt>
      <trkpt lat="46.49842" lon="5.36848">
        <ele>237.2</ele>
        <time>2022-01-29T14:43:05Z</time>
      </trkpt>
      <trkpt lat="46.49825" lon="5.36902">
        <ele>238</ele>
        <time>2022-01-29T14:43:13Z</time>
      </trkpt>
      <trkpt lat="46.49821" lon="5.36916">
        <ele>238.4</ele>
        <time>2022-01-29T14:43:15Z</time>
      </trkpt>
      <trkpt lat="46.49806" lon="5.36962">
        <ele>239.2</ele>
        <time>2022-01-29T14:43:22Z</time>
      </trkpt>
      <trkpt lat="46.49794" lon="5.37002">
        <ele>239.4</ele>
        <time>2022-01-29T14:43:28Z</time>
      </trkpt>
      <trkpt lat="46.49772" lon="5.37076">
        <ele>240.2</ele>
        <time>2022-01-29T14:43:39Z</time>
      </trkpt>
      <trkpt lat="46.49767" lon="5.37089">
        <ele>240.6</ele>
        <time>2022-01-29T14:43:41Z</time>
      </trkpt>
      <trkpt lat="46.49759" lon="5.37115">
        <ele>241</ele>
        <time>2022-01-29T14:43:45Z</time>
      </trkpt>
      <trkpt lat="46.49753" lon="5.37135">
        <ele>241.2</ele>
        <time>2022-01-29T14:43:48Z</time>
      </trkpt>
      <trkpt lat="46.49745" lon="5.37161">
        <ele>241.8</ele>
        <time>2022-01-29T14:43:52Z</time>
      </trkpt>
      <trkpt lat="46.49739" lon="5.3718">
        <ele>242.2</ele>
        <time>2022-01-29T14:43:55Z</time>
      </trkpt>
      <trkpt lat="46.49726" lon="5.37226">
        <ele>243</ele>
        <time>2022-01-29T14:44:02Z</time>
      </trkpt>
      <trkpt lat="46.49722" lon="5.37239">
        <ele>243.2</ele>
        <time>2022-01-29T14:44:04Z</time>
      </trkpt>
      <trkpt lat="46.49713" lon="5.37273">
        <ele>243.8</ele>
        <time>2022-01-29T14:44:09Z</time>
      </trkpt>
      <trkpt lat="46.49698" lon="5.37318">
        <ele>244.4</ele>
        <time>2022-01-29T14:44:16Z</time>
      </trkpt>
      <trkpt lat="46.49696" lon="5.37324">
        <ele>244.6</ele>
        <time>2022-01-29T14:44:17Z</time>
      </trkpt>
      <trkpt lat="46.49688" lon="5.37353">
        <ele>245.6</ele>
        <time>2022-01-29T14:44:22Z</time>
      </trkpt>
      <trkpt lat="46.4968" lon="5.37379">
        <ele>246.6</ele>
        <time>2022-01-29T14:44:27Z</time>
      </trkpt>
      <trkpt lat="46.49671" lon="5.3741">
        <ele>247.6</ele>
        <time>2022-01-29T14:44:33Z</time>
      </trkpt>
      <trkpt lat="46.49664" lon="5.37431">
        <ele>248.8</ele>
        <time>2022-01-29T14:44:37Z</time>
      </trkpt>
      <trkpt lat="46.49662" lon="5.37436">
        <ele>249</ele>
        <time>2022-01-29T14:44:38Z</time>
      </trkpt>
      <trkpt lat="46.4965" lon="5.37467">
        <ele>250.2</ele>
        <time>2022-01-29T14:44:44Z</time>
      </trkpt>
      <trkpt lat="46.49632" lon="5.37489">
        <ele>251.2</ele>
        <time>2022-01-29T14:44:50Z</time>
      </trkpt>
      <trkpt lat="46.49629" lon="5.37492">
        <ele>251.4</ele>
        <time>2022-01-29T14:44:51Z</time>
      </trkpt>
      <trkpt lat="46.49616" lon="5.37503">
        <ele>252.2</ele>
        <time>2022-01-29T14:44:55Z</time>
      </trkpt>
      <trkpt lat="46.49603" lon="5.37514">
        <ele>253.4</ele>
        <time>2022-01-29T14:44:59Z</time>
      </trkpt>
      <trkpt lat="46.49586" lon="5.37528">
        <ele>254.4</ele>
        <time>2022-01-29T14:45:04Z</time>
      </trkpt>
      <trkpt lat="46.49579" lon="5.37534">
        <ele>254.8</ele>
        <time>2022-01-29T14:45:06Z</time>
      </trkpt>
      <trkpt lat="46.49573" lon="5.3754">
        <ele>255.6</ele>
        <time>2022-01-29T14:45:08Z</time>
      </trkpt>
      <trkpt lat="46.49549" lon="5.37559">
        <ele>256.8</ele>
        <time>2022-01-29T14:45:14Z</time>
      </trkpt>
      <trkpt lat="46.49533" lon="5.37573">
        <ele>257.8</ele>
        <time>2022-01-29T14:45:18Z</time>
      </trkpt>
      <trkpt lat="46.4951" lon="5.37594">
        <ele>258.8</ele>
        <time>2022-01-29T14:45:24Z</time>
      </trkpt>
      <trkpt lat="46.49494" lon="5.3761">
        <ele>259.2</ele>
        <time>2022-01-29T14:45:28Z</time>
      </trkpt>
      <trkpt lat="46.49481" lon="5.37617">
        <ele>259.4</ele>
        <time>2022-01-29T14:45:31Z</time>
      </trkpt>
      <trkpt lat="46.49474" lon="5.37624">
        <ele>259.8</ele>
        <time>2022-01-29T14:45:33Z</time>
      </trkpt>
      <trkpt lat="46.49456" lon="5.37639">
        <ele>260.6</ele>
        <time>2022-01-29T14:45:38Z</time>
      </trkpt>
      <trkpt lat="46.49449" lon="5.37644">
        <ele>261</ele>
        <time>2022-01-29T14:45:40Z</time>
      </trkpt>
      <trkpt lat="46.49433" lon="5.3766">
        <ele>262</ele>
        <time>2022-01-29T14:45:45Z</time>
      </trkpt>
      <trkpt lat="46.4943" lon="5.37663">
        <ele>262.2</ele>
        <time>2022-01-29T14:45:46Z</time>
      </trkpt>
      <trkpt lat="46.49418" lon="5.37676">
        <ele>263</ele>
        <time>2022-01-29T14:45:50Z</time>
      </trkpt>
      <trkpt lat="46.49408" lon="5.37692">
        <ele>264</ele>
        <time>2022-01-29T14:45:54Z</time>
      </trkpt>
      <trkpt lat="46.49405" lon="5.37697">
        <ele>264.2</ele>
        <time>2022-01-29T14:45:55Z</time>
      </trkpt>
      <trkpt lat="46.49395" lon="5.37721">
        <ele>265.4</ele>
        <time>2022-01-29T14:46:00Z</time>
      </trkpt>
      <trkpt lat="46.49389" lon="5.37736">
        <ele>266</ele>
        <time>2022-01-29T14:46:03Z</time>
      </trkpt>
      <trkpt lat="46.49385" lon="5.37747">
        <ele>266.6</ele>
        <time>2022-01-29T14:46:05Z</time>
      </trkpt>
      <trkpt lat="46.49376" lon="5.37775">
        <ele>267.4</ele>
        <time>2022-01-29T14:46:10Z</time>
      </trkpt>
      <trkpt lat="46.49374" lon="5.37781">
        <ele>267.6</ele>
        <time>2022-01-29T14:46:11Z</time>
      </trkpt>
      <trkpt lat="46.49359" lon="5.37825">
        <ele>268.6</ele>
        <time>2022-01-29T14:46:18Z</time>
      </trkpt>
      <trkpt lat="46.49357" lon="5.37832">
        <ele>268.6</ele>
        <time>2022-01-29T14:46:19Z</time>
      </trkpt>
      <trkpt lat="46.49342" lon="5.37878">
        <ele>268.8</ele>
        <time>2022-01-29T14:46:25Z</time>
      </trkpt>
      <trkpt lat="46.49329" lon="5.37937">
        <ele>268.4</ele>
        <time>2022-01-29T14:46:31Z</time>
      </trkpt>
      <trkpt lat="46.49319" lon="5.37991">
        <ele>267.6</ele>
        <time>2022-01-29T14:46:36Z</time>
      </trkpt>
      <trkpt lat="46.49313" lon="5.38021">
        <ele>267.2</ele>
        <time>2022-01-29T14:46:39Z</time>
      </trkpt>
      <trkpt lat="46.49303" lon="5.38077">
        <ele>267.6</ele>
        <time>2022-01-29T14:46:45Z</time>
      </trkpt>
      <trkpt lat="46.49289" lon="5.38153">
        <ele>268.4</ele>
        <time>2022-01-29T14:46:54Z</time>
      </trkpt>
      <trkpt lat="46.49286" lon="5.38169">
        <ele>268.6</ele>
        <time>2022-01-29T14:46:56Z</time>
      </trkpt>
      <trkpt lat="46.49284" lon="5.38184">
        <ele>268.8</ele>
        <time>2022-01-29T14:46:58Z</time>
      </trkpt>
      <trkpt lat="46.4928" lon="5.38199">
        <ele>269.2</ele>
        <time>2022-01-29T14:47:00Z</time>
      </trkpt>
      <trkpt lat="46.49274" lon="5.38229">
        <ele>269.8</ele>
        <time>2022-01-29T14:47:04Z</time>
      </trkpt>
      <trkpt lat="46.49271" lon="5.38245">
        <ele>270.2</ele>
        <time>2022-01-29T14:47:06Z</time>
      </trkpt>
      <trkpt lat="46.49265" lon="5.38275">
        <ele>270.8</ele>
        <time>2022-01-29T14:47:10Z</time>
      </trkpt>
      <trkpt lat="46.49256" lon="5.3832">
        <ele>272</ele>
        <time>2022-01-29T14:47:16Z</time>
      </trkpt>
      <trkpt lat="46.49254" lon="5.38327">
        <ele>272</ele>
        <time>2022-01-29T14:47:17Z</time>
      </trkpt>
      <trkpt lat="46.49251" lon="5.38333">
        <ele>272.2</ele>
        <time>2022-01-29T14:47:18Z</time>
      </trkpt>
      <trkpt lat="46.49241" lon="5.38339">
        <ele>272.6</ele>
        <time>2022-01-29T14:47:20Z</time>
      </trkpt>
      <trkpt lat="46.49231" lon="5.38336">
        <ele>273</ele>
        <time>2022-01-29T14:47:22Z</time>
      </trkpt>
      <trkpt lat="46.49225" lon="5.38334">
        <ele>273.2</ele>
        <time>2022-01-29T14:47:23Z</time>
      </trkpt>
      <trkpt lat="46.49208" lon="5.38323">
        <ele>273.4</ele>
        <time>2022-01-29T14:47:26Z</time>
      </trkpt>
      <trkpt lat="46.49196" lon="5.38317">
        <ele>273.4</ele>
        <time>2022-01-29T14:47:28Z</time>
      </trkpt>
      <trkpt lat="46.4915" lon="5.383">
        <ele>273</ele>
        <time>2022-01-29T14:47:35Z</time>
      </trkpt>
      <trkpt lat="46.4911" lon="5.38288">
        <ele>271.8</ele>
        <time>2022-01-29T14:47:41Z</time>
      </trkpt>
      <trkpt lat="46.49104" lon="5.38286">
        <ele>271.8</ele>
        <time>2022-01-29T14:47:42Z</time>
      </trkpt>
      <trkpt lat="46.49099" lon="5.38282">
        <ele>271.4</ele>
        <time>2022-01-29T14:47:43Z</time>
      </trkpt>
      <trkpt lat="46.49094" lon="5.38276">
        <ele>271.4</ele>
        <time>2022-01-29T14:47:44Z</time>
      </trkpt>
      <trkpt lat="46.49086" lon="5.38259">
        <ele>270.8</ele>
        <time>2022-01-29T14:47:46Z</time>
      </trkpt>
      <trkpt lat="46.49073" lon="5.38217">
        <ele>269.8</ele>
        <time>2022-01-29T14:47:50Z</time>
      </trkpt>
      <trkpt lat="46.49067" lon="5.38194">
        <ele>269.4</ele>
        <time>2022-01-29T14:47:52Z</time>
      </trkpt>
      <trkpt lat="46.4905" lon="5.38137">
        <ele>268.6</ele>
        <time>2022-01-29T14:47:57Z</time>
      </trkpt>
      <trkpt lat="46.49039" lon="5.38103">
        <ele>267.6</ele>
        <time>2022-01-29T14:48:00Z</time>
      </trkpt>
      <trkpt lat="46.49036" lon="5.38092">
        <ele>267.2</ele>
        <time>2022-01-29T14:48:01Z</time>
      </trkpt>
      <trkpt lat="46.49018" lon="5.38034">
        <ele>266</ele>
        <time>2022-01-29T14:48:06Z</time>
      </trkpt>
      <trkpt lat="46.49012" lon="5.38012">
        <ele>265.2</ele>
        <time>2022-01-29T14:48:08Z</time>
      </trkpt>
      <trkpt lat="46.49008" lon="5.38">
        <ele>264.8</ele>
        <time>2022-01-29T14:48:09Z</time>
      </trkpt>
      <trkpt lat="46.48998" lon="5.37965">
        <ele>263.6</ele>
        <time>2022-01-29T14:48:12Z</time>
      </trkpt>
      <trkpt lat="46.48984" lon="5.3792">
        <ele>262.6</ele>
        <time>2022-01-29T14:48:16Z</time>
      </trkpt>
      <trkpt lat="46.48978" lon="5.37898">
        <ele>262.2</ele>
        <time>2022-01-29T14:48:18Z</time>
      </trkpt>
      <trkpt lat="46.48971" lon="5.37875">
        <ele>261.6</ele>
        <time>2022-01-29T14:48:20Z</time>
      </trkpt>
      <trkpt lat="46.48957" lon="5.37833">
        <ele>260.4</ele>
        <time>2022-01-29T14:48:24Z</time>
      </trkpt>
      <trkpt lat="46.48945" lon="5.37791">
        <ele>260</ele>
        <time>2022-01-29T14:48:28Z</time>
      </trkpt>
      <trkpt lat="46.48923" lon="5.3772">
        <ele>259.2</ele>
        <time>2022-01-29T14:48:35Z</time>
      </trkpt>
      <trkpt lat="46.4892" lon="5.37711">
        <ele>259.2</ele>
        <time>2022-01-29T14:48:36Z</time>
      </trkpt>
      <trkpt lat="46.48905" lon="5.37661">
        <ele>259.2</ele>
        <time>2022-01-29T14:48:42Z</time>
      </trkpt>
      <trkpt lat="46.48897" lon="5.37638">
        <ele>259.4</ele>
        <time>2022-01-29T14:48:45Z</time>
      </trkpt>
      <trkpt lat="46.48888" lon="5.37629">
        <ele>259.4</ele>
        <time>2022-01-29T14:48:47Z</time>
      </trkpt>
      <trkpt lat="46.48877" lon="5.37626">
        <ele>259.6</ele>
        <time>2022-01-29T14:48:49Z</time>
      </trkpt>
      <trkpt lat="46.48872" lon="5.37627">
        <ele>259.8</ele>
        <time>2022-01-29T14:48:50Z</time>
      </trkpt>
      <trkpt lat="46.48867" lon="5.37626">
        <ele>259.8</ele>
        <time>2022-01-29T14:48:51Z</time>
      </trkpt>
      <trkpt lat="46.48859" lon="5.37618">
        <ele>259.8</ele>
        <time>2022-01-29T14:48:53Z</time>
      </trkpt>
      <trkpt lat="46.48855" lon="5.37606">
        <ele>260</ele>
        <time>2022-01-29T14:48:55Z</time>
      </trkpt>
      <trkpt lat="46.48854" lon="5.37599">
        <ele>260</ele>
        <time>2022-01-29T14:48:56Z</time>
      </trkpt>
      <trkpt lat="46.48851" lon="5.37578">
        <ele>260.6</ele>
        <time>2022-01-29T14:48:59Z</time>
      </trkpt>
      <trkpt lat="46.48849" lon="5.37571">
        <ele>260.8</ele>
        <time>2022-01-29T14:49:00Z</time>
      </trkpt>
      <trkpt lat="46.48848" lon="5.37565">
        <ele>261</ele>
        <time>2022-01-29T14:49:01Z</time>
      </trkpt>
      <trkpt lat="46.48841" lon="5.37546">
        <ele>261.6</ele>
        <time>2022-01-29T14:49:04Z</time>
      </trkpt>
      <trkpt lat="46.48833" lon="5.37528">
        <ele>262</ele>
        <time>2022-01-29T14:49:07Z</time>
      </trkpt>
      <trkpt lat="46.4883" lon="5.37522">
        <ele>262.2</ele>
        <time>2022-01-29T14:49:08Z</time>
      </trkpt>
      <trkpt lat="46.48818" lon="5.37502">
        <ele>262.6</ele>
        <time>2022-01-29T14:49:12Z</time>
      </trkpt>
      <trkpt lat="46.48801" lon="5.37479">
        <ele>263.8</ele>
        <time>2022-01-29T14:49:17Z</time>
      </trkpt>
      <trkpt lat="46.48773" lon="5.3744">
        <ele>264.4</ele>
        <time>2022-01-29T14:49:24Z</time>
      </trkpt>
      <trkpt lat="46.4874" lon="5.37392">
        <ele>263.8</ele>
        <time>2022-01-29T14:49:31Z</time>
      </trkpt>
      <trkpt lat="46.48701" lon="5.37336">
        <ele>262.6</ele>
        <time>2022-01-29T14:49:39Z</time>
      </trkpt>
      <trkpt lat="46.48696" lon="5.37329">
        <ele>262.4</ele>
        <time>2022-01-29T14:49:40Z</time>
      </trkpt>
      <trkpt lat="46.48667" lon="5.37292">
        <ele>261.6</ele>
        <time>2022-01-29T14:49:46Z</time>
      </trkpt>
      <trkpt lat="46.48658" lon="5.37281">
        <ele>261.6</ele>
        <time>2022-01-29T14:49:48Z</time>
      </trkpt>
    </trkseg>
  </trk>
</gpx>